<?xml version="1.0" encoding="UTF-8" standalone="no" ?>
<gpx xmlns="http://www.topografix.com/GPX/1/1" xmlns:xsi="http://www.w3.org/2001/XMLSchema-instance" xsi:schemaLocation="http://www.topografix.com/GPX/1/1 http://www.topografix.com/GPX/1/1/gpx.xsd" version="1.1" creator="VisuGPX - https://www.visugpx.com">
  <metadata>
    <name>Champagné Saint Hilaire 86</name>
    <desc><![CDATA[Boucle de 13 Km au départ de Champagné Saint Hilaire (86)]]></desc>
  </metadata>
  <trk>
    <name><![CDATA[Champagné Saint Hilaire 86_1]]></name>
    <extensions>
      <line xmlns="http://www.topografix.com/GPX/gpx_style/0/2">
        <color>0000FF</color>
        <width>4</width>
      </line>
    </extensions>
    <trkseg>
      <trkpt lat="46.31903" lon="0.32647">
        <ele>176.32134956121</ele>
        <time>2021-03-07T07:40:46Z</time>
      </trkpt>
      <trkpt lat="46.31904" lon="0.32646">
        <ele>176.33533722814</ele>
        <time>2021-03-07T07:40:47Z</time>
      </trkpt>
      <trkpt lat="46.31904" lon="0.32647">
        <ele>176.39856958948</ele>
        <time>2021-03-07T07:40:50Z</time>
      </trkpt>
      <trkpt lat="46.31902" lon="0.32649">
        <ele>176.39804582857</ele>
        <time>2021-03-07T07:41:01Z</time>
      </trkpt>
      <trkpt lat="46.31902" lon="0.32649">
        <ele>176.39804582857</ele>
        <time>2021-03-07T07:41:02Z</time>
      </trkpt>
      <trkpt lat="46.31901" lon="0.32652">
        <ele>176.52237557527</ele>
        <time>2021-03-07T07:41:04Z</time>
      </trkpt>
      <trkpt lat="46.31899" lon="0.32652">
        <ele>176.42902529053</ele>
        <time>2021-03-07T07:41:14Z</time>
      </trkpt>
      <trkpt lat="46.31898" lon="0.32651">
        <ele>176.41162072588</ele>
        <time>2021-03-07T07:41:26Z</time>
      </trkpt>
      <trkpt lat="46.31899" lon="0.32653">
        <ele>176.39915775321</ele>
        <time>2021-03-07T07:41:48Z</time>
      </trkpt>
      <trkpt lat="46.319" lon="0.32654">
        <ele>176.46269858908</ele>
        <time>2021-03-07T07:42:05Z</time>
      </trkpt>
      <trkpt lat="46.31902" lon="0.32655">
        <ele>176.4786796961</ele>
        <time>2021-03-07T07:42:29Z</time>
      </trkpt>
      <trkpt lat="46.31904" lon="0.32653">
        <ele>176.52295156848</ele>
        <time>2021-03-07T07:43:48Z</time>
      </trkpt>
      <trkpt lat="46.31904" lon="0.32656">
        <ele>176.49696543813</ele>
        <time>2021-03-07T07:44:08Z</time>
      </trkpt>
      <trkpt lat="46.31902" lon="0.32657">
        <ele>176.52156427596</ele>
        <time>2021-03-07T07:44:14Z</time>
      </trkpt>
      <trkpt lat="46.31902" lon="0.32654">
        <ele>176.43769424688</ele>
        <time>2021-03-07T07:44:35Z</time>
      </trkpt>
      <trkpt lat="46.31904" lon="0.32654">
        <ele>176.7200732464</ele>
        <time>2021-03-07T07:44:41Z</time>
      </trkpt>
      <trkpt lat="46.31902" lon="0.32656">
        <ele>176.45287787262</ele>
        <time>2021-03-07T07:44:52Z</time>
      </trkpt>
      <trkpt lat="46.31904" lon="0.32655">
        <ele>176.57158293389</ele>
        <time>2021-03-07T07:45:09Z</time>
      </trkpt>
      <trkpt lat="46.31903" lon="0.32653">
        <ele>176.61657502316</ele>
        <time>2021-03-07T07:46:02Z</time>
      </trkpt>
      <trkpt lat="46.31901" lon="0.32655">
        <ele>176.32339872699</ele>
        <time>2021-03-07T07:46:42Z</time>
      </trkpt>
      <trkpt lat="46.31902" lon="0.32658">
        <ele>176.41394721903</ele>
        <time>2021-03-07T07:47:14Z</time>
      </trkpt>
      <trkpt lat="46.31901" lon="0.32656">
        <ele>176.44324266352</ele>
        <time>2021-03-07T07:48:11Z</time>
      </trkpt>
      <trkpt lat="46.31899" lon="0.32656">
        <ele>176.24480353482</ele>
        <time>2021-03-07T07:48:20Z</time>
      </trkpt>
      <trkpt lat="46.31901" lon="0.32655">
        <ele>176.24389464222</ele>
        <time>2021-03-07T07:48:47Z</time>
      </trkpt>
      <trkpt lat="46.31902" lon="0.32657">
        <ele>176.81529848743</ele>
        <time>2021-03-07T07:49:26Z</time>
      </trkpt>
      <trkpt lat="46.319" lon="0.32657">
        <ele>176.17393382732</ele>
        <time>2021-03-07T07:49:36Z</time>
      </trkpt>
      <trkpt lat="46.31902" lon="0.32658">
        <ele>176.28922051657</ele>
        <time>2021-03-07T07:50:05Z</time>
      </trkpt>
      <trkpt lat="46.319" lon="0.32659">
        <ele>176.48251262773</ele>
        <time>2021-03-07T07:50:53Z</time>
      </trkpt>
      <trkpt lat="46.31902" lon="0.32657">
        <ele>176.33856341708</ele>
        <time>2021-03-07T07:51:02Z</time>
      </trkpt>
      <trkpt lat="46.31903" lon="0.32655">
        <ele>176.10879056621</ele>
        <time>2021-03-07T07:52:07Z</time>
      </trkpt>
      <trkpt lat="46.31904" lon="0.32658">
        <ele>176.1285852911</ele>
        <time>2021-03-07T07:52:34Z</time>
      </trkpt>
      <trkpt lat="46.31904" lon="0.32654">
        <ele>176.21796660963</ele>
        <time>2021-03-07T07:53:24Z</time>
      </trkpt>
      <trkpt lat="46.31905" lon="0.32652">
        <ele>176.56926423684</ele>
        <time>2021-03-07T07:53:26Z</time>
      </trkpt>
      <trkpt lat="46.31903" lon="0.32648">
        <ele>176.46372311469</ele>
        <time>2021-03-07T07:53:29Z</time>
      </trkpt>
      <trkpt lat="46.31904" lon="0.32645">
        <ele>176.14808491524</ele>
        <time>2021-03-07T07:53:32Z</time>
      </trkpt>
      <trkpt lat="46.31905" lon="0.32642">
        <ele>176.36256760266</ele>
        <time>2021-03-07T07:53:34Z</time>
      </trkpt>
      <trkpt lat="46.31903" lon="0.32639">
        <ele>175.8294623727</ele>
        <time>2021-03-07T07:53:37Z</time>
      </trkpt>
      <trkpt lat="46.31901" lon="0.32637">
        <ele>176.44995808695</ele>
        <time>2021-03-07T07:53:39Z</time>
      </trkpt>
      <trkpt lat="46.31899" lon="0.32637">
        <ele>176.18644395005</ele>
        <time>2021-03-07T07:53:42Z</time>
      </trkpt>
      <trkpt lat="46.31897" lon="0.32636">
        <ele>176.44681813475</ele>
        <time>2021-03-07T07:53:43Z</time>
      </trkpt>
      <trkpt lat="46.31895" lon="0.32635">
        <ele>176.36134161055</ele>
        <time>2021-03-07T07:53:45Z</time>
      </trkpt>
      <trkpt lat="46.31892" lon="0.32636">
        <ele>176.18268586881</ele>
        <time>2021-03-07T07:53:48Z</time>
      </trkpt>
      <trkpt lat="46.3189" lon="0.32635">
        <ele>176.2403611606</ele>
        <time>2021-03-07T07:53:50Z</time>
      </trkpt>
      <trkpt lat="46.31887" lon="0.32637">
        <ele>176.13010943402</ele>
        <time>2021-03-07T07:53:52Z</time>
      </trkpt>
      <trkpt lat="46.31884" lon="0.32638">
        <ele>176.36487487331</ele>
        <time>2021-03-07T07:53:55Z</time>
      </trkpt>
      <trkpt lat="46.31882" lon="0.32638">
        <ele>176.27199596073</ele>
        <time>2021-03-07T07:53:57Z</time>
      </trkpt>
      <trkpt lat="46.31879" lon="0.32639">
        <ele>176.19223512709</ele>
        <time>2021-03-07T07:53:59Z</time>
      </trkpt>
      <trkpt lat="46.31876" lon="0.3264">
        <ele>176.04360193666</ele>
        <time>2021-03-07T07:54:01Z</time>
      </trkpt>
      <trkpt lat="46.31874" lon="0.32641">
        <ele>176.20465856977</ele>
        <time>2021-03-07T07:54:03Z</time>
      </trkpt>
      <trkpt lat="46.31872" lon="0.32642">
        <ele>176.28338929545</ele>
        <time>2021-03-07T07:54:05Z</time>
      </trkpt>
      <trkpt lat="46.3187" lon="0.32643">
        <ele>176.37130175531</ele>
        <time>2021-03-07T07:54:07Z</time>
      </trkpt>
      <trkpt lat="46.31868" lon="0.32645">
        <ele>176.60888263397</ele>
        <time>2021-03-07T07:54:09Z</time>
      </trkpt>
      <trkpt lat="46.31865" lon="0.32645">
        <ele>176.37819504365</ele>
        <time>2021-03-07T07:54:12Z</time>
      </trkpt>
      <trkpt lat="46.31863" lon="0.32646">
        <ele>175.9144130731</ele>
        <time>2021-03-07T07:54:13Z</time>
      </trkpt>
      <trkpt lat="46.31861" lon="0.32645">
        <ele>176.436465743</ele>
        <time>2021-03-07T07:54:14Z</time>
      </trkpt>
      <trkpt lat="46.31858" lon="0.32644">
        <ele>176.24913633894</ele>
        <time>2021-03-07T07:54:16Z</time>
      </trkpt>
      <trkpt lat="46.31857" lon="0.32642">
        <ele>176.3393236408</ele>
        <time>2021-03-07T07:54:18Z</time>
      </trkpt>
      <trkpt lat="46.31854" lon="0.3264">
        <ele>175.26768220216</ele>
        <time>2021-03-07T07:54:20Z</time>
      </trkpt>
      <trkpt lat="46.31853" lon="0.32639">
        <ele>175.917755723</ele>
        <time>2021-03-07T07:54:21Z</time>
      </trkpt>
      <trkpt lat="46.3185" lon="0.32637">
        <ele>176.0231177751</ele>
        <time>2021-03-07T07:54:23Z</time>
      </trkpt>
      <trkpt lat="46.31848" lon="0.32636">
        <ele>175.75440253969</ele>
        <time>2021-03-07T07:54:25Z</time>
      </trkpt>
      <trkpt lat="46.31846" lon="0.32636">
        <ele>175.64987545926</ele>
        <time>2021-03-07T07:54:28Z</time>
      </trkpt>
      <trkpt lat="46.31843" lon="0.32635">
        <ele>175.08944797516</ele>
        <time>2021-03-07T07:54:30Z</time>
      </trkpt>
      <trkpt lat="46.31839" lon="0.32634">
        <ele>175.41065015737</ele>
        <time>2021-03-07T07:54:32Z</time>
      </trkpt>
      <trkpt lat="46.31837" lon="0.32634">
        <ele>175.48034559749</ele>
        <time>2021-03-07T07:54:34Z</time>
      </trkpt>
      <trkpt lat="46.31835" lon="0.32633">
        <ele>175.23069253843</ele>
        <time>2021-03-07T07:54:36Z</time>
      </trkpt>
      <trkpt lat="46.31832" lon="0.32631">
        <ele>175.51566318702</ele>
        <time>2021-03-07T07:54:38Z</time>
      </trkpt>
      <trkpt lat="46.3183" lon="0.32632">
        <ele>175.22189256921</ele>
        <time>2021-03-07T07:54:40Z</time>
      </trkpt>
      <trkpt lat="46.31827" lon="0.3263">
        <ele>174.9828007482</ele>
        <time>2021-03-07T07:54:42Z</time>
      </trkpt>
      <trkpt lat="46.31825" lon="0.32631">
        <ele>175.08087157831</ele>
        <time>2021-03-07T07:54:44Z</time>
      </trkpt>
      <trkpt lat="46.31822" lon="0.32631">
        <ele>174.95963152312</ele>
        <time>2021-03-07T07:54:46Z</time>
      </trkpt>
      <trkpt lat="46.31821" lon="0.3263">
        <ele>174.97346168105</ele>
        <time>2021-03-07T07:54:47Z</time>
      </trkpt>
      <trkpt lat="46.31818" lon="0.3263">
        <ele>174.81871765386</ele>
        <time>2021-03-07T07:54:49Z</time>
      </trkpt>
      <trkpt lat="46.31815" lon="0.32631">
        <ele>174.80121060554</ele>
        <time>2021-03-07T07:54:51Z</time>
      </trkpt>
      <trkpt lat="46.31813" lon="0.3263">
        <ele>174.99317507446</ele>
        <time>2021-03-07T07:54:53Z</time>
      </trkpt>
      <trkpt lat="46.3181" lon="0.32629">
        <ele>175.19618063886</ele>
        <time>2021-03-07T07:54:55Z</time>
      </trkpt>
      <trkpt lat="46.31807" lon="0.3263">
        <ele>175.40967363305</ele>
        <time>2021-03-07T07:54:57Z</time>
      </trkpt>
      <trkpt lat="46.31805" lon="0.3263">
        <ele>174.88271811884</ele>
        <time>2021-03-07T07:54:59Z</time>
      </trkpt>
      <trkpt lat="46.31802" lon="0.32631">
        <ele>175.12283519562</ele>
        <time>2021-03-07T07:55:01Z</time>
      </trkpt>
      <trkpt lat="46.318" lon="0.32631">
        <ele>174.69559450168</ele>
        <time>2021-03-07T07:55:03Z</time>
      </trkpt>
      <trkpt lat="46.31798" lon="0.32631">
        <ele>175.01736999769</ele>
        <time>2021-03-07T07:55:05Z</time>
      </trkpt>
      <trkpt lat="46.31795" lon="0.32631">
        <ele>174.98538310919</ele>
        <time>2021-03-07T07:55:07Z</time>
      </trkpt>
      <trkpt lat="46.31792" lon="0.32631">
        <ele>174.44922218751</ele>
        <time>2021-03-07T07:55:11Z</time>
      </trkpt>
      <trkpt lat="46.31789" lon="0.32632">
        <ele>174.49628598336</ele>
        <time>2021-03-07T07:55:13Z</time>
      </trkpt>
      <trkpt lat="46.31786" lon="0.32632">
        <ele>174.41298089828</ele>
        <time>2021-03-07T07:55:15Z</time>
      </trkpt>
      <trkpt lat="46.31783" lon="0.32632">
        <ele>173.89706975594</ele>
        <time>2021-03-07T07:55:17Z</time>
      </trkpt>
      <trkpt lat="46.3178" lon="0.32631">
        <ele>174.52757231891</ele>
        <time>2021-03-07T07:55:20Z</time>
      </trkpt>
      <trkpt lat="46.31778" lon="0.32631">
        <ele>174.31908773724</ele>
        <time>2021-03-07T07:55:22Z</time>
      </trkpt>
      <trkpt lat="46.31775" lon="0.32631">
        <ele>174.19385063928</ele>
        <time>2021-03-07T07:55:24Z</time>
      </trkpt>
      <trkpt lat="46.31772" lon="0.3263">
        <ele>173.81927459408</ele>
        <time>2021-03-07T07:55:26Z</time>
      </trkpt>
      <trkpt lat="46.31769" lon="0.3263">
        <ele>174.22540617641</ele>
        <time>2021-03-07T07:55:28Z</time>
      </trkpt>
      <trkpt lat="46.31766" lon="0.32631">
        <ele>173.86620978732</ele>
        <time>2021-03-07T07:55:30Z</time>
      </trkpt>
      <trkpt lat="46.31764" lon="0.3263">
        <ele>173.78152602073</ele>
        <time>2021-03-07T07:55:32Z</time>
      </trkpt>
      <trkpt lat="46.31761" lon="0.32629">
        <ele>173.43099009432</ele>
        <time>2021-03-07T07:55:34Z</time>
      </trkpt>
      <trkpt lat="46.31759" lon="0.32628">
        <ele>173.59273211565</ele>
        <time>2021-03-07T07:55:36Z</time>
      </trkpt>
      <trkpt lat="46.31758" lon="0.32628">
        <ele>173.54157219734</ele>
        <time>2021-03-07T07:55:37Z</time>
      </trkpt>
      <trkpt lat="46.31756" lon="0.32628">
        <ele>173.36635233928</ele>
        <time>2021-03-07T07:55:39Z</time>
      </trkpt>
      <trkpt lat="46.31753" lon="0.32628">
        <ele>173.58340700623</ele>
        <time>2021-03-07T07:55:41Z</time>
      </trkpt>
      <trkpt lat="46.3175" lon="0.32626">
        <ele>173.22280303668</ele>
        <time>2021-03-07T07:55:43Z</time>
      </trkpt>
      <trkpt lat="46.31748" lon="0.32625">
        <ele>173.38856615871</ele>
        <time>2021-03-07T07:55:45Z</time>
      </trkpt>
      <trkpt lat="46.31746" lon="0.32626">
        <ele>172.92028190475</ele>
        <time>2021-03-07T07:55:47Z</time>
      </trkpt>
      <trkpt lat="46.31743" lon="0.32625">
        <ele>172.79216652084</ele>
        <time>2021-03-07T07:55:49Z</time>
      </trkpt>
      <trkpt lat="46.31741" lon="0.32624">
        <ele>173.08279436454</ele>
        <time>2021-03-07T07:55:51Z</time>
      </trkpt>
      <trkpt lat="46.31739" lon="0.32624">
        <ele>173.27454442251</ele>
        <time>2021-03-07T07:55:53Z</time>
      </trkpt>
      <trkpt lat="46.31735" lon="0.32624">
        <ele>172.84793825634</ele>
        <time>2021-03-07T07:55:55Z</time>
      </trkpt>
      <trkpt lat="46.31732" lon="0.32624">
        <ele>172.76017695479</ele>
        <time>2021-03-07T07:55:58Z</time>
      </trkpt>
      <trkpt lat="46.31729" lon="0.32623">
        <ele>172.82499139942</ele>
        <time>2021-03-07T07:56:00Z</time>
      </trkpt>
      <trkpt lat="46.31727" lon="0.32623">
        <ele>172.50172248855</ele>
        <time>2021-03-07T07:56:02Z</time>
      </trkpt>
      <trkpt lat="46.31725" lon="0.32623">
        <ele>172.43552422617</ele>
        <time>2021-03-07T07:56:04Z</time>
      </trkpt>
      <trkpt lat="46.31722" lon="0.32622">
        <ele>172.65839215927</ele>
        <time>2021-03-07T07:56:06Z</time>
      </trkpt>
      <trkpt lat="46.3172" lon="0.32622">
        <ele>172.54089114815</ele>
        <time>2021-03-07T07:56:08Z</time>
      </trkpt>
      <trkpt lat="46.31717" lon="0.32622">
        <ele>172.53780113067</ele>
        <time>2021-03-07T07:56:10Z</time>
      </trkpt>
      <trkpt lat="46.31715" lon="0.32622">
        <ele>172.65439839195</ele>
        <time>2021-03-07T07:56:11Z</time>
      </trkpt>
      <trkpt lat="46.31713" lon="0.32622">
        <ele>172.63347100466</ele>
        <time>2021-03-07T07:56:13Z</time>
      </trkpt>
      <trkpt lat="46.3171" lon="0.32622">
        <ele>172.66415847652</ele>
        <time>2021-03-07T07:56:15Z</time>
      </trkpt>
      <trkpt lat="46.31707" lon="0.32622">
        <ele>172.4260531785</ele>
        <time>2021-03-07T07:56:17Z</time>
      </trkpt>
      <trkpt lat="46.31705" lon="0.32623">
        <ele>172.5077731749</ele>
        <time>2021-03-07T07:56:18Z</time>
      </trkpt>
      <trkpt lat="46.31703" lon="0.32623">
        <ele>172.44107571431</ele>
        <time>2021-03-07T07:56:20Z</time>
      </trkpt>
      <trkpt lat="46.317" lon="0.32623">
        <ele>172.6831467757</ele>
        <time>2021-03-07T07:56:22Z</time>
      </trkpt>
      <trkpt lat="46.31697" lon="0.32625">
        <ele>172.24944198597</ele>
        <time>2021-03-07T07:56:24Z</time>
      </trkpt>
      <trkpt lat="46.31695" lon="0.32625">
        <ele>171.68569040392</ele>
        <time>2021-03-07T07:56:26Z</time>
      </trkpt>
      <trkpt lat="46.31693" lon="0.32626">
        <ele>171.71979728155</ele>
        <time>2021-03-07T07:56:27Z</time>
      </trkpt>
      <trkpt lat="46.3169" lon="0.32626">
        <ele>172.2746805083</ele>
        <time>2021-03-07T07:56:29Z</time>
      </trkpt>
      <trkpt lat="46.31687" lon="0.32627">
        <ele>171.98323833104</ele>
        <time>2021-03-07T07:56:31Z</time>
      </trkpt>
      <trkpt lat="46.31684" lon="0.32628">
        <ele>171.9474593401</ele>
        <time>2021-03-07T07:56:33Z</time>
      </trkpt>
      <trkpt lat="46.31681" lon="0.32628">
        <ele>171.79739100859</ele>
        <time>2021-03-07T07:56:35Z</time>
      </trkpt>
      <trkpt lat="46.31679" lon="0.32628">
        <ele>171.79220127407</ele>
        <time>2021-03-07T07:56:37Z</time>
      </trkpt>
      <trkpt lat="46.31677" lon="0.32629">
        <ele>171.8870648006</ele>
        <time>2021-03-07T07:56:39Z</time>
      </trkpt>
      <trkpt lat="46.31674" lon="0.32629">
        <ele>171.67046456505</ele>
        <time>2021-03-07T07:56:41Z</time>
      </trkpt>
      <trkpt lat="46.31672" lon="0.32628">
        <ele>171.39617903158</ele>
        <time>2021-03-07T07:56:43Z</time>
      </trkpt>
      <trkpt lat="46.3167" lon="0.32629">
        <ele>171.7410565475</ele>
        <time>2021-03-07T07:56:45Z</time>
      </trkpt>
      <trkpt lat="46.31668" lon="0.32629">
        <ele>171.22341271397</ele>
        <time>2021-03-07T07:56:47Z</time>
      </trkpt>
      <trkpt lat="46.31666" lon="0.32629">
        <ele>171.35889407247</ele>
        <time>2021-03-07T07:56:49Z</time>
      </trkpt>
      <trkpt lat="46.31665" lon="0.32629">
        <ele>170.89913208596</ele>
        <time>2021-03-07T07:56:51Z</time>
      </trkpt>
      <trkpt lat="46.31663" lon="0.32631">
        <ele>170.90143491514</ele>
        <time>2021-03-07T07:56:53Z</time>
      </trkpt>
      <trkpt lat="46.3166" lon="0.32631">
        <ele>171.17240409181</ele>
        <time>2021-03-07T07:56:55Z</time>
      </trkpt>
      <trkpt lat="46.31657" lon="0.32631">
        <ele>171.21206847951</ele>
        <time>2021-03-07T07:56:57Z</time>
      </trkpt>
      <trkpt lat="46.31655" lon="0.32631">
        <ele>170.85351756122</ele>
        <time>2021-03-07T07:56:58Z</time>
      </trkpt>
      <trkpt lat="46.31652" lon="0.3263">
        <ele>170.83715979662</ele>
        <time>2021-03-07T07:57:00Z</time>
      </trkpt>
      <trkpt lat="46.3165" lon="0.32631">
        <ele>170.86859782785</ele>
        <time>2021-03-07T07:57:02Z</time>
      </trkpt>
      <trkpt lat="46.31647" lon="0.32631">
        <ele>170.92340046354</ele>
        <time>2021-03-07T07:57:04Z</time>
      </trkpt>
      <trkpt lat="46.31644" lon="0.32631">
        <ele>170.49464493711</ele>
        <time>2021-03-07T07:57:06Z</time>
      </trkpt>
      <trkpt lat="46.31642" lon="0.32632">
        <ele>170.43857782148</ele>
        <time>2021-03-07T07:57:08Z</time>
      </trkpt>
      <trkpt lat="46.3164" lon="0.32633">
        <ele>170.72360136826</ele>
        <time>2021-03-07T07:57:09Z</time>
      </trkpt>
      <trkpt lat="46.31638" lon="0.32632">
        <ele>170.41003927682</ele>
        <time>2021-03-07T07:57:10Z</time>
      </trkpt>
      <trkpt lat="46.31636" lon="0.32632">
        <ele>170.34742182307</ele>
        <time>2021-03-07T07:57:12Z</time>
      </trkpt>
      <trkpt lat="46.31633" lon="0.32632">
        <ele>170.13624834735</ele>
        <time>2021-03-07T07:57:14Z</time>
      </trkpt>
      <trkpt lat="46.3163" lon="0.32632">
        <ele>169.97217032965</ele>
        <time>2021-03-07T07:57:16Z</time>
      </trkpt>
      <trkpt lat="46.31628" lon="0.32633">
        <ele>169.98623177689</ele>
        <time>2021-03-07T07:57:18Z</time>
      </trkpt>
      <trkpt lat="46.31626" lon="0.32633">
        <ele>170.07291210536</ele>
        <time>2021-03-07T07:57:20Z</time>
      </trkpt>
      <trkpt lat="46.31623" lon="0.32633">
        <ele>170.18002577312</ele>
        <time>2021-03-07T07:57:22Z</time>
      </trkpt>
      <trkpt lat="46.31621" lon="0.32633">
        <ele>170.18399313558</ele>
        <time>2021-03-07T07:57:24Z</time>
      </trkpt>
      <trkpt lat="46.31618" lon="0.32634">
        <ele>170.20383688062</ele>
        <time>2021-03-07T07:57:26Z</time>
      </trkpt>
      <trkpt lat="46.31616" lon="0.32635">
        <ele>170.24340080749</ele>
        <time>2021-03-07T07:57:28Z</time>
      </trkpt>
      <trkpt lat="46.31614" lon="0.32635">
        <ele>170.16626372747</ele>
        <time>2021-03-07T07:57:29Z</time>
      </trkpt>
      <trkpt lat="46.31612" lon="0.32636">
        <ele>170.32867734786</ele>
        <time>2021-03-07T07:57:30Z</time>
      </trkpt>
      <trkpt lat="46.3161" lon="0.32638">
        <ele>170.14141071681</ele>
        <time>2021-03-07T07:57:32Z</time>
      </trkpt>
      <trkpt lat="46.31607" lon="0.3264">
        <ele>170.09978806041</ele>
        <time>2021-03-07T07:57:34Z</time>
      </trkpt>
      <trkpt lat="46.31603" lon="0.3264">
        <ele>169.58298310544</ele>
        <time>2021-03-07T07:57:36Z</time>
      </trkpt>
      <trkpt lat="46.31601" lon="0.32642">
        <ele>169.40520532057</ele>
        <time>2021-03-07T07:57:38Z</time>
      </trkpt>
      <trkpt lat="46.31598" lon="0.32643">
        <ele>169.98301004898</ele>
        <time>2021-03-07T07:57:40Z</time>
      </trkpt>
      <trkpt lat="46.31597" lon="0.32645">
        <ele>169.3306248514</ele>
        <time>2021-03-07T07:57:42Z</time>
      </trkpt>
      <trkpt lat="46.31594" lon="0.32647">
        <ele>169.47279391997</ele>
        <time>2021-03-07T07:57:44Z</time>
      </trkpt>
      <trkpt lat="46.31591" lon="0.32649">
        <ele>169.35366061144</ele>
        <time>2021-03-07T07:57:46Z</time>
      </trkpt>
      <trkpt lat="46.31589" lon="0.3265">
        <ele>169.34857655969</ele>
        <time>2021-03-07T07:57:48Z</time>
      </trkpt>
      <trkpt lat="46.31587" lon="0.32652">
        <ele>169.30962110031</ele>
        <time>2021-03-07T07:57:50Z</time>
      </trkpt>
      <trkpt lat="46.31583" lon="0.32655">
        <ele>169.16167491395</ele>
        <time>2021-03-07T07:57:52Z</time>
      </trkpt>
      <trkpt lat="46.31581" lon="0.32656">
        <ele>169.1378230853</ele>
        <time>2021-03-07T07:57:53Z</time>
      </trkpt>
      <trkpt lat="46.31578" lon="0.32658">
        <ele>169.46341266576</ele>
        <time>2021-03-07T07:57:55Z</time>
      </trkpt>
      <trkpt lat="46.31576" lon="0.32659">
        <ele>168.36661468726</ele>
        <time>2021-03-07T07:57:57Z</time>
      </trkpt>
      <trkpt lat="46.31574" lon="0.32659">
        <ele>168.97507707309</ele>
        <time>2021-03-07T07:57:59Z</time>
      </trkpt>
      <trkpt lat="46.31571" lon="0.32661">
        <ele>168.88816317823</ele>
        <time>2021-03-07T07:58:01Z</time>
      </trkpt>
      <trkpt lat="46.31568" lon="0.32662">
        <ele>169.40713343211</ele>
        <time>2021-03-07T07:58:03Z</time>
      </trkpt>
      <trkpt lat="46.31567" lon="0.32663">
        <ele>169.33764681872</ele>
        <time>2021-03-07T07:58:04Z</time>
      </trkpt>
      <trkpt lat="46.31564" lon="0.32664">
        <ele>169.07903103437</ele>
        <time>2021-03-07T07:58:06Z</time>
      </trkpt>
      <trkpt lat="46.31562" lon="0.32664">
        <ele>169.42444489151</ele>
        <time>2021-03-07T07:58:07Z</time>
      </trkpt>
      <trkpt lat="46.31559" lon="0.32665">
        <ele>169.09300801996</ele>
        <time>2021-03-07T07:58:09Z</time>
      </trkpt>
      <trkpt lat="46.31557" lon="0.32666">
        <ele>169.31528370269</ele>
        <time>2021-03-07T07:58:12Z</time>
      </trkpt>
      <trkpt lat="46.31554" lon="0.32667">
        <ele>169.27658379357</ele>
        <time>2021-03-07T07:58:14Z</time>
      </trkpt>
      <trkpt lat="46.31551" lon="0.32667">
        <ele>169.29716735426</ele>
        <time>2021-03-07T07:58:16Z</time>
      </trkpt>
      <trkpt lat="46.31548" lon="0.32666">
        <ele>169.09871096071</ele>
        <time>2021-03-07T07:58:18Z</time>
      </trkpt>
      <trkpt lat="46.31545" lon="0.32666">
        <ele>168.91099487431</ele>
        <time>2021-03-07T07:58:20Z</time>
      </trkpt>
      <trkpt lat="46.31542" lon="0.32666">
        <ele>168.76372557413</ele>
        <time>2021-03-07T07:58:22Z</time>
      </trkpt>
      <trkpt lat="46.31539" lon="0.32667">
        <ele>168.90426335111</ele>
        <time>2021-03-07T07:58:24Z</time>
      </trkpt>
      <trkpt lat="46.31536" lon="0.32666">
        <ele>168.41619255301</ele>
        <time>2021-03-07T07:58:26Z</time>
      </trkpt>
      <trkpt lat="46.31532" lon="0.32663">
        <ele>168.60753160343</ele>
        <time>2021-03-07T07:58:28Z</time>
      </trkpt>
      <trkpt lat="46.3153" lon="0.32663">
        <ele>168.65489055403</ele>
        <time>2021-03-07T07:58:30Z</time>
      </trkpt>
      <trkpt lat="46.31528" lon="0.32661">
        <ele>168.5669991076</ele>
        <time>2021-03-07T07:58:32Z</time>
      </trkpt>
      <trkpt lat="46.31525" lon="0.32661">
        <ele>168.26368365251</ele>
        <time>2021-03-07T07:58:34Z</time>
      </trkpt>
      <trkpt lat="46.31523" lon="0.3266">
        <ele>168.00332365092</ele>
        <time>2021-03-07T07:58:36Z</time>
      </trkpt>
      <trkpt lat="46.31521" lon="0.32659">
        <ele>167.76352021005</ele>
        <time>2021-03-07T07:58:37Z</time>
      </trkpt>
      <trkpt lat="46.31519" lon="0.32658">
        <ele>168.00814900734</ele>
        <time>2021-03-07T07:58:39Z</time>
      </trkpt>
      <trkpt lat="46.31516" lon="0.32656">
        <ele>168.14318920206</ele>
        <time>2021-03-07T07:58:41Z</time>
      </trkpt>
      <trkpt lat="46.31513" lon="0.32654">
        <ele>167.87096654437</ele>
        <time>2021-03-07T07:58:43Z</time>
      </trkpt>
      <trkpt lat="46.3151" lon="0.32653">
        <ele>167.9846201418</ele>
        <time>2021-03-07T07:58:45Z</time>
      </trkpt>
      <trkpt lat="46.31508" lon="0.32653">
        <ele>167.821987601</ele>
        <time>2021-03-07T07:58:47Z</time>
      </trkpt>
      <trkpt lat="46.31504" lon="0.32652">
        <ele>167.93617772497</ele>
        <time>2021-03-07T07:58:49Z</time>
      </trkpt>
      <trkpt lat="46.31501" lon="0.32651">
        <ele>167.55404467508</ele>
        <time>2021-03-07T07:58:51Z</time>
      </trkpt>
      <trkpt lat="46.31499" lon="0.3265">
        <ele>167.49435818661</ele>
        <time>2021-03-07T07:58:53Z</time>
      </trkpt>
      <trkpt lat="46.31496" lon="0.32649">
        <ele>167.2225466324</ele>
        <time>2021-03-07T07:58:55Z</time>
      </trkpt>
      <trkpt lat="46.31493" lon="0.32647">
        <ele>166.70042451378</ele>
        <time>2021-03-07T07:58:57Z</time>
      </trkpt>
      <trkpt lat="46.31491" lon="0.32645">
        <ele>166.79941718001</ele>
        <time>2021-03-07T07:58:59Z</time>
      </trkpt>
      <trkpt lat="46.31489" lon="0.32644">
        <ele>166.86512314994</ele>
        <time>2021-03-07T07:59:00Z</time>
      </trkpt>
      <trkpt lat="46.31487" lon="0.32642">
        <ele>166.85733836703</ele>
        <time>2021-03-07T07:59:02Z</time>
      </trkpt>
      <trkpt lat="46.31484" lon="0.32642">
        <ele>166.88399465196</ele>
        <time>2021-03-07T07:59:04Z</time>
      </trkpt>
      <trkpt lat="46.31482" lon="0.32641">
        <ele>166.67478316743</ele>
        <time>2021-03-07T07:59:06Z</time>
      </trkpt>
      <trkpt lat="46.3148" lon="0.32639">
        <ele>166.89713524934</ele>
        <time>2021-03-07T07:59:08Z</time>
      </trkpt>
      <trkpt lat="46.31477" lon="0.32638">
        <ele>166.79426461924</ele>
        <time>2021-03-07T07:59:11Z</time>
      </trkpt>
      <trkpt lat="46.31474" lon="0.32637">
        <ele>166.30672523845</ele>
        <time>2021-03-07T07:59:13Z</time>
      </trkpt>
      <trkpt lat="46.31472" lon="0.32636">
        <ele>166.28155976627</ele>
        <time>2021-03-07T07:59:15Z</time>
      </trkpt>
      <trkpt lat="46.3147" lon="0.32635">
        <ele>166.1730325846</ele>
        <time>2021-03-07T07:59:17Z</time>
      </trkpt>
      <trkpt lat="46.31468" lon="0.32634">
        <ele>166.35135066975</ele>
        <time>2021-03-07T07:59:20Z</time>
      </trkpt>
      <trkpt lat="46.31466" lon="0.32632">
        <ele>165.79157204926</ele>
        <time>2021-03-07T07:59:22Z</time>
      </trkpt>
      <trkpt lat="46.31464" lon="0.32631">
        <ele>166.15466097742</ele>
        <time>2021-03-07T07:59:24Z</time>
      </trkpt>
      <trkpt lat="46.31462" lon="0.32629">
        <ele>166.1589041613</ele>
        <time>2021-03-07T07:59:26Z</time>
      </trkpt>
      <trkpt lat="46.31459" lon="0.32627">
        <ele>166.29666639119</ele>
        <time>2021-03-07T07:59:28Z</time>
      </trkpt>
      <trkpt lat="46.31456" lon="0.32625">
        <ele>166.1511111157</ele>
        <time>2021-03-07T07:59:30Z</time>
      </trkpt>
      <trkpt lat="46.31454" lon="0.32623">
        <ele>166.29360568337</ele>
        <time>2021-03-07T07:59:32Z</time>
      </trkpt>
      <trkpt lat="46.31451" lon="0.3262">
        <ele>166.52447029203</ele>
        <time>2021-03-07T07:59:34Z</time>
      </trkpt>
      <trkpt lat="46.31449" lon="0.3262">
        <ele>166.53128475696</ele>
        <time>2021-03-07T07:59:35Z</time>
      </trkpt>
      <trkpt lat="46.31446" lon="0.32618">
        <ele>166.21945174597</ele>
        <time>2021-03-07T07:59:37Z</time>
      </trkpt>
      <trkpt lat="46.31444" lon="0.32616">
        <ele>166.27621654421</ele>
        <time>2021-03-07T07:59:39Z</time>
      </trkpt>
      <trkpt lat="46.31442" lon="0.32614">
        <ele>166.33382307086</ele>
        <time>2021-03-07T07:59:41Z</time>
      </trkpt>
      <trkpt lat="46.31439" lon="0.32612">
        <ele>166.66327841207</ele>
        <time>2021-03-07T07:59:43Z</time>
      </trkpt>
      <trkpt lat="46.31437" lon="0.32611">
        <ele>166.33830701932</ele>
        <time>2021-03-07T07:59:45Z</time>
      </trkpt>
      <trkpt lat="46.31435" lon="0.32609">
        <ele>166.24438478146</ele>
        <time>2021-03-07T07:59:47Z</time>
      </trkpt>
      <trkpt lat="46.31432" lon="0.32606">
        <ele>165.92702974658</ele>
        <time>2021-03-07T07:59:49Z</time>
      </trkpt>
      <trkpt lat="46.3143" lon="0.32604">
        <ele>166.48364744429</ele>
        <time>2021-03-07T07:59:52Z</time>
      </trkpt>
      <trkpt lat="46.31428" lon="0.32603">
        <ele>166.18585913349</ele>
        <time>2021-03-07T07:59:54Z</time>
      </trkpt>
      <trkpt lat="46.31426" lon="0.326">
        <ele>166.31038108002</ele>
        <time>2021-03-07T07:59:56Z</time>
      </trkpt>
      <trkpt lat="46.31424" lon="0.32598">
        <ele>166.35592874046</ele>
        <time>2021-03-07T07:59:58Z</time>
      </trkpt>
      <trkpt lat="46.31421" lon="0.32595">
        <ele>166.41831387114</ele>
        <time>2021-03-07T08:00:00Z</time>
      </trkpt>
      <trkpt lat="46.31419" lon="0.32593">
        <ele>165.99278157018</ele>
        <time>2021-03-07T08:00:02Z</time>
      </trkpt>
      <trkpt lat="46.31416" lon="0.32591">
        <ele>165.943479551</ele>
        <time>2021-03-07T08:00:04Z</time>
      </trkpt>
      <trkpt lat="46.31414" lon="0.3259">
        <ele>166.1793690538</ele>
        <time>2021-03-07T08:00:05Z</time>
      </trkpt>
      <trkpt lat="46.31412" lon="0.32588">
        <ele>166.36555332039</ele>
        <time>2021-03-07T08:00:07Z</time>
      </trkpt>
      <trkpt lat="46.3141" lon="0.32587">
        <ele>165.74050557427</ele>
        <time>2021-03-07T08:00:08Z</time>
      </trkpt>
      <trkpt lat="46.31407" lon="0.32586">
        <ele>166.22689744458</ele>
        <time>2021-03-07T08:00:10Z</time>
      </trkpt>
      <trkpt lat="46.31405" lon="0.32584">
        <ele>165.7395820925</ele>
        <time>2021-03-07T08:00:12Z</time>
      </trkpt>
      <trkpt lat="46.31402" lon="0.32582">
        <ele>165.8856997434</ele>
        <time>2021-03-07T08:00:14Z</time>
      </trkpt>
      <trkpt lat="46.31398" lon="0.3258">
        <ele>165.89994734619</ele>
        <time>2021-03-07T08:00:16Z</time>
      </trkpt>
      <trkpt lat="46.31395" lon="0.32579">
        <ele>166.01076885313</ele>
        <time>2021-03-07T08:00:18Z</time>
      </trkpt>
      <trkpt lat="46.31392" lon="0.32578">
        <ele>165.76586331986</ele>
        <time>2021-03-07T08:00:20Z</time>
      </trkpt>
      <trkpt lat="46.3139" lon="0.32577">
        <ele>165.28079185821</ele>
        <time>2021-03-07T08:00:22Z</time>
      </trkpt>
      <trkpt lat="46.31387" lon="0.32576">
        <ele>165.16163227055</ele>
        <time>2021-03-07T08:00:25Z</time>
      </trkpt>
      <trkpt lat="46.31384" lon="0.32576">
        <ele>165.22883823235</ele>
        <time>2021-03-07T08:00:27Z</time>
      </trkpt>
      <trkpt lat="46.31381" lon="0.32575">
        <ele>165.28675358742</ele>
        <time>2021-03-07T08:00:29Z</time>
      </trkpt>
      <trkpt lat="46.31379" lon="0.32574">
        <ele>165.17710967362</ele>
        <time>2021-03-07T08:00:31Z</time>
      </trkpt>
      <trkpt lat="46.31376" lon="0.32573">
        <ele>165.02481596638</ele>
        <time>2021-03-07T08:00:33Z</time>
      </trkpt>
      <trkpt lat="46.31374" lon="0.32572">
        <ele>165.04819990322</ele>
        <time>2021-03-07T08:00:35Z</time>
      </trkpt>
      <trkpt lat="46.31372" lon="0.32571">
        <ele>165.37437193934</ele>
        <time>2021-03-07T08:00:36Z</time>
      </trkpt>
      <trkpt lat="46.31369" lon="0.32571">
        <ele>165.0852303179</ele>
        <time>2021-03-07T08:00:38Z</time>
      </trkpt>
      <trkpt lat="46.31367" lon="0.32571">
        <ele>165.30466723349</ele>
        <time>2021-03-07T08:00:40Z</time>
      </trkpt>
      <trkpt lat="46.31364" lon="0.3257">
        <ele>165.08669938985</ele>
        <time>2021-03-07T08:00:42Z</time>
      </trkpt>
      <trkpt lat="46.31361" lon="0.32569">
        <ele>165.36652694363</ele>
        <time>2021-03-07T08:00:44Z</time>
      </trkpt>
      <trkpt lat="46.31359" lon="0.32567">
        <ele>165.37996230833</ele>
        <time>2021-03-07T08:00:46Z</time>
      </trkpt>
      <trkpt lat="46.31357" lon="0.32567">
        <ele>165.18193822913</ele>
        <time>2021-03-07T08:00:48Z</time>
      </trkpt>
      <trkpt lat="46.31354" lon="0.32567">
        <ele>165.16499581933</ele>
        <time>2021-03-07T08:00:50Z</time>
      </trkpt>
      <trkpt lat="46.31352" lon="0.32566">
        <ele>164.82240356319</ele>
        <time>2021-03-07T08:00:52Z</time>
      </trkpt>
      <trkpt lat="46.3135" lon="0.32565">
        <ele>165.23689368926</ele>
        <time>2021-03-07T08:00:54Z</time>
      </trkpt>
      <trkpt lat="46.31347" lon="0.32564">
        <ele>165.20570316352</ele>
        <time>2021-03-07T08:00:56Z</time>
      </trkpt>
      <trkpt lat="46.31344" lon="0.32564">
        <ele>164.75836724229</ele>
        <time>2021-03-07T08:00:58Z</time>
      </trkpt>
      <trkpt lat="46.31342" lon="0.32563">
        <ele>164.6499849353</ele>
        <time>2021-03-07T08:01:00Z</time>
      </trkpt>
      <trkpt lat="46.3134" lon="0.32562">
        <ele>164.46725296043</ele>
        <time>2021-03-07T08:01:02Z</time>
      </trkpt>
      <trkpt lat="46.31337" lon="0.3256">
        <ele>165.13020156603</ele>
        <time>2021-03-07T08:01:04Z</time>
      </trkpt>
      <trkpt lat="46.31335" lon="0.3256">
        <ele>164.84010400344</ele>
        <time>2021-03-07T08:01:06Z</time>
      </trkpt>
      <trkpt lat="46.31332" lon="0.32558">
        <ele>164.80352664366</ele>
        <time>2021-03-07T08:01:08Z</time>
      </trkpt>
      <trkpt lat="46.3133" lon="0.32557">
        <ele>165.13274170458</ele>
        <time>2021-03-07T08:01:10Z</time>
      </trkpt>
      <trkpt lat="46.31327" lon="0.32556">
        <ele>164.82347720582</ele>
        <time>2021-03-07T08:01:12Z</time>
      </trkpt>
      <trkpt lat="46.31325" lon="0.32555">
        <ele>164.59106316604</ele>
        <time>2021-03-07T08:01:14Z</time>
      </trkpt>
      <trkpt lat="46.31323" lon="0.32554">
        <ele>164.79126932099</ele>
        <time>2021-03-07T08:01:16Z</time>
      </trkpt>
      <trkpt lat="46.3132" lon="0.32553">
        <ele>164.77823536377</ele>
        <time>2021-03-07T08:01:18Z</time>
      </trkpt>
      <trkpt lat="46.31318" lon="0.32552">
        <ele>164.13087571971</ele>
        <time>2021-03-07T08:01:20Z</time>
      </trkpt>
      <trkpt lat="46.31316" lon="0.32551">
        <ele>164.64953763504</ele>
        <time>2021-03-07T08:01:22Z</time>
      </trkpt>
      <trkpt lat="46.31313" lon="0.3255">
        <ele>164.42442707997</ele>
        <time>2021-03-07T08:01:24Z</time>
      </trkpt>
      <trkpt lat="46.3131" lon="0.32549">
        <ele>164.36221345607</ele>
        <time>2021-03-07T08:01:26Z</time>
      </trkpt>
      <trkpt lat="46.31306" lon="0.32547">
        <ele>164.59010580834</ele>
        <time>2021-03-07T08:01:28Z</time>
      </trkpt>
      <trkpt lat="46.31304" lon="0.32546">
        <ele>164.29111459292</ele>
        <time>2021-03-07T08:01:30Z</time>
      </trkpt>
      <trkpt lat="46.31302" lon="0.32545">
        <ele>164.25165282469</ele>
        <time>2021-03-07T08:01:31Z</time>
      </trkpt>
      <trkpt lat="46.313" lon="0.32544">
        <ele>164.54409505706</ele>
        <time>2021-03-07T08:01:32Z</time>
      </trkpt>
      <trkpt lat="46.31297" lon="0.32542">
        <ele>164.34908966441</ele>
        <time>2021-03-07T08:01:34Z</time>
      </trkpt>
      <trkpt lat="46.31293" lon="0.32541">
        <ele>164.62443229835</ele>
        <time>2021-03-07T08:01:36Z</time>
      </trkpt>
      <trkpt lat="46.31291" lon="0.3254">
        <ele>164.29423879646</ele>
        <time>2021-03-07T08:01:38Z</time>
      </trkpt>
      <trkpt lat="46.31288" lon="0.32539">
        <ele>164.38940646686</ele>
        <time>2021-03-07T08:01:40Z</time>
      </trkpt>
      <trkpt lat="46.31286" lon="0.32538">
        <ele>164.20591118839</ele>
        <time>2021-03-07T08:01:42Z</time>
      </trkpt>
      <trkpt lat="46.31283" lon="0.32536">
        <ele>163.98218121659</ele>
        <time>2021-03-07T08:01:44Z</time>
      </trkpt>
      <trkpt lat="46.3128" lon="0.32535">
        <ele>163.63264474086</ele>
        <time>2021-03-07T08:01:46Z</time>
      </trkpt>
      <trkpt lat="46.31278" lon="0.32534">
        <ele>163.92090462334</ele>
        <time>2021-03-07T08:01:48Z</time>
      </trkpt>
      <trkpt lat="46.31276" lon="0.32533">
        <ele>164.26646147016</ele>
        <time>2021-03-07T08:01:50Z</time>
      </trkpt>
      <trkpt lat="46.31273" lon="0.32531">
        <ele>164.56824643072</ele>
        <time>2021-03-07T08:01:52Z</time>
      </trkpt>
      <trkpt lat="46.3127" lon="0.32531">
        <ele>163.98940587323</ele>
        <time>2021-03-07T08:01:54Z</time>
      </trkpt>
      <trkpt lat="46.31268" lon="0.3253">
        <ele>163.75015478674</ele>
        <time>2021-03-07T08:01:56Z</time>
      </trkpt>
      <trkpt lat="46.31264" lon="0.32528">
        <ele>163.66919544339</ele>
        <time>2021-03-07T08:01:58Z</time>
      </trkpt>
      <trkpt lat="46.31261" lon="0.32528">
        <ele>163.66720812023</ele>
        <time>2021-03-07T08:02:01Z</time>
      </trkpt>
      <trkpt lat="46.31258" lon="0.32526">
        <ele>163.47857905831</ele>
        <time>2021-03-07T08:02:03Z</time>
      </trkpt>
      <trkpt lat="46.31255" lon="0.32527">
        <ele>163.83797413576</ele>
        <time>2021-03-07T08:02:05Z</time>
      </trkpt>
      <trkpt lat="46.31253" lon="0.32529">
        <ele>163.78506694455</ele>
        <time>2021-03-07T08:02:07Z</time>
      </trkpt>
      <trkpt lat="46.31251" lon="0.3253">
        <ele>163.26803639997</ele>
        <time>2021-03-07T08:02:09Z</time>
      </trkpt>
      <trkpt lat="46.31248" lon="0.32532">
        <ele>163.46324898116</ele>
        <time>2021-03-07T08:02:12Z</time>
      </trkpt>
      <trkpt lat="46.31246" lon="0.32534">
        <ele>163.49379718956</ele>
        <time>2021-03-07T08:02:14Z</time>
      </trkpt>
      <trkpt lat="46.31244" lon="0.32536">
        <ele>163.139115531</ele>
        <time>2021-03-07T08:02:16Z</time>
      </trkpt>
      <trkpt lat="46.31242" lon="0.32538">
        <ele>163.07049535029</ele>
        <time>2021-03-07T08:02:18Z</time>
      </trkpt>
      <trkpt lat="46.3124" lon="0.32541">
        <ele>163.68899719696</ele>
        <time>2021-03-07T08:02:20Z</time>
      </trkpt>
      <trkpt lat="46.31239" lon="0.32543">
        <ele>163.41977169178</ele>
        <time>2021-03-07T08:02:21Z</time>
      </trkpt>
      <trkpt lat="46.31237" lon="0.32545">
        <ele>162.803787563</ele>
        <time>2021-03-07T08:02:22Z</time>
      </trkpt>
      <trkpt lat="46.31236" lon="0.32547">
        <ele>163.06470944081</ele>
        <time>2021-03-07T08:02:24Z</time>
      </trkpt>
      <trkpt lat="46.31234" lon="0.32551">
        <ele>163.18741795886</ele>
        <time>2021-03-07T08:02:26Z</time>
      </trkpt>
      <trkpt lat="46.31232" lon="0.32553">
        <ele>163.13958635926</ele>
        <time>2021-03-07T08:02:28Z</time>
      </trkpt>
      <trkpt lat="46.31231" lon="0.32555">
        <ele>163.42510183062</ele>
        <time>2021-03-07T08:02:30Z</time>
      </trkpt>
      <trkpt lat="46.3123" lon="0.32557">
        <ele>163.44038890209</ele>
        <time>2021-03-07T08:02:31Z</time>
      </trkpt>
      <trkpt lat="46.31227" lon="0.3256">
        <ele>163.12271622941</ele>
        <time>2021-03-07T08:02:33Z</time>
      </trkpt>
      <trkpt lat="46.31225" lon="0.32564">
        <ele>163.07072372828</ele>
        <time>2021-03-07T08:02:35Z</time>
      </trkpt>
      <trkpt lat="46.31224" lon="0.32566">
        <ele>162.96356630512</ele>
        <time>2021-03-07T08:02:37Z</time>
      </trkpt>
      <trkpt lat="46.31221" lon="0.32569">
        <ele>163.40486459155</ele>
        <time>2021-03-07T08:02:39Z</time>
      </trkpt>
      <trkpt lat="46.31221" lon="0.32572">
        <ele>163.06723056082</ele>
        <time>2021-03-07T08:02:41Z</time>
      </trkpt>
      <trkpt lat="46.31219" lon="0.32574">
        <ele>163.67200715095</ele>
        <time>2021-03-07T08:02:43Z</time>
      </trkpt>
      <trkpt lat="46.31217" lon="0.32577">
        <ele>163.08008654509</ele>
        <time>2021-03-07T08:02:45Z</time>
      </trkpt>
      <trkpt lat="46.31215" lon="0.32581">
        <ele>162.82819308434</ele>
        <time>2021-03-07T08:02:47Z</time>
      </trkpt>
      <trkpt lat="46.31213" lon="0.32584">
        <ele>162.97214787826</ele>
        <time>2021-03-07T08:02:49Z</time>
      </trkpt>
      <trkpt lat="46.31212" lon="0.32586">
        <ele>163.2149151247</ele>
        <time>2021-03-07T08:02:51Z</time>
      </trkpt>
      <trkpt lat="46.31211" lon="0.32589">
        <ele>163.54766501207</ele>
        <time>2021-03-07T08:02:54Z</time>
      </trkpt>
      <trkpt lat="46.3121" lon="0.32594">
        <ele>163.07474036794</ele>
        <time>2021-03-07T08:02:57Z</time>
      </trkpt>
      <trkpt lat="46.31208" lon="0.32598">
        <ele>163.0063160779</ele>
        <time>2021-03-07T08:02:59Z</time>
      </trkpt>
      <trkpt lat="46.31206" lon="0.32602">
        <ele>163.24679812044</ele>
        <time>2021-03-07T08:03:02Z</time>
      </trkpt>
      <trkpt lat="46.31204" lon="0.32605">
        <ele>163.43996179663</ele>
        <time>2021-03-07T08:03:04Z</time>
      </trkpt>
      <trkpt lat="46.31203" lon="0.32608">
        <ele>163.2544201687</ele>
        <time>2021-03-07T08:03:06Z</time>
      </trkpt>
      <trkpt lat="46.312" lon="0.32612">
        <ele>163.38917699084</ele>
        <time>2021-03-07T08:03:08Z</time>
      </trkpt>
      <trkpt lat="46.31199" lon="0.32615">
        <ele>163.22914010379</ele>
        <time>2021-03-07T08:03:10Z</time>
      </trkpt>
      <trkpt lat="46.31198" lon="0.32619">
        <ele>163.42126006726</ele>
        <time>2021-03-07T08:03:12Z</time>
      </trkpt>
      <trkpt lat="46.31196" lon="0.32621">
        <ele>163.22029435448</ele>
        <time>2021-03-07T08:03:14Z</time>
      </trkpt>
      <trkpt lat="46.31195" lon="0.32625">
        <ele>163.65560999233</ele>
        <time>2021-03-07T08:03:16Z</time>
      </trkpt>
      <trkpt lat="46.31194" lon="0.32627">
        <ele>163.77302818745</ele>
        <time>2021-03-07T08:03:17Z</time>
      </trkpt>
      <trkpt lat="46.31194" lon="0.3263">
        <ele>163.26287803426</ele>
        <time>2021-03-07T08:03:19Z</time>
      </trkpt>
      <trkpt lat="46.31192" lon="0.32634">
        <ele>163.07377284579</ele>
        <time>2021-03-07T08:03:21Z</time>
      </trkpt>
      <trkpt lat="46.3119" lon="0.32637">
        <ele>162.90030078962</ele>
        <time>2021-03-07T08:03:23Z</time>
      </trkpt>
      <trkpt lat="46.31188" lon="0.32641">
        <ele>162.81914171111</ele>
        <time>2021-03-07T08:03:25Z</time>
      </trkpt>
      <trkpt lat="46.31187" lon="0.32643">
        <ele>162.79940045346</ele>
        <time>2021-03-07T08:03:26Z</time>
      </trkpt>
      <trkpt lat="46.31186" lon="0.32645">
        <ele>163.00394765288</ele>
        <time>2021-03-07T08:03:28Z</time>
      </trkpt>
      <trkpt lat="46.31184" lon="0.32647">
        <ele>163.04543788265</ele>
        <time>2021-03-07T08:03:30Z</time>
      </trkpt>
      <trkpt lat="46.31183" lon="0.3265">
        <ele>162.66720371135</ele>
        <time>2021-03-07T08:03:32Z</time>
      </trkpt>
      <trkpt lat="46.3118" lon="0.32653">
        <ele>162.87797133904</ele>
        <time>2021-03-07T08:03:34Z</time>
      </trkpt>
      <trkpt lat="46.31179" lon="0.32655">
        <ele>162.67060495727</ele>
        <time>2021-03-07T08:03:36Z</time>
      </trkpt>
      <trkpt lat="46.31177" lon="0.32657">
        <ele>162.88922617119</ele>
        <time>2021-03-07T08:03:38Z</time>
      </trkpt>
      <trkpt lat="46.31175" lon="0.3266">
        <ele>162.61847460456</ele>
        <time>2021-03-07T08:03:40Z</time>
      </trkpt>
      <trkpt lat="46.31172" lon="0.32663">
        <ele>162.44108987693</ele>
        <time>2021-03-07T08:03:42Z</time>
      </trkpt>
      <trkpt lat="46.31171" lon="0.32666">
        <ele>162.10888371244</ele>
        <time>2021-03-07T08:03:44Z</time>
      </trkpt>
      <trkpt lat="46.31169" lon="0.32667">
        <ele>162.57462530304</ele>
        <time>2021-03-07T08:03:46Z</time>
      </trkpt>
      <trkpt lat="46.31167" lon="0.3267">
        <ele>162.29282157589</ele>
        <time>2021-03-07T08:03:48Z</time>
      </trkpt>
      <trkpt lat="46.31165" lon="0.32673">
        <ele>162.37529425044</ele>
        <time>2021-03-07T08:03:50Z</time>
      </trkpt>
      <trkpt lat="46.31162" lon="0.32677">
        <ele>162.58712545596</ele>
        <time>2021-03-07T08:03:52Z</time>
      </trkpt>
      <trkpt lat="46.3116" lon="0.3268">
        <ele>162.01053328346</ele>
        <time>2021-03-07T08:03:54Z</time>
      </trkpt>
      <trkpt lat="46.31158" lon="0.32682">
        <ele>162.68869424332</ele>
        <time>2021-03-07T08:03:56Z</time>
      </trkpt>
      <trkpt lat="46.31155" lon="0.32685">
        <ele>162.19509642106</ele>
        <time>2021-03-07T08:03:58Z</time>
      </trkpt>
      <trkpt lat="46.31154" lon="0.32687">
        <ele>162.41996360011</ele>
        <time>2021-03-07T08:03:59Z</time>
      </trkpt>
      <trkpt lat="46.31151" lon="0.32689">
        <ele>162.2959338231</ele>
        <time>2021-03-07T08:04:01Z</time>
      </trkpt>
      <trkpt lat="46.31149" lon="0.32691">
        <ele>162.30383047089</ele>
        <time>2021-03-07T08:04:03Z</time>
      </trkpt>
      <trkpt lat="46.31147" lon="0.32693">
        <ele>162.07483356539</ele>
        <time>2021-03-07T08:04:04Z</time>
      </trkpt>
      <trkpt lat="46.31144" lon="0.32695">
        <ele>162.1377193816</ele>
        <time>2021-03-07T08:04:06Z</time>
      </trkpt>
      <trkpt lat="46.31142" lon="0.32698">
        <ele>162.5573883336</ele>
        <time>2021-03-07T08:04:08Z</time>
      </trkpt>
      <trkpt lat="46.3114" lon="0.32701">
        <ele>162.52755770646</ele>
        <time>2021-03-07T08:04:10Z</time>
      </trkpt>
      <trkpt lat="46.31138" lon="0.32704">
        <ele>162.19176545553</ele>
        <time>2021-03-07T08:04:13Z</time>
      </trkpt>
      <trkpt lat="46.31136" lon="0.32706">
        <ele>162.0507093966</ele>
        <time>2021-03-07T08:04:15Z</time>
      </trkpt>
      <trkpt lat="46.31134" lon="0.32709">
        <ele>161.79562580865</ele>
        <time>2021-03-07T08:04:17Z</time>
      </trkpt>
      <trkpt lat="46.31132" lon="0.32712">
        <ele>161.40651411004</ele>
        <time>2021-03-07T08:04:20Z</time>
      </trkpt>
      <trkpt lat="46.3113" lon="0.32715">
        <ele>161.92432725336</ele>
        <time>2021-03-07T08:04:22Z</time>
      </trkpt>
      <trkpt lat="46.31128" lon="0.32717">
        <ele>162.05800985359</ele>
        <time>2021-03-07T08:04:24Z</time>
      </trkpt>
      <trkpt lat="46.31126" lon="0.3272">
        <ele>161.70387643389</ele>
        <time>2021-03-07T08:04:27Z</time>
      </trkpt>
      <trkpt lat="46.31124" lon="0.32722">
        <ele>161.73017925955</ele>
        <time>2021-03-07T08:04:28Z</time>
      </trkpt>
      <trkpt lat="46.31123" lon="0.32725">
        <ele>161.55200100318</ele>
        <time>2021-03-07T08:04:30Z</time>
      </trkpt>
      <trkpt lat="46.31122" lon="0.32727">
        <ele>161.7064591581</ele>
        <time>2021-03-07T08:04:31Z</time>
      </trkpt>
      <trkpt lat="46.3112" lon="0.32729">
        <ele>160.74535565916</ele>
        <time>2021-03-07T08:04:33Z</time>
      </trkpt>
      <trkpt lat="46.31118" lon="0.32732">
        <ele>161.01241168194</ele>
        <time>2021-03-07T08:04:35Z</time>
      </trkpt>
      <trkpt lat="46.31116" lon="0.32735">
        <ele>161.13677549548</ele>
        <time>2021-03-07T08:04:37Z</time>
      </trkpt>
      <trkpt lat="46.31114" lon="0.32737">
        <ele>161.14764569886</ele>
        <time>2021-03-07T08:04:39Z</time>
      </trkpt>
      <trkpt lat="46.31113" lon="0.3274">
        <ele>160.83735930827</ele>
        <time>2021-03-07T08:04:41Z</time>
      </trkpt>
      <trkpt lat="46.31111" lon="0.32742">
        <ele>160.67613034882</ele>
        <time>2021-03-07T08:04:43Z</time>
      </trkpt>
      <trkpt lat="46.3111" lon="0.32744">
        <ele>160.65993453376</ele>
        <time>2021-03-07T08:04:44Z</time>
      </trkpt>
      <trkpt lat="46.31109" lon="0.32746">
        <ele>160.28943578433</ele>
        <time>2021-03-07T08:04:46Z</time>
      </trkpt>
      <trkpt lat="46.31106" lon="0.32749">
        <ele>160.29438799247</ele>
        <time>2021-03-07T08:04:48Z</time>
      </trkpt>
      <trkpt lat="46.31105" lon="0.32751">
        <ele>160.02501182724</ele>
        <time>2021-03-07T08:04:49Z</time>
      </trkpt>
      <trkpt lat="46.31103" lon="0.32753">
        <ele>159.73303501215</ele>
        <time>2021-03-07T08:04:50Z</time>
      </trkpt>
      <trkpt lat="46.31101" lon="0.32757">
        <ele>159.50876332726</ele>
        <time>2021-03-07T08:04:53Z</time>
      </trkpt>
      <trkpt lat="46.31099" lon="0.32759">
        <ele>159.56864929013</ele>
        <time>2021-03-07T08:04:56Z</time>
      </trkpt>
      <trkpt lat="46.31098" lon="0.32762">
        <ele>159.37304027751</ele>
        <time>2021-03-07T08:04:57Z</time>
      </trkpt>
      <trkpt lat="46.31097" lon="0.32764">
        <ele>159.54861397389</ele>
        <time>2021-03-07T08:04:58Z</time>
      </trkpt>
      <trkpt lat="46.31095" lon="0.32767">
        <ele>159.41100529674</ele>
        <time>2021-03-07T08:05:00Z</time>
      </trkpt>
      <trkpt lat="46.31093" lon="0.32769">
        <ele>160.12666034885</ele>
        <time>2021-03-07T08:05:01Z</time>
      </trkpt>
      <trkpt lat="46.31091" lon="0.3277">
        <ele>160.05333997775</ele>
        <time>2021-03-07T08:05:02Z</time>
      </trkpt>
      <trkpt lat="46.31089" lon="0.32773">
        <ele>159.55615331512</ele>
        <time>2021-03-07T08:05:04Z</time>
      </trkpt>
      <trkpt lat="46.31088" lon="0.32776">
        <ele>159.55882765632</ele>
        <time>2021-03-07T08:05:06Z</time>
      </trkpt>
      <trkpt lat="46.31087" lon="0.32778">
        <ele>159.4505203981</ele>
        <time>2021-03-07T08:05:07Z</time>
      </trkpt>
      <trkpt lat="46.31086" lon="0.32781">
        <ele>159.51340427436</ele>
        <time>2021-03-07T08:05:09Z</time>
      </trkpt>
      <trkpt lat="46.31084" lon="0.32783">
        <ele>159.14177633543</ele>
        <time>2021-03-07T08:05:11Z</time>
      </trkpt>
      <trkpt lat="46.31081" lon="0.32786">
        <ele>159.12293291558</ele>
        <time>2021-03-07T08:05:13Z</time>
      </trkpt>
      <trkpt lat="46.3108" lon="0.32788">
        <ele>159.44782004692</ele>
        <time>2021-03-07T08:05:15Z</time>
      </trkpt>
      <trkpt lat="46.31077" lon="0.32791">
        <ele>158.93870010599</ele>
        <time>2021-03-07T08:05:17Z</time>
      </trkpt>
      <trkpt lat="46.31076" lon="0.32794">
        <ele>158.47313542571</ele>
        <time>2021-03-07T08:05:19Z</time>
      </trkpt>
      <trkpt lat="46.31073" lon="0.32795">
        <ele>158.88353250641</ele>
        <time>2021-03-07T08:05:21Z</time>
      </trkpt>
      <trkpt lat="46.31071" lon="0.32797">
        <ele>159.00637937337</ele>
        <time>2021-03-07T08:05:23Z</time>
      </trkpt>
      <trkpt lat="46.31069" lon="0.32798">
        <ele>158.94646824524</ele>
        <time>2021-03-07T08:05:25Z</time>
      </trkpt>
      <trkpt lat="46.31066" lon="0.328">
        <ele>158.97984970454</ele>
        <time>2021-03-07T08:05:27Z</time>
      </trkpt>
      <trkpt lat="46.31064" lon="0.32802">
        <ele>159.25774252042</ele>
        <time>2021-03-07T08:05:29Z</time>
      </trkpt>
      <trkpt lat="46.31061" lon="0.32803">
        <ele>158.4807810979</ele>
        <time>2021-03-07T08:05:31Z</time>
      </trkpt>
      <trkpt lat="46.31059" lon="0.32804">
        <ele>158.22508674208</ele>
        <time>2021-03-07T08:05:33Z</time>
      </trkpt>
      <trkpt lat="46.31056" lon="0.32806">
        <ele>158.08933551703</ele>
        <time>2021-03-07T08:05:35Z</time>
      </trkpt>
      <trkpt lat="46.31053" lon="0.32808">
        <ele>158.00689116493</ele>
        <time>2021-03-07T08:05:37Z</time>
      </trkpt>
      <trkpt lat="46.31051" lon="0.3281">
        <ele>158.12835924886</ele>
        <time>2021-03-07T08:05:39Z</time>
      </trkpt>
      <trkpt lat="46.31049" lon="0.32811">
        <ele>158.99186771736</ele>
        <time>2021-03-07T08:05:41Z</time>
      </trkpt>
      <trkpt lat="46.31047" lon="0.32811">
        <ele>158.65137239732</ele>
        <time>2021-03-07T08:05:43Z</time>
      </trkpt>
      <trkpt lat="46.31045" lon="0.32813">
        <ele>158.65196095873</ele>
        <time>2021-03-07T08:05:45Z</time>
      </trkpt>
      <trkpt lat="46.31042" lon="0.32816">
        <ele>159.13253703993</ele>
        <time>2021-03-07T08:05:47Z</time>
      </trkpt>
      <trkpt lat="46.31039" lon="0.32818">
        <ele>158.64389363211</ele>
        <time>2021-03-07T08:05:49Z</time>
      </trkpt>
      <trkpt lat="46.31036" lon="0.3282">
        <ele>159.06249155663</ele>
        <time>2021-03-07T08:05:51Z</time>
      </trkpt>
      <trkpt lat="46.31035" lon="0.32821">
        <ele>159.06154873315</ele>
        <time>2021-03-07T08:05:53Z</time>
      </trkpt>
      <trkpt lat="46.31032" lon="0.32822">
        <ele>159.15039512981</ele>
        <time>2021-03-07T08:05:55Z</time>
      </trkpt>
      <trkpt lat="46.3103" lon="0.32822">
        <ele>159.4267408764</ele>
        <time>2021-03-07T08:05:56Z</time>
      </trkpt>
      <trkpt lat="46.31029" lon="0.32823">
        <ele>159.54192791879</ele>
        <time>2021-03-07T08:05:58Z</time>
      </trkpt>
      <trkpt lat="46.31026" lon="0.32825">
        <ele>159.53684317227</ele>
        <time>2021-03-07T08:06:00Z</time>
      </trkpt>
      <trkpt lat="46.31024" lon="0.32827">
        <ele>159.62294042576</ele>
        <time>2021-03-07T08:06:01Z</time>
      </trkpt>
      <trkpt lat="46.31023" lon="0.32829">
        <ele>159.41304055508</ele>
        <time>2021-03-07T08:06:02Z</time>
      </trkpt>
      <trkpt lat="46.31021" lon="0.3283">
        <ele>160.02884228807</ele>
        <time>2021-03-07T08:06:05Z</time>
      </trkpt>
      <trkpt lat="46.31019" lon="0.32832">
        <ele>159.76230211556</ele>
        <time>2021-03-07T08:06:07Z</time>
      </trkpt>
      <trkpt lat="46.31016" lon="0.32834">
        <ele>159.99213533942</ele>
        <time>2021-03-07T08:06:09Z</time>
      </trkpt>
      <trkpt lat="46.31014" lon="0.32837">
        <ele>160.50071645807</ele>
        <time>2021-03-07T08:06:11Z</time>
      </trkpt>
      <trkpt lat="46.31012" lon="0.32838">
        <ele>160.2399792159</ele>
        <time>2021-03-07T08:06:13Z</time>
      </trkpt>
      <trkpt lat="46.3101" lon="0.32839">
        <ele>160.2343854215</ele>
        <time>2021-03-07T08:06:14Z</time>
      </trkpt>
      <trkpt lat="46.31009" lon="0.32844">
        <ele>160.63591337949</ele>
        <time>2021-03-07T08:06:16Z</time>
      </trkpt>
      <trkpt lat="46.31007" lon="0.32846">
        <ele>160.7198746996</ele>
        <time>2021-03-07T08:06:18Z</time>
      </trkpt>
      <trkpt lat="46.31005" lon="0.32848">
        <ele>160.7933938913</ele>
        <time>2021-03-07T08:06:20Z</time>
      </trkpt>
      <trkpt lat="46.31003" lon="0.32852">
        <ele>160.94152720831</ele>
        <time>2021-03-07T08:06:22Z</time>
      </trkpt>
      <trkpt lat="46.31002" lon="0.32854">
        <ele>160.81185319182</ele>
        <time>2021-03-07T08:06:23Z</time>
      </trkpt>
      <trkpt lat="46.31001" lon="0.32857">
        <ele>160.96922334097</ele>
        <time>2021-03-07T08:06:25Z</time>
      </trkpt>
      <trkpt lat="46.31" lon="0.3286">
        <ele>161.20704771206</ele>
        <time>2021-03-07T08:06:26Z</time>
      </trkpt>
      <trkpt lat="46.30997" lon="0.32864">
        <ele>161.37779599614</ele>
        <time>2021-03-07T08:06:29Z</time>
      </trkpt>
      <trkpt lat="46.30996" lon="0.32865">
        <ele>161.65768982004</ele>
        <time>2021-03-07T08:06:30Z</time>
      </trkpt>
      <trkpt lat="46.30994" lon="0.32867">
        <ele>161.0543109104</ele>
        <time>2021-03-07T08:06:31Z</time>
      </trkpt>
      <trkpt lat="46.30993" lon="0.3287">
        <ele>161.14720617607</ele>
        <time>2021-03-07T08:06:33Z</time>
      </trkpt>
      <trkpt lat="46.30991" lon="0.32873">
        <ele>161.00164715573</ele>
        <time>2021-03-07T08:06:35Z</time>
      </trkpt>
      <trkpt lat="46.3099" lon="0.32877">
        <ele>161.91432485636</ele>
        <time>2021-03-07T08:06:37Z</time>
      </trkpt>
      <trkpt lat="46.30989" lon="0.3288">
        <ele>162.06327615958</ele>
        <time>2021-03-07T08:06:39Z</time>
      </trkpt>
      <trkpt lat="46.30987" lon="0.32884">
        <ele>161.39961794764</ele>
        <time>2021-03-07T08:06:41Z</time>
      </trkpt>
      <trkpt lat="46.30986" lon="0.32887">
        <ele>161.83486566506</ele>
        <time>2021-03-07T08:06:43Z</time>
      </trkpt>
      <trkpt lat="46.30984" lon="0.3289">
        <ele>161.83059168048</ele>
        <time>2021-03-07T08:06:46Z</time>
      </trkpt>
      <trkpt lat="46.30982" lon="0.32893">
        <ele>161.79498849716</ele>
        <time>2021-03-07T08:06:48Z</time>
      </trkpt>
      <trkpt lat="46.3098" lon="0.32897">
        <ele>161.8280780958</ele>
        <time>2021-03-07T08:06:50Z</time>
      </trkpt>
      <trkpt lat="46.30978" lon="0.32899">
        <ele>161.98004392721</ele>
        <time>2021-03-07T08:06:52Z</time>
      </trkpt>
      <trkpt lat="46.30976" lon="0.32902">
        <ele>161.80342289526</ele>
        <time>2021-03-07T08:06:54Z</time>
      </trkpt>
      <trkpt lat="46.30973" lon="0.32905">
        <ele>161.96665278263</ele>
        <time>2021-03-07T08:06:56Z</time>
      </trkpt>
      <trkpt lat="46.30971" lon="0.32907">
        <ele>161.90044206195</ele>
        <time>2021-03-07T08:06:59Z</time>
      </trkpt>
      <trkpt lat="46.3097" lon="0.32908">
        <ele>161.73435379006</ele>
        <time>2021-03-07T08:07:00Z</time>
      </trkpt>
      <trkpt lat="46.30968" lon="0.32911">
        <ele>162.52745639812</ele>
        <time>2021-03-07T08:07:02Z</time>
      </trkpt>
      <trkpt lat="46.30966" lon="0.32913">
        <ele>162.61591237038</ele>
        <time>2021-03-07T08:07:04Z</time>
      </trkpt>
      <trkpt lat="46.30965" lon="0.32916">
        <ele>162.13097215351</ele>
        <time>2021-03-07T08:07:06Z</time>
      </trkpt>
      <trkpt lat="46.30963" lon="0.32919">
        <ele>162.00678748917</ele>
        <time>2021-03-07T08:07:08Z</time>
      </trkpt>
      <trkpt lat="46.30961" lon="0.32921">
        <ele>162.70186404418</ele>
        <time>2021-03-07T08:07:10Z</time>
      </trkpt>
      <trkpt lat="46.3096" lon="0.32923">
        <ele>162.38127715513</ele>
        <time>2021-03-07T08:07:12Z</time>
      </trkpt>
      <trkpt lat="46.30958" lon="0.32926">
        <ele>162.27212289069</ele>
        <time>2021-03-07T08:07:14Z</time>
      </trkpt>
      <trkpt lat="46.30957" lon="0.32929">
        <ele>162.20299282949</ele>
        <time>2021-03-07T08:07:16Z</time>
      </trkpt>
      <trkpt lat="46.30955" lon="0.32932">
        <ele>162.18889391515</ele>
        <time>2021-03-07T08:07:18Z</time>
      </trkpt>
      <trkpt lat="46.30954" lon="0.32935">
        <ele>162.62556876335</ele>
        <time>2021-03-07T08:07:20Z</time>
      </trkpt>
      <trkpt lat="46.30954" lon="0.32937">
        <ele>162.20004006103</ele>
        <time>2021-03-07T08:07:22Z</time>
      </trkpt>
      <trkpt lat="46.30952" lon="0.32941">
        <ele>162.55796980672</ele>
        <time>2021-03-07T08:07:24Z</time>
      </trkpt>
      <trkpt lat="46.30952" lon="0.32944">
        <ele>162.2969636824</ele>
        <time>2021-03-07T08:07:26Z</time>
      </trkpt>
      <trkpt lat="46.3095" lon="0.32948">
        <ele>162.21779009048</ele>
        <time>2021-03-07T08:07:29Z</time>
      </trkpt>
      <trkpt lat="46.30947" lon="0.32951">
        <ele>162.22098594159</ele>
        <time>2021-03-07T08:07:31Z</time>
      </trkpt>
      <trkpt lat="46.30944" lon="0.32951">
        <ele>161.98100051936</ele>
        <time>2021-03-07T08:07:33Z</time>
      </trkpt>
      <trkpt lat="46.30942" lon="0.32949">
        <ele>162.0393878296</ele>
        <time>2021-03-07T08:07:35Z</time>
      </trkpt>
      <trkpt lat="46.3094" lon="0.32947">
        <ele>161.79259793647</ele>
        <time>2021-03-07T08:07:36Z</time>
      </trkpt>
      <trkpt lat="46.30937" lon="0.32946">
        <ele>161.70784356352</ele>
        <time>2021-03-07T08:07:38Z</time>
      </trkpt>
      <trkpt lat="46.30935" lon="0.32944">
        <ele>161.934795646</ele>
        <time>2021-03-07T08:07:40Z</time>
      </trkpt>
      <trkpt lat="46.30932" lon="0.32943">
        <ele>161.76654751599</ele>
        <time>2021-03-07T08:07:42Z</time>
      </trkpt>
      <trkpt lat="46.30929" lon="0.32942">
        <ele>161.76824658643</ele>
        <time>2021-03-07T08:07:44Z</time>
      </trkpt>
      <trkpt lat="46.30926" lon="0.3294">
        <ele>161.84623027407</ele>
        <time>2021-03-07T08:07:46Z</time>
      </trkpt>
      <trkpt lat="46.30924" lon="0.32939">
        <ele>161.58634372894</ele>
        <time>2021-03-07T08:07:48Z</time>
      </trkpt>
      <trkpt lat="46.30921" lon="0.32937">
        <ele>161.44033702742</ele>
        <time>2021-03-07T08:07:50Z</time>
      </trkpt>
      <trkpt lat="46.30919" lon="0.32936">
        <ele>161.49534770939</ele>
        <time>2021-03-07T08:07:52Z</time>
      </trkpt>
      <trkpt lat="46.30918" lon="0.32935">
        <ele>161.60544648021</ele>
        <time>2021-03-07T08:07:53Z</time>
      </trkpt>
      <trkpt lat="46.30915" lon="0.32934">
        <ele>161.94116367586</ele>
        <time>2021-03-07T08:07:55Z</time>
      </trkpt>
      <trkpt lat="46.30914" lon="0.32932">
        <ele>161.54657637049</ele>
        <time>2021-03-07T08:07:57Z</time>
      </trkpt>
      <trkpt lat="46.30912" lon="0.32929">
        <ele>161.2575252885</ele>
        <time>2021-03-07T08:07:59Z</time>
      </trkpt>
      <trkpt lat="46.30909" lon="0.32926">
        <ele>161.44580947887</ele>
        <time>2021-03-07T08:08:01Z</time>
      </trkpt>
      <trkpt lat="46.30906" lon="0.32926">
        <ele>161.1674772026</ele>
        <time>2021-03-07T08:08:03Z</time>
      </trkpt>
      <trkpt lat="46.30904" lon="0.32924">
        <ele>161.24346261565</ele>
        <time>2021-03-07T08:08:05Z</time>
      </trkpt>
      <trkpt lat="46.30901" lon="0.32922">
        <ele>161.3043689616</ele>
        <time>2021-03-07T08:08:07Z</time>
      </trkpt>
      <trkpt lat="46.30899" lon="0.3292">
        <ele>160.78406912088</ele>
        <time>2021-03-07T08:08:09Z</time>
      </trkpt>
      <trkpt lat="46.30896" lon="0.32918">
        <ele>160.89216217678</ele>
        <time>2021-03-07T08:08:11Z</time>
      </trkpt>
      <trkpt lat="46.30895" lon="0.32914">
        <ele>160.64073433261</ele>
        <time>2021-03-07T08:08:13Z</time>
      </trkpt>
      <trkpt lat="46.30893" lon="0.32912">
        <ele>160.36707180738</ele>
        <time>2021-03-07T08:08:15Z</time>
      </trkpt>
      <trkpt lat="46.30892" lon="0.32911">
        <ele>159.98110979982</ele>
        <time>2021-03-07T08:08:17Z</time>
      </trkpt>
      <trkpt lat="46.3089" lon="0.3291">
        <ele>160.24129057117</ele>
        <time>2021-03-07T08:08:19Z</time>
      </trkpt>
      <trkpt lat="46.30886" lon="0.32908">
        <ele>159.9225155348</ele>
        <time>2021-03-07T08:08:21Z</time>
      </trkpt>
      <trkpt lat="46.30885" lon="0.32905">
        <ele>159.68802186288</ele>
        <time>2021-03-07T08:08:23Z</time>
      </trkpt>
      <trkpt lat="46.30883" lon="0.32904">
        <ele>159.46533108223</ele>
        <time>2021-03-07T08:08:24Z</time>
      </trkpt>
      <trkpt lat="46.30881" lon="0.32903">
        <ele>159.84887866676</ele>
        <time>2021-03-07T08:08:26Z</time>
      </trkpt>
      <trkpt lat="46.30879" lon="0.32901">
        <ele>159.61495858897</ele>
        <time>2021-03-07T08:08:27Z</time>
      </trkpt>
      <trkpt lat="46.30876" lon="0.329">
        <ele>159.52261331771</ele>
        <time>2021-03-07T08:08:29Z</time>
      </trkpt>
      <trkpt lat="46.30875" lon="0.32898">
        <ele>159.09445413481</ele>
        <time>2021-03-07T08:08:31Z</time>
      </trkpt>
      <trkpt lat="46.30873" lon="0.32896">
        <ele>159.1103457883</ele>
        <time>2021-03-07T08:08:33Z</time>
      </trkpt>
      <trkpt lat="46.30872" lon="0.32894">
        <ele>159.20260205958</ele>
        <time>2021-03-07T08:08:34Z</time>
      </trkpt>
      <trkpt lat="46.30869" lon="0.32891">
        <ele>158.61559988558</ele>
        <time>2021-03-07T08:08:36Z</time>
      </trkpt>
      <trkpt lat="46.30867" lon="0.3289">
        <ele>158.7461471865</ele>
        <time>2021-03-07T08:08:38Z</time>
      </trkpt>
      <trkpt lat="46.30864" lon="0.32886">
        <ele>158.92198909353</ele>
        <time>2021-03-07T08:08:40Z</time>
      </trkpt>
      <trkpt lat="46.30862" lon="0.32883">
        <ele>159.24793763086</ele>
        <time>2021-03-07T08:08:42Z</time>
      </trkpt>
      <trkpt lat="46.30861" lon="0.32881">
        <ele>159.63937977888</ele>
        <time>2021-03-07T08:08:43Z</time>
      </trkpt>
      <trkpt lat="46.30859" lon="0.32879">
        <ele>159.30479054619</ele>
        <time>2021-03-07T08:08:44Z</time>
      </trkpt>
      <trkpt lat="46.30857" lon="0.32877">
        <ele>158.90197491739</ele>
        <time>2021-03-07T08:08:46Z</time>
      </trkpt>
      <trkpt lat="46.30854" lon="0.32875">
        <ele>157.90575962793</ele>
        <time>2021-03-07T08:08:48Z</time>
      </trkpt>
      <trkpt lat="46.30852" lon="0.32873">
        <ele>158.08720477484</ele>
        <time>2021-03-07T08:08:50Z</time>
      </trkpt>
      <trkpt lat="46.3085" lon="0.32872">
        <ele>158.50282428786</ele>
        <time>2021-03-07T08:08:51Z</time>
      </trkpt>
      <trkpt lat="46.30848" lon="0.3287">
        <ele>158.34165140335</ele>
        <time>2021-03-07T08:08:53Z</time>
      </trkpt>
      <trkpt lat="46.30846" lon="0.32868">
        <ele>158.05846608803</ele>
        <time>2021-03-07T08:08:55Z</time>
      </trkpt>
      <trkpt lat="46.30843" lon="0.32866">
        <ele>158.74421820045</ele>
        <time>2021-03-07T08:08:57Z</time>
      </trkpt>
      <trkpt lat="46.3084" lon="0.32864">
        <ele>157.98538624216</ele>
        <time>2021-03-07T08:08:59Z</time>
      </trkpt>
      <trkpt lat="46.30838" lon="0.32862">
        <ele>157.92802230548</ele>
        <time>2021-03-07T08:09:01Z</time>
      </trkpt>
      <trkpt lat="46.30835" lon="0.32861">
        <ele>156.78774829768</ele>
        <time>2021-03-07T08:09:04Z</time>
      </trkpt>
      <trkpt lat="46.30833" lon="0.32858">
        <ele>156.75511316769</ele>
        <time>2021-03-07T08:09:06Z</time>
      </trkpt>
      <trkpt lat="46.30832" lon="0.32857">
        <ele>157.28667805623</ele>
        <time>2021-03-07T08:09:07Z</time>
      </trkpt>
      <trkpt lat="46.3083" lon="0.32855">
        <ele>157.09824453294</ele>
        <time>2021-03-07T08:09:09Z</time>
      </trkpt>
      <trkpt lat="46.30827" lon="0.32854">
        <ele>157.51165258791</ele>
        <time>2021-03-07T08:09:11Z</time>
      </trkpt>
      <trkpt lat="46.30824" lon="0.32851">
        <ele>156.70804303978</ele>
        <time>2021-03-07T08:09:14Z</time>
      </trkpt>
      <trkpt lat="46.30822" lon="0.3285">
        <ele>156.7118577566</ele>
        <time>2021-03-07T08:09:16Z</time>
      </trkpt>
      <trkpt lat="46.30819" lon="0.3285">
        <ele>156.61931519117</ele>
        <time>2021-03-07T08:09:18Z</time>
      </trkpt>
      <trkpt lat="46.30817" lon="0.32849">
        <ele>156.76419652533</ele>
        <time>2021-03-07T08:09:20Z</time>
      </trkpt>
      <trkpt lat="46.30815" lon="0.32848">
        <ele>156.8015788151</ele>
        <time>2021-03-07T08:09:21Z</time>
      </trkpt>
      <trkpt lat="46.30813" lon="0.32846">
        <ele>156.75048633758</ele>
        <time>2021-03-07T08:09:23Z</time>
      </trkpt>
      <trkpt lat="46.3081" lon="0.32845">
        <ele>156.66135433316</ele>
        <time>2021-03-07T08:09:25Z</time>
      </trkpt>
      <trkpt lat="46.30807" lon="0.32843">
        <ele>156.90191806294</ele>
        <time>2021-03-07T08:09:27Z</time>
      </trkpt>
      <trkpt lat="46.30804" lon="0.32842">
        <ele>156.81437510625</ele>
        <time>2021-03-07T08:09:29Z</time>
      </trkpt>
      <trkpt lat="46.30801" lon="0.32841">
        <ele>156.61844148673</ele>
        <time>2021-03-07T08:09:31Z</time>
      </trkpt>
      <trkpt lat="46.30799" lon="0.32841">
        <ele>156.8651011968</ele>
        <time>2021-03-07T08:09:33Z</time>
      </trkpt>
      <trkpt lat="46.30796" lon="0.3284">
        <ele>156.23070722353</ele>
        <time>2021-03-07T08:09:36Z</time>
      </trkpt>
      <trkpt lat="46.30793" lon="0.32838">
        <ele>156.20471584611</ele>
        <time>2021-03-07T08:09:38Z</time>
      </trkpt>
      <trkpt lat="46.30791" lon="0.32838">
        <ele>156.24427893572</ele>
        <time>2021-03-07T08:09:40Z</time>
      </trkpt>
      <trkpt lat="46.30787" lon="0.32836">
        <ele>156.01810941938</ele>
        <time>2021-03-07T08:09:42Z</time>
      </trkpt>
      <trkpt lat="46.30785" lon="0.32835">
        <ele>156.61907804292</ele>
        <time>2021-03-07T08:09:44Z</time>
      </trkpt>
      <trkpt lat="46.30783" lon="0.32834">
        <ele>156.33092856128</ele>
        <time>2021-03-07T08:09:46Z</time>
      </trkpt>
      <trkpt lat="46.30781" lon="0.32832">
        <ele>156.05340427347</ele>
        <time>2021-03-07T08:09:47Z</time>
      </trkpt>
      <trkpt lat="46.30778" lon="0.32831">
        <ele>155.92204590887</ele>
        <time>2021-03-07T08:09:49Z</time>
      </trkpt>
      <trkpt lat="46.30775" lon="0.32831">
        <ele>156.32660325803</ele>
        <time>2021-03-07T08:09:51Z</time>
      </trkpt>
      <trkpt lat="46.30773" lon="0.32831">
        <ele>156.43773973454</ele>
        <time>2021-03-07T08:09:52Z</time>
      </trkpt>
      <trkpt lat="46.30771" lon="0.3283">
        <ele>156.26149641629</ele>
        <time>2021-03-07T08:09:54Z</time>
      </trkpt>
      <trkpt lat="46.30769" lon="0.32829">
        <ele>156.53116689716</ele>
        <time>2021-03-07T08:09:56Z</time>
      </trkpt>
      <trkpt lat="46.30766" lon="0.32828">
        <ele>156.04466988053</ele>
        <time>2021-03-07T08:09:58Z</time>
      </trkpt>
      <trkpt lat="46.30763" lon="0.32828">
        <ele>156.08884284459</ele>
        <time>2021-03-07T08:10:00Z</time>
      </trkpt>
      <trkpt lat="46.30761" lon="0.32827">
        <ele>156.05457650218</ele>
        <time>2021-03-07T08:10:02Z</time>
      </trkpt>
      <trkpt lat="46.30758" lon="0.32827">
        <ele>156.00970892236</ele>
        <time>2021-03-07T08:10:04Z</time>
      </trkpt>
      <trkpt lat="46.30755" lon="0.32827">
        <ele>156.17037721165</ele>
        <time>2021-03-07T08:10:06Z</time>
      </trkpt>
      <trkpt lat="46.30752" lon="0.32826">
        <ele>156.13176793419</ele>
        <time>2021-03-07T08:10:08Z</time>
      </trkpt>
      <trkpt lat="46.30748" lon="0.32826">
        <ele>156.12142905034</ele>
        <time>2021-03-07T08:10:10Z</time>
      </trkpt>
      <trkpt lat="46.30746" lon="0.32826">
        <ele>155.94061700068</ele>
        <time>2021-03-07T08:10:12Z</time>
      </trkpt>
      <trkpt lat="46.30744" lon="0.32826">
        <ele>155.81034988258</ele>
        <time>2021-03-07T08:10:14Z</time>
      </trkpt>
      <trkpt lat="46.30742" lon="0.32826">
        <ele>155.71702752262</ele>
        <time>2021-03-07T08:10:16Z</time>
      </trkpt>
      <trkpt lat="46.30739" lon="0.32825">
        <ele>155.2426775638</ele>
        <time>2021-03-07T08:10:18Z</time>
      </trkpt>
      <trkpt lat="46.30736" lon="0.32824">
        <ele>155.63572453428</ele>
        <time>2021-03-07T08:10:20Z</time>
      </trkpt>
      <trkpt lat="46.30733" lon="0.32823">
        <ele>155.760471371</ele>
        <time>2021-03-07T08:10:22Z</time>
      </trkpt>
      <trkpt lat="46.30732" lon="0.32823">
        <ele>155.27017566375</ele>
        <time>2021-03-07T08:10:24Z</time>
      </trkpt>
      <trkpt lat="46.30728" lon="0.32823">
        <ele>155.69520744216</ele>
        <time>2021-03-07T08:10:26Z</time>
      </trkpt>
      <trkpt lat="46.30726" lon="0.32823">
        <ele>156.189919414</ele>
        <time>2021-03-07T08:10:27Z</time>
      </trkpt>
      <trkpt lat="46.30724" lon="0.32823">
        <ele>155.28790871706</ele>
        <time>2021-03-07T08:10:29Z</time>
      </trkpt>
      <trkpt lat="46.30721" lon="0.32822">
        <ele>155.47522557899</ele>
        <time>2021-03-07T08:10:31Z</time>
      </trkpt>
      <trkpt lat="46.30718" lon="0.32823">
        <ele>155.07959292922</ele>
        <time>2021-03-07T08:10:33Z</time>
      </trkpt>
      <trkpt lat="46.30715" lon="0.32822">
        <ele>155.26581961196</ele>
        <time>2021-03-07T08:10:35Z</time>
      </trkpt>
      <trkpt lat="46.30713" lon="0.32823">
        <ele>155.22092114389</ele>
        <time>2021-03-07T08:10:37Z</time>
      </trkpt>
      <trkpt lat="46.3071" lon="0.32822">
        <ele>155.11034589075</ele>
        <time>2021-03-07T08:10:39Z</time>
      </trkpt>
      <trkpt lat="46.30707" lon="0.32821">
        <ele>155.20400428679</ele>
        <time>2021-03-07T08:10:41Z</time>
      </trkpt>
      <trkpt lat="46.30705" lon="0.32821">
        <ele>155.55535989255</ele>
        <time>2021-03-07T08:10:43Z</time>
      </trkpt>
      <trkpt lat="46.30702" lon="0.32821">
        <ele>155.39418609347</ele>
        <time>2021-03-07T08:10:45Z</time>
      </trkpt>
      <trkpt lat="46.30699" lon="0.32821">
        <ele>155.43153933715</ele>
        <time>2021-03-07T08:10:47Z</time>
      </trkpt>
      <trkpt lat="46.30696" lon="0.32821">
        <ele>155.26182760485</ele>
        <time>2021-03-07T08:10:49Z</time>
      </trkpt>
      <trkpt lat="46.30693" lon="0.3282">
        <ele>155.04058689997</ele>
        <time>2021-03-07T08:10:51Z</time>
      </trkpt>
      <trkpt lat="46.30691" lon="0.3282">
        <ele>155.01958338544</ele>
        <time>2021-03-07T08:10:53Z</time>
      </trkpt>
      <trkpt lat="46.30688" lon="0.3282">
        <ele>155.05765531119</ele>
        <time>2021-03-07T08:10:55Z</time>
      </trkpt>
      <trkpt lat="46.30684" lon="0.32819">
        <ele>155.0166774625</ele>
        <time>2021-03-07T08:10:57Z</time>
      </trkpt>
      <trkpt lat="46.30681" lon="0.32819">
        <ele>155.02252889425</ele>
        <time>2021-03-07T08:11:00Z</time>
      </trkpt>
      <trkpt lat="46.30679" lon="0.32819">
        <ele>155.03476519324</ele>
        <time>2021-03-07T08:11:02Z</time>
      </trkpt>
      <trkpt lat="46.30676" lon="0.32819">
        <ele>154.97521489207</ele>
        <time>2021-03-07T08:11:04Z</time>
      </trkpt>
      <trkpt lat="46.30673" lon="0.32819">
        <ele>155.02608332597</ele>
        <time>2021-03-07T08:11:06Z</time>
      </trkpt>
      <trkpt lat="46.3067" lon="0.32817">
        <ele>154.75087437313</ele>
        <time>2021-03-07T08:11:08Z</time>
      </trkpt>
      <trkpt lat="46.30666" lon="0.32817">
        <ele>155.01775805466</ele>
        <time>2021-03-07T08:11:11Z</time>
      </trkpt>
      <trkpt lat="46.30663" lon="0.32817">
        <ele>154.75380800292</ele>
        <time>2021-03-07T08:11:13Z</time>
      </trkpt>
      <trkpt lat="46.3066" lon="0.32816">
        <ele>154.90940989275</ele>
        <time>2021-03-07T08:11:15Z</time>
      </trkpt>
      <trkpt lat="46.30658" lon="0.32816">
        <ele>154.62986916304</ele>
        <time>2021-03-07T08:11:17Z</time>
      </trkpt>
      <trkpt lat="46.30655" lon="0.32816">
        <ele>154.31126764417</ele>
        <time>2021-03-07T08:11:19Z</time>
      </trkpt>
      <trkpt lat="46.30652" lon="0.32816">
        <ele>154.1911646137</ele>
        <time>2021-03-07T08:11:21Z</time>
      </trkpt>
      <trkpt lat="46.30649" lon="0.32815">
        <ele>154.22134014778</ele>
        <time>2021-03-07T08:11:23Z</time>
      </trkpt>
      <trkpt lat="46.30647" lon="0.32815">
        <ele>154.24476337153</ele>
        <time>2021-03-07T08:11:25Z</time>
      </trkpt>
      <trkpt lat="46.30644" lon="0.32815">
        <ele>154.2960737031</ele>
        <time>2021-03-07T08:11:27Z</time>
      </trkpt>
      <trkpt lat="46.30642" lon="0.32815">
        <ele>154.17224857491</ele>
        <time>2021-03-07T08:11:29Z</time>
      </trkpt>
      <trkpt lat="46.3064" lon="0.32814">
        <ele>154.38291438203</ele>
        <time>2021-03-07T08:11:31Z</time>
      </trkpt>
      <trkpt lat="46.30638" lon="0.32814">
        <ele>154.33677198645</ele>
        <time>2021-03-07T08:11:32Z</time>
      </trkpt>
      <trkpt lat="46.30635" lon="0.32814">
        <ele>154.56805882324</ele>
        <time>2021-03-07T08:11:34Z</time>
      </trkpt>
      <trkpt lat="46.30633" lon="0.32814">
        <ele>154.37590791006</ele>
        <time>2021-03-07T08:11:36Z</time>
      </trkpt>
      <trkpt lat="46.30631" lon="0.32814">
        <ele>154.34489369299</ele>
        <time>2021-03-07T08:11:38Z</time>
      </trkpt>
      <trkpt lat="46.30628" lon="0.32813">
        <ele>154.08407445531</ele>
        <time>2021-03-07T08:11:40Z</time>
      </trkpt>
      <trkpt lat="46.30626" lon="0.32813">
        <ele>154.63218291756</ele>
        <time>2021-03-07T08:11:41Z</time>
      </trkpt>
      <trkpt lat="46.30624" lon="0.32813">
        <ele>154.61460010149</ele>
        <time>2021-03-07T08:11:43Z</time>
      </trkpt>
      <trkpt lat="46.30622" lon="0.32813">
        <ele>154.21057471726</ele>
        <time>2021-03-07T08:11:45Z</time>
      </trkpt>
      <trkpt lat="46.30619" lon="0.32812">
        <ele>154.33990595583</ele>
        <time>2021-03-07T08:11:47Z</time>
      </trkpt>
      <trkpt lat="46.30617" lon="0.32812">
        <ele>153.91306903306</ele>
        <time>2021-03-07T08:11:49Z</time>
      </trkpt>
      <trkpt lat="46.30614" lon="0.32813">
        <ele>154.41042641737</ele>
        <time>2021-03-07T08:11:51Z</time>
      </trkpt>
      <trkpt lat="46.30611" lon="0.32812">
        <ele>154.15237457585</ele>
        <time>2021-03-07T08:11:53Z</time>
      </trkpt>
      <trkpt lat="46.30608" lon="0.32812">
        <ele>153.97679802589</ele>
        <time>2021-03-07T08:11:55Z</time>
      </trkpt>
      <trkpt lat="46.30606" lon="0.32811">
        <ele>154.27272918914</ele>
        <time>2021-03-07T08:11:57Z</time>
      </trkpt>
      <trkpt lat="46.30603" lon="0.3281">
        <ele>154.39573318046</ele>
        <time>2021-03-07T08:11:59Z</time>
      </trkpt>
      <trkpt lat="46.30601" lon="0.3281">
        <ele>154.00167876948</ele>
        <time>2021-03-07T08:12:01Z</time>
      </trkpt>
      <trkpt lat="46.30598" lon="0.32809">
        <ele>154.2931072386</ele>
        <time>2021-03-07T08:12:03Z</time>
      </trkpt>
      <trkpt lat="46.30596" lon="0.32809">
        <ele>153.90428263787</ele>
        <time>2021-03-07T08:12:05Z</time>
      </trkpt>
      <trkpt lat="46.30592" lon="0.32809">
        <ele>154.10707946774</ele>
        <time>2021-03-07T08:12:07Z</time>
      </trkpt>
      <trkpt lat="46.30589" lon="0.32808">
        <ele>153.96481865086</ele>
        <time>2021-03-07T08:12:09Z</time>
      </trkpt>
      <trkpt lat="46.30586" lon="0.32809">
        <ele>153.87012528162</ele>
        <time>2021-03-07T08:12:11Z</time>
      </trkpt>
      <trkpt lat="46.30583" lon="0.32809">
        <ele>153.80420542229</ele>
        <time>2021-03-07T08:12:13Z</time>
      </trkpt>
      <trkpt lat="46.30581" lon="0.32808">
        <ele>154.02253086679</ele>
        <time>2021-03-07T08:12:15Z</time>
      </trkpt>
      <trkpt lat="46.30578" lon="0.32808">
        <ele>154.03433625493</ele>
        <time>2021-03-07T08:12:17Z</time>
      </trkpt>
      <trkpt lat="46.30575" lon="0.32808">
        <ele>153.44823900983</ele>
        <time>2021-03-07T08:12:19Z</time>
      </trkpt>
      <trkpt lat="46.30573" lon="0.32807">
        <ele>153.80148674641</ele>
        <time>2021-03-07T08:12:21Z</time>
      </trkpt>
      <trkpt lat="46.3057" lon="0.32807">
        <ele>153.997745689</ele>
        <time>2021-03-07T08:12:23Z</time>
      </trkpt>
      <trkpt lat="46.30568" lon="0.32806">
        <ele>153.73065286595</ele>
        <time>2021-03-07T08:12:25Z</time>
      </trkpt>
      <trkpt lat="46.30565" lon="0.32806">
        <ele>153.74797342252</ele>
        <time>2021-03-07T08:12:27Z</time>
      </trkpt>
      <trkpt lat="46.30562" lon="0.32806">
        <ele>153.24578856304</ele>
        <time>2021-03-07T08:12:29Z</time>
      </trkpt>
      <trkpt lat="46.30559" lon="0.32806">
        <ele>153.83985437173</ele>
        <time>2021-03-07T08:12:31Z</time>
      </trkpt>
      <trkpt lat="46.30557" lon="0.32805">
        <ele>153.76689449418</ele>
        <time>2021-03-07T08:12:33Z</time>
      </trkpt>
      <trkpt lat="46.30555" lon="0.32804">
        <ele>153.37036829256</ele>
        <time>2021-03-07T08:12:35Z</time>
      </trkpt>
      <trkpt lat="46.30552" lon="0.32805">
        <ele>153.35465867445</ele>
        <time>2021-03-07T08:12:37Z</time>
      </trkpt>
      <trkpt lat="46.30549" lon="0.32805">
        <ele>152.9727705447</ele>
        <time>2021-03-07T08:12:39Z</time>
      </trkpt>
      <trkpt lat="46.30547" lon="0.32805">
        <ele>153.18797563203</ele>
        <time>2021-03-07T08:12:41Z</time>
      </trkpt>
      <trkpt lat="46.30545" lon="0.32805">
        <ele>153.10443361942</ele>
        <time>2021-03-07T08:12:43Z</time>
      </trkpt>
      <trkpt lat="46.30543" lon="0.32805">
        <ele>153.15336469561</ele>
        <time>2021-03-07T08:12:45Z</time>
      </trkpt>
      <trkpt lat="46.3054" lon="0.32805">
        <ele>153.15677246079</ele>
        <time>2021-03-07T08:12:47Z</time>
      </trkpt>
      <trkpt lat="46.30538" lon="0.32806">
        <ele>153.24897679314</ele>
        <time>2021-03-07T08:12:48Z</time>
      </trkpt>
      <trkpt lat="46.30535" lon="0.32806">
        <ele>152.98968316056</ele>
        <time>2021-03-07T08:12:50Z</time>
      </trkpt>
      <trkpt lat="46.30532" lon="0.32807">
        <ele>152.8218787834</ele>
        <time>2021-03-07T08:12:52Z</time>
      </trkpt>
      <trkpt lat="46.30529" lon="0.32807">
        <ele>153.38513956126</ele>
        <time>2021-03-07T08:12:54Z</time>
      </trkpt>
      <trkpt lat="46.30526" lon="0.32808">
        <ele>153.11293501593</ele>
        <time>2021-03-07T08:12:57Z</time>
      </trkpt>
      <trkpt lat="46.30523" lon="0.32808">
        <ele>152.82155750692</ele>
        <time>2021-03-07T08:12:59Z</time>
      </trkpt>
      <trkpt lat="46.3052" lon="0.32809">
        <ele>153.20840298384</ele>
        <time>2021-03-07T08:13:01Z</time>
      </trkpt>
      <trkpt lat="46.30517" lon="0.3281">
        <ele>152.96158313751</ele>
        <time>2021-03-07T08:13:03Z</time>
      </trkpt>
      <trkpt lat="46.30515" lon="0.32811">
        <ele>153.30651331693</ele>
        <time>2021-03-07T08:13:05Z</time>
      </trkpt>
      <trkpt lat="46.30513" lon="0.32812">
        <ele>153.12993277889</ele>
        <time>2021-03-07T08:13:07Z</time>
      </trkpt>
      <trkpt lat="46.3051" lon="0.32813">
        <ele>153.11868312955</ele>
        <time>2021-03-07T08:13:09Z</time>
      </trkpt>
      <trkpt lat="46.30508" lon="0.32813">
        <ele>152.3583549913</ele>
        <time>2021-03-07T08:13:11Z</time>
      </trkpt>
      <trkpt lat="46.30505" lon="0.32815">
        <ele>152.41356970556</ele>
        <time>2021-03-07T08:13:13Z</time>
      </trkpt>
      <trkpt lat="46.30502" lon="0.32816">
        <ele>152.41310779285</ele>
        <time>2021-03-07T08:13:15Z</time>
      </trkpt>
      <trkpt lat="46.305" lon="0.32818">
        <ele>152.65655867197</ele>
        <time>2021-03-07T08:13:17Z</time>
      </trkpt>
      <trkpt lat="46.30498" lon="0.32819">
        <ele>152.29856033623</ele>
        <time>2021-03-07T08:13:19Z</time>
      </trkpt>
      <trkpt lat="46.30495" lon="0.3282">
        <ele>152.1975920368</ele>
        <time>2021-03-07T08:13:21Z</time>
      </trkpt>
      <trkpt lat="46.30493" lon="0.32821">
        <ele>152.10903863888</ele>
        <time>2021-03-07T08:13:23Z</time>
      </trkpt>
      <trkpt lat="46.30491" lon="0.32821">
        <ele>151.88144662883</ele>
        <time>2021-03-07T08:13:24Z</time>
      </trkpt>
      <trkpt lat="46.30488" lon="0.32822">
        <ele>151.94113564584</ele>
        <time>2021-03-07T08:13:26Z</time>
      </trkpt>
      <trkpt lat="46.30486" lon="0.32822">
        <ele>152.06588724442</ele>
        <time>2021-03-07T08:13:27Z</time>
      </trkpt>
      <trkpt lat="46.30484" lon="0.32824">
        <ele>152.08516616933</ele>
        <time>2021-03-07T08:13:29Z</time>
      </trkpt>
      <trkpt lat="46.30482" lon="0.32825">
        <ele>152.01886322815</ele>
        <time>2021-03-07T08:13:31Z</time>
      </trkpt>
      <trkpt lat="46.30479" lon="0.32827">
        <ele>151.45847237017</ele>
        <time>2021-03-07T08:13:33Z</time>
      </trkpt>
      <trkpt lat="46.30477" lon="0.32828">
        <ele>151.3943223469</ele>
        <time>2021-03-07T08:13:35Z</time>
      </trkpt>
      <trkpt lat="46.30475" lon="0.32829">
        <ele>151.126507801</ele>
        <time>2021-03-07T08:13:37Z</time>
      </trkpt>
      <trkpt lat="46.30473" lon="0.32829">
        <ele>150.99750557449</ele>
        <time>2021-03-07T08:13:38Z</time>
      </trkpt>
      <trkpt lat="46.30471" lon="0.3283">
        <ele>151.1401583124</ele>
        <time>2021-03-07T08:13:40Z</time>
      </trkpt>
      <trkpt lat="46.30468" lon="0.32831">
        <ele>151.7330900589</ele>
        <time>2021-03-07T08:13:42Z</time>
      </trkpt>
      <trkpt lat="46.30467" lon="0.32832">
        <ele>151.11737035401</ele>
        <time>2021-03-07T08:13:43Z</time>
      </trkpt>
      <trkpt lat="46.30464" lon="0.32833">
        <ele>151.31410733704</ele>
        <time>2021-03-07T08:13:45Z</time>
      </trkpt>
      <trkpt lat="46.30462" lon="0.32834">
        <ele>151.47874873783</ele>
        <time>2021-03-07T08:13:47Z</time>
      </trkpt>
      <trkpt lat="46.3046" lon="0.32835">
        <ele>151.29313280899</ele>
        <time>2021-03-07T08:13:49Z</time>
      </trkpt>
      <trkpt lat="46.30457" lon="0.32836">
        <ele>151.268228475</ele>
        <time>2021-03-07T08:13:51Z</time>
      </trkpt>
      <trkpt lat="46.30455" lon="0.32837">
        <ele>150.7497056406</ele>
        <time>2021-03-07T08:13:53Z</time>
      </trkpt>
      <trkpt lat="46.30453" lon="0.32837">
        <ele>150.98777926341</ele>
        <time>2021-03-07T08:13:54Z</time>
      </trkpt>
      <trkpt lat="46.3045" lon="0.32839">
        <ele>151.31927509233</ele>
        <time>2021-03-07T08:13:56Z</time>
      </trkpt>
      <trkpt lat="46.30448" lon="0.3284">
        <ele>151.02140314691</ele>
        <time>2021-03-07T08:13:58Z</time>
      </trkpt>
      <trkpt lat="46.30446" lon="0.32841">
        <ele>151.08866676874</ele>
        <time>2021-03-07T08:14:00Z</time>
      </trkpt>
      <trkpt lat="46.30443" lon="0.32843">
        <ele>151.38969659712</ele>
        <time>2021-03-07T08:14:02Z</time>
      </trkpt>
      <trkpt lat="46.30441" lon="0.32844">
        <ele>150.98569348268</ele>
        <time>2021-03-07T08:14:04Z</time>
      </trkpt>
      <trkpt lat="46.30438" lon="0.32844">
        <ele>150.79920048546</ele>
        <time>2021-03-07T08:14:06Z</time>
      </trkpt>
      <trkpt lat="46.30435" lon="0.32846">
        <ele>150.84537937026</ele>
        <time>2021-03-07T08:14:08Z</time>
      </trkpt>
      <trkpt lat="46.30432" lon="0.32848">
        <ele>151.07968050055</ele>
        <time>2021-03-07T08:14:10Z</time>
      </trkpt>
      <trkpt lat="46.30429" lon="0.32849">
        <ele>150.49115258828</ele>
        <time>2021-03-07T08:14:12Z</time>
      </trkpt>
      <trkpt lat="46.30426" lon="0.3285">
        <ele>150.52797293942</ele>
        <time>2021-03-07T08:14:14Z</time>
      </trkpt>
      <trkpt lat="46.30425" lon="0.32851">
        <ele>150.42052152567</ele>
        <time>2021-03-07T08:14:15Z</time>
      </trkpt>
      <trkpt lat="46.30422" lon="0.32853">
        <ele>150.66426661983</ele>
        <time>2021-03-07T08:14:17Z</time>
      </trkpt>
      <trkpt lat="46.30419" lon="0.32854">
        <ele>150.19334098604</ele>
        <time>2021-03-07T08:14:19Z</time>
      </trkpt>
      <trkpt lat="46.30417" lon="0.32855">
        <ele>150.33400402218</ele>
        <time>2021-03-07T08:14:22Z</time>
      </trkpt>
      <trkpt lat="46.30415" lon="0.32856">
        <ele>150.44054237287</ele>
        <time>2021-03-07T08:14:24Z</time>
      </trkpt>
      <trkpt lat="46.30412" lon="0.32858">
        <ele>150.12066377141</ele>
        <time>2021-03-07T08:14:26Z</time>
      </trkpt>
      <trkpt lat="46.30409" lon="0.3286">
        <ele>149.94574544486</ele>
        <time>2021-03-07T08:14:28Z</time>
      </trkpt>
      <trkpt lat="46.30406" lon="0.32862">
        <ele>149.69718984514</ele>
        <time>2021-03-07T08:14:31Z</time>
      </trkpt>
      <trkpt lat="46.30403" lon="0.32862">
        <ele>149.89631487895</ele>
        <time>2021-03-07T08:14:33Z</time>
      </trkpt>
      <trkpt lat="46.304" lon="0.32864">
        <ele>149.74468005076</ele>
        <time>2021-03-07T08:14:35Z</time>
      </trkpt>
      <trkpt lat="46.30397" lon="0.32865">
        <ele>149.59062286187</ele>
        <time>2021-03-07T08:14:37Z</time>
      </trkpt>
      <trkpt lat="46.30395" lon="0.32867">
        <ele>149.62756490987</ele>
        <time>2021-03-07T08:14:39Z</time>
      </trkpt>
      <trkpt lat="46.30393" lon="0.32868">
        <ele>149.61441214662</ele>
        <time>2021-03-07T08:14:40Z</time>
      </trkpt>
      <trkpt lat="46.30391" lon="0.32869">
        <ele>149.65256585926</ele>
        <time>2021-03-07T08:14:42Z</time>
      </trkpt>
      <trkpt lat="46.30389" lon="0.32871">
        <ele>149.40545982122</ele>
        <time>2021-03-07T08:14:44Z</time>
      </trkpt>
      <trkpt lat="46.30386" lon="0.32871">
        <ele>149.10157985147</ele>
        <time>2021-03-07T08:14:46Z</time>
      </trkpt>
      <trkpt lat="46.30383" lon="0.32873">
        <ele>149.1751187183</ele>
        <time>2021-03-07T08:14:48Z</time>
      </trkpt>
      <trkpt lat="46.30381" lon="0.32873">
        <ele>149.0069401348</ele>
        <time>2021-03-07T08:14:50Z</time>
      </trkpt>
      <trkpt lat="46.30378" lon="0.32875">
        <ele>149.31448279321</ele>
        <time>2021-03-07T08:14:52Z</time>
      </trkpt>
      <trkpt lat="46.30376" lon="0.32876">
        <ele>148.99862811249</ele>
        <time>2021-03-07T08:14:54Z</time>
      </trkpt>
      <trkpt lat="46.30374" lon="0.32877">
        <ele>149.04092337191</ele>
        <time>2021-03-07T08:14:55Z</time>
      </trkpt>
      <trkpt lat="46.30372" lon="0.32878">
        <ele>148.96812878922</ele>
        <time>2021-03-07T08:14:57Z</time>
      </trkpt>
      <trkpt lat="46.3037" lon="0.32879">
        <ele>148.81991613936</ele>
        <time>2021-03-07T08:14:59Z</time>
      </trkpt>
      <trkpt lat="46.30366" lon="0.32881">
        <ele>148.83273960091</ele>
        <time>2021-03-07T08:15:01Z</time>
      </trkpt>
      <trkpt lat="46.30364" lon="0.32882">
        <ele>149.06678747293</ele>
        <time>2021-03-07T08:15:03Z</time>
      </trkpt>
      <trkpt lat="46.30362" lon="0.32883">
        <ele>149.26758906525</ele>
        <time>2021-03-07T08:15:04Z</time>
      </trkpt>
      <trkpt lat="46.30359" lon="0.32885">
        <ele>148.4727050513</ele>
        <time>2021-03-07T08:15:07Z</time>
      </trkpt>
      <trkpt lat="46.30357" lon="0.32887">
        <ele>148.96647662483</ele>
        <time>2021-03-07T08:15:09Z</time>
      </trkpt>
      <trkpt lat="46.30355" lon="0.32888">
        <ele>148.66577274539</ele>
        <time>2021-03-07T08:15:11Z</time>
      </trkpt>
      <trkpt lat="46.30352" lon="0.32888">
        <ele>148.7257109955</ele>
        <time>2021-03-07T08:15:13Z</time>
      </trkpt>
      <trkpt lat="46.3035" lon="0.32889">
        <ele>148.96421652939</ele>
        <time>2021-03-07T08:15:15Z</time>
      </trkpt>
      <trkpt lat="46.30348" lon="0.3289">
        <ele>149.35412005894</ele>
        <time>2021-03-07T08:15:17Z</time>
      </trkpt>
      <trkpt lat="46.30345" lon="0.32892">
        <ele>148.8729277188</ele>
        <time>2021-03-07T08:15:19Z</time>
      </trkpt>
      <trkpt lat="46.30342" lon="0.32893">
        <ele>148.81729928777</ele>
        <time>2021-03-07T08:15:21Z</time>
      </trkpt>
      <trkpt lat="46.3034" lon="0.32895">
        <ele>148.99783835281</ele>
        <time>2021-03-07T08:15:23Z</time>
      </trkpt>
      <trkpt lat="46.30336" lon="0.32897">
        <ele>148.31060527638</ele>
        <time>2021-03-07T08:15:25Z</time>
      </trkpt>
      <trkpt lat="46.30334" lon="0.32899">
        <ele>148.51992906909</ele>
        <time>2021-03-07T08:15:28Z</time>
      </trkpt>
      <trkpt lat="46.30331" lon="0.329">
        <ele>148.49687051959</ele>
        <time>2021-03-07T08:15:30Z</time>
      </trkpt>
      <trkpt lat="46.30327" lon="0.329">
        <ele>148.39470619708</ele>
        <time>2021-03-07T08:15:33Z</time>
      </trkpt>
      <trkpt lat="46.30325" lon="0.32902">
        <ele>148.63313594367</ele>
        <time>2021-03-07T08:15:35Z</time>
      </trkpt>
      <trkpt lat="46.30322" lon="0.32903">
        <ele>147.80940643419</ele>
        <time>2021-03-07T08:15:37Z</time>
      </trkpt>
      <trkpt lat="46.30321" lon="0.32904">
        <ele>148.12061910797</ele>
        <time>2021-03-07T08:15:39Z</time>
      </trkpt>
      <trkpt lat="46.30318" lon="0.32905">
        <ele>148.09643949755</ele>
        <time>2021-03-07T08:15:41Z</time>
      </trkpt>
      <trkpt lat="46.30315" lon="0.32907">
        <ele>148.07591649611</ele>
        <time>2021-03-07T08:15:43Z</time>
      </trkpt>
      <trkpt lat="46.30313" lon="0.32908">
        <ele>148.0277624391</ele>
        <time>2021-03-07T08:15:45Z</time>
      </trkpt>
      <trkpt lat="46.30311" lon="0.32909">
        <ele>148.10022076685</ele>
        <time>2021-03-07T08:15:48Z</time>
      </trkpt>
      <trkpt lat="46.30308" lon="0.3291">
        <ele>148.00201284792</ele>
        <time>2021-03-07T08:15:50Z</time>
      </trkpt>
      <trkpt lat="46.30305" lon="0.32911">
        <ele>148.04153843876</ele>
        <time>2021-03-07T08:15:52Z</time>
      </trkpt>
      <trkpt lat="46.30303" lon="0.32912">
        <ele>147.79425687622</ele>
        <time>2021-03-07T08:15:54Z</time>
      </trkpt>
      <trkpt lat="46.30301" lon="0.32913">
        <ele>147.3130049305</ele>
        <time>2021-03-07T08:15:56Z</time>
      </trkpt>
      <trkpt lat="46.30299" lon="0.32913">
        <ele>148.20275649242</ele>
        <time>2021-03-07T08:15:58Z</time>
      </trkpt>
      <trkpt lat="46.30297" lon="0.32913">
        <ele>147.93537017517</ele>
        <time>2021-03-07T08:15:59Z</time>
      </trkpt>
      <trkpt lat="46.30295" lon="0.32915">
        <ele>147.73048353009</ele>
        <time>2021-03-07T08:16:01Z</time>
      </trkpt>
      <trkpt lat="46.30292" lon="0.32915">
        <ele>148.5750714466</ele>
        <time>2021-03-07T08:16:03Z</time>
      </trkpt>
      <trkpt lat="46.3029" lon="0.32915">
        <ele>148.29212261736</ele>
        <time>2021-03-07T08:16:05Z</time>
      </trkpt>
      <trkpt lat="46.30287" lon="0.32917">
        <ele>147.99141151179</ele>
        <time>2021-03-07T08:16:07Z</time>
      </trkpt>
      <trkpt lat="46.30284" lon="0.32918">
        <ele>148.11275892332</ele>
        <time>2021-03-07T08:16:09Z</time>
      </trkpt>
      <trkpt lat="46.30282" lon="0.32919">
        <ele>148.28609953821</ele>
        <time>2021-03-07T08:16:11Z</time>
      </trkpt>
      <trkpt lat="46.30279" lon="0.32921">
        <ele>148.51444015</ele>
        <time>2021-03-07T08:16:13Z</time>
      </trkpt>
      <trkpt lat="46.30277" lon="0.32923">
        <ele>148.39002463222</ele>
        <time>2021-03-07T08:16:15Z</time>
      </trkpt>
      <trkpt lat="46.30275" lon="0.32925">
        <ele>148.26686212048</ele>
        <time>2021-03-07T08:16:17Z</time>
      </trkpt>
      <trkpt lat="46.30272" lon="0.32929">
        <ele>148.28074274119</ele>
        <time>2021-03-07T08:16:20Z</time>
      </trkpt>
      <trkpt lat="46.3027" lon="0.32931">
        <ele>148.52929902636</ele>
        <time>2021-03-07T08:16:22Z</time>
      </trkpt>
      <trkpt lat="46.30268" lon="0.32932">
        <ele>148.41772880778</ele>
        <time>2021-03-07T08:16:24Z</time>
      </trkpt>
      <trkpt lat="46.30266" lon="0.32935">
        <ele>149.02698629536</ele>
        <time>2021-03-07T08:16:26Z</time>
      </trkpt>
      <trkpt lat="46.30265" lon="0.32937">
        <ele>148.74791226815</ele>
        <time>2021-03-07T08:16:28Z</time>
      </trkpt>
      <trkpt lat="46.30263" lon="0.3294">
        <ele>149.17515807785</ele>
        <time>2021-03-07T08:16:30Z</time>
      </trkpt>
      <trkpt lat="46.30261" lon="0.32942">
        <ele>149.4093339527</ele>
        <time>2021-03-07T08:16:32Z</time>
      </trkpt>
      <trkpt lat="46.3026" lon="0.32945">
        <ele>149.08006114047</ele>
        <time>2021-03-07T08:16:33Z</time>
      </trkpt>
      <trkpt lat="46.30258" lon="0.32947">
        <ele>148.85262638703</ele>
        <time>2021-03-07T08:16:34Z</time>
      </trkpt>
      <trkpt lat="46.30257" lon="0.32949">
        <ele>149.107287094</ele>
        <time>2021-03-07T08:16:36Z</time>
      </trkpt>
      <trkpt lat="46.30255" lon="0.32951">
        <ele>149.00173416454</ele>
        <time>2021-03-07T08:16:38Z</time>
      </trkpt>
      <trkpt lat="46.30252" lon="0.32954">
        <ele>149.12134141382</ele>
        <time>2021-03-07T08:16:40Z</time>
      </trkpt>
      <trkpt lat="46.3025" lon="0.32957">
        <ele>149.45856481977</ele>
        <time>2021-03-07T08:16:43Z</time>
      </trkpt>
      <trkpt lat="46.30248" lon="0.3296">
        <ele>149.24327748735</ele>
        <time>2021-03-07T08:16:45Z</time>
      </trkpt>
      <trkpt lat="46.30247" lon="0.32963">
        <ele>149.32111903373</ele>
        <time>2021-03-07T08:16:47Z</time>
      </trkpt>
      <trkpt lat="46.30244" lon="0.32965">
        <ele>149.1907657329</ele>
        <time>2021-03-07T08:16:49Z</time>
      </trkpt>
      <trkpt lat="46.30242" lon="0.32966">
        <ele>149.2845087247</ele>
        <time>2021-03-07T08:16:51Z</time>
      </trkpt>
      <trkpt lat="46.30241" lon="0.32967">
        <ele>149.30841661617</ele>
        <time>2021-03-07T08:16:53Z</time>
      </trkpt>
      <trkpt lat="46.30239" lon="0.32969">
        <ele>149.23637571372</ele>
        <time>2021-03-07T08:16:56Z</time>
      </trkpt>
      <trkpt lat="46.30237" lon="0.32971">
        <ele>149.41647069901</ele>
        <time>2021-03-07T08:16:58Z</time>
      </trkpt>
      <trkpt lat="46.30237" lon="0.32974">
        <ele>149.20103674009</ele>
        <time>2021-03-07T08:17:02Z</time>
      </trkpt>
      <trkpt lat="46.30236" lon="0.32978">
        <ele>149.36908467487</ele>
        <time>2021-03-07T08:17:04Z</time>
      </trkpt>
      <trkpt lat="46.30234" lon="0.32981">
        <ele>149.3803662695</ele>
        <time>2021-03-07T08:17:06Z</time>
      </trkpt>
      <trkpt lat="46.30232" lon="0.32984">
        <ele>149.63034671452</ele>
        <time>2021-03-07T08:17:08Z</time>
      </trkpt>
      <trkpt lat="46.30231" lon="0.32987">
        <ele>148.92978567164</ele>
        <time>2021-03-07T08:17:10Z</time>
      </trkpt>
      <trkpt lat="46.30229" lon="0.32989">
        <ele>149.18884409405</ele>
        <time>2021-03-07T08:17:12Z</time>
      </trkpt>
      <trkpt lat="46.30227" lon="0.32991">
        <ele>149.34590505715</ele>
        <time>2021-03-07T08:17:14Z</time>
      </trkpt>
      <trkpt lat="46.30224" lon="0.32993">
        <ele>149.59323738143</ele>
        <time>2021-03-07T08:17:16Z</time>
      </trkpt>
      <trkpt lat="46.30222" lon="0.32995">
        <ele>149.45559343789</ele>
        <time>2021-03-07T08:17:18Z</time>
      </trkpt>
      <trkpt lat="46.3022" lon="0.32996">
        <ele>149.77918278333</ele>
        <time>2021-03-07T08:17:20Z</time>
      </trkpt>
      <trkpt lat="46.30218" lon="0.32997">
        <ele>150.02108149696</ele>
        <time>2021-03-07T08:17:22Z</time>
      </trkpt>
      <trkpt lat="46.30216" lon="0.32999">
        <ele>149.82019050885</ele>
        <time>2021-03-07T08:17:24Z</time>
      </trkpt>
      <trkpt lat="46.30213" lon="0.33001">
        <ele>149.68479692191</ele>
        <time>2021-03-07T08:17:26Z</time>
      </trkpt>
      <trkpt lat="46.30211" lon="0.33002">
        <ele>149.45325767342</ele>
        <time>2021-03-07T08:17:28Z</time>
      </trkpt>
      <trkpt lat="46.30209" lon="0.33004">
        <ele>149.60533353686</ele>
        <time>2021-03-07T08:17:30Z</time>
      </trkpt>
      <trkpt lat="46.30207" lon="0.33005">
        <ele>149.74103137385</ele>
        <time>2021-03-07T08:17:32Z</time>
      </trkpt>
      <trkpt lat="46.30204" lon="0.33006">
        <ele>149.44192592055</ele>
        <time>2021-03-07T08:17:34Z</time>
      </trkpt>
      <trkpt lat="46.30201" lon="0.33008">
        <ele>149.93109377474</ele>
        <time>2021-03-07T08:17:36Z</time>
      </trkpt>
      <trkpt lat="46.30199" lon="0.33009">
        <ele>150.00350690819</ele>
        <time>2021-03-07T08:17:37Z</time>
      </trkpt>
      <trkpt lat="46.30197" lon="0.33011">
        <ele>149.48540242761</ele>
        <time>2021-03-07T08:17:39Z</time>
      </trkpt>
      <trkpt lat="46.30193" lon="0.33013">
        <ele>149.84747318365</ele>
        <time>2021-03-07T08:17:41Z</time>
      </trkpt>
      <trkpt lat="46.30191" lon="0.33015">
        <ele>149.29796448629</ele>
        <time>2021-03-07T08:17:44Z</time>
      </trkpt>
      <trkpt lat="46.30189" lon="0.33016">
        <ele>149.45309297089</ele>
        <time>2021-03-07T08:17:45Z</time>
      </trkpt>
      <trkpt lat="46.30187" lon="0.33017">
        <ele>149.60624055471</ele>
        <time>2021-03-07T08:17:46Z</time>
      </trkpt>
      <trkpt lat="46.30185" lon="0.33019">
        <ele>150.02642619424</ele>
        <time>2021-03-07T08:17:48Z</time>
      </trkpt>
      <trkpt lat="46.30183" lon="0.33021">
        <ele>149.75484912563</ele>
        <time>2021-03-07T08:17:50Z</time>
      </trkpt>
      <trkpt lat="46.3018" lon="0.33022">
        <ele>149.64368555974</ele>
        <time>2021-03-07T08:17:52Z</time>
      </trkpt>
      <trkpt lat="46.30178" lon="0.33024">
        <ele>149.60358750727</ele>
        <time>2021-03-07T08:17:54Z</time>
      </trkpt>
      <trkpt lat="46.30175" lon="0.33025">
        <ele>149.74576614052</ele>
        <time>2021-03-07T08:17:56Z</time>
      </trkpt>
      <trkpt lat="46.30173" lon="0.33026">
        <ele>149.32797370199</ele>
        <time>2021-03-07T08:17:58Z</time>
      </trkpt>
      <trkpt lat="46.3017" lon="0.33027">
        <ele>149.37067027763</ele>
        <time>2021-03-07T08:18:00Z</time>
      </trkpt>
      <trkpt lat="46.30168" lon="0.33028">
        <ele>149.1470979657</ele>
        <time>2021-03-07T08:18:01Z</time>
      </trkpt>
      <trkpt lat="46.30166" lon="0.33028">
        <ele>149.00752993673</ele>
        <time>2021-03-07T08:18:02Z</time>
      </trkpt>
      <trkpt lat="46.30163" lon="0.33028">
        <ele>149.41880388558</ele>
        <time>2021-03-07T08:18:04Z</time>
      </trkpt>
      <trkpt lat="46.30159" lon="0.33029">
        <ele>149.69873789791</ele>
        <time>2021-03-07T08:18:06Z</time>
      </trkpt>
      <trkpt lat="46.30157" lon="0.33029">
        <ele>149.53279525694</ele>
        <time>2021-03-07T08:18:07Z</time>
      </trkpt>
      <trkpt lat="46.30154" lon="0.3303">
        <ele>149.06036793254</ele>
        <time>2021-03-07T08:18:10Z</time>
      </trkpt>
      <trkpt lat="46.30151" lon="0.3303">
        <ele>149.10759085231</ele>
        <time>2021-03-07T08:18:12Z</time>
      </trkpt>
      <trkpt lat="46.30149" lon="0.3303">
        <ele>149.4541015625</ele>
        <time>2021-03-07T08:18:13Z</time>
      </trkpt>
      <trkpt lat="46.30147" lon="0.3303">
        <ele>148.94148007967</ele>
        <time>2021-03-07T08:18:15Z</time>
      </trkpt>
      <trkpt lat="46.30144" lon="0.33029">
        <ele>148.94840137009</ele>
        <time>2021-03-07T08:18:16Z</time>
      </trkpt>
      <trkpt lat="46.30142" lon="0.33031">
        <ele>148.81435142457</ele>
        <time>2021-03-07T08:18:19Z</time>
      </trkpt>
      <trkpt lat="46.30138" lon="0.33031">
        <ele>148.98033940047</ele>
        <time>2021-03-07T08:18:21Z</time>
      </trkpt>
      <trkpt lat="46.30137" lon="0.33031">
        <ele>149.04110339843</ele>
        <time>2021-03-07T08:18:22Z</time>
      </trkpt>
      <trkpt lat="46.30134" lon="0.3303">
        <ele>149.11133302934</ele>
        <time>2021-03-07T08:18:24Z</time>
      </trkpt>
      <trkpt lat="46.30132" lon="0.3303">
        <ele>148.94087682851</ele>
        <time>2021-03-07T08:18:26Z</time>
      </trkpt>
      <trkpt lat="46.30129" lon="0.3303">
        <ele>148.58168807253</ele>
        <time>2021-03-07T08:18:28Z</time>
      </trkpt>
      <trkpt lat="46.30126" lon="0.3303">
        <ele>149.51221047528</ele>
        <time>2021-03-07T08:18:30Z</time>
      </trkpt>
      <trkpt lat="46.30123" lon="0.3303">
        <ele>148.93605416082</ele>
        <time>2021-03-07T08:18:32Z</time>
      </trkpt>
      <trkpt lat="46.3012" lon="0.33031">
        <ele>148.50712079462</ele>
        <time>2021-03-07T08:18:34Z</time>
      </trkpt>
      <trkpt lat="46.30118" lon="0.33032">
        <ele>148.74954866711</ele>
        <time>2021-03-07T08:18:36Z</time>
      </trkpt>
      <trkpt lat="46.30115" lon="0.33031">
        <ele>148.93890586123</ele>
        <time>2021-03-07T08:18:38Z</time>
      </trkpt>
      <trkpt lat="46.30113" lon="0.33031">
        <ele>148.76723532937</ele>
        <time>2021-03-07T08:18:40Z</time>
      </trkpt>
      <trkpt lat="46.30109" lon="0.33031">
        <ele>148.3091972908</ele>
        <time>2021-03-07T08:18:42Z</time>
      </trkpt>
      <trkpt lat="46.30107" lon="0.33032">
        <ele>148.19814916421</ele>
        <time>2021-03-07T08:18:44Z</time>
      </trkpt>
      <trkpt lat="46.30104" lon="0.33032">
        <ele>148.04403190967</ele>
        <time>2021-03-07T08:18:46Z</time>
      </trkpt>
      <trkpt lat="46.30102" lon="0.33032">
        <ele>147.96698179282</ele>
        <time>2021-03-07T08:18:47Z</time>
      </trkpt>
      <trkpt lat="46.30099" lon="0.33032">
        <ele>147.82454428729</ele>
        <time>2021-03-07T08:18:49Z</time>
      </trkpt>
      <trkpt lat="46.30097" lon="0.33033">
        <ele>148.14518602099</ele>
        <time>2021-03-07T08:18:51Z</time>
      </trkpt>
      <trkpt lat="46.30094" lon="0.33033">
        <ele>147.86941911001</ele>
        <time>2021-03-07T08:18:53Z</time>
      </trkpt>
      <trkpt lat="46.30091" lon="0.33033">
        <ele>147.91572754923</ele>
        <time>2021-03-07T08:18:55Z</time>
      </trkpt>
      <trkpt lat="46.30088" lon="0.33034">
        <ele>147.99930093996</ele>
        <time>2021-03-07T08:18:57Z</time>
      </trkpt>
      <trkpt lat="46.30085" lon="0.33034">
        <ele>148.2545409603</ele>
        <time>2021-03-07T08:19:00Z</time>
      </trkpt>
      <trkpt lat="46.30083" lon="0.33034">
        <ele>148.09300987795</ele>
        <time>2021-03-07T08:19:01Z</time>
      </trkpt>
      <trkpt lat="46.30081" lon="0.33034">
        <ele>148.37213057093</ele>
        <time>2021-03-07T08:19:02Z</time>
      </trkpt>
      <trkpt lat="46.30078" lon="0.33035">
        <ele>147.98894772585</ele>
        <time>2021-03-07T08:19:05Z</time>
      </trkpt>
      <trkpt lat="46.30077" lon="0.33035">
        <ele>147.72522807121</ele>
        <time>2021-03-07T08:19:06Z</time>
      </trkpt>
      <trkpt lat="46.30074" lon="0.33035">
        <ele>148.0082208626</ele>
        <time>2021-03-07T08:19:08Z</time>
      </trkpt>
      <trkpt lat="46.30071" lon="0.33035">
        <ele>147.95050849672</ele>
        <time>2021-03-07T08:19:10Z</time>
      </trkpt>
      <trkpt lat="46.30068" lon="0.33034">
        <ele>147.71611118875</ele>
        <time>2021-03-07T08:19:12Z</time>
      </trkpt>
      <trkpt lat="46.30065" lon="0.33034">
        <ele>147.81817626674</ele>
        <time>2021-03-07T08:19:14Z</time>
      </trkpt>
      <trkpt lat="46.30063" lon="0.33035">
        <ele>147.68874533195</ele>
        <time>2021-03-07T08:19:16Z</time>
      </trkpt>
      <trkpt lat="46.3006" lon="0.33035">
        <ele>147.82334534638</ele>
        <time>2021-03-07T08:19:18Z</time>
      </trkpt>
      <trkpt lat="46.30056" lon="0.33035">
        <ele>147.55082730576</ele>
        <time>2021-03-07T08:19:20Z</time>
      </trkpt>
      <trkpt lat="46.30053" lon="0.33036">
        <ele>147.65730735101</ele>
        <time>2021-03-07T08:19:23Z</time>
      </trkpt>
      <trkpt lat="46.3005" lon="0.33035">
        <ele>147.09455228224</ele>
        <time>2021-03-07T08:19:25Z</time>
      </trkpt>
      <trkpt lat="46.30047" lon="0.33035">
        <ele>147.18115027808</ele>
        <time>2021-03-07T08:19:27Z</time>
      </trkpt>
      <trkpt lat="46.30044" lon="0.33035">
        <ele>146.86594846565</ele>
        <time>2021-03-07T08:19:29Z</time>
      </trkpt>
      <trkpt lat="46.30042" lon="0.33036">
        <ele>146.91276685242</ele>
        <time>2021-03-07T08:19:30Z</time>
      </trkpt>
      <trkpt lat="46.3004" lon="0.33037">
        <ele>146.66516738851</ele>
        <time>2021-03-07T08:19:33Z</time>
      </trkpt>
      <trkpt lat="46.30037" lon="0.33037">
        <ele>146.66233597416</ele>
        <time>2021-03-07T08:19:35Z</time>
      </trkpt>
      <trkpt lat="46.30034" lon="0.33037">
        <ele>146.43638309091</ele>
        <time>2021-03-07T08:19:37Z</time>
      </trkpt>
      <trkpt lat="46.30031" lon="0.33037">
        <ele>146.16112836637</ele>
        <time>2021-03-07T08:19:39Z</time>
      </trkpt>
      <trkpt lat="46.30028" lon="0.33037">
        <ele>146.27510672528</ele>
        <time>2021-03-07T08:19:41Z</time>
      </trkpt>
      <trkpt lat="46.30025" lon="0.33037">
        <ele>145.83043107111</ele>
        <time>2021-03-07T08:19:43Z</time>
      </trkpt>
      <trkpt lat="46.30022" lon="0.33036">
        <ele>145.49376920145</ele>
        <time>2021-03-07T08:19:45Z</time>
      </trkpt>
      <trkpt lat="46.3002" lon="0.33035">
        <ele>147.11734515056</ele>
        <time>2021-03-07T08:19:47Z</time>
      </trkpt>
      <trkpt lat="46.30018" lon="0.33035">
        <ele>146.3072141204</ele>
        <time>2021-03-07T08:19:48Z</time>
      </trkpt>
      <trkpt lat="46.30015" lon="0.33036">
        <ele>145.99792585243</ele>
        <time>2021-03-07T08:19:50Z</time>
      </trkpt>
      <trkpt lat="46.30012" lon="0.33036">
        <ele>145.99667477235</ele>
        <time>2021-03-07T08:19:52Z</time>
      </trkpt>
      <trkpt lat="46.3001" lon="0.33037">
        <ele>145.77170015685</ele>
        <time>2021-03-07T08:19:54Z</time>
      </trkpt>
      <trkpt lat="46.30008" lon="0.33037">
        <ele>145.62498628721</ele>
        <time>2021-03-07T08:19:55Z</time>
      </trkpt>
      <trkpt lat="46.30006" lon="0.33038">
        <ele>145.39871448744</ele>
        <time>2021-03-07T08:19:57Z</time>
      </trkpt>
      <trkpt lat="46.30003" lon="0.33037">
        <ele>145.57648260519</ele>
        <time>2021-03-07T08:19:59Z</time>
      </trkpt>
      <trkpt lat="46.30001" lon="0.33038">
        <ele>145.20778896194</ele>
        <time>2021-03-07T08:20:01Z</time>
      </trkpt>
      <trkpt lat="46.29998" lon="0.33038">
        <ele>145.66051850654</ele>
        <time>2021-03-07T08:20:03Z</time>
      </trkpt>
      <trkpt lat="46.29995" lon="0.33037">
        <ele>145.16721507628</ele>
        <time>2021-03-07T08:20:05Z</time>
      </trkpt>
      <trkpt lat="46.29992" lon="0.33038">
        <ele>145.28451295383</ele>
        <time>2021-03-07T08:20:07Z</time>
      </trkpt>
      <trkpt lat="46.2999" lon="0.33037">
        <ele>145.31306713074</ele>
        <time>2021-03-07T08:20:08Z</time>
      </trkpt>
      <trkpt lat="46.29988" lon="0.33038">
        <ele>145.33194406889</ele>
        <time>2021-03-07T08:20:11Z</time>
      </trkpt>
      <trkpt lat="46.29986" lon="0.33038">
        <ele>145.14756597858</ele>
        <time>2021-03-07T08:20:12Z</time>
      </trkpt>
      <trkpt lat="46.29984" lon="0.33039">
        <ele>145.12246608268</ele>
        <time>2021-03-07T08:20:13Z</time>
      </trkpt>
      <trkpt lat="46.29981" lon="0.33038">
        <ele>144.99773452058</ele>
        <time>2021-03-07T08:20:16Z</time>
      </trkpt>
      <trkpt lat="46.29977" lon="0.33038">
        <ele>145.27106601465</ele>
        <time>2021-03-07T08:20:18Z</time>
      </trkpt>
      <trkpt lat="46.29976" lon="0.33039">
        <ele>145.23422828224</ele>
        <time>2021-03-07T08:20:20Z</time>
      </trkpt>
      <trkpt lat="46.29973" lon="0.3304">
        <ele>145.2107817689</ele>
        <time>2021-03-07T08:20:22Z</time>
      </trkpt>
      <trkpt lat="46.2997" lon="0.3304">
        <ele>145.23513969127</ele>
        <time>2021-03-07T08:20:24Z</time>
      </trkpt>
      <trkpt lat="46.29968" lon="0.33039">
        <ele>145.14057867322</ele>
        <time>2021-03-07T08:20:25Z</time>
      </trkpt>
      <trkpt lat="46.29965" lon="0.33039">
        <ele>144.78577621002</ele>
        <time>2021-03-07T08:20:27Z</time>
      </trkpt>
      <trkpt lat="46.29963" lon="0.3304">
        <ele>144.7664386332</ele>
        <time>2021-03-07T08:20:29Z</time>
      </trkpt>
      <trkpt lat="46.2996" lon="0.33039">
        <ele>144.66746348329</ele>
        <time>2021-03-07T08:20:31Z</time>
      </trkpt>
      <trkpt lat="46.29958" lon="0.33039">
        <ele>144.66453625448</ele>
        <time>2021-03-07T08:20:32Z</time>
      </trkpt>
      <trkpt lat="46.29955" lon="0.33038">
        <ele>144.40000155009</ele>
        <time>2021-03-07T08:20:34Z</time>
      </trkpt>
      <trkpt lat="46.29952" lon="0.33038">
        <ele>144.37003309</ele>
        <time>2021-03-07T08:20:35Z</time>
      </trkpt>
      <trkpt lat="46.29949" lon="0.33037">
        <ele>144.36969928537</ele>
        <time>2021-03-07T08:20:38Z</time>
      </trkpt>
      <trkpt lat="46.29946" lon="0.33038">
        <ele>143.89298892673</ele>
        <time>2021-03-07T08:20:40Z</time>
      </trkpt>
      <trkpt lat="46.29943" lon="0.33038">
        <ele>144.42752375361</ele>
        <time>2021-03-07T08:20:42Z</time>
      </trkpt>
      <trkpt lat="46.2994" lon="0.33039">
        <ele>144.79515407793</ele>
        <time>2021-03-07T08:20:44Z</time>
      </trkpt>
      <trkpt lat="46.29937" lon="0.33037">
        <ele>143.8292055754</ele>
        <time>2021-03-07T08:20:47Z</time>
      </trkpt>
      <trkpt lat="46.29934" lon="0.33037">
        <ele>143.58146105148</ele>
        <time>2021-03-07T08:20:49Z</time>
      </trkpt>
      <trkpt lat="46.29932" lon="0.33037">
        <ele>143.81816771533</ele>
        <time>2021-03-07T08:20:51Z</time>
      </trkpt>
      <trkpt lat="46.29929" lon="0.33036">
        <ele>144.39964253269</ele>
        <time>2021-03-07T08:20:53Z</time>
      </trkpt>
      <trkpt lat="46.29926" lon="0.33036">
        <ele>144.68507108558</ele>
        <time>2021-03-07T08:20:55Z</time>
      </trkpt>
      <trkpt lat="46.29923" lon="0.33036">
        <ele>144.59351338167</ele>
        <time>2021-03-07T08:20:57Z</time>
      </trkpt>
      <trkpt lat="46.2992" lon="0.33035">
        <ele>144.04175617546</ele>
        <time>2021-03-07T08:20:59Z</time>
      </trkpt>
      <trkpt lat="46.29918" lon="0.33035">
        <ele>143.51660457812</ele>
        <time>2021-03-07T08:21:01Z</time>
      </trkpt>
      <trkpt lat="46.29914" lon="0.33034">
        <ele>144.42678240687</ele>
        <time>2021-03-07T08:21:03Z</time>
      </trkpt>
      <trkpt lat="46.29912" lon="0.33034">
        <ele>144.17045300081</ele>
        <time>2021-03-07T08:21:05Z</time>
      </trkpt>
      <trkpt lat="46.2991" lon="0.33034">
        <ele>144.20067539159</ele>
        <time>2021-03-07T08:21:07Z</time>
      </trkpt>
      <trkpt lat="46.29907" lon="0.33033">
        <ele>144.74929333385</ele>
        <time>2021-03-07T08:21:09Z</time>
      </trkpt>
      <trkpt lat="46.29904" lon="0.33032">
        <ele>144.76848188136</ele>
        <time>2021-03-07T08:21:11Z</time>
      </trkpt>
      <trkpt lat="46.29901" lon="0.33033">
        <ele>144.50998142175</ele>
        <time>2021-03-07T08:21:13Z</time>
      </trkpt>
      <trkpt lat="46.29899" lon="0.33032">
        <ele>144.35962599143</ele>
        <time>2021-03-07T08:21:15Z</time>
      </trkpt>
      <trkpt lat="46.29895" lon="0.33032">
        <ele>144.0615421487</ele>
        <time>2021-03-07T08:21:17Z</time>
      </trkpt>
      <trkpt lat="46.29893" lon="0.33031">
        <ele>144.1732914336</ele>
        <time>2021-03-07T08:21:19Z</time>
      </trkpt>
      <trkpt lat="46.2989" lon="0.33031">
        <ele>144.00919108838</ele>
        <time>2021-03-07T08:21:21Z</time>
      </trkpt>
      <trkpt lat="46.29887" lon="0.3303">
        <ele>144.17179889698</ele>
        <time>2021-03-07T08:21:23Z</time>
      </trkpt>
      <trkpt lat="46.29885" lon="0.3303">
        <ele>144.02182977088</ele>
        <time>2021-03-07T08:21:25Z</time>
      </trkpt>
      <trkpt lat="46.29883" lon="0.3303">
        <ele>144.02376995049</ele>
        <time>2021-03-07T08:21:26Z</time>
      </trkpt>
      <trkpt lat="46.2988" lon="0.33029">
        <ele>144.23331516143</ele>
        <time>2021-03-07T08:21:28Z</time>
      </trkpt>
      <trkpt lat="46.29878" lon="0.33028">
        <ele>144.54150266573</ele>
        <time>2021-03-07T08:21:30Z</time>
      </trkpt>
      <trkpt lat="46.29875" lon="0.33028">
        <ele>144.35738125723</ele>
        <time>2021-03-07T08:21:32Z</time>
      </trkpt>
      <trkpt lat="46.29872" lon="0.33028">
        <ele>144.03052552603</ele>
        <time>2021-03-07T08:21:34Z</time>
      </trkpt>
      <trkpt lat="46.2987" lon="0.33027">
        <ele>144.18908821791</ele>
        <time>2021-03-07T08:21:35Z</time>
      </trkpt>
      <trkpt lat="46.29867" lon="0.33028">
        <ele>144.10230398178</ele>
        <time>2021-03-07T08:21:39Z</time>
      </trkpt>
      <trkpt lat="46.29864" lon="0.33027">
        <ele>143.94368583523</ele>
        <time>2021-03-07T08:21:41Z</time>
      </trkpt>
      <trkpt lat="46.29862" lon="0.33025">
        <ele>144.42432130501</ele>
        <time>2021-03-07T08:21:43Z</time>
      </trkpt>
      <trkpt lat="46.29859" lon="0.33023">
        <ele>143.87610890437</ele>
        <time>2021-03-07T08:21:45Z</time>
      </trkpt>
      <trkpt lat="46.29856" lon="0.33022">
        <ele>144.05435705464</ele>
        <time>2021-03-07T08:21:47Z</time>
      </trkpt>
      <trkpt lat="46.29854" lon="0.3302">
        <ele>144.31324234046</ele>
        <time>2021-03-07T08:21:49Z</time>
      </trkpt>
      <trkpt lat="46.29852" lon="0.33018">
        <ele>143.85571519192</ele>
        <time>2021-03-07T08:21:51Z</time>
      </trkpt>
      <trkpt lat="46.2985" lon="0.33017">
        <ele>144.0827195188</ele>
        <time>2021-03-07T08:21:52Z</time>
      </trkpt>
      <trkpt lat="46.29847" lon="0.33016">
        <ele>143.81903630402</ele>
        <time>2021-03-07T08:21:54Z</time>
      </trkpt>
      <trkpt lat="46.29844" lon="0.33015">
        <ele>143.74267391209</ele>
        <time>2021-03-07T08:21:56Z</time>
      </trkpt>
      <trkpt lat="46.29842" lon="0.33014">
        <ele>143.51685061958</ele>
        <time>2021-03-07T08:21:58Z</time>
      </trkpt>
      <trkpt lat="46.29839" lon="0.33012">
        <ele>143.65356581751</ele>
        <time>2021-03-07T08:22:00Z</time>
      </trkpt>
      <trkpt lat="46.29837" lon="0.33011">
        <ele>143.17730616406</ele>
        <time>2021-03-07T08:22:02Z</time>
      </trkpt>
      <trkpt lat="46.29835" lon="0.33009">
        <ele>143.60144160874</ele>
        <time>2021-03-07T08:22:04Z</time>
      </trkpt>
      <trkpt lat="46.29833" lon="0.33009">
        <ele>143.59310609568</ele>
        <time>2021-03-07T08:22:06Z</time>
      </trkpt>
      <trkpt lat="46.2983" lon="0.33008">
        <ele>143.3864037944</ele>
        <time>2021-03-07T08:22:08Z</time>
      </trkpt>
      <trkpt lat="46.29828" lon="0.33007">
        <ele>142.49677201454</ele>
        <time>2021-03-07T08:22:10Z</time>
      </trkpt>
      <trkpt lat="46.29826" lon="0.33007">
        <ele>142.31903642602</ele>
        <time>2021-03-07T08:22:12Z</time>
      </trkpt>
      <trkpt lat="46.29823" lon="0.33005">
        <ele>142.31726015918</ele>
        <time>2021-03-07T08:22:14Z</time>
      </trkpt>
      <trkpt lat="46.2982" lon="0.33005">
        <ele>142.57961239852</ele>
        <time>2021-03-07T08:22:16Z</time>
      </trkpt>
      <trkpt lat="46.29818" lon="0.33003">
        <ele>142.55474652722</ele>
        <time>2021-03-07T08:22:18Z</time>
      </trkpt>
      <trkpt lat="46.29816" lon="0.33002">
        <ele>142.7288189102</ele>
        <time>2021-03-07T08:22:20Z</time>
      </trkpt>
      <trkpt lat="46.29813" lon="0.33">
        <ele>142.41603477113</ele>
        <time>2021-03-07T08:22:22Z</time>
      </trkpt>
      <trkpt lat="46.29811" lon="0.32999">
        <ele>142.36564925034</ele>
        <time>2021-03-07T08:22:24Z</time>
      </trkpt>
      <trkpt lat="46.29809" lon="0.32999">
        <ele>142.32206506096</ele>
        <time>2021-03-07T08:22:25Z</time>
      </trkpt>
      <trkpt lat="46.29807" lon="0.32999">
        <ele>142.55612611119</ele>
        <time>2021-03-07T08:22:27Z</time>
      </trkpt>
      <trkpt lat="46.29805" lon="0.32997">
        <ele>142.76094005816</ele>
        <time>2021-03-07T08:22:29Z</time>
      </trkpt>
      <trkpt lat="46.29802" lon="0.32996">
        <ele>142.64381832071</ele>
        <time>2021-03-07T08:22:31Z</time>
      </trkpt>
      <trkpt lat="46.298" lon="0.32995">
        <ele>142.33201018348</ele>
        <time>2021-03-07T08:22:33Z</time>
      </trkpt>
      <trkpt lat="46.29798" lon="0.32993">
        <ele>142.28413188644</ele>
        <time>2021-03-07T08:22:35Z</time>
      </trkpt>
      <trkpt lat="46.29795" lon="0.32991">
        <ele>142.07284196094</ele>
        <time>2021-03-07T08:22:37Z</time>
      </trkpt>
      <trkpt lat="46.29793" lon="0.3299">
        <ele>142.15429857094</ele>
        <time>2021-03-07T08:22:39Z</time>
      </trkpt>
      <trkpt lat="46.2979" lon="0.32989">
        <ele>142.36615482252</ele>
        <time>2021-03-07T08:22:41Z</time>
      </trkpt>
      <trkpt lat="46.29788" lon="0.32988">
        <ele>142.39114504214</ele>
        <time>2021-03-07T08:22:42Z</time>
      </trkpt>
      <trkpt lat="46.29785" lon="0.32987">
        <ele>142.59394946415</ele>
        <time>2021-03-07T08:22:44Z</time>
      </trkpt>
      <trkpt lat="46.29783" lon="0.32986">
        <ele>142.35124634765</ele>
        <time>2021-03-07T08:22:46Z</time>
      </trkpt>
      <trkpt lat="46.29781" lon="0.32985">
        <ele>142.6992382938</ele>
        <time>2021-03-07T08:22:47Z</time>
      </trkpt>
      <trkpt lat="46.29779" lon="0.32984">
        <ele>142.48570082895</ele>
        <time>2021-03-07T08:22:49Z</time>
      </trkpt>
      <trkpt lat="46.29776" lon="0.32983">
        <ele>142.16908202879</ele>
        <time>2021-03-07T08:22:51Z</time>
      </trkpt>
      <trkpt lat="46.29774" lon="0.32981">
        <ele>142.25194847584</ele>
        <time>2021-03-07T08:22:53Z</time>
      </trkpt>
      <trkpt lat="46.29771" lon="0.32979">
        <ele>142.69917177502</ele>
        <time>2021-03-07T08:22:55Z</time>
      </trkpt>
      <trkpt lat="46.29769" lon="0.32978">
        <ele>142.44800111931</ele>
        <time>2021-03-07T08:22:57Z</time>
      </trkpt>
      <trkpt lat="46.29767" lon="0.32977">
        <ele>142.36714322586</ele>
        <time>2021-03-07T08:22:59Z</time>
      </trkpt>
      <trkpt lat="46.29764" lon="0.32976">
        <ele>142.95507873315</ele>
        <time>2021-03-07T08:23:01Z</time>
      </trkpt>
      <trkpt lat="46.29762" lon="0.32975">
        <ele>142.76574877836</ele>
        <time>2021-03-07T08:23:03Z</time>
      </trkpt>
      <trkpt lat="46.2976" lon="0.32974">
        <ele>142.66404222697</ele>
        <time>2021-03-07T08:23:05Z</time>
      </trkpt>
      <trkpt lat="46.29758" lon="0.32972">
        <ele>142.63646492921</ele>
        <time>2021-03-07T08:23:08Z</time>
      </trkpt>
      <trkpt lat="46.29759" lon="0.32975">
        <ele>142.61137789022</ele>
        <time>2021-03-07T08:23:13Z</time>
      </trkpt>
      <trkpt lat="46.2976" lon="0.32977">
        <ele>142.45226229075</ele>
        <time>2021-03-07T08:23:17Z</time>
      </trkpt>
      <trkpt lat="46.29759" lon="0.32975">
        <ele>142.52532952372</ele>
        <time>2021-03-07T08:23:23Z</time>
      </trkpt>
      <trkpt lat="46.29756" lon="0.32976">
        <ele>142.65880226158</ele>
        <time>2021-03-07T08:23:26Z</time>
      </trkpt>
      <trkpt lat="46.29754" lon="0.32974">
        <ele>142.513265457</ele>
        <time>2021-03-07T08:23:28Z</time>
      </trkpt>
      <trkpt lat="46.29752" lon="0.32972">
        <ele>142.67635307647</ele>
        <time>2021-03-07T08:23:31Z</time>
      </trkpt>
      <trkpt lat="46.29751" lon="0.32969">
        <ele>142.50689119194</ele>
        <time>2021-03-07T08:23:38Z</time>
      </trkpt>
      <trkpt lat="46.2975" lon="0.32966">
        <ele>142.64009453077</ele>
        <time>2021-03-07T08:23:40Z</time>
      </trkpt>
      <trkpt lat="46.29749" lon="0.32963">
        <ele>142.59309103433</ele>
        <time>2021-03-07T08:23:42Z</time>
      </trkpt>
      <trkpt lat="46.29748" lon="0.32961">
        <ele>142.55060506333</ele>
        <time>2021-03-07T08:23:44Z</time>
      </trkpt>
      <trkpt lat="46.29748" lon="0.32958">
        <ele>142.33978409413</ele>
        <time>2021-03-07T08:23:46Z</time>
      </trkpt>
      <trkpt lat="46.29747" lon="0.32955">
        <ele>142.46116207819</ele>
        <time>2021-03-07T08:23:49Z</time>
      </trkpt>
      <trkpt lat="46.29746" lon="0.32952">
        <ele>142.47040555719</ele>
        <time>2021-03-07T08:23:53Z</time>
      </trkpt>
      <trkpt lat="46.29746" lon="0.32949">
        <ele>142.60605052952</ele>
        <time>2021-03-07T08:23:55Z</time>
      </trkpt>
      <trkpt lat="46.29745" lon="0.32946">
        <ele>142.32963992655</ele>
        <time>2021-03-07T08:23:58Z</time>
      </trkpt>
      <trkpt lat="46.29744" lon="0.32944">
        <ele>142.67494100891</ele>
        <time>2021-03-07T08:24:02Z</time>
      </trkpt>
      <trkpt lat="46.29744" lon="0.3294">
        <ele>142.99927038979</ele>
        <time>2021-03-07T08:24:04Z</time>
      </trkpt>
      <trkpt lat="46.29743" lon="0.32938">
        <ele>142.85329320747</ele>
        <time>2021-03-07T08:24:06Z</time>
      </trkpt>
      <trkpt lat="46.29741" lon="0.32934">
        <ele>142.71381822601</ele>
        <time>2021-03-07T08:24:08Z</time>
      </trkpt>
      <trkpt lat="46.29741" lon="0.3293">
        <ele>142.98579013254</ele>
        <time>2021-03-07T08:24:10Z</time>
      </trkpt>
      <trkpt lat="46.2974" lon="0.32927">
        <ele>142.49204957671</ele>
        <time>2021-03-07T08:24:12Z</time>
      </trkpt>
      <trkpt lat="46.29739" lon="0.32922">
        <ele>142.83214859851</ele>
        <time>2021-03-07T08:24:14Z</time>
      </trkpt>
      <trkpt lat="46.29738" lon="0.32919">
        <ele>142.73968603276</ele>
        <time>2021-03-07T08:24:17Z</time>
      </trkpt>
      <trkpt lat="46.29737" lon="0.32916">
        <ele>142.57360232528</ele>
        <time>2021-03-07T08:24:19Z</time>
      </trkpt>
      <trkpt lat="46.29737" lon="0.32913">
        <ele>142.98226981703</ele>
        <time>2021-03-07T08:24:20Z</time>
      </trkpt>
      <trkpt lat="46.29736" lon="0.3291">
        <ele>142.88761190325</ele>
        <time>2021-03-07T08:24:21Z</time>
      </trkpt>
      <trkpt lat="46.29736" lon="0.32906">
        <ele>143.10666452814</ele>
        <time>2021-03-07T08:24:23Z</time>
      </trkpt>
      <trkpt lat="46.29734" lon="0.32903">
        <ele>142.6048386516</ele>
        <time>2021-03-07T08:24:25Z</time>
      </trkpt>
      <trkpt lat="46.29733" lon="0.32899">
        <ele>143.39098036289</ele>
        <time>2021-03-07T08:24:27Z</time>
      </trkpt>
      <trkpt lat="46.29732" lon="0.32897">
        <ele>142.77269443311</ele>
        <time>2021-03-07T08:24:29Z</time>
      </trkpt>
      <trkpt lat="46.29731" lon="0.32894">
        <ele>143.11161104497</ele>
        <time>2021-03-07T08:24:31Z</time>
      </trkpt>
      <trkpt lat="46.2973" lon="0.32891">
        <ele>142.84586319979</ele>
        <time>2021-03-07T08:24:33Z</time>
      </trkpt>
      <trkpt lat="46.29729" lon="0.32889">
        <ele>142.99248341098</ele>
        <time>2021-03-07T08:24:35Z</time>
      </trkpt>
      <trkpt lat="46.29728" lon="0.32886">
        <ele>143.2254504133</ele>
        <time>2021-03-07T08:24:37Z</time>
      </trkpt>
      <trkpt lat="46.29726" lon="0.32883">
        <ele>143.56901365332</ele>
        <time>2021-03-07T08:24:39Z</time>
      </trkpt>
      <trkpt lat="46.29725" lon="0.3288">
        <ele>143.11039402429</ele>
        <time>2021-03-07T08:24:41Z</time>
      </trkpt>
      <trkpt lat="46.29723" lon="0.32878">
        <ele>143.30352437869</ele>
        <time>2021-03-07T08:24:42Z</time>
      </trkpt>
      <trkpt lat="46.29721" lon="0.32875">
        <ele>143.3391469419</ele>
        <time>2021-03-07T08:24:44Z</time>
      </trkpt>
      <trkpt lat="46.29719" lon="0.32874">
        <ele>143.2454177523</ele>
        <time>2021-03-07T08:24:46Z</time>
      </trkpt>
      <trkpt lat="46.29718" lon="0.32872">
        <ele>143.19998021889</ele>
        <time>2021-03-07T08:24:48Z</time>
      </trkpt>
      <trkpt lat="46.29715" lon="0.32869">
        <ele>143.00343307294</ele>
        <time>2021-03-07T08:24:50Z</time>
      </trkpt>
      <trkpt lat="46.29714" lon="0.32867">
        <ele>143.14942053985</ele>
        <time>2021-03-07T08:24:52Z</time>
      </trkpt>
      <trkpt lat="46.29712" lon="0.32865">
        <ele>143.25437111501</ele>
        <time>2021-03-07T08:24:54Z</time>
      </trkpt>
      <trkpt lat="46.2971" lon="0.32863">
        <ele>143.42567854375</ele>
        <time>2021-03-07T08:24:56Z</time>
      </trkpt>
      <trkpt lat="46.29708" lon="0.3286">
        <ele>142.88780687284</ele>
        <time>2021-03-07T08:24:58Z</time>
      </trkpt>
      <trkpt lat="46.29705" lon="0.32858">
        <ele>142.95950592682</ele>
        <time>2021-03-07T08:25:00Z</time>
      </trkpt>
      <trkpt lat="46.29704" lon="0.32856">
        <ele>143.21394279227</ele>
        <time>2021-03-07T08:25:02Z</time>
      </trkpt>
      <trkpt lat="46.29702" lon="0.32853">
        <ele>143.41162614059</ele>
        <time>2021-03-07T08:25:04Z</time>
      </trkpt>
      <trkpt lat="46.29699" lon="0.32851">
        <ele>143.1833049329</ele>
        <time>2021-03-07T08:25:06Z</time>
      </trkpt>
      <trkpt lat="46.29697" lon="0.32851">
        <ele>143.33843422029</ele>
        <time>2021-03-07T08:25:08Z</time>
      </trkpt>
      <trkpt lat="46.29695" lon="0.32848">
        <ele>143.4902325822</ele>
        <time>2021-03-07T08:25:10Z</time>
      </trkpt>
      <trkpt lat="46.29693" lon="0.32846">
        <ele>143.56607369054</ele>
        <time>2021-03-07T08:25:12Z</time>
      </trkpt>
      <trkpt lat="46.2969" lon="0.32844">
        <ele>143.50702456571</ele>
        <time>2021-03-07T08:25:15Z</time>
      </trkpt>
      <trkpt lat="46.29688" lon="0.32841">
        <ele>143.61586669926</ele>
        <time>2021-03-07T08:25:17Z</time>
      </trkpt>
      <trkpt lat="46.29686" lon="0.32839">
        <ele>143.61953687854</ele>
        <time>2021-03-07T08:25:19Z</time>
      </trkpt>
      <trkpt lat="46.29684" lon="0.32837">
        <ele>143.90015349723</ele>
        <time>2021-03-07T08:25:21Z</time>
      </trkpt>
      <trkpt lat="46.29681" lon="0.32835">
        <ele>144.1100420272</ele>
        <time>2021-03-07T08:25:23Z</time>
      </trkpt>
      <trkpt lat="46.29679" lon="0.32834">
        <ele>144.13049894106</ele>
        <time>2021-03-07T08:25:25Z</time>
      </trkpt>
      <trkpt lat="46.29678" lon="0.32831">
        <ele>143.68702780362</ele>
        <time>2021-03-07T08:25:26Z</time>
      </trkpt>
      <trkpt lat="46.29676" lon="0.3283">
        <ele>144.68056607805</ele>
        <time>2021-03-07T08:25:28Z</time>
      </trkpt>
      <trkpt lat="46.29673" lon="0.32827">
        <ele>144.34701678623</ele>
        <time>2021-03-07T08:25:30Z</time>
      </trkpt>
      <trkpt lat="46.29671" lon="0.32825">
        <ele>143.96825795062</ele>
        <time>2021-03-07T08:25:31Z</time>
      </trkpt>
      <trkpt lat="46.29669" lon="0.32825">
        <ele>144.19177260343</ele>
        <time>2021-03-07T08:25:33Z</time>
      </trkpt>
      <trkpt lat="46.29667" lon="0.32823">
        <ele>144.79377332423</ele>
        <time>2021-03-07T08:25:35Z</time>
      </trkpt>
      <trkpt lat="46.29664" lon="0.32821">
        <ele>144.69158228301</ele>
        <time>2021-03-07T08:25:37Z</time>
      </trkpt>
      <trkpt lat="46.29662" lon="0.32819">
        <ele>145.11823041178</ele>
        <time>2021-03-07T08:25:39Z</time>
      </trkpt>
      <trkpt lat="46.29659" lon="0.32819">
        <ele>144.58481832501</ele>
        <time>2021-03-07T08:25:41Z</time>
      </trkpt>
      <trkpt lat="46.29656" lon="0.32817">
        <ele>144.8265183121</ele>
        <time>2021-03-07T08:25:43Z</time>
      </trkpt>
      <trkpt lat="46.29654" lon="0.32816">
        <ele>144.80268632807</ele>
        <time>2021-03-07T08:25:46Z</time>
      </trkpt>
      <trkpt lat="46.29652" lon="0.32815">
        <ele>145.16691165417</ele>
        <time>2021-03-07T08:25:48Z</time>
      </trkpt>
      <trkpt lat="46.29649" lon="0.32813">
        <ele>145.45215759519</ele>
        <time>2021-03-07T08:25:50Z</time>
      </trkpt>
      <trkpt lat="46.29647" lon="0.32811">
        <ele>145.39387217443</ele>
        <time>2021-03-07T08:25:52Z</time>
      </trkpt>
      <trkpt lat="46.29645" lon="0.32811">
        <ele>145.27143463027</ele>
        <time>2021-03-07T08:25:54Z</time>
      </trkpt>
      <trkpt lat="46.29642" lon="0.32809">
        <ele>145.6307503609</ele>
        <time>2021-03-07T08:25:57Z</time>
      </trkpt>
      <trkpt lat="46.2964" lon="0.32808">
        <ele>145.36725612171</ele>
        <time>2021-03-07T08:25:59Z</time>
      </trkpt>
      <trkpt lat="46.29638" lon="0.32807">
        <ele>145.62579848617</ele>
        <time>2021-03-07T08:26:00Z</time>
      </trkpt>
      <trkpt lat="46.29636" lon="0.32806">
        <ele>145.78273556102</ele>
        <time>2021-03-07T08:26:02Z</time>
      </trkpt>
      <trkpt lat="46.29634" lon="0.32805">
        <ele>145.84946858324</ele>
        <time>2021-03-07T08:26:05Z</time>
      </trkpt>
      <trkpt lat="46.29631" lon="0.32805">
        <ele>145.77933178749</ele>
        <time>2021-03-07T08:26:07Z</time>
      </trkpt>
      <trkpt lat="46.29629" lon="0.32804">
        <ele>146.1135178674</ele>
        <time>2021-03-07T08:26:09Z</time>
      </trkpt>
      <trkpt lat="46.29626" lon="0.32803">
        <ele>145.66163657978</ele>
        <time>2021-03-07T08:26:11Z</time>
      </trkpt>
      <trkpt lat="46.29624" lon="0.32802">
        <ele>146.10332326964</ele>
        <time>2021-03-07T08:26:13Z</time>
      </trkpt>
      <trkpt lat="46.29621" lon="0.32801">
        <ele>146.11042328458</ele>
        <time>2021-03-07T08:26:16Z</time>
      </trkpt>
      <trkpt lat="46.2962" lon="0.32801">
        <ele>146.34178492334</ele>
        <time>2021-03-07T08:26:17Z</time>
      </trkpt>
      <trkpt lat="46.29616" lon="0.328">
        <ele>146.42074357253</ele>
        <time>2021-03-07T08:26:19Z</time>
      </trkpt>
      <trkpt lat="46.29615" lon="0.328">
        <ele>146.22288115043</ele>
        <time>2021-03-07T08:26:21Z</time>
      </trkpt>
      <trkpt lat="46.29612" lon="0.328">
        <ele>146.63462324254</ele>
        <time>2021-03-07T08:26:23Z</time>
      </trkpt>
      <trkpt lat="46.2961" lon="0.32799">
        <ele>146.83928601351</ele>
        <time>2021-03-07T08:26:25Z</time>
      </trkpt>
      <trkpt lat="46.29607" lon="0.32799">
        <ele>147.00479293801</ele>
        <time>2021-03-07T08:26:27Z</time>
      </trkpt>
      <trkpt lat="46.29605" lon="0.32798">
        <ele>146.2855704641</ele>
        <time>2021-03-07T08:26:29Z</time>
      </trkpt>
      <trkpt lat="46.29602" lon="0.32798">
        <ele>146.59426669218</ele>
        <time>2021-03-07T08:26:31Z</time>
      </trkpt>
      <trkpt lat="46.296" lon="0.32797">
        <ele>146.46203809511</ele>
        <time>2021-03-07T08:26:33Z</time>
      </trkpt>
      <trkpt lat="46.29597" lon="0.32797">
        <ele>146.74777826201</ele>
        <time>2021-03-07T08:26:35Z</time>
      </trkpt>
      <trkpt lat="46.29595" lon="0.32798">
        <ele>146.55139053799</ele>
        <time>2021-03-07T08:26:37Z</time>
      </trkpt>
      <trkpt lat="46.29593" lon="0.32797">
        <ele>146.33788500819</ele>
        <time>2021-03-07T08:26:39Z</time>
      </trkpt>
      <trkpt lat="46.2959" lon="0.32796">
        <ele>146.66758171748</ele>
        <time>2021-03-07T08:26:41Z</time>
      </trkpt>
      <trkpt lat="46.29587" lon="0.32796">
        <ele>146.75426331908</ele>
        <time>2021-03-07T08:26:43Z</time>
      </trkpt>
      <trkpt lat="46.29585" lon="0.32796">
        <ele>146.48484669067</ele>
        <time>2021-03-07T08:26:45Z</time>
      </trkpt>
      <trkpt lat="46.29583" lon="0.32795">
        <ele>146.77665533684</ele>
        <time>2021-03-07T08:26:47Z</time>
      </trkpt>
      <trkpt lat="46.2958" lon="0.32795">
        <ele>147.00177842285</ele>
        <time>2021-03-07T08:26:49Z</time>
      </trkpt>
      <trkpt lat="46.29577" lon="0.32794">
        <ele>146.37775983941</ele>
        <time>2021-03-07T08:26:51Z</time>
      </trkpt>
      <trkpt lat="46.29575" lon="0.32794">
        <ele>146.37552570365</ele>
        <time>2021-03-07T08:26:53Z</time>
      </trkpt>
      <trkpt lat="46.29573" lon="0.32794">
        <ele>146.59217216447</ele>
        <time>2021-03-07T08:26:55Z</time>
      </trkpt>
      <trkpt lat="46.29571" lon="0.32793">
        <ele>146.74808439519</ele>
        <time>2021-03-07T08:26:57Z</time>
      </trkpt>
      <trkpt lat="46.29569" lon="0.32791">
        <ele>146.26186027098</ele>
        <time>2021-03-07T08:27:08Z</time>
      </trkpt>
      <trkpt lat="46.2957" lon="0.32786">
        <ele>146.33243591711</ele>
        <time>2021-03-07T08:27:11Z</time>
      </trkpt>
      <trkpt lat="46.2957" lon="0.32782">
        <ele>145.93857668713</ele>
        <time>2021-03-07T08:27:13Z</time>
      </trkpt>
      <trkpt lat="46.2957" lon="0.32778">
        <ele>146.30024403241</ele>
        <time>2021-03-07T08:27:15Z</time>
      </trkpt>
      <trkpt lat="46.2957" lon="0.32774">
        <ele>146.1014624266</ele>
        <time>2021-03-07T08:27:17Z</time>
      </trkpt>
      <trkpt lat="46.29571" lon="0.32772">
        <ele>146.2742754072</ele>
        <time>2021-03-07T08:27:19Z</time>
      </trkpt>
      <trkpt lat="46.29572" lon="0.32768">
        <ele>146.45665254723</ele>
        <time>2021-03-07T08:27:21Z</time>
      </trkpt>
      <trkpt lat="46.29572" lon="0.32765">
        <ele>146.42714049481</ele>
        <time>2021-03-07T08:27:23Z</time>
      </trkpt>
      <trkpt lat="46.29572" lon="0.32762">
        <ele>146.49312154204</ele>
        <time>2021-03-07T08:27:25Z</time>
      </trkpt>
      <trkpt lat="46.29573" lon="0.32758">
        <ele>146.21911082417</ele>
        <time>2021-03-07T08:27:27Z</time>
      </trkpt>
      <trkpt lat="46.29573" lon="0.32754">
        <ele>146.40521190409</ele>
        <time>2021-03-07T08:27:29Z</time>
      </trkpt>
      <trkpt lat="46.29573" lon="0.32751">
        <ele>146.20397976041</ele>
        <time>2021-03-07T08:27:31Z</time>
      </trkpt>
      <trkpt lat="46.29574" lon="0.32747">
        <ele>146.59396224748</ele>
        <time>2021-03-07T08:27:33Z</time>
      </trkpt>
      <trkpt lat="46.29575" lon="0.32744">
        <ele>146.43995998986</ele>
        <time>2021-03-07T08:27:35Z</time>
      </trkpt>
      <trkpt lat="46.29575" lon="0.3274">
        <ele>146.42892234027</ele>
        <time>2021-03-07T08:27:37Z</time>
      </trkpt>
      <trkpt lat="46.29576" lon="0.32737">
        <ele>146.47459326591</ele>
        <time>2021-03-07T08:27:39Z</time>
      </trkpt>
      <trkpt lat="46.29576" lon="0.32734">
        <ele>146.4811091302</ele>
        <time>2021-03-07T08:27:41Z</time>
      </trkpt>
      <trkpt lat="46.29577" lon="0.32729">
        <ele>146.46889510285</ele>
        <time>2021-03-07T08:27:43Z</time>
      </trkpt>
      <trkpt lat="46.29578" lon="0.32726">
        <ele>146.60764389206</ele>
        <time>2021-03-07T08:27:45Z</time>
      </trkpt>
      <trkpt lat="46.29579" lon="0.32722">
        <ele>146.67733845394</ele>
        <time>2021-03-07T08:27:47Z</time>
      </trkpt>
      <trkpt lat="46.2958" lon="0.32719">
        <ele>146.58184508048</ele>
        <time>2021-03-07T08:27:49Z</time>
      </trkpt>
      <trkpt lat="46.2958" lon="0.32716">
        <ele>146.6999817444</ele>
        <time>2021-03-07T08:27:51Z</time>
      </trkpt>
      <trkpt lat="46.29581" lon="0.32712">
        <ele>146.39947978035</ele>
        <time>2021-03-07T08:27:53Z</time>
      </trkpt>
      <trkpt lat="46.29582" lon="0.32707">
        <ele>146.03128155321</ele>
        <time>2021-03-07T08:27:56Z</time>
      </trkpt>
      <trkpt lat="46.29583" lon="0.32703">
        <ele>146.67361472361</ele>
        <time>2021-03-07T08:27:58Z</time>
      </trkpt>
      <trkpt lat="46.29584" lon="0.327">
        <ele>146.43530285917</ele>
        <time>2021-03-07T08:28:00Z</time>
      </trkpt>
      <trkpt lat="46.29585" lon="0.32697">
        <ele>146.47010160517</ele>
        <time>2021-03-07T08:28:02Z</time>
      </trkpt>
      <trkpt lat="46.29585" lon="0.32693">
        <ele>146.30664635077</ele>
        <time>2021-03-07T08:28:04Z</time>
      </trkpt>
      <trkpt lat="46.29586" lon="0.32688">
        <ele>146.91190692876</ele>
        <time>2021-03-07T08:28:06Z</time>
      </trkpt>
      <trkpt lat="46.29587" lon="0.32685">
        <ele>146.50853218045</ele>
        <time>2021-03-07T08:28:08Z</time>
      </trkpt>
      <trkpt lat="46.29587" lon="0.32682">
        <ele>146.40244503226</ele>
        <time>2021-03-07T08:28:10Z</time>
      </trkpt>
      <trkpt lat="46.29588" lon="0.32679">
        <ele>146.41141140275</ele>
        <time>2021-03-07T08:28:12Z</time>
      </trkpt>
      <trkpt lat="46.29588" lon="0.32675">
        <ele>146.68084772024</ele>
        <time>2021-03-07T08:28:14Z</time>
      </trkpt>
      <trkpt lat="46.29589" lon="0.32672">
        <ele>146.57252882048</ele>
        <time>2021-03-07T08:28:16Z</time>
      </trkpt>
      <trkpt lat="46.2959" lon="0.32668">
        <ele>146.8135022549</ele>
        <time>2021-03-07T08:28:18Z</time>
      </trkpt>
      <trkpt lat="46.29591" lon="0.32664">
        <ele>146.82722401898</ele>
        <time>2021-03-07T08:28:20Z</time>
      </trkpt>
      <trkpt lat="46.29591" lon="0.32661">
        <ele>146.18717928976</ele>
        <time>2021-03-07T08:28:22Z</time>
      </trkpt>
      <trkpt lat="46.29592" lon="0.32657">
        <ele>146.4826388061</ele>
        <time>2021-03-07T08:28:24Z</time>
      </trkpt>
      <trkpt lat="46.29593" lon="0.32653">
        <ele>146.31064334325</ele>
        <time>2021-03-07T08:28:26Z</time>
      </trkpt>
      <trkpt lat="46.29594" lon="0.3265">
        <ele>146.58028533123</ele>
        <time>2021-03-07T08:28:28Z</time>
      </trkpt>
      <trkpt lat="46.29595" lon="0.32646">
        <ele>146.67126435135</ele>
        <time>2021-03-07T08:28:30Z</time>
      </trkpt>
      <trkpt lat="46.29596" lon="0.32643">
        <ele>146.70329014584</ele>
        <time>2021-03-07T08:28:32Z</time>
      </trkpt>
      <trkpt lat="46.29596" lon="0.32639">
        <ele>146.40406354703</ele>
        <time>2021-03-07T08:28:34Z</time>
      </trkpt>
      <trkpt lat="46.29598" lon="0.32637">
        <ele>146.51882255357</ele>
        <time>2021-03-07T08:28:36Z</time>
      </trkpt>
      <trkpt lat="46.29599" lon="0.32632">
        <ele>146.40132856369</ele>
        <time>2021-03-07T08:28:38Z</time>
      </trkpt>
      <trkpt lat="46.296" lon="0.32628">
        <ele>146.26790184993</ele>
        <time>2021-03-07T08:28:40Z</time>
      </trkpt>
      <trkpt lat="46.29601" lon="0.32625">
        <ele>146.3859103797</ele>
        <time>2021-03-07T08:28:42Z</time>
      </trkpt>
      <trkpt lat="46.29603" lon="0.32622">
        <ele>146.55102045834</ele>
        <time>2021-03-07T08:28:44Z</time>
      </trkpt>
      <trkpt lat="46.29604" lon="0.32618">
        <ele>146.66930217389</ele>
        <time>2021-03-07T08:28:47Z</time>
      </trkpt>
      <trkpt lat="46.29605" lon="0.32615">
        <ele>146.70949670952</ele>
        <time>2021-03-07T08:28:49Z</time>
      </trkpt>
      <trkpt lat="46.29606" lon="0.32612">
        <ele>146.0261666486</ele>
        <time>2021-03-07T08:28:51Z</time>
      </trkpt>
      <trkpt lat="46.29608" lon="0.32609">
        <ele>146.62884516455</ele>
        <time>2021-03-07T08:28:53Z</time>
      </trkpt>
      <trkpt lat="46.29609" lon="0.32606">
        <ele>146.46224562638</ele>
        <time>2021-03-07T08:28:55Z</time>
      </trkpt>
      <trkpt lat="46.2961" lon="0.32603">
        <ele>146.34590718802</ele>
        <time>2021-03-07T08:28:57Z</time>
      </trkpt>
      <trkpt lat="46.29611" lon="0.326">
        <ele>146.01694088895</ele>
        <time>2021-03-07T08:28:59Z</time>
      </trkpt>
      <trkpt lat="46.29612" lon="0.32596">
        <ele>146.25111199729</ele>
        <time>2021-03-07T08:29:01Z</time>
      </trkpt>
      <trkpt lat="46.29612" lon="0.32592">
        <ele>146.19046419207</ele>
        <time>2021-03-07T08:29:03Z</time>
      </trkpt>
      <trkpt lat="46.29614" lon="0.32589">
        <ele>146.07328324299</ele>
        <time>2021-03-07T08:29:05Z</time>
      </trkpt>
      <trkpt lat="46.29614" lon="0.32586">
        <ele>145.64163731225</ele>
        <time>2021-03-07T08:29:07Z</time>
      </trkpt>
      <trkpt lat="46.29615" lon="0.32583">
        <ele>145.73746998888</ele>
        <time>2021-03-07T08:29:09Z</time>
      </trkpt>
      <trkpt lat="46.29616" lon="0.32581">
        <ele>145.55753160175</ele>
        <time>2021-03-07T08:29:11Z</time>
      </trkpt>
      <trkpt lat="46.29617" lon="0.32577">
        <ele>145.87032571994</ele>
        <time>2021-03-07T08:29:13Z</time>
      </trkpt>
      <trkpt lat="46.29618" lon="0.32574">
        <ele>145.37906355318</ele>
        <time>2021-03-07T08:29:15Z</time>
      </trkpt>
      <trkpt lat="46.29619" lon="0.32569">
        <ele>145.61833070405</ele>
        <time>2021-03-07T08:29:17Z</time>
      </trkpt>
      <trkpt lat="46.2962" lon="0.32566">
        <ele>146.05727046542</ele>
        <time>2021-03-07T08:29:19Z</time>
      </trkpt>
      <trkpt lat="46.2962" lon="0.32563">
        <ele>145.35221446678</ele>
        <time>2021-03-07T08:29:21Z</time>
      </trkpt>
      <trkpt lat="46.29622" lon="0.3256">
        <ele>145.96473718807</ele>
        <time>2021-03-07T08:29:23Z</time>
      </trkpt>
      <trkpt lat="46.29623" lon="0.32557">
        <ele>145.99322807696</ele>
        <time>2021-03-07T08:29:25Z</time>
      </trkpt>
      <trkpt lat="46.29623" lon="0.32553">
        <ele>145.86042336747</ele>
        <time>2021-03-07T08:29:27Z</time>
      </trkpt>
      <trkpt lat="46.29624" lon="0.3255">
        <ele>145.91377806105</ele>
        <time>2021-03-07T08:29:29Z</time>
      </trkpt>
      <trkpt lat="46.29625" lon="0.32546">
        <ele>145.81271148939</ele>
        <time>2021-03-07T08:29:31Z</time>
      </trkpt>
      <trkpt lat="46.29626" lon="0.32543">
        <ele>146.32487567328</ele>
        <time>2021-03-07T08:29:33Z</time>
      </trkpt>
      <trkpt lat="46.29627" lon="0.3254">
        <ele>146.37956087291</ele>
        <time>2021-03-07T08:29:35Z</time>
      </trkpt>
      <trkpt lat="46.29628" lon="0.32536">
        <ele>146.6077415403</ele>
        <time>2021-03-07T08:29:37Z</time>
      </trkpt>
      <trkpt lat="46.29629" lon="0.32533">
        <ele>146.1670809444</ele>
        <time>2021-03-07T08:29:39Z</time>
      </trkpt>
      <trkpt lat="46.29629" lon="0.3253">
        <ele>146.43194294069</ele>
        <time>2021-03-07T08:29:41Z</time>
      </trkpt>
      <trkpt lat="46.2963" lon="0.32526">
        <ele>146.73940491211</ele>
        <time>2021-03-07T08:29:43Z</time>
      </trkpt>
      <trkpt lat="46.29631" lon="0.32522">
        <ele>146.228548727</ele>
        <time>2021-03-07T08:29:45Z</time>
      </trkpt>
      <trkpt lat="46.29631" lon="0.32517">
        <ele>146.51266923174</ele>
        <time>2021-03-07T08:29:48Z</time>
      </trkpt>
      <trkpt lat="46.29632" lon="0.32513">
        <ele>146.54004824534</ele>
        <time>2021-03-07T08:29:50Z</time>
      </trkpt>
      <trkpt lat="46.29632" lon="0.3251">
        <ele>146.80851470772</ele>
        <time>2021-03-07T08:29:52Z</time>
      </trkpt>
      <trkpt lat="46.29632" lon="0.32507">
        <ele>146.59824593645</ele>
        <time>2021-03-07T08:29:54Z</time>
      </trkpt>
      <trkpt lat="46.29632" lon="0.32504">
        <ele>146.85089151468</ele>
        <time>2021-03-07T08:29:57Z</time>
      </trkpt>
      <trkpt lat="46.29633" lon="0.325">
        <ele>146.89179063309</ele>
        <time>2021-03-07T08:29:59Z</time>
      </trkpt>
      <trkpt lat="46.29634" lon="0.32497">
        <ele>146.83583270386</ele>
        <time>2021-03-07T08:30:01Z</time>
      </trkpt>
      <trkpt lat="46.29634" lon="0.32493">
        <ele>146.66521352995</ele>
        <time>2021-03-07T08:30:03Z</time>
      </trkpt>
      <trkpt lat="46.29634" lon="0.3249">
        <ele>146.87582254782</ele>
        <time>2021-03-07T08:30:05Z</time>
      </trkpt>
      <trkpt lat="46.29635" lon="0.32488">
        <ele>146.77274742909</ele>
        <time>2021-03-07T08:30:07Z</time>
      </trkpt>
      <trkpt lat="46.29635" lon="0.32484">
        <ele>146.67480928451</ele>
        <time>2021-03-07T08:30:09Z</time>
      </trkpt>
      <trkpt lat="46.29634" lon="0.3248">
        <ele>146.61676353496</ele>
        <time>2021-03-07T08:30:11Z</time>
      </trkpt>
      <trkpt lat="46.29635" lon="0.32477">
        <ele>146.3676304426</ele>
        <time>2021-03-07T08:30:13Z</time>
      </trkpt>
      <trkpt lat="46.29635" lon="0.32474">
        <ele>146.6446460383</ele>
        <time>2021-03-07T08:30:15Z</time>
      </trkpt>
      <trkpt lat="46.29635" lon="0.32469">
        <ele>146.58304530941</ele>
        <time>2021-03-07T08:30:17Z</time>
      </trkpt>
      <trkpt lat="46.29635" lon="0.32466">
        <ele>146.448540329</ele>
        <time>2021-03-07T08:30:19Z</time>
      </trkpt>
      <trkpt lat="46.29635" lon="0.32463">
        <ele>146.27139201201</ele>
        <time>2021-03-07T08:30:21Z</time>
      </trkpt>
      <trkpt lat="46.29636" lon="0.32459">
        <ele>146.82694579847</ele>
        <time>2021-03-07T08:30:23Z</time>
      </trkpt>
      <trkpt lat="46.29637" lon="0.32456">
        <ele>146.97549193539</ele>
        <time>2021-03-07T08:30:24Z</time>
      </trkpt>
      <trkpt lat="46.29637" lon="0.32453">
        <ele>147.18906542007</ele>
        <time>2021-03-07T08:30:25Z</time>
      </trkpt>
      <trkpt lat="46.29637" lon="0.3245">
        <ele>147.10695572756</ele>
        <time>2021-03-07T08:30:27Z</time>
      </trkpt>
      <trkpt lat="46.29637" lon="0.32447">
        <ele>146.47970491368</ele>
        <time>2021-03-07T08:30:29Z</time>
      </trkpt>
      <trkpt lat="46.29637" lon="0.32444">
        <ele>146.51265341416</ele>
        <time>2021-03-07T08:30:31Z</time>
      </trkpt>
      <trkpt lat="46.29637" lon="0.3244">
        <ele>146.22520057485</ele>
        <time>2021-03-07T08:30:33Z</time>
      </trkpt>
      <trkpt lat="46.29638" lon="0.32436">
        <ele>146.60030927509</ele>
        <time>2021-03-07T08:30:36Z</time>
      </trkpt>
      <trkpt lat="46.29638" lon="0.32432">
        <ele>146.32212795876</ele>
        <time>2021-03-07T08:30:38Z</time>
      </trkpt>
      <trkpt lat="46.29638" lon="0.32428">
        <ele>146.29953797441</ele>
        <time>2021-03-07T08:30:40Z</time>
      </trkpt>
      <trkpt lat="46.29638" lon="0.32424">
        <ele>146.50446461886</ele>
        <time>2021-03-07T08:30:42Z</time>
      </trkpt>
      <trkpt lat="46.29639" lon="0.32421">
        <ele>146.19877525419</ele>
        <time>2021-03-07T08:30:45Z</time>
      </trkpt>
      <trkpt lat="46.29639" lon="0.32417">
        <ele>146.50447939336</ele>
        <time>2021-03-07T08:30:47Z</time>
      </trkpt>
      <trkpt lat="46.29639" lon="0.32413">
        <ele>146.42545578349</ele>
        <time>2021-03-07T08:30:49Z</time>
      </trkpt>
      <trkpt lat="46.2964" lon="0.32409">
        <ele>146.83042578772</ele>
        <time>2021-03-07T08:30:51Z</time>
      </trkpt>
      <trkpt lat="46.2964" lon="0.32406">
        <ele>145.98607907537</ele>
        <time>2021-03-07T08:30:53Z</time>
      </trkpt>
      <trkpt lat="46.29641" lon="0.32402">
        <ele>146.64850650635</ele>
        <time>2021-03-07T08:30:55Z</time>
      </trkpt>
      <trkpt lat="46.2964" lon="0.32399">
        <ele>146.6284174649</ele>
        <time>2021-03-07T08:30:57Z</time>
      </trkpt>
      <trkpt lat="46.29641" lon="0.32394">
        <ele>146.3712955853</ele>
        <time>2021-03-07T08:30:59Z</time>
      </trkpt>
      <trkpt lat="46.29641" lon="0.32391">
        <ele>146.42996408418</ele>
        <time>2021-03-07T08:31:01Z</time>
      </trkpt>
      <trkpt lat="46.29641" lon="0.32387">
        <ele>146.72671515681</ele>
        <time>2021-03-07T08:31:03Z</time>
      </trkpt>
      <trkpt lat="46.29641" lon="0.32384">
        <ele>146.4969539009</ele>
        <time>2021-03-07T08:31:05Z</time>
      </trkpt>
      <trkpt lat="46.29641" lon="0.3238">
        <ele>146.30618278123</ele>
        <time>2021-03-07T08:31:07Z</time>
      </trkpt>
      <trkpt lat="46.29641" lon="0.32376">
        <ele>146.11307433806</ele>
        <time>2021-03-07T08:31:09Z</time>
      </trkpt>
      <trkpt lat="46.29642" lon="0.32373">
        <ele>145.6498658238</ele>
        <time>2021-03-07T08:31:11Z</time>
      </trkpt>
      <trkpt lat="46.29642" lon="0.32369">
        <ele>146.27186842263</ele>
        <time>2021-03-07T08:31:13Z</time>
      </trkpt>
      <trkpt lat="46.29642" lon="0.32365">
        <ele>146.24820098095</ele>
        <time>2021-03-07T08:31:15Z</time>
      </trkpt>
      <trkpt lat="46.29642" lon="0.32361">
        <ele>145.67271841317</ele>
        <time>2021-03-07T08:31:17Z</time>
      </trkpt>
      <trkpt lat="46.29643" lon="0.32357">
        <ele>145.92125147674</ele>
        <time>2021-03-07T08:31:19Z</time>
      </trkpt>
      <trkpt lat="46.29643" lon="0.32354">
        <ele>145.20986047015</ele>
        <time>2021-03-07T08:31:21Z</time>
      </trkpt>
      <trkpt lat="46.29644" lon="0.3235">
        <ele>145.34867569059</ele>
        <time>2021-03-07T08:31:23Z</time>
      </trkpt>
      <trkpt lat="46.29644" lon="0.32345">
        <ele>145.05834031384</ele>
        <time>2021-03-07T08:31:26Z</time>
      </trkpt>
      <trkpt lat="46.29644" lon="0.32342">
        <ele>145.67234763503</ele>
        <time>2021-03-07T08:31:28Z</time>
      </trkpt>
      <trkpt lat="46.29644" lon="0.32339">
        <ele>145.29320642073</ele>
        <time>2021-03-07T08:31:30Z</time>
      </trkpt>
      <trkpt lat="46.29644" lon="0.32334">
        <ele>145.40720662754</ele>
        <time>2021-03-07T08:31:32Z</time>
      </trkpt>
      <trkpt lat="46.29644" lon="0.32331">
        <ele>145.5020987615</ele>
        <time>2021-03-07T08:31:33Z</time>
      </trkpt>
      <trkpt lat="46.29644" lon="0.32327">
        <ele>145.48184677586</ele>
        <time>2021-03-07T08:31:35Z</time>
      </trkpt>
      <trkpt lat="46.29644" lon="0.32323">
        <ele>145.57999735605</ele>
        <time>2021-03-07T08:31:37Z</time>
      </trkpt>
      <trkpt lat="46.29644" lon="0.32319">
        <ele>145.32998894621</ele>
        <time>2021-03-07T08:31:39Z</time>
      </trkpt>
      <trkpt lat="46.29644" lon="0.32315">
        <ele>145.16538458038</ele>
        <time>2021-03-07T08:31:41Z</time>
      </trkpt>
      <trkpt lat="46.29644" lon="0.32312">
        <ele>145.37970956974</ele>
        <time>2021-03-07T08:31:43Z</time>
      </trkpt>
      <trkpt lat="46.29644" lon="0.32308">
        <ele>145.43429620471</ele>
        <time>2021-03-07T08:31:45Z</time>
      </trkpt>
      <trkpt lat="46.29644" lon="0.32304">
        <ele>145.2022315301</ele>
        <time>2021-03-07T08:31:47Z</time>
      </trkpt>
      <trkpt lat="46.29644" lon="0.32301">
        <ele>145.09593767673</ele>
        <time>2021-03-07T08:31:49Z</time>
      </trkpt>
      <trkpt lat="46.29644" lon="0.32297">
        <ele>144.63239284232</ele>
        <time>2021-03-07T08:31:51Z</time>
      </trkpt>
      <trkpt lat="46.29645" lon="0.32294">
        <ele>144.93106877152</ele>
        <time>2021-03-07T08:31:53Z</time>
      </trkpt>
      <trkpt lat="46.29645" lon="0.3229">
        <ele>144.8567895405</ele>
        <time>2021-03-07T08:31:55Z</time>
      </trkpt>
      <trkpt lat="46.29645" lon="0.32286">
        <ele>145.41627293639</ele>
        <time>2021-03-07T08:31:57Z</time>
      </trkpt>
      <trkpt lat="46.29645" lon="0.32283">
        <ele>144.9728127718</ele>
        <time>2021-03-07T08:31:59Z</time>
      </trkpt>
      <trkpt lat="46.29645" lon="0.32278">
        <ele>145.08380431589</ele>
        <time>2021-03-07T08:32:01Z</time>
      </trkpt>
      <trkpt lat="46.29644" lon="0.32274">
        <ele>144.85437665973</ele>
        <time>2021-03-07T08:32:04Z</time>
      </trkpt>
      <trkpt lat="46.29644" lon="0.32269">
        <ele>144.46063856035</ele>
        <time>2021-03-07T08:32:06Z</time>
      </trkpt>
      <trkpt lat="46.29644" lon="0.32265">
        <ele>145.0107947113</ele>
        <time>2021-03-07T08:32:09Z</time>
      </trkpt>
      <trkpt lat="46.29644" lon="0.32261">
        <ele>145.21873020008</ele>
        <time>2021-03-07T08:32:11Z</time>
      </trkpt>
      <trkpt lat="46.29643" lon="0.32257">
        <ele>145.16938288324</ele>
        <time>2021-03-07T08:32:13Z</time>
      </trkpt>
      <trkpt lat="46.29643" lon="0.32254">
        <ele>144.88298278302</ele>
        <time>2021-03-07T08:32:15Z</time>
      </trkpt>
      <trkpt lat="46.29643" lon="0.32251">
        <ele>145.29953823332</ele>
        <time>2021-03-07T08:32:17Z</time>
      </trkpt>
      <trkpt lat="46.29644" lon="0.32246">
        <ele>145.53833777178</ele>
        <time>2021-03-07T08:32:19Z</time>
      </trkpt>
      <trkpt lat="46.29643" lon="0.32242">
        <ele>145.56299808621</ele>
        <time>2021-03-07T08:32:22Z</time>
      </trkpt>
      <trkpt lat="46.29643" lon="0.32239">
        <ele>145.25320142601</ele>
        <time>2021-03-07T08:32:24Z</time>
      </trkpt>
      <trkpt lat="46.29643" lon="0.32235">
        <ele>145.41784293763</ele>
        <time>2021-03-07T08:32:26Z</time>
      </trkpt>
      <trkpt lat="46.29643" lon="0.32232">
        <ele>145.3369785212</ele>
        <time>2021-03-07T08:32:28Z</time>
      </trkpt>
      <trkpt lat="46.29642" lon="0.32228">
        <ele>145.62749905512</ele>
        <time>2021-03-07T08:32:30Z</time>
      </trkpt>
      <trkpt lat="46.29641" lon="0.32223">
        <ele>145.46284028608</ele>
        <time>2021-03-07T08:32:32Z</time>
      </trkpt>
      <trkpt lat="46.29641" lon="0.3222">
        <ele>145.08046758454</ele>
        <time>2021-03-07T08:32:34Z</time>
      </trkpt>
      <trkpt lat="46.29641" lon="0.32216">
        <ele>145.02570650075</ele>
        <time>2021-03-07T08:32:36Z</time>
      </trkpt>
      <trkpt lat="46.29641" lon="0.32213">
        <ele>144.8916342305</ele>
        <time>2021-03-07T08:32:38Z</time>
      </trkpt>
      <trkpt lat="46.29641" lon="0.3221">
        <ele>145.69397877809</ele>
        <time>2021-03-07T08:32:39Z</time>
      </trkpt>
      <trkpt lat="46.2964" lon="0.32206">
        <ele>145.77994389739</ele>
        <time>2021-03-07T08:32:41Z</time>
      </trkpt>
      <trkpt lat="46.29641" lon="0.32203">
        <ele>145.05217443034</ele>
        <time>2021-03-07T08:32:43Z</time>
      </trkpt>
      <trkpt lat="46.29641" lon="0.322">
        <ele>145.44558853097</ele>
        <time>2021-03-07T08:32:45Z</time>
      </trkpt>
      <trkpt lat="46.29641" lon="0.32195">
        <ele>145.38231058605</ele>
        <time>2021-03-07T08:32:47Z</time>
      </trkpt>
      <trkpt lat="46.29641" lon="0.32191">
        <ele>145.35970002785</ele>
        <time>2021-03-07T08:32:50Z</time>
      </trkpt>
      <trkpt lat="46.2964" lon="0.32188">
        <ele>145.58884109557</ele>
        <time>2021-03-07T08:32:52Z</time>
      </trkpt>
      <trkpt lat="46.29641" lon="0.32184">
        <ele>145.65653598122</ele>
        <time>2021-03-07T08:32:54Z</time>
      </trkpt>
      <trkpt lat="46.2964" lon="0.3218">
        <ele>145.07996219303</ele>
        <time>2021-03-07T08:32:56Z</time>
      </trkpt>
      <trkpt lat="46.2964" lon="0.32177">
        <ele>145.56885971129</ele>
        <time>2021-03-07T08:32:58Z</time>
      </trkpt>
      <trkpt lat="46.29641" lon="0.32173">
        <ele>145.97623007465</ele>
        <time>2021-03-07T08:33:00Z</time>
      </trkpt>
      <trkpt lat="46.2964" lon="0.32169">
        <ele>145.46442293189</ele>
        <time>2021-03-07T08:33:02Z</time>
      </trkpt>
      <trkpt lat="46.2964" lon="0.32165">
        <ele>145.54019103665</ele>
        <time>2021-03-07T08:33:04Z</time>
      </trkpt>
      <trkpt lat="46.2964" lon="0.32162">
        <ele>145.21369142085</ele>
        <time>2021-03-07T08:33:05Z</time>
      </trkpt>
      <trkpt lat="46.2964" lon="0.32159">
        <ele>145.83450990357</ele>
        <time>2021-03-07T08:33:07Z</time>
      </trkpt>
      <trkpt lat="46.2964" lon="0.32155">
        <ele>145.69045051839</ele>
        <time>2021-03-07T08:33:09Z</time>
      </trkpt>
      <trkpt lat="46.29641" lon="0.32152">
        <ele>145.43244100828</ele>
        <time>2021-03-07T08:33:11Z</time>
      </trkpt>
      <trkpt lat="46.29641" lon="0.32149">
        <ele>145.91134518012</ele>
        <time>2021-03-07T08:33:12Z</time>
      </trkpt>
      <trkpt lat="46.29641" lon="0.32145">
        <ele>145.84792427253</ele>
        <time>2021-03-07T08:33:14Z</time>
      </trkpt>
      <trkpt lat="46.29641" lon="0.32142">
        <ele>146.10978066176</ele>
        <time>2021-03-07T08:33:16Z</time>
      </trkpt>
      <trkpt lat="46.29641" lon="0.32138">
        <ele>145.73128986359</ele>
        <time>2021-03-07T08:33:18Z</time>
      </trkpt>
      <trkpt lat="46.29643" lon="0.32134">
        <ele>145.74213236105</ele>
        <time>2021-03-07T08:33:20Z</time>
      </trkpt>
      <trkpt lat="46.29643" lon="0.32131">
        <ele>145.30756871402</ele>
        <time>2021-03-07T08:33:22Z</time>
      </trkpt>
      <trkpt lat="46.29643" lon="0.32127">
        <ele>145.34544116259</ele>
        <time>2021-03-07T08:33:24Z</time>
      </trkpt>
      <trkpt lat="46.29644" lon="0.32123">
        <ele>146.15520312171</ele>
        <time>2021-03-07T08:33:26Z</time>
      </trkpt>
      <trkpt lat="46.29644" lon="0.3212">
        <ele>146.03708104603</ele>
        <time>2021-03-07T08:33:28Z</time>
      </trkpt>
      <trkpt lat="46.29643" lon="0.32116">
        <ele>145.63881299458</ele>
        <time>2021-03-07T08:33:30Z</time>
      </trkpt>
      <trkpt lat="46.29644" lon="0.32113">
        <ele>146.02262576669</ele>
        <time>2021-03-07T08:33:32Z</time>
      </trkpt>
      <trkpt lat="46.29645" lon="0.3211">
        <ele>146.05394617375</ele>
        <time>2021-03-07T08:33:34Z</time>
      </trkpt>
      <trkpt lat="46.29645" lon="0.32105">
        <ele>145.69415996782</ele>
        <time>2021-03-07T08:33:36Z</time>
      </trkpt>
      <trkpt lat="46.29646" lon="0.32101">
        <ele>146.01719004009</ele>
        <time>2021-03-07T08:33:38Z</time>
      </trkpt>
      <trkpt lat="46.29647" lon="0.32098">
        <ele>145.53080334421</ele>
        <time>2021-03-07T08:33:40Z</time>
      </trkpt>
      <trkpt lat="46.29647" lon="0.32094">
        <ele>145.69061916787</ele>
        <time>2021-03-07T08:33:42Z</time>
      </trkpt>
      <trkpt lat="46.29649" lon="0.32091">
        <ele>145.7216295572</ele>
        <time>2021-03-07T08:33:44Z</time>
      </trkpt>
      <trkpt lat="46.29649" lon="0.32088">
        <ele>145.58779566083</ele>
        <time>2021-03-07T08:33:46Z</time>
      </trkpt>
      <trkpt lat="46.29649" lon="0.32083">
        <ele>145.57532803994</ele>
        <time>2021-03-07T08:33:48Z</time>
      </trkpt>
      <trkpt lat="46.2965" lon="0.3208">
        <ele>145.4448544858</ele>
        <time>2021-03-07T08:33:50Z</time>
      </trkpt>
      <trkpt lat="46.2965" lon="0.32077">
        <ele>145.08664932847</ele>
        <time>2021-03-07T08:33:52Z</time>
      </trkpt>
      <trkpt lat="46.29651" lon="0.32075">
        <ele>144.41197046079</ele>
        <time>2021-03-07T08:33:54Z</time>
      </trkpt>
      <trkpt lat="46.29652" lon="0.32071">
        <ele>145.27046585269</ele>
        <time>2021-03-07T08:33:56Z</time>
      </trkpt>
      <trkpt lat="46.29652" lon="0.32068">
        <ele>145.08067414816</ele>
        <time>2021-03-07T08:33:57Z</time>
      </trkpt>
      <trkpt lat="46.29652" lon="0.32065">
        <ele>144.77895036433</ele>
        <time>2021-03-07T08:33:59Z</time>
      </trkpt>
      <trkpt lat="46.29653" lon="0.32061">
        <ele>144.84608258959</ele>
        <time>2021-03-07T08:34:01Z</time>
      </trkpt>
      <trkpt lat="46.29654" lon="0.32057">
        <ele>144.94165929686</ele>
        <time>2021-03-07T08:34:03Z</time>
      </trkpt>
      <trkpt lat="46.29655" lon="0.32053">
        <ele>145.01578829158</ele>
        <time>2021-03-07T08:34:05Z</time>
      </trkpt>
      <trkpt lat="46.29655" lon="0.32049">
        <ele>144.84600459412</ele>
        <time>2021-03-07T08:34:07Z</time>
      </trkpt>
      <trkpt lat="46.29655" lon="0.32046">
        <ele>145.07397944573</ele>
        <time>2021-03-07T08:34:09Z</time>
      </trkpt>
      <trkpt lat="46.29656" lon="0.32042">
        <ele>144.67496888991</ele>
        <time>2021-03-07T08:34:11Z</time>
      </trkpt>
      <trkpt lat="46.29658" lon="0.32038">
        <ele>144.93859396596</ele>
        <time>2021-03-07T08:34:13Z</time>
      </trkpt>
      <trkpt lat="46.29658" lon="0.32035">
        <ele>144.73029253166</ele>
        <time>2021-03-07T08:34:15Z</time>
      </trkpt>
      <trkpt lat="46.29659" lon="0.32031">
        <ele>145.14966955874</ele>
        <time>2021-03-07T08:34:17Z</time>
      </trkpt>
      <trkpt lat="46.29661" lon="0.32028">
        <ele>144.57425140683</ele>
        <time>2021-03-07T08:34:19Z</time>
      </trkpt>
      <trkpt lat="46.29661" lon="0.32025">
        <ele>144.81021672115</ele>
        <time>2021-03-07T08:34:21Z</time>
      </trkpt>
      <trkpt lat="46.29662" lon="0.32021">
        <ele>144.29112562723</ele>
        <time>2021-03-07T08:34:23Z</time>
      </trkpt>
      <trkpt lat="46.29663" lon="0.32018">
        <ele>144.22952069528</ele>
        <time>2021-03-07T08:34:25Z</time>
      </trkpt>
      <trkpt lat="46.29664" lon="0.32015">
        <ele>144.7083809562</ele>
        <time>2021-03-07T08:34:27Z</time>
      </trkpt>
      <trkpt lat="46.29665" lon="0.3201">
        <ele>144.39296557009</ele>
        <time>2021-03-07T08:34:29Z</time>
      </trkpt>
      <trkpt lat="46.29666" lon="0.32008">
        <ele>143.92095545307</ele>
        <time>2021-03-07T08:34:31Z</time>
      </trkpt>
      <trkpt lat="46.29667" lon="0.32003">
        <ele>143.99281787593</ele>
        <time>2021-03-07T08:34:33Z</time>
      </trkpt>
      <trkpt lat="46.29667" lon="0.32001">
        <ele>143.73153120652</ele>
        <time>2021-03-07T08:34:35Z</time>
      </trkpt>
      <trkpt lat="46.29669" lon="0.31998">
        <ele>143.73077956028</ele>
        <time>2021-03-07T08:34:37Z</time>
      </trkpt>
      <trkpt lat="46.29671" lon="0.31995">
        <ele>143.53017130122</ele>
        <time>2021-03-07T08:34:39Z</time>
      </trkpt>
      <trkpt lat="46.29672" lon="0.31992">
        <ele>143.2282371819</ele>
        <time>2021-03-07T08:34:41Z</time>
      </trkpt>
      <trkpt lat="46.29673" lon="0.31989">
        <ele>143.0555714108</ele>
        <time>2021-03-07T08:34:43Z</time>
      </trkpt>
      <trkpt lat="46.29674" lon="0.31987">
        <ele>142.39423535578</ele>
        <time>2021-03-07T08:34:45Z</time>
      </trkpt>
      <trkpt lat="46.29675" lon="0.31984">
        <ele>143.04729074333</ele>
        <time>2021-03-07T08:34:47Z</time>
      </trkpt>
      <trkpt lat="46.29676" lon="0.31981">
        <ele>142.46140405443</ele>
        <time>2021-03-07T08:34:49Z</time>
      </trkpt>
      <trkpt lat="46.29677" lon="0.31977">
        <ele>142.39730193466</ele>
        <time>2021-03-07T08:34:51Z</time>
      </trkpt>
      <trkpt lat="46.29679" lon="0.31974">
        <ele>142.55349398125</ele>
        <time>2021-03-07T08:34:53Z</time>
      </trkpt>
      <trkpt lat="46.29681" lon="0.31971">
        <ele>142.1624223059</ele>
        <time>2021-03-07T08:34:55Z</time>
      </trkpt>
      <trkpt lat="46.29681" lon="0.31968">
        <ele>142.14421768859</ele>
        <time>2021-03-07T08:34:57Z</time>
      </trkpt>
      <trkpt lat="46.29682" lon="0.31965">
        <ele>142.17413588148</ele>
        <time>2021-03-07T08:34:59Z</time>
      </trkpt>
      <trkpt lat="46.29683" lon="0.31961">
        <ele>141.1300167283</ele>
        <time>2021-03-07T08:35:01Z</time>
      </trkpt>
      <trkpt lat="46.29684" lon="0.31958">
        <ele>141.50096970145</ele>
        <time>2021-03-07T08:35:03Z</time>
      </trkpt>
      <trkpt lat="46.29685" lon="0.31955">
        <ele>141.56805427466</ele>
        <time>2021-03-07T08:35:05Z</time>
      </trkpt>
      <trkpt lat="46.29686" lon="0.31952">
        <ele>141.04467719141</ele>
        <time>2021-03-07T08:35:07Z</time>
      </trkpt>
      <trkpt lat="46.29686" lon="0.31947">
        <ele>141.37783229724</ele>
        <time>2021-03-07T08:35:09Z</time>
      </trkpt>
      <trkpt lat="46.29687" lon="0.31944">
        <ele>141.58639508672</ele>
        <time>2021-03-07T08:35:11Z</time>
      </trkpt>
      <trkpt lat="46.29687" lon="0.3194">
        <ele>141.93283857964</ele>
        <time>2021-03-07T08:35:13Z</time>
      </trkpt>
      <trkpt lat="46.29688" lon="0.31937">
        <ele>141.14510420244</ele>
        <time>2021-03-07T08:35:15Z</time>
      </trkpt>
      <trkpt lat="46.29689" lon="0.31933">
        <ele>141.24769514427</ele>
        <time>2021-03-07T08:35:17Z</time>
      </trkpt>
      <trkpt lat="46.2969" lon="0.3193">
        <ele>141.29514040891</ele>
        <time>2021-03-07T08:35:19Z</time>
      </trkpt>
      <trkpt lat="46.2969" lon="0.31925">
        <ele>141.27742189448</ele>
        <time>2021-03-07T08:35:21Z</time>
      </trkpt>
      <trkpt lat="46.29691" lon="0.31922">
        <ele>141.1773316972</ele>
        <time>2021-03-07T08:35:23Z</time>
      </trkpt>
      <trkpt lat="46.29691" lon="0.31919">
        <ele>141.4869507635</ele>
        <time>2021-03-07T08:35:25Z</time>
      </trkpt>
      <trkpt lat="46.29693" lon="0.31915">
        <ele>141.51526886597</ele>
        <time>2021-03-07T08:35:27Z</time>
      </trkpt>
      <trkpt lat="46.29693" lon="0.31912">
        <ele>141.3624628745</ele>
        <time>2021-03-07T08:35:29Z</time>
      </trkpt>
      <trkpt lat="46.29694" lon="0.31908">
        <ele>141.42853091564</ele>
        <time>2021-03-07T08:35:31Z</time>
      </trkpt>
      <trkpt lat="46.29695" lon="0.31905">
        <ele>141.08664486464</ele>
        <time>2021-03-07T08:35:33Z</time>
      </trkpt>
      <trkpt lat="46.29694" lon="0.31902">
        <ele>141.48310955334</ele>
        <time>2021-03-07T08:35:34Z</time>
      </trkpt>
      <trkpt lat="46.29695" lon="0.31898">
        <ele>141.23383974191</ele>
        <time>2021-03-07T08:35:36Z</time>
      </trkpt>
      <trkpt lat="46.29696" lon="0.31893">
        <ele>141.32561559696</ele>
        <time>2021-03-07T08:35:39Z</time>
      </trkpt>
      <trkpt lat="46.29697" lon="0.3189">
        <ele>141.34080537129</ele>
        <time>2021-03-07T08:35:41Z</time>
      </trkpt>
      <trkpt lat="46.29697" lon="0.31886">
        <ele>141.39110541809</ele>
        <time>2021-03-07T08:35:43Z</time>
      </trkpt>
      <trkpt lat="46.29697" lon="0.31882">
        <ele>141.46445555892</ele>
        <time>2021-03-07T08:35:45Z</time>
      </trkpt>
      <trkpt lat="46.29698" lon="0.31879">
        <ele>141.10096128099</ele>
        <time>2021-03-07T08:35:46Z</time>
      </trkpt>
      <trkpt lat="46.29698" lon="0.31876">
        <ele>141.21579198912</ele>
        <time>2021-03-07T08:35:48Z</time>
      </trkpt>
      <trkpt lat="46.29699" lon="0.31873">
        <ele>141.48993936088</ele>
        <time>2021-03-07T08:35:50Z</time>
      </trkpt>
      <trkpt lat="46.29699" lon="0.31869">
        <ele>141.16098971944</ele>
        <time>2021-03-07T08:35:52Z</time>
      </trkpt>
      <trkpt lat="46.297" lon="0.31866">
        <ele>141.38294510171</ele>
        <time>2021-03-07T08:35:53Z</time>
      </trkpt>
      <trkpt lat="46.297" lon="0.31861">
        <ele>141.70963720139</ele>
        <time>2021-03-07T08:35:55Z</time>
      </trkpt>
      <trkpt lat="46.29701" lon="0.31858">
        <ele>141.46417163033</ele>
        <time>2021-03-07T08:35:57Z</time>
      </trkpt>
      <trkpt lat="46.29701" lon="0.31855">
        <ele>141.3122902615</ele>
        <time>2021-03-07T08:35:58Z</time>
      </trkpt>
      <trkpt lat="46.29701" lon="0.31851">
        <ele>141.30810870975</ele>
        <time>2021-03-07T08:36:00Z</time>
      </trkpt>
      <trkpt lat="46.29702" lon="0.31847">
        <ele>141.73726436961</ele>
        <time>2021-03-07T08:36:02Z</time>
      </trkpt>
      <trkpt lat="46.29702" lon="0.31843">
        <ele>141.44611953944</ele>
        <time>2021-03-07T08:36:04Z</time>
      </trkpt>
      <trkpt lat="46.29703" lon="0.3184">
        <ele>141.11318882555</ele>
        <time>2021-03-07T08:36:06Z</time>
      </trkpt>
      <trkpt lat="46.29703" lon="0.31835">
        <ele>141.56024775375</ele>
        <time>2021-03-07T08:36:08Z</time>
      </trkpt>
      <trkpt lat="46.29704" lon="0.31831">
        <ele>141.64836592413</ele>
        <time>2021-03-07T08:36:10Z</time>
      </trkpt>
      <trkpt lat="46.29704" lon="0.31828">
        <ele>140.94933183771</ele>
        <time>2021-03-07T08:36:12Z</time>
      </trkpt>
      <trkpt lat="46.29705" lon="0.31824">
        <ele>140.89302410558</ele>
        <time>2021-03-07T08:36:14Z</time>
      </trkpt>
      <trkpt lat="46.29706" lon="0.3182">
        <ele>140.656459691</ele>
        <time>2021-03-07T08:36:16Z</time>
      </trkpt>
      <trkpt lat="46.29706" lon="0.31816">
        <ele>140.99071636889</ele>
        <time>2021-03-07T08:36:18Z</time>
      </trkpt>
      <trkpt lat="46.29706" lon="0.31813">
        <ele>140.8836134728</ele>
        <time>2021-03-07T08:36:20Z</time>
      </trkpt>
      <trkpt lat="46.29706" lon="0.31808">
        <ele>141.23293145373</ele>
        <time>2021-03-07T08:36:22Z</time>
      </trkpt>
      <trkpt lat="46.29708" lon="0.31804">
        <ele>140.73224395979</ele>
        <time>2021-03-07T08:36:25Z</time>
      </trkpt>
      <trkpt lat="46.29709" lon="0.31801">
        <ele>140.65674093273</ele>
        <time>2021-03-07T08:36:27Z</time>
      </trkpt>
      <trkpt lat="46.2971" lon="0.31798">
        <ele>140.57177896611</ele>
        <time>2021-03-07T08:36:29Z</time>
      </trkpt>
      <trkpt lat="46.29711" lon="0.31794">
        <ele>140.18286182825</ele>
        <time>2021-03-07T08:36:31Z</time>
      </trkpt>
      <trkpt lat="46.29711" lon="0.31789">
        <ele>140.50676422659</ele>
        <time>2021-03-07T08:36:33Z</time>
      </trkpt>
      <trkpt lat="46.29711" lon="0.31785">
        <ele>140.24384338036</ele>
        <time>2021-03-07T08:36:35Z</time>
      </trkpt>
      <trkpt lat="46.29713" lon="0.31781">
        <ele>140.04365037847</ele>
        <time>2021-03-07T08:36:37Z</time>
      </trkpt>
      <trkpt lat="46.29713" lon="0.31777">
        <ele>140.39596611261</ele>
        <time>2021-03-07T08:36:39Z</time>
      </trkpt>
      <trkpt lat="46.29713" lon="0.31773">
        <ele>140.32624434587</ele>
        <time>2021-03-07T08:36:41Z</time>
      </trkpt>
      <trkpt lat="46.29714" lon="0.31769">
        <ele>140.33007926587</ele>
        <time>2021-03-07T08:36:43Z</time>
      </trkpt>
      <trkpt lat="46.29715" lon="0.31766">
        <ele>140.31777144782</ele>
        <time>2021-03-07T08:36:45Z</time>
      </trkpt>
      <trkpt lat="46.29716" lon="0.31763">
        <ele>140.24913241901</ele>
        <time>2021-03-07T08:36:47Z</time>
      </trkpt>
      <trkpt lat="46.29716" lon="0.31758">
        <ele>140.02343789488</ele>
        <time>2021-03-07T08:36:49Z</time>
      </trkpt>
      <trkpt lat="46.29717" lon="0.31754">
        <ele>140.14480374847</ele>
        <time>2021-03-07T08:36:51Z</time>
      </trkpt>
      <trkpt lat="46.29717" lon="0.3175">
        <ele>139.52817075979</ele>
        <time>2021-03-07T08:36:53Z</time>
      </trkpt>
      <trkpt lat="46.29718" lon="0.31747">
        <ele>139.52795562241</ele>
        <time>2021-03-07T08:36:55Z</time>
      </trkpt>
      <trkpt lat="46.29719" lon="0.31744">
        <ele>139.25237911567</ele>
        <time>2021-03-07T08:36:57Z</time>
      </trkpt>
      <trkpt lat="46.29721" lon="0.31741">
        <ele>139.10037601367</ele>
        <time>2021-03-07T08:36:59Z</time>
      </trkpt>
      <trkpt lat="46.29721" lon="0.31738">
        <ele>138.99555066042</ele>
        <time>2021-03-07T08:37:01Z</time>
      </trkpt>
      <trkpt lat="46.29721" lon="0.31733">
        <ele>139.34519484919</ele>
        <time>2021-03-07T08:37:03Z</time>
      </trkpt>
      <trkpt lat="46.29722" lon="0.3173">
        <ele>139.04482327402</ele>
        <time>2021-03-07T08:37:05Z</time>
      </trkpt>
      <trkpt lat="46.29723" lon="0.31727">
        <ele>138.77656213939</ele>
        <time>2021-03-07T08:37:07Z</time>
      </trkpt>
      <trkpt lat="46.29723" lon="0.31723">
        <ele>138.6441740673</ele>
        <time>2021-03-07T08:37:09Z</time>
      </trkpt>
      <trkpt lat="46.29725" lon="0.3172">
        <ele>138.65428517852</ele>
        <time>2021-03-07T08:37:11Z</time>
      </trkpt>
      <trkpt lat="46.29726" lon="0.31717">
        <ele>138.54281776212</ele>
        <time>2021-03-07T08:37:13Z</time>
      </trkpt>
      <trkpt lat="46.29728" lon="0.31714">
        <ele>138.2141642021</ele>
        <time>2021-03-07T08:37:15Z</time>
      </trkpt>
      <trkpt lat="46.29729" lon="0.31711">
        <ele>137.8783976594</ele>
        <time>2021-03-07T08:37:17Z</time>
      </trkpt>
      <trkpt lat="46.2973" lon="0.31707">
        <ele>137.84039315861</ele>
        <time>2021-03-07T08:37:19Z</time>
      </trkpt>
      <trkpt lat="46.2973" lon="0.31704">
        <ele>137.83404146321</ele>
        <time>2021-03-07T08:37:21Z</time>
      </trkpt>
      <trkpt lat="46.29731" lon="0.31701">
        <ele>137.92148537934</ele>
        <time>2021-03-07T08:37:22Z</time>
      </trkpt>
      <trkpt lat="46.29733" lon="0.31698">
        <ele>137.7973472951</ele>
        <time>2021-03-07T08:37:24Z</time>
      </trkpt>
      <trkpt lat="46.29734" lon="0.31694">
        <ele>137.89568043686</ele>
        <time>2021-03-07T08:37:26Z</time>
      </trkpt>
      <trkpt lat="46.29735" lon="0.3169">
        <ele>137.73957272992</ele>
        <time>2021-03-07T08:37:28Z</time>
      </trkpt>
      <trkpt lat="46.29736" lon="0.31686">
        <ele>137.63624376524</ele>
        <time>2021-03-07T08:37:30Z</time>
      </trkpt>
      <trkpt lat="46.29737" lon="0.31682">
        <ele>137.52754757367</ele>
        <time>2021-03-07T08:37:32Z</time>
      </trkpt>
      <trkpt lat="46.29738" lon="0.31678">
        <ele>137.30608573649</ele>
        <time>2021-03-07T08:37:34Z</time>
      </trkpt>
      <trkpt lat="46.29739" lon="0.31675">
        <ele>137.16386251617</ele>
        <time>2021-03-07T08:37:36Z</time>
      </trkpt>
      <trkpt lat="46.29739" lon="0.31672">
        <ele>137.2644777</ele>
        <time>2021-03-07T08:37:38Z</time>
      </trkpt>
      <trkpt lat="46.2974" lon="0.31668">
        <ele>137.29296681937</ele>
        <time>2021-03-07T08:37:40Z</time>
      </trkpt>
      <trkpt lat="46.2974" lon="0.31665">
        <ele>137.8105777055</ele>
        <time>2021-03-07T08:37:42Z</time>
      </trkpt>
      <trkpt lat="46.29741" lon="0.31662">
        <ele>137.1823358126</ele>
        <time>2021-03-07T08:37:44Z</time>
      </trkpt>
      <trkpt lat="46.29741" lon="0.31658">
        <ele>137.2442553984</ele>
        <time>2021-03-07T08:37:46Z</time>
      </trkpt>
      <trkpt lat="46.29742" lon="0.31654">
        <ele>137.11304579116</ele>
        <time>2021-03-07T08:37:48Z</time>
      </trkpt>
      <trkpt lat="46.29742" lon="0.31651">
        <ele>137.15309321694</ele>
        <time>2021-03-07T08:37:50Z</time>
      </trkpt>
      <trkpt lat="46.29743" lon="0.31647">
        <ele>136.91916055698</ele>
        <time>2021-03-07T08:37:52Z</time>
      </trkpt>
      <trkpt lat="46.29744" lon="0.31644">
        <ele>136.58225280792</ele>
        <time>2021-03-07T08:37:53Z</time>
      </trkpt>
      <trkpt lat="46.29745" lon="0.31641">
        <ele>136.59382975288</ele>
        <time>2021-03-07T08:37:55Z</time>
      </trkpt>
      <trkpt lat="46.29746" lon="0.31637">
        <ele>136.83914241008</ele>
        <time>2021-03-07T08:37:57Z</time>
      </trkpt>
      <trkpt lat="46.29746" lon="0.31632">
        <ele>136.79760638252</ele>
        <time>2021-03-07T08:37:59Z</time>
      </trkpt>
      <trkpt lat="46.29747" lon="0.31629">
        <ele>136.69286773633</ele>
        <time>2021-03-07T08:38:01Z</time>
      </trkpt>
      <trkpt lat="46.29748" lon="0.31627">
        <ele>136.48505466711</ele>
        <time>2021-03-07T08:38:03Z</time>
      </trkpt>
      <trkpt lat="46.29749" lon="0.31622">
        <ele>136.4749718532</ele>
        <time>2021-03-07T08:38:05Z</time>
      </trkpt>
      <trkpt lat="46.29749" lon="0.31619">
        <ele>135.99927658495</ele>
        <time>2021-03-07T08:38:07Z</time>
      </trkpt>
      <trkpt lat="46.2975" lon="0.31616">
        <ele>136.55054522213</ele>
        <time>2021-03-07T08:38:09Z</time>
      </trkpt>
      <trkpt lat="46.2975" lon="0.31612">
        <ele>136.2395570213</ele>
        <time>2021-03-07T08:38:11Z</time>
      </trkpt>
      <trkpt lat="46.29751" lon="0.31609">
        <ele>136.24993947055</ele>
        <time>2021-03-07T08:38:13Z</time>
      </trkpt>
      <trkpt lat="46.29751" lon="0.31605">
        <ele>136.25808888022</ele>
        <time>2021-03-07T08:38:15Z</time>
      </trkpt>
      <trkpt lat="46.29752" lon="0.31602">
        <ele>136.27108963393</ele>
        <time>2021-03-07T08:38:17Z</time>
      </trkpt>
      <trkpt lat="46.29753" lon="0.31598">
        <ele>136.67107727472</ele>
        <time>2021-03-07T08:38:19Z</time>
      </trkpt>
      <trkpt lat="46.29754" lon="0.31595">
        <ele>137.0021232916</ele>
        <time>2021-03-07T08:38:21Z</time>
      </trkpt>
      <trkpt lat="46.29754" lon="0.3159">
        <ele>136.44719123468</ele>
        <time>2021-03-07T08:38:23Z</time>
      </trkpt>
      <trkpt lat="46.29754" lon="0.31587">
        <ele>136.28966592718</ele>
        <time>2021-03-07T08:38:25Z</time>
      </trkpt>
      <trkpt lat="46.29754" lon="0.31584">
        <ele>136.42135566194</ele>
        <time>2021-03-07T08:38:27Z</time>
      </trkpt>
      <trkpt lat="46.29754" lon="0.31581">
        <ele>135.66610990558</ele>
        <time>2021-03-07T08:38:29Z</time>
      </trkpt>
      <trkpt lat="46.29755" lon="0.31576">
        <ele>136.10884404741</ele>
        <time>2021-03-07T08:38:31Z</time>
      </trkpt>
      <trkpt lat="46.29756" lon="0.31573">
        <ele>136.31029079203</ele>
        <time>2021-03-07T08:38:33Z</time>
      </trkpt>
      <trkpt lat="46.29757" lon="0.31568">
        <ele>136.30155652948</ele>
        <time>2021-03-07T08:38:36Z</time>
      </trkpt>
      <trkpt lat="46.29758" lon="0.31565">
        <ele>136.16027385276</ele>
        <time>2021-03-07T08:38:38Z</time>
      </trkpt>
      <trkpt lat="46.29759" lon="0.31561">
        <ele>136.18630589917</ele>
        <time>2021-03-07T08:38:40Z</time>
      </trkpt>
      <trkpt lat="46.2976" lon="0.31559">
        <ele>136.09012938477</ele>
        <time>2021-03-07T08:38:42Z</time>
      </trkpt>
      <trkpt lat="46.29761" lon="0.31556">
        <ele>135.65615142137</ele>
        <time>2021-03-07T08:38:44Z</time>
      </trkpt>
      <trkpt lat="46.29763" lon="0.31552">
        <ele>135.83410927746</ele>
        <time>2021-03-07T08:38:46Z</time>
      </trkpt>
      <trkpt lat="46.29764" lon="0.31548">
        <ele>135.8074961137</ele>
        <time>2021-03-07T08:38:48Z</time>
      </trkpt>
      <trkpt lat="46.29765" lon="0.31545">
        <ele>135.84529910237</ele>
        <time>2021-03-07T08:38:50Z</time>
      </trkpt>
      <trkpt lat="46.29767" lon="0.31542">
        <ele>135.7338060122</ele>
        <time>2021-03-07T08:38:52Z</time>
      </trkpt>
      <trkpt lat="46.29768" lon="0.31538">
        <ele>135.75936953537</ele>
        <time>2021-03-07T08:38:54Z</time>
      </trkpt>
      <trkpt lat="46.2977" lon="0.31535">
        <ele>135.68693638593</ele>
        <time>2021-03-07T08:38:56Z</time>
      </trkpt>
      <trkpt lat="46.29772" lon="0.31532">
        <ele>135.62111720536</ele>
        <time>2021-03-07T08:38:58Z</time>
      </trkpt>
      <trkpt lat="46.29774" lon="0.31528">
        <ele>135.47230595443</ele>
        <time>2021-03-07T08:39:00Z</time>
      </trkpt>
      <trkpt lat="46.29776" lon="0.31526">
        <ele>135.37718953099</ele>
        <time>2021-03-07T08:39:03Z</time>
      </trkpt>
      <trkpt lat="46.29779" lon="0.31523">
        <ele>135.40652844869</ele>
        <time>2021-03-07T08:39:05Z</time>
      </trkpt>
      <trkpt lat="46.2978" lon="0.3152">
        <ele>135.54520087503</ele>
        <time>2021-03-07T08:39:07Z</time>
      </trkpt>
      <trkpt lat="46.29782" lon="0.31517">
        <ele>135.64510181826</ele>
        <time>2021-03-07T08:39:09Z</time>
      </trkpt>
      <trkpt lat="46.29783" lon="0.31515">
        <ele>135.68747196253</ele>
        <time>2021-03-07T08:39:11Z</time>
      </trkpt>
      <trkpt lat="46.29786" lon="0.31513">
        <ele>135.31230556313</ele>
        <time>2021-03-07T08:39:13Z</time>
      </trkpt>
      <trkpt lat="46.29788" lon="0.31512">
        <ele>134.9936461132</ele>
        <time>2021-03-07T08:39:15Z</time>
      </trkpt>
      <trkpt lat="46.2979" lon="0.3151">
        <ele>135.18476831447</ele>
        <time>2021-03-07T08:39:16Z</time>
      </trkpt>
      <trkpt lat="46.29792" lon="0.31508">
        <ele>136.17391953338</ele>
        <time>2021-03-07T08:39:18Z</time>
      </trkpt>
      <trkpt lat="46.29794" lon="0.31505">
        <ele>135.51402809378</ele>
        <time>2021-03-07T08:39:20Z</time>
      </trkpt>
      <trkpt lat="46.29795" lon="0.31502">
        <ele>135.45195059571</ele>
        <time>2021-03-07T08:39:22Z</time>
      </trkpt>
      <trkpt lat="46.29797" lon="0.315">
        <ele>135.4473720314</ele>
        <time>2021-03-07T08:39:23Z</time>
      </trkpt>
      <trkpt lat="46.29799" lon="0.31497">
        <ele>135.76033514272</ele>
        <time>2021-03-07T08:39:25Z</time>
      </trkpt>
      <trkpt lat="46.298" lon="0.31496">
        <ele>135.90542771295</ele>
        <time>2021-03-07T08:39:26Z</time>
      </trkpt>
      <trkpt lat="46.29803" lon="0.31493">
        <ele>135.76187943481</ele>
        <time>2021-03-07T08:39:28Z</time>
      </trkpt>
      <trkpt lat="46.29804" lon="0.31491">
        <ele>136.01260130852</ele>
        <time>2021-03-07T08:39:30Z</time>
      </trkpt>
      <trkpt lat="46.29806" lon="0.31488">
        <ele>135.61691585928</ele>
        <time>2021-03-07T08:39:32Z</time>
      </trkpt>
      <trkpt lat="46.29808" lon="0.31485">
        <ele>135.57861259673</ele>
        <time>2021-03-07T08:39:34Z</time>
      </trkpt>
      <trkpt lat="46.29809" lon="0.31482">
        <ele>135.75304028671</ele>
        <time>2021-03-07T08:39:36Z</time>
      </trkpt>
      <trkpt lat="46.2981" lon="0.31479">
        <ele>135.542860399</ele>
        <time>2021-03-07T08:39:38Z</time>
      </trkpt>
      <trkpt lat="46.29813" lon="0.31476">
        <ele>135.35836050194</ele>
        <time>2021-03-07T08:39:40Z</time>
      </trkpt>
      <trkpt lat="46.29814" lon="0.31473">
        <ele>135.26128870808</ele>
        <time>2021-03-07T08:39:42Z</time>
      </trkpt>
      <trkpt lat="46.29816" lon="0.3147">
        <ele>135.6085813595</ele>
        <time>2021-03-07T08:39:44Z</time>
      </trkpt>
      <trkpt lat="46.29818" lon="0.31467">
        <ele>135.51862365287</ele>
        <time>2021-03-07T08:39:46Z</time>
      </trkpt>
      <trkpt lat="46.29819" lon="0.31463">
        <ele>135.48832641542</ele>
        <time>2021-03-07T08:39:48Z</time>
      </trkpt>
      <trkpt lat="46.29821" lon="0.31461">
        <ele>134.88795247674</ele>
        <time>2021-03-07T08:39:50Z</time>
      </trkpt>
      <trkpt lat="46.29823" lon="0.31458">
        <ele>135.03774404991</ele>
        <time>2021-03-07T08:39:52Z</time>
      </trkpt>
      <trkpt lat="46.29824" lon="0.31455">
        <ele>135.34820415173</ele>
        <time>2021-03-07T08:39:54Z</time>
      </trkpt>
      <trkpt lat="46.29826" lon="0.31451">
        <ele>135.43474703282</ele>
        <time>2021-03-07T08:39:56Z</time>
      </trkpt>
      <trkpt lat="46.29828" lon="0.31448">
        <ele>135.35907627549</ele>
        <time>2021-03-07T08:39:58Z</time>
      </trkpt>
      <trkpt lat="46.29829" lon="0.31444">
        <ele>135.3022987349</ele>
        <time>2021-03-07T08:40:01Z</time>
      </trkpt>
      <trkpt lat="46.2983" lon="0.3144">
        <ele>134.80389009509</ele>
        <time>2021-03-07T08:40:03Z</time>
      </trkpt>
      <trkpt lat="46.29831" lon="0.31437">
        <ele>134.65455515403</ele>
        <time>2021-03-07T08:40:05Z</time>
      </trkpt>
      <trkpt lat="46.29833" lon="0.31436">
        <ele>134.87157483865</ele>
        <time>2021-03-07T08:40:07Z</time>
      </trkpt>
      <trkpt lat="46.29835" lon="0.31434">
        <ele>134.81169108767</ele>
        <time>2021-03-07T08:40:09Z</time>
      </trkpt>
      <trkpt lat="46.29838" lon="0.31431">
        <ele>134.64541267324</ele>
        <time>2021-03-07T08:40:11Z</time>
      </trkpt>
      <trkpt lat="46.29839" lon="0.31428">
        <ele>134.28778056893</ele>
        <time>2021-03-07T08:40:13Z</time>
      </trkpt>
      <trkpt lat="46.29841" lon="0.31425">
        <ele>133.84016176499</ele>
        <time>2021-03-07T08:40:15Z</time>
      </trkpt>
      <trkpt lat="46.29842" lon="0.31422">
        <ele>134.46244530566</ele>
        <time>2021-03-07T08:40:17Z</time>
      </trkpt>
      <trkpt lat="46.29845" lon="0.31419">
        <ele>134.28384509776</ele>
        <time>2021-03-07T08:40:19Z</time>
      </trkpt>
      <trkpt lat="46.29847" lon="0.31416">
        <ele>134.2638517553</ele>
        <time>2021-03-07T08:40:21Z</time>
      </trkpt>
      <trkpt lat="46.29849" lon="0.31413">
        <ele>134.01690966077</ele>
        <time>2021-03-07T08:40:23Z</time>
      </trkpt>
      <trkpt lat="46.29851" lon="0.31411">
        <ele>133.99642154761</ele>
        <time>2021-03-07T08:40:25Z</time>
      </trkpt>
      <trkpt lat="46.29853" lon="0.31409">
        <ele>133.7120955782</ele>
        <time>2021-03-07T08:40:27Z</time>
      </trkpt>
      <trkpt lat="46.29854" lon="0.31406">
        <ele>133.25159147661</ele>
        <time>2021-03-07T08:40:29Z</time>
      </trkpt>
      <trkpt lat="46.29856" lon="0.31403">
        <ele>133.51526305545</ele>
        <time>2021-03-07T08:40:31Z</time>
      </trkpt>
      <trkpt lat="46.29857" lon="0.31399">
        <ele>133.23667015508</ele>
        <time>2021-03-07T08:40:33Z</time>
      </trkpt>
      <trkpt lat="46.2986" lon="0.31395">
        <ele>133.10695688147</ele>
        <time>2021-03-07T08:40:36Z</time>
      </trkpt>
      <trkpt lat="46.29861" lon="0.31393">
        <ele>132.93696769699</ele>
        <time>2021-03-07T08:40:38Z</time>
      </trkpt>
      <trkpt lat="46.29862" lon="0.31391">
        <ele>132.74414708372</ele>
        <time>2021-03-07T08:40:39Z</time>
      </trkpt>
      <trkpt lat="46.29863" lon="0.31388">
        <ele>132.68941369001</ele>
        <time>2021-03-07T08:40:41Z</time>
      </trkpt>
      <trkpt lat="46.29864" lon="0.31385">
        <ele>132.77554770466</ele>
        <time>2021-03-07T08:40:43Z</time>
      </trkpt>
      <trkpt lat="46.29866" lon="0.31382">
        <ele>132.13418756798</ele>
        <time>2021-03-07T08:40:45Z</time>
      </trkpt>
      <trkpt lat="46.29868" lon="0.3138">
        <ele>132.05738331191</ele>
        <time>2021-03-07T08:40:46Z</time>
      </trkpt>
      <trkpt lat="46.2987" lon="0.31377">
        <ele>132.13915975392</ele>
        <time>2021-03-07T08:40:48Z</time>
      </trkpt>
      <trkpt lat="46.29872" lon="0.31375">
        <ele>131.55501270853</ele>
        <time>2021-03-07T08:40:50Z</time>
      </trkpt>
      <trkpt lat="46.29874" lon="0.31371">
        <ele>131.4092065515</ele>
        <time>2021-03-07T08:40:52Z</time>
      </trkpt>
      <trkpt lat="46.29876" lon="0.31369">
        <ele>131.59301067237</ele>
        <time>2021-03-07T08:40:54Z</time>
      </trkpt>
      <trkpt lat="46.29878" lon="0.31367">
        <ele>131.08708349988</ele>
        <time>2021-03-07T08:40:56Z</time>
      </trkpt>
      <trkpt lat="46.29879" lon="0.31365">
        <ele>131.65147538763</ele>
        <time>2021-03-07T08:40:58Z</time>
      </trkpt>
      <trkpt lat="46.29881" lon="0.31362">
        <ele>131.45181158185</ele>
        <time>2021-03-07T08:41:00Z</time>
      </trkpt>
      <trkpt lat="46.29883" lon="0.3136">
        <ele>131.58112341259</ele>
        <time>2021-03-07T08:41:03Z</time>
      </trkpt>
      <trkpt lat="46.29886" lon="0.31357">
        <ele>130.8024699511</ele>
        <time>2021-03-07T08:41:05Z</time>
      </trkpt>
      <trkpt lat="46.29887" lon="0.31355">
        <ele>131.22712099459</ele>
        <time>2021-03-07T08:41:06Z</time>
      </trkpt>
      <trkpt lat="46.29889" lon="0.31353">
        <ele>130.68812646065</ele>
        <time>2021-03-07T08:41:08Z</time>
      </trkpt>
      <trkpt lat="46.29891" lon="0.3135">
        <ele>131.11175034847</ele>
        <time>2021-03-07T08:41:10Z</time>
      </trkpt>
      <trkpt lat="46.29893" lon="0.31347">
        <ele>131.77878028527</ele>
        <time>2021-03-07T08:41:12Z</time>
      </trkpt>
      <trkpt lat="46.29895" lon="0.31345">
        <ele>131.07849632576</ele>
        <time>2021-03-07T08:41:16Z</time>
      </trkpt>
      <trkpt lat="46.29898" lon="0.31342">
        <ele>131.12184678856</ele>
        <time>2021-03-07T08:41:18Z</time>
      </trkpt>
      <trkpt lat="46.299" lon="0.3134">
        <ele>130.69570566062</ele>
        <time>2021-03-07T08:41:20Z</time>
      </trkpt>
      <trkpt lat="46.29903" lon="0.31338">
        <ele>130.7384150587</ele>
        <time>2021-03-07T08:41:22Z</time>
      </trkpt>
      <trkpt lat="46.29904" lon="0.31336">
        <ele>131.05107198935</ele>
        <time>2021-03-07T08:41:24Z</time>
      </trkpt>
      <trkpt lat="46.29906" lon="0.31335">
        <ele>131.68189989869</ele>
        <time>2021-03-07T08:41:25Z</time>
      </trkpt>
      <trkpt lat="46.29909" lon="0.31332">
        <ele>131.70173390396</ele>
        <time>2021-03-07T08:41:27Z</time>
      </trkpt>
      <trkpt lat="46.29911" lon="0.3133">
        <ele>131.6523854509</ele>
        <time>2021-03-07T08:41:30Z</time>
      </trkpt>
      <trkpt lat="46.29913" lon="0.31328">
        <ele>131.60213699937</ele>
        <time>2021-03-07T08:41:31Z</time>
      </trkpt>
      <trkpt lat="46.29916" lon="0.31325">
        <ele>131.57547283731</ele>
        <time>2021-03-07T08:41:33Z</time>
      </trkpt>
      <trkpt lat="46.29918" lon="0.31324">
        <ele>132.35657360498</ele>
        <time>2021-03-07T08:41:35Z</time>
      </trkpt>
      <trkpt lat="46.2992" lon="0.31322">
        <ele>131.6290619662</ele>
        <time>2021-03-07T08:41:36Z</time>
      </trkpt>
      <trkpt lat="46.29923" lon="0.3132">
        <ele>131.96029371675</ele>
        <time>2021-03-07T08:41:38Z</time>
      </trkpt>
      <trkpt lat="46.29926" lon="0.31317">
        <ele>131.75831361953</ele>
        <time>2021-03-07T08:41:41Z</time>
      </trkpt>
      <trkpt lat="46.29927" lon="0.31315">
        <ele>131.45729632396</ele>
        <time>2021-03-07T08:41:43Z</time>
      </trkpt>
      <trkpt lat="46.29929" lon="0.31312">
        <ele>132.17635205388</ele>
        <time>2021-03-07T08:41:45Z</time>
      </trkpt>
      <trkpt lat="46.29931" lon="0.3131">
        <ele>131.99992459919</ele>
        <time>2021-03-07T08:41:47Z</time>
      </trkpt>
      <trkpt lat="46.29933" lon="0.31308">
        <ele>132.04814262781</ele>
        <time>2021-03-07T08:41:49Z</time>
      </trkpt>
      <trkpt lat="46.29935" lon="0.31303">
        <ele>132.0767358765</ele>
        <time>2021-03-07T08:41:51Z</time>
      </trkpt>
      <trkpt lat="46.29937" lon="0.31299">
        <ele>132.53867232613</ele>
        <time>2021-03-07T08:41:53Z</time>
      </trkpt>
      <trkpt lat="46.29939" lon="0.31297">
        <ele>132.1314023193</ele>
        <time>2021-03-07T08:41:55Z</time>
      </trkpt>
      <trkpt lat="46.29941" lon="0.31295">
        <ele>132.19148177095</ele>
        <time>2021-03-07T08:41:57Z</time>
      </trkpt>
      <trkpt lat="46.29941" lon="0.31292">
        <ele>132.72408299893</ele>
        <time>2021-03-07T08:41:58Z</time>
      </trkpt>
      <trkpt lat="46.29943" lon="0.31289">
        <ele>132.26294956077</ele>
        <time>2021-03-07T08:42:00Z</time>
      </trkpt>
      <trkpt lat="46.29943" lon="0.31286">
        <ele>132.21246932168</ele>
        <time>2021-03-07T08:42:02Z</time>
      </trkpt>
      <trkpt lat="46.29944" lon="0.31282">
        <ele>132.4753509108</ele>
        <time>2021-03-07T08:42:04Z</time>
      </trkpt>
      <trkpt lat="46.29945" lon="0.3128">
        <ele>132.35635690391</ele>
        <time>2021-03-07T08:42:06Z</time>
      </trkpt>
      <trkpt lat="46.29946" lon="0.31275">
        <ele>131.65293258335</ele>
        <time>2021-03-07T08:42:09Z</time>
      </trkpt>
      <trkpt lat="46.29947" lon="0.31273">
        <ele>131.55584918428</ele>
        <time>2021-03-07T08:42:11Z</time>
      </trkpt>
      <trkpt lat="46.29948" lon="0.31269">
        <ele>131.5750499377</ele>
        <time>2021-03-07T08:42:13Z</time>
      </trkpt>
      <trkpt lat="46.2995" lon="0.31266">
        <ele>131.27168188151</ele>
        <time>2021-03-07T08:42:15Z</time>
      </trkpt>
      <trkpt lat="46.29951" lon="0.31262">
        <ele>130.65767787211</ele>
        <time>2021-03-07T08:42:17Z</time>
      </trkpt>
      <trkpt lat="46.29953" lon="0.31259">
        <ele>130.5707130488</ele>
        <time>2021-03-07T08:42:19Z</time>
      </trkpt>
      <trkpt lat="46.29955" lon="0.31257">
        <ele>130.01474496163</ele>
        <time>2021-03-07T08:42:20Z</time>
      </trkpt>
      <trkpt lat="46.29957" lon="0.31255">
        <ele>130.27089228109</ele>
        <time>2021-03-07T08:42:22Z</time>
      </trkpt>
      <trkpt lat="46.29958" lon="0.31252">
        <ele>130.30204356462</ele>
        <time>2021-03-07T08:42:24Z</time>
      </trkpt>
      <trkpt lat="46.29959" lon="0.3125">
        <ele>129.77656004578</ele>
        <time>2021-03-07T08:42:26Z</time>
      </trkpt>
      <trkpt lat="46.29962" lon="0.31247">
        <ele>129.87000936177</ele>
        <time>2021-03-07T08:42:28Z</time>
      </trkpt>
      <trkpt lat="46.29964" lon="0.31245">
        <ele>130.04399914108</ele>
        <time>2021-03-07T08:42:30Z</time>
      </trkpt>
      <trkpt lat="46.29966" lon="0.31241">
        <ele>130.25112570077</ele>
        <time>2021-03-07T08:42:32Z</time>
      </trkpt>
      <trkpt lat="46.29968" lon="0.31238">
        <ele>130.35768430866</ele>
        <time>2021-03-07T08:42:34Z</time>
      </trkpt>
      <trkpt lat="46.2997" lon="0.31236">
        <ele>130.27759151254</ele>
        <time>2021-03-07T08:42:36Z</time>
      </trkpt>
      <trkpt lat="46.29971" lon="0.31232">
        <ele>130.04406049754</ele>
        <time>2021-03-07T08:42:38Z</time>
      </trkpt>
      <trkpt lat="46.29973" lon="0.3123">
        <ele>130.49861619156</ele>
        <time>2021-03-07T08:42:40Z</time>
      </trkpt>
      <trkpt lat="46.29974" lon="0.31227">
        <ele>129.84113274328</ele>
        <time>2021-03-07T08:42:42Z</time>
      </trkpt>
      <trkpt lat="46.29976" lon="0.31225">
        <ele>130.02824143134</ele>
        <time>2021-03-07T08:42:44Z</time>
      </trkpt>
      <trkpt lat="46.29977" lon="0.31221">
        <ele>130.93907526322</ele>
        <time>2021-03-07T08:42:46Z</time>
      </trkpt>
      <trkpt lat="46.29979" lon="0.31217">
        <ele>130.26959604211</ele>
        <time>2021-03-07T08:42:48Z</time>
      </trkpt>
      <trkpt lat="46.29981" lon="0.31214">
        <ele>130.39836764708</ele>
        <time>2021-03-07T08:42:50Z</time>
      </trkpt>
      <trkpt lat="46.29982" lon="0.31212">
        <ele>129.75102337915</ele>
        <time>2021-03-07T08:42:52Z</time>
      </trkpt>
      <trkpt lat="46.29985" lon="0.3121">
        <ele>129.89319632389</ele>
        <time>2021-03-07T08:42:54Z</time>
      </trkpt>
      <trkpt lat="46.29987" lon="0.31207">
        <ele>130.05947587918</ele>
        <time>2021-03-07T08:42:56Z</time>
      </trkpt>
      <trkpt lat="46.29988" lon="0.31203">
        <ele>129.65649596322</ele>
        <time>2021-03-07T08:42:58Z</time>
      </trkpt>
      <trkpt lat="46.2999" lon="0.312">
        <ele>129.87383983843</ele>
        <time>2021-03-07T08:43:00Z</time>
      </trkpt>
      <trkpt lat="46.29992" lon="0.31197">
        <ele>129.37386704143</ele>
        <time>2021-03-07T08:43:02Z</time>
      </trkpt>
      <trkpt lat="46.29994" lon="0.31193">
        <ele>130.11831831932</ele>
        <time>2021-03-07T08:43:04Z</time>
      </trkpt>
      <trkpt lat="46.29996" lon="0.31191">
        <ele>129.94948056806</ele>
        <time>2021-03-07T08:43:06Z</time>
      </trkpt>
      <trkpt lat="46.29997" lon="0.31188">
        <ele>130.38495727815</ele>
        <time>2021-03-07T08:43:08Z</time>
      </trkpt>
      <trkpt lat="46.29998" lon="0.31185">
        <ele>130.1580940187</ele>
        <time>2021-03-07T08:43:10Z</time>
      </trkpt>
      <trkpt lat="46.30001" lon="0.31182">
        <ele>129.92191874422</ele>
        <time>2021-03-07T08:43:12Z</time>
      </trkpt>
      <trkpt lat="46.30002" lon="0.3118">
        <ele>129.87703211326</ele>
        <time>2021-03-07T08:43:14Z</time>
      </trkpt>
      <trkpt lat="46.30003" lon="0.31177">
        <ele>130.00220143888</ele>
        <time>2021-03-07T08:43:17Z</time>
      </trkpt>
      <trkpt lat="46.30004" lon="0.31174">
        <ele>129.72757683694</ele>
        <time>2021-03-07T08:43:19Z</time>
      </trkpt>
      <trkpt lat="46.30006" lon="0.31171">
        <ele>129.84189437889</ele>
        <time>2021-03-07T08:43:21Z</time>
      </trkpt>
      <trkpt lat="46.30008" lon="0.31168">
        <ele>129.78838099539</ele>
        <time>2021-03-07T08:43:23Z</time>
      </trkpt>
      <trkpt lat="46.30009" lon="0.31165">
        <ele>129.55061770324</ele>
        <time>2021-03-07T08:43:25Z</time>
      </trkpt>
      <trkpt lat="46.3001" lon="0.31162">
        <ele>129.53967107646</ele>
        <time>2021-03-07T08:43:27Z</time>
      </trkpt>
      <trkpt lat="46.30012" lon="0.31158">
        <ele>129.43417698145</ele>
        <time>2021-03-07T08:43:29Z</time>
      </trkpt>
      <trkpt lat="46.30013" lon="0.31155">
        <ele>129.23982198536</ele>
        <time>2021-03-07T08:43:31Z</time>
      </trkpt>
      <trkpt lat="46.30015" lon="0.31152">
        <ele>128.81774930749</ele>
        <time>2021-03-07T08:43:33Z</time>
      </trkpt>
      <trkpt lat="46.30016" lon="0.31149">
        <ele>128.87819578592</ele>
        <time>2021-03-07T08:43:35Z</time>
      </trkpt>
      <trkpt lat="46.30016" lon="0.31145">
        <ele>129.06400832534</ele>
        <time>2021-03-07T08:43:37Z</time>
      </trkpt>
      <trkpt lat="46.30017" lon="0.31142">
        <ele>129.09604437836</ele>
        <time>2021-03-07T08:43:39Z</time>
      </trkpt>
      <trkpt lat="46.30018" lon="0.31139">
        <ele>128.8920513317</ele>
        <time>2021-03-07T08:43:41Z</time>
      </trkpt>
      <trkpt lat="46.30018" lon="0.31136">
        <ele>128.42201620247</ele>
        <time>2021-03-07T08:43:43Z</time>
      </trkpt>
      <trkpt lat="46.3002" lon="0.31132">
        <ele>128.7800380243</ele>
        <time>2021-03-07T08:43:45Z</time>
      </trkpt>
      <trkpt lat="46.30021" lon="0.3113">
        <ele>128.65343225654</ele>
        <time>2021-03-07T08:43:46Z</time>
      </trkpt>
      <trkpt lat="46.30022" lon="0.31126">
        <ele>129.38340527937</ele>
        <time>2021-03-07T08:43:48Z</time>
      </trkpt>
      <trkpt lat="46.30022" lon="0.31124">
        <ele>128.83228613064</ele>
        <time>2021-03-07T08:43:50Z</time>
      </trkpt>
      <trkpt lat="46.30024" lon="0.31121">
        <ele>128.59929886274</ele>
        <time>2021-03-07T08:43:52Z</time>
      </trkpt>
      <trkpt lat="46.30025" lon="0.31117">
        <ele>128.90146976523</ele>
        <time>2021-03-07T08:43:54Z</time>
      </trkpt>
      <trkpt lat="46.30025" lon="0.31113">
        <ele>128.99718633387</ele>
        <time>2021-03-07T08:43:56Z</time>
      </trkpt>
      <trkpt lat="46.30027" lon="0.31109">
        <ele>128.62855238002</ele>
        <time>2021-03-07T08:43:58Z</time>
      </trkpt>
      <trkpt lat="46.30026" lon="0.31106">
        <ele>128.7712390637</ele>
        <time>2021-03-07T08:43:59Z</time>
      </trkpt>
      <trkpt lat="46.30027" lon="0.31102">
        <ele>128.55163203273</ele>
        <time>2021-03-07T08:44:01Z</time>
      </trkpt>
      <trkpt lat="46.30028" lon="0.31099">
        <ele>128.66662396956</ele>
        <time>2021-03-07T08:44:03Z</time>
      </trkpt>
      <trkpt lat="46.30029" lon="0.31096">
        <ele>128.84313296061</ele>
        <time>2021-03-07T08:44:05Z</time>
      </trkpt>
      <trkpt lat="46.3003" lon="0.31091">
        <ele>128.68133454211</ele>
        <time>2021-03-07T08:44:07Z</time>
      </trkpt>
      <trkpt lat="46.3003" lon="0.31087">
        <ele>128.91162066255</ele>
        <time>2021-03-07T08:44:09Z</time>
      </trkpt>
      <trkpt lat="46.3003" lon="0.31085">
        <ele>128.62061955314</ele>
        <time>2021-03-07T08:44:11Z</time>
      </trkpt>
      <trkpt lat="46.30032" lon="0.31081">
        <ele>128.51114089042</ele>
        <time>2021-03-07T08:44:13Z</time>
      </trkpt>
      <trkpt lat="46.30033" lon="0.31077">
        <ele>128.5470514996</ele>
        <time>2021-03-07T08:44:15Z</time>
      </trkpt>
      <trkpt lat="46.30033" lon="0.31073">
        <ele>127.8906068923</ele>
        <time>2021-03-07T08:44:17Z</time>
      </trkpt>
      <trkpt lat="46.30034" lon="0.3107">
        <ele>127.52450850699</ele>
        <time>2021-03-07T08:44:19Z</time>
      </trkpt>
      <trkpt lat="46.30036" lon="0.31067">
        <ele>127.85017761495</ele>
        <time>2021-03-07T08:44:21Z</time>
      </trkpt>
      <trkpt lat="46.30037" lon="0.31063">
        <ele>127.76411900297</ele>
        <time>2021-03-07T08:44:23Z</time>
      </trkpt>
      <trkpt lat="46.30038" lon="0.31059">
        <ele>127.61889482662</ele>
        <time>2021-03-07T08:44:25Z</time>
      </trkpt>
      <trkpt lat="46.30039" lon="0.31055">
        <ele>127.40069051273</ele>
        <time>2021-03-07T08:44:27Z</time>
      </trkpt>
      <trkpt lat="46.30041" lon="0.31053">
        <ele>127.26829709392</ele>
        <time>2021-03-07T08:44:29Z</time>
      </trkpt>
      <trkpt lat="46.30042" lon="0.3105">
        <ele>127.02049796097</ele>
        <time>2021-03-07T08:44:31Z</time>
      </trkpt>
      <trkpt lat="46.30043" lon="0.31047">
        <ele>127.36231177021</ele>
        <time>2021-03-07T08:44:33Z</time>
      </trkpt>
      <trkpt lat="46.30045" lon="0.31042">
        <ele>127.45901216753</ele>
        <time>2021-03-07T08:44:35Z</time>
      </trkpt>
      <trkpt lat="46.30046" lon="0.31038">
        <ele>127.47471055947</ele>
        <time>2021-03-07T08:44:37Z</time>
      </trkpt>
      <trkpt lat="46.30047" lon="0.31035">
        <ele>127.31631857064</ele>
        <time>2021-03-07T08:44:39Z</time>
      </trkpt>
      <trkpt lat="46.30048" lon="0.31032">
        <ele>127.04572331253</ele>
        <time>2021-03-07T08:44:42Z</time>
      </trkpt>
      <trkpt lat="46.30049" lon="0.31028">
        <ele>126.43593622092</ele>
        <time>2021-03-07T08:44:44Z</time>
      </trkpt>
      <trkpt lat="46.3005" lon="0.31024">
        <ele>127.30731412489</ele>
        <time>2021-03-07T08:44:46Z</time>
      </trkpt>
      <trkpt lat="46.30051" lon="0.31022">
        <ele>127.36589802802</ele>
        <time>2021-03-07T08:44:48Z</time>
      </trkpt>
      <trkpt lat="46.30052" lon="0.31018">
        <ele>127.15419643745</ele>
        <time>2021-03-07T08:44:50Z</time>
      </trkpt>
      <trkpt lat="46.30053" lon="0.31013">
        <ele>127.62844204623</ele>
        <time>2021-03-07T08:44:52Z</time>
      </trkpt>
      <trkpt lat="46.30054" lon="0.3101">
        <ele>127.09340825584</ele>
        <time>2021-03-07T08:44:54Z</time>
      </trkpt>
      <trkpt lat="46.30055" lon="0.31007">
        <ele>127.16916881129</ele>
        <time>2021-03-07T08:44:56Z</time>
      </trkpt>
      <trkpt lat="46.30055" lon="0.31002">
        <ele>127.35741287563</ele>
        <time>2021-03-07T08:44:58Z</time>
      </trkpt>
      <trkpt lat="46.30054" lon="0.30999">
        <ele>127.32432894967</ele>
        <time>2021-03-07T08:45:00Z</time>
      </trkpt>
      <trkpt lat="46.30055" lon="0.30995">
        <ele>127.04201882519</ele>
        <time>2021-03-07T08:45:02Z</time>
      </trkpt>
      <trkpt lat="46.30055" lon="0.30991">
        <ele>126.95726206154</ele>
        <time>2021-03-07T08:45:04Z</time>
      </trkpt>
      <trkpt lat="46.30053" lon="0.30987">
        <ele>126.87725556642</ele>
        <time>2021-03-07T08:45:06Z</time>
      </trkpt>
      <trkpt lat="46.30053" lon="0.30983">
        <ele>126.39352944586</ele>
        <time>2021-03-07T08:45:09Z</time>
      </trkpt>
      <trkpt lat="46.30052" lon="0.3098">
        <ele>125.95399395283</ele>
        <time>2021-03-07T08:45:11Z</time>
      </trkpt>
      <trkpt lat="46.30053" lon="0.30975">
        <ele>126.12465313822</ele>
        <time>2021-03-07T08:45:13Z</time>
      </trkpt>
      <trkpt lat="46.30052" lon="0.30971">
        <ele>125.80319272354</ele>
        <time>2021-03-07T08:45:15Z</time>
      </trkpt>
      <trkpt lat="46.30051" lon="0.30968">
        <ele>124.99664738774</ele>
        <time>2021-03-07T08:45:17Z</time>
      </trkpt>
      <trkpt lat="46.3005" lon="0.30964">
        <ele>124.71802815143</ele>
        <time>2021-03-07T08:45:19Z</time>
      </trkpt>
      <trkpt lat="46.3005" lon="0.3096">
        <ele>124.73321228288</ele>
        <time>2021-03-07T08:45:21Z</time>
      </trkpt>
      <trkpt lat="46.30049" lon="0.30956">
        <ele>124.35388910118</ele>
        <time>2021-03-07T08:45:23Z</time>
      </trkpt>
      <trkpt lat="46.30048" lon="0.30952">
        <ele>123.91840299591</ele>
        <time>2021-03-07T08:45:25Z</time>
      </trkpt>
      <trkpt lat="46.30048" lon="0.30949">
        <ele>123.73577689007</ele>
        <time>2021-03-07T08:45:27Z</time>
      </trkpt>
      <trkpt lat="46.30047" lon="0.30945">
        <ele>123.87856535148</ele>
        <time>2021-03-07T08:45:29Z</time>
      </trkpt>
      <trkpt lat="46.30047" lon="0.30941">
        <ele>123.35773173906</ele>
        <time>2021-03-07T08:45:31Z</time>
      </trkpt>
      <trkpt lat="46.30046" lon="0.30939">
        <ele>122.64266226254</ele>
        <time>2021-03-07T08:45:33Z</time>
      </trkpt>
      <trkpt lat="46.30046" lon="0.30936">
        <ele>122.5461907601</ele>
        <time>2021-03-07T08:45:34Z</time>
      </trkpt>
      <trkpt lat="46.30045" lon="0.30933">
        <ele>122.52078991383</ele>
        <time>2021-03-07T08:45:36Z</time>
      </trkpt>
      <trkpt lat="46.30045" lon="0.30929">
        <ele>122.42672177218</ele>
        <time>2021-03-07T08:45:38Z</time>
      </trkpt>
      <trkpt lat="46.30045" lon="0.30925">
        <ele>122.11898440495</ele>
        <time>2021-03-07T08:45:40Z</time>
      </trkpt>
      <trkpt lat="46.30045" lon="0.30922">
        <ele>122.02160778362</ele>
        <time>2021-03-07T08:45:41Z</time>
      </trkpt>
      <trkpt lat="46.30044" lon="0.30919">
        <ele>121.79191801045</ele>
        <time>2021-03-07T08:45:42Z</time>
      </trkpt>
      <trkpt lat="46.30044" lon="0.30915">
        <ele>121.70623582695</ele>
        <time>2021-03-07T08:45:44Z</time>
      </trkpt>
      <trkpt lat="46.30042" lon="0.30912">
        <ele>121.78839387</ele>
        <time>2021-03-07T08:45:46Z</time>
      </trkpt>
      <trkpt lat="46.30041" lon="0.30909">
        <ele>122.08502606396</ele>
        <time>2021-03-07T08:45:48Z</time>
      </trkpt>
      <trkpt lat="46.30041" lon="0.30905">
        <ele>121.57910572365</ele>
        <time>2021-03-07T08:45:50Z</time>
      </trkpt>
      <trkpt lat="46.3004" lon="0.30901">
        <ele>121.5601855889</ele>
        <time>2021-03-07T08:45:53Z</time>
      </trkpt>
      <trkpt lat="46.3004" lon="0.30898">
        <ele>121.30811658222</ele>
        <time>2021-03-07T08:45:54Z</time>
      </trkpt>
      <trkpt lat="46.30039" lon="0.30893">
        <ele>121.11409563385</ele>
        <time>2021-03-07T08:45:57Z</time>
      </trkpt>
      <trkpt lat="46.30038" lon="0.30891">
        <ele>121.69646727853</ele>
        <time>2021-03-07T08:45:59Z</time>
      </trkpt>
      <trkpt lat="46.30037" lon="0.30887">
        <ele>121.53376061935</ele>
        <time>2021-03-07T08:46:01Z</time>
      </trkpt>
      <trkpt lat="46.30036" lon="0.30883">
        <ele>121.41235846654</ele>
        <time>2021-03-07T08:46:03Z</time>
      </trkpt>
      <trkpt lat="46.30035" lon="0.3088">
        <ele>121.21953443158</ele>
        <time>2021-03-07T08:46:05Z</time>
      </trkpt>
      <trkpt lat="46.30035" lon="0.30876">
        <ele>121.07447176892</ele>
        <time>2021-03-07T08:46:07Z</time>
      </trkpt>
      <trkpt lat="46.30034" lon="0.30872">
        <ele>121.38109172788</ele>
        <time>2021-03-07T08:46:09Z</time>
      </trkpt>
      <trkpt lat="46.30033" lon="0.30869">
        <ele>121.63102849945</ele>
        <time>2021-03-07T08:46:11Z</time>
      </trkpt>
      <trkpt lat="46.30031" lon="0.30865">
        <ele>121.59279938601</ele>
        <time>2021-03-07T08:46:13Z</time>
      </trkpt>
      <trkpt lat="46.3003" lon="0.30862">
        <ele>121.06762727909</ele>
        <time>2021-03-07T08:46:15Z</time>
      </trkpt>
      <trkpt lat="46.30028" lon="0.30858">
        <ele>121.27477369644</ele>
        <time>2021-03-07T08:46:17Z</time>
      </trkpt>
      <trkpt lat="46.30026" lon="0.30854">
        <ele>121.17005852982</ele>
        <time>2021-03-07T08:46:19Z</time>
      </trkpt>
      <trkpt lat="46.30025" lon="0.30852">
        <ele>120.90843381919</ele>
        <time>2021-03-07T08:46:21Z</time>
      </trkpt>
      <trkpt lat="46.30023" lon="0.30848">
        <ele>120.74212574493</ele>
        <time>2021-03-07T08:46:23Z</time>
      </trkpt>
      <trkpt lat="46.30021" lon="0.30846">
        <ele>121.01023120433</ele>
        <time>2021-03-07T08:46:25Z</time>
      </trkpt>
      <trkpt lat="46.3002" lon="0.30844">
        <ele>121.0108232256</ele>
        <time>2021-03-07T08:46:27Z</time>
      </trkpt>
      <trkpt lat="46.30018" lon="0.3084">
        <ele>120.56743176188</ele>
        <time>2021-03-07T08:46:29Z</time>
      </trkpt>
      <trkpt lat="46.30015" lon="0.30838">
        <ele>120.19977144524</ele>
        <time>2021-03-07T08:46:31Z</time>
      </trkpt>
      <trkpt lat="46.30013" lon="0.30836">
        <ele>120.13114746381</ele>
        <time>2021-03-07T08:46:33Z</time>
      </trkpt>
      <trkpt lat="46.30011" lon="0.30833">
        <ele>120.00445122086</ele>
        <time>2021-03-07T08:46:35Z</time>
      </trkpt>
      <trkpt lat="46.30009" lon="0.3083">
        <ele>119.70369095542</ele>
        <time>2021-03-07T08:46:37Z</time>
      </trkpt>
      <trkpt lat="46.30007" lon="0.30828">
        <ele>119.48243309557</ele>
        <time>2021-03-07T08:46:39Z</time>
      </trkpt>
      <trkpt lat="46.30005" lon="0.30825">
        <ele>119.67658431549</ele>
        <time>2021-03-07T08:46:42Z</time>
      </trkpt>
      <trkpt lat="46.30002" lon="0.30822">
        <ele>119.5464307582</ele>
        <time>2021-03-07T08:46:44Z</time>
      </trkpt>
      <trkpt lat="46.30001" lon="0.30821">
        <ele>119.42403674312</ele>
        <time>2021-03-07T08:46:45Z</time>
      </trkpt>
      <trkpt lat="46.29999" lon="0.30818">
        <ele>119.45747510716</ele>
        <time>2021-03-07T08:46:47Z</time>
      </trkpt>
      <trkpt lat="46.29998" lon="0.30815">
        <ele>119.28855518159</ele>
        <time>2021-03-07T08:46:49Z</time>
      </trkpt>
      <trkpt lat="46.29995" lon="0.30812">
        <ele>119.04841390904</ele>
        <time>2021-03-07T08:46:51Z</time>
      </trkpt>
      <trkpt lat="46.29992" lon="0.3081">
        <ele>119.17308930401</ele>
        <time>2021-03-07T08:46:53Z</time>
      </trkpt>
      <trkpt lat="46.2999" lon="0.30807">
        <ele>118.82438409142</ele>
        <time>2021-03-07T08:46:55Z</time>
      </trkpt>
      <trkpt lat="46.29988" lon="0.30805">
        <ele>119.14583161194</ele>
        <time>2021-03-07T08:46:57Z</time>
      </trkpt>
      <trkpt lat="46.29987" lon="0.30802">
        <ele>118.25488614943</ele>
        <time>2021-03-07T08:46:59Z</time>
      </trkpt>
      <trkpt lat="46.29985" lon="0.308">
        <ele>118.35092039499</ele>
        <time>2021-03-07T08:47:00Z</time>
      </trkpt>
      <trkpt lat="46.29984" lon="0.30798">
        <ele>118.39874856826</ele>
        <time>2021-03-07T08:47:02Z</time>
      </trkpt>
      <trkpt lat="46.29983" lon="0.30794">
        <ele>118.24547314085</ele>
        <time>2021-03-07T08:47:04Z</time>
      </trkpt>
      <trkpt lat="46.29982" lon="0.30791">
        <ele>117.50538807549</ele>
        <time>2021-03-07T08:47:06Z</time>
      </trkpt>
      <trkpt lat="46.2998" lon="0.30787">
        <ele>117.39844211843</ele>
        <time>2021-03-07T08:47:08Z</time>
      </trkpt>
      <trkpt lat="46.29978" lon="0.30784">
        <ele>117.92067378573</ele>
        <time>2021-03-07T08:47:10Z</time>
      </trkpt>
      <trkpt lat="46.29976" lon="0.30781">
        <ele>117.8077053614</ele>
        <time>2021-03-07T08:47:12Z</time>
      </trkpt>
      <trkpt lat="46.29974" lon="0.30779">
        <ele>117.58714278881</ele>
        <time>2021-03-07T08:47:14Z</time>
      </trkpt>
      <trkpt lat="46.29972" lon="0.30775">
        <ele>118.16744618118</ele>
        <time>2021-03-07T08:47:16Z</time>
      </trkpt>
      <trkpt lat="46.2997" lon="0.30772">
        <ele>117.66267969087</ele>
        <time>2021-03-07T08:47:18Z</time>
      </trkpt>
      <trkpt lat="46.29968" lon="0.3077">
        <ele>117.56180306058</ele>
        <time>2021-03-07T08:47:20Z</time>
      </trkpt>
      <trkpt lat="46.29967" lon="0.30768">
        <ele>117.57516956795</ele>
        <time>2021-03-07T08:47:22Z</time>
      </trkpt>
      <trkpt lat="46.29965" lon="0.30765">
        <ele>117.11210659984</ele>
        <time>2021-03-07T08:47:24Z</time>
      </trkpt>
      <trkpt lat="46.29964" lon="0.30762">
        <ele>117.04792353418</ele>
        <time>2021-03-07T08:47:26Z</time>
      </trkpt>
      <trkpt lat="46.29962" lon="0.30759">
        <ele>116.67685488146</ele>
        <time>2021-03-07T08:47:28Z</time>
      </trkpt>
      <trkpt lat="46.29961" lon="0.30756">
        <ele>117.13469387591</ele>
        <time>2021-03-07T08:47:30Z</time>
      </trkpt>
      <trkpt lat="46.29959" lon="0.30754">
        <ele>117.02321175206</ele>
        <time>2021-03-07T08:47:32Z</time>
      </trkpt>
      <trkpt lat="46.29958" lon="0.30751">
        <ele>116.82207310852</ele>
        <time>2021-03-07T08:47:33Z</time>
      </trkpt>
      <trkpt lat="46.29957" lon="0.30749">
        <ele>116.81839674804</ele>
        <time>2021-03-07T08:47:34Z</time>
      </trkpt>
      <trkpt lat="46.29954" lon="0.30747">
        <ele>116.36283078976</ele>
        <time>2021-03-07T08:47:36Z</time>
      </trkpt>
      <trkpt lat="46.29953" lon="0.30744">
        <ele>116.20381059032</ele>
        <time>2021-03-07T08:47:38Z</time>
      </trkpt>
      <trkpt lat="46.29952" lon="0.30741">
        <ele>116.90510771889</ele>
        <time>2021-03-07T08:47:40Z</time>
      </trkpt>
      <trkpt lat="46.29951" lon="0.30738">
        <ele>116.9687526403</ele>
        <time>2021-03-07T08:47:41Z</time>
      </trkpt>
      <trkpt lat="46.29949" lon="0.30735">
        <ele>116.95512371697</ele>
        <time>2021-03-07T08:47:43Z</time>
      </trkpt>
      <trkpt lat="46.29947" lon="0.30734">
        <ele>117.21332466882</ele>
        <time>2021-03-07T08:47:44Z</time>
      </trkpt>
      <trkpt lat="46.29945" lon="0.30731">
        <ele>116.98235451523</ele>
        <time>2021-03-07T08:47:46Z</time>
      </trkpt>
      <trkpt lat="46.29943" lon="0.30729">
        <ele>117.09947973303</ele>
        <time>2021-03-07T08:47:48Z</time>
      </trkpt>
      <trkpt lat="46.29942" lon="0.30727">
        <ele>117.06681414787</ele>
        <time>2021-03-07T08:47:49Z</time>
      </trkpt>
      <trkpt lat="46.2994" lon="0.30726">
        <ele>116.77335048281</ele>
        <time>2021-03-07T08:47:50Z</time>
      </trkpt>
      <trkpt lat="46.29937" lon="0.30725">
        <ele>116.69086926337</ele>
        <time>2021-03-07T08:47:52Z</time>
      </trkpt>
      <trkpt lat="46.29935" lon="0.30724">
        <ele>116.88890811056</ele>
        <time>2021-03-07T08:47:54Z</time>
      </trkpt>
      <trkpt lat="46.29933" lon="0.30723">
        <ele>116.712938671</ele>
        <time>2021-03-07T08:47:55Z</time>
      </trkpt>
      <trkpt lat="46.29932" lon="0.3072">
        <ele>117.06698911637</ele>
        <time>2021-03-07T08:47:58Z</time>
      </trkpt>
      <trkpt lat="46.2993" lon="0.30718">
        <ele>116.95129741728</ele>
        <time>2021-03-07T08:47:59Z</time>
      </trkpt>
      <trkpt lat="46.29929" lon="0.30716">
        <ele>116.70905062929</ele>
        <time>2021-03-07T08:48:00Z</time>
      </trkpt>
      <trkpt lat="46.29927" lon="0.30714">
        <ele>116.92446591053</ele>
        <time>2021-03-07T08:48:02Z</time>
      </trkpt>
      <trkpt lat="46.29924" lon="0.30712">
        <ele>116.85817860067</ele>
        <time>2021-03-07T08:48:04Z</time>
      </trkpt>
      <trkpt lat="46.29923" lon="0.3071">
        <ele>116.69985751156</ele>
        <time>2021-03-07T08:48:06Z</time>
      </trkpt>
      <trkpt lat="46.2992" lon="0.30709">
        <ele>116.35992831271</ele>
        <time>2021-03-07T08:48:08Z</time>
      </trkpt>
      <trkpt lat="46.29918" lon="0.30706">
        <ele>116.30389161874</ele>
        <time>2021-03-07T08:48:10Z</time>
      </trkpt>
      <trkpt lat="46.29915" lon="0.30704">
        <ele>116.15866767708</ele>
        <time>2021-03-07T08:48:13Z</time>
      </trkpt>
      <trkpt lat="46.29913" lon="0.30703">
        <ele>116.3663174212</ele>
        <time>2021-03-07T08:48:15Z</time>
      </trkpt>
      <trkpt lat="46.2991" lon="0.30702">
        <ele>115.97725887038</ele>
        <time>2021-03-07T08:48:17Z</time>
      </trkpt>
      <trkpt lat="46.29908" lon="0.307">
        <ele>115.95830394141</ele>
        <time>2021-03-07T08:48:20Z</time>
      </trkpt>
      <trkpt lat="46.29905" lon="0.30698">
        <ele>115.92867248226</ele>
        <time>2021-03-07T08:48:22Z</time>
      </trkpt>
      <trkpt lat="46.29903" lon="0.30696">
        <ele>115.5826466959</ele>
        <time>2021-03-07T08:48:24Z</time>
      </trkpt>
      <trkpt lat="46.29901" lon="0.30694">
        <ele>116.50789033901</ele>
        <time>2021-03-07T08:48:26Z</time>
      </trkpt>
      <trkpt lat="46.29898" lon="0.30691">
        <ele>116.59166543745</ele>
        <time>2021-03-07T08:48:28Z</time>
      </trkpt>
      <trkpt lat="46.29896" lon="0.3069">
        <ele>116.23623218667</ele>
        <time>2021-03-07T08:48:30Z</time>
      </trkpt>
      <trkpt lat="46.29894" lon="0.30689">
        <ele>115.80906942673</ele>
        <time>2021-03-07T08:48:32Z</time>
      </trkpt>
      <trkpt lat="46.29893" lon="0.30686">
        <ele>116.18275657855</ele>
        <time>2021-03-07T08:48:34Z</time>
      </trkpt>
      <trkpt lat="46.29891" lon="0.30684">
        <ele>116.05513463076</ele>
        <time>2021-03-07T08:48:36Z</time>
      </trkpt>
      <trkpt lat="46.29889" lon="0.30682">
        <ele>116.24481573515</ele>
        <time>2021-03-07T08:48:38Z</time>
      </trkpt>
      <trkpt lat="46.29887" lon="0.30681">
        <ele>116.25400643609</ele>
        <time>2021-03-07T08:48:40Z</time>
      </trkpt>
      <trkpt lat="46.29885" lon="0.30677">
        <ele>116.50486481655</ele>
        <time>2021-03-07T08:48:42Z</time>
      </trkpt>
      <trkpt lat="46.29884" lon="0.30674">
        <ele>116.42451407388</ele>
        <time>2021-03-07T08:48:44Z</time>
      </trkpt>
      <trkpt lat="46.29882" lon="0.30671">
        <ele>116.12735417299</ele>
        <time>2021-03-07T08:48:46Z</time>
      </trkpt>
      <trkpt lat="46.29881" lon="0.30669">
        <ele>115.75522963237</ele>
        <time>2021-03-07T08:48:47Z</time>
      </trkpt>
      <trkpt lat="46.29879" lon="0.30667">
        <ele>115.60822870955</ele>
        <time>2021-03-07T08:48:48Z</time>
      </trkpt>
      <trkpt lat="46.29878" lon="0.30665">
        <ele>117.09904110804</ele>
        <time>2021-03-07T08:48:50Z</time>
      </trkpt>
      <trkpt lat="46.29877" lon="0.30661">
        <ele>116.55927586742</ele>
        <time>2021-03-07T08:48:52Z</time>
      </trkpt>
      <trkpt lat="46.29875" lon="0.30658">
        <ele>116.83614994492</ele>
        <time>2021-03-07T08:48:54Z</time>
      </trkpt>
      <trkpt lat="46.29873" lon="0.30656">
        <ele>116.75510619953</ele>
        <time>2021-03-07T08:48:56Z</time>
      </trkpt>
      <trkpt lat="46.29872" lon="0.30652">
        <ele>116.47185933404</ele>
        <time>2021-03-07T08:48:58Z</time>
      </trkpt>
      <trkpt lat="46.29871" lon="0.30649">
        <ele>117.24118308909</ele>
        <time>2021-03-07T08:49:00Z</time>
      </trkpt>
      <trkpt lat="46.29869" lon="0.30646">
        <ele>117.79062584881</ele>
        <time>2021-03-07T08:49:02Z</time>
      </trkpt>
      <trkpt lat="46.29868" lon="0.30642">
        <ele>117.51775034983</ele>
        <time>2021-03-07T08:49:04Z</time>
      </trkpt>
      <trkpt lat="46.29867" lon="0.30639">
        <ele>117.74277107883</ele>
        <time>2021-03-07T08:49:06Z</time>
      </trkpt>
      <trkpt lat="46.29865" lon="0.30635">
        <ele>118.12348079495</ele>
        <time>2021-03-07T08:49:09Z</time>
      </trkpt>
      <trkpt lat="46.29863" lon="0.30631">
        <ele>118.2764891265</ele>
        <time>2021-03-07T08:49:11Z</time>
      </trkpt>
      <trkpt lat="46.29861" lon="0.30628">
        <ele>117.99997860659</ele>
        <time>2021-03-07T08:49:13Z</time>
      </trkpt>
      <trkpt lat="46.2986" lon="0.30624">
        <ele>118.23479872849</ele>
        <time>2021-03-07T08:49:15Z</time>
      </trkpt>
      <trkpt lat="46.29858" lon="0.3062">
        <ele>118.4699761793</ele>
        <time>2021-03-07T08:49:17Z</time>
      </trkpt>
      <trkpt lat="46.29857" lon="0.30615">
        <ele>118.79573097173</ele>
        <time>2021-03-07T08:49:19Z</time>
      </trkpt>
      <trkpt lat="46.29857" lon="0.30612">
        <ele>118.74092206825</ele>
        <time>2021-03-07T08:49:21Z</time>
      </trkpt>
      <trkpt lat="46.29855" lon="0.30608">
        <ele>118.87105006911</ele>
        <time>2021-03-07T08:49:23Z</time>
      </trkpt>
      <trkpt lat="46.29855" lon="0.30605">
        <ele>118.80245670862</ele>
        <time>2021-03-07T08:49:25Z</time>
      </trkpt>
      <trkpt lat="46.29853" lon="0.30602">
        <ele>118.82467847131</ele>
        <time>2021-03-07T08:49:27Z</time>
      </trkpt>
      <trkpt lat="46.29853" lon="0.30598">
        <ele>119.27214787621</ele>
        <time>2021-03-07T08:49:29Z</time>
      </trkpt>
      <trkpt lat="46.29852" lon="0.30594">
        <ele>119.14268758614</ele>
        <time>2021-03-07T08:49:31Z</time>
      </trkpt>
      <trkpt lat="46.29851" lon="0.3059">
        <ele>119.72048905399</ele>
        <time>2021-03-07T08:49:33Z</time>
      </trkpt>
      <trkpt lat="46.2985" lon="0.30587">
        <ele>119.72227587178</ele>
        <time>2021-03-07T08:49:35Z</time>
      </trkpt>
      <trkpt lat="46.29849" lon="0.30584">
        <ele>119.26619646605</ele>
        <time>2021-03-07T08:49:37Z</time>
      </trkpt>
      <trkpt lat="46.29848" lon="0.3058">
        <ele>119.86736751162</ele>
        <time>2021-03-07T08:49:39Z</time>
      </trkpt>
      <trkpt lat="46.29847" lon="0.30576">
        <ele>120.32059170119</ele>
        <time>2021-03-07T08:49:41Z</time>
      </trkpt>
      <trkpt lat="46.29847" lon="0.30572">
        <ele>120.28557928465</ele>
        <time>2021-03-07T08:49:43Z</time>
      </trkpt>
      <trkpt lat="46.29847" lon="0.3057">
        <ele>119.96089660842</ele>
        <time>2021-03-07T08:49:44Z</time>
      </trkpt>
      <trkpt lat="46.29847" lon="0.30566">
        <ele>119.63555675186</ele>
        <time>2021-03-07T08:49:46Z</time>
      </trkpt>
      <trkpt lat="46.29847" lon="0.30561">
        <ele>119.48424335662</ele>
        <time>2021-03-07T08:49:48Z</time>
      </trkpt>
      <trkpt lat="46.29846" lon="0.30557">
        <ele>119.64681593422</ele>
        <time>2021-03-07T08:49:50Z</time>
      </trkpt>
      <trkpt lat="46.29846" lon="0.30554">
        <ele>119.51363653969</ele>
        <time>2021-03-07T08:49:52Z</time>
      </trkpt>
      <trkpt lat="46.29845" lon="0.3055">
        <ele>119.38776080776</ele>
        <time>2021-03-07T08:49:54Z</time>
      </trkpt>
      <trkpt lat="46.29845" lon="0.30545">
        <ele>118.95413331501</ele>
        <time>2021-03-07T08:49:56Z</time>
      </trkpt>
      <trkpt lat="46.29844" lon="0.30542">
        <ele>119.16396665201</ele>
        <time>2021-03-07T08:49:58Z</time>
      </trkpt>
      <trkpt lat="46.29843" lon="0.30537">
        <ele>119.37747829687</ele>
        <time>2021-03-07T08:50:00Z</time>
      </trkpt>
      <trkpt lat="46.29842" lon="0.30533">
        <ele>119.67952670809</ele>
        <time>2021-03-07T08:50:02Z</time>
      </trkpt>
      <trkpt lat="46.29842" lon="0.30531">
        <ele>119.82016470283</ele>
        <time>2021-03-07T08:50:03Z</time>
      </trkpt>
      <trkpt lat="46.2984" lon="0.30528">
        <ele>119.22047618683</ele>
        <time>2021-03-07T08:50:04Z</time>
      </trkpt>
      <trkpt lat="46.2984" lon="0.30526">
        <ele>119.14129776694</ele>
        <time>2021-03-07T08:50:07Z</time>
      </trkpt>
      <trkpt lat="46.2984" lon="0.30523">
        <ele>119.70052776206</ele>
        <time>2021-03-07T08:50:09Z</time>
      </trkpt>
      <trkpt lat="46.29838" lon="0.30519">
        <ele>119.63588423934</ele>
        <time>2021-03-07T08:50:11Z</time>
      </trkpt>
      <trkpt lat="46.29837" lon="0.30515">
        <ele>119.95439559966</ele>
        <time>2021-03-07T08:50:13Z</time>
      </trkpt>
      <trkpt lat="46.29836" lon="0.3051">
        <ele>119.50176607911</ele>
        <time>2021-03-07T08:50:16Z</time>
      </trkpt>
      <trkpt lat="46.29836" lon="0.30506">
        <ele>119.49773824215</ele>
        <time>2021-03-07T08:50:18Z</time>
      </trkpt>
      <trkpt lat="46.29835" lon="0.30503">
        <ele>119.40708805528</ele>
        <time>2021-03-07T08:50:20Z</time>
      </trkpt>
      <trkpt lat="46.29834" lon="0.30501">
        <ele>119.42925408669</ele>
        <time>2021-03-07T08:50:21Z</time>
      </trkpt>
      <trkpt lat="46.29833" lon="0.30497">
        <ele>119.43330889475</ele>
        <time>2021-03-07T08:50:23Z</time>
      </trkpt>
      <trkpt lat="46.29832" lon="0.30494">
        <ele>119.27655827627</ele>
        <time>2021-03-07T08:50:25Z</time>
      </trkpt>
      <trkpt lat="46.29831" lon="0.3049">
        <ele>119.24257987179</ele>
        <time>2021-03-07T08:50:27Z</time>
      </trkpt>
      <trkpt lat="46.2983" lon="0.30487">
        <ele>119.02636135556</ele>
        <time>2021-03-07T08:50:28Z</time>
      </trkpt>
      <trkpt lat="46.29829" lon="0.30483">
        <ele>118.7298455108</ele>
        <time>2021-03-07T08:50:30Z</time>
      </trkpt>
      <trkpt lat="46.29828" lon="0.3048">
        <ele>119.00642797258</ele>
        <time>2021-03-07T08:50:32Z</time>
      </trkpt>
      <trkpt lat="46.29827" lon="0.30476">
        <ele>118.87287592236</ele>
        <time>2021-03-07T08:50:34Z</time>
      </trkpt>
      <trkpt lat="46.29825" lon="0.30473">
        <ele>118.89820400346</ele>
        <time>2021-03-07T08:50:36Z</time>
      </trkpt>
      <trkpt lat="46.29825" lon="0.3047">
        <ele>118.65524419025</ele>
        <time>2021-03-07T08:50:38Z</time>
      </trkpt>
      <trkpt lat="46.29825" lon="0.30465">
        <ele>118.19343170151</ele>
        <time>2021-03-07T08:50:41Z</time>
      </trkpt>
      <trkpt lat="46.29824" lon="0.30461">
        <ele>118.07102799881</ele>
        <time>2021-03-07T08:50:43Z</time>
      </trkpt>
      <trkpt lat="46.29822" lon="0.30457">
        <ele>117.93182513304</ele>
        <time>2021-03-07T08:50:45Z</time>
      </trkpt>
      <trkpt lat="46.29821" lon="0.30454">
        <ele>117.9707195526</ele>
        <time>2021-03-07T08:50:46Z</time>
      </trkpt>
      <trkpt lat="46.29821" lon="0.30451">
        <ele>117.39423266239</ele>
        <time>2021-03-07T08:50:49Z</time>
      </trkpt>
      <trkpt lat="46.2982" lon="0.30447">
        <ele>117.30497036316</ele>
        <time>2021-03-07T08:50:51Z</time>
      </trkpt>
      <trkpt lat="46.29819" lon="0.30444">
        <ele>116.44917834923</ele>
        <time>2021-03-07T08:50:53Z</time>
      </trkpt>
      <trkpt lat="46.29818" lon="0.30441">
        <ele>116.29536979459</ele>
        <time>2021-03-07T08:50:55Z</time>
      </trkpt>
      <trkpt lat="46.29817" lon="0.30438">
        <ele>116.32476957329</ele>
        <time>2021-03-07T08:50:57Z</time>
      </trkpt>
      <trkpt lat="46.29817" lon="0.30435">
        <ele>115.77822258975</ele>
        <time>2021-03-07T08:50:59Z</time>
      </trkpt>
      <trkpt lat="46.29817" lon="0.3043">
        <ele>115.86260726303</ele>
        <time>2021-03-07T08:51:01Z</time>
      </trkpt>
      <trkpt lat="46.29816" lon="0.30428">
        <ele>116.25104896631</ele>
        <time>2021-03-07T08:51:03Z</time>
      </trkpt>
      <trkpt lat="46.29814" lon="0.30424">
        <ele>115.44042938296</ele>
        <time>2021-03-07T08:51:05Z</time>
      </trkpt>
      <trkpt lat="46.29813" lon="0.30422">
        <ele>115.14948116522</ele>
        <time>2021-03-07T08:51:08Z</time>
      </trkpt>
      <trkpt lat="46.29812" lon="0.3042">
        <ele>115.31548254099</ele>
        <time>2021-03-07T08:51:09Z</time>
      </trkpt>
      <trkpt lat="46.2981" lon="0.30417">
        <ele>114.81884164643</ele>
        <time>2021-03-07T08:51:11Z</time>
      </trkpt>
      <trkpt lat="46.29808" lon="0.30415">
        <ele>114.86951975897</ele>
        <time>2021-03-07T08:51:13Z</time>
      </trkpt>
      <trkpt lat="46.29806" lon="0.3041">
        <ele>114.75072020758</ele>
        <time>2021-03-07T08:51:16Z</time>
      </trkpt>
      <trkpt lat="46.29805" lon="0.30408">
        <ele>114.57364442665</ele>
        <time>2021-03-07T08:51:17Z</time>
      </trkpt>
      <trkpt lat="46.29803" lon="0.30407">
        <ele>114.65302829817</ele>
        <time>2021-03-07T08:51:19Z</time>
      </trkpt>
      <trkpt lat="46.29801" lon="0.30404">
        <ele>114.05783262104</ele>
        <time>2021-03-07T08:51:21Z</time>
      </trkpt>
      <trkpt lat="46.29799" lon="0.30401">
        <ele>113.62933055498</ele>
        <time>2021-03-07T08:51:23Z</time>
      </trkpt>
      <trkpt lat="46.29797" lon="0.30398">
        <ele>113.55359038059</ele>
        <time>2021-03-07T08:51:25Z</time>
      </trkpt>
      <trkpt lat="46.29795" lon="0.30396">
        <ele>113.32095464785</ele>
        <time>2021-03-07T08:51:27Z</time>
      </trkpt>
      <trkpt lat="46.29793" lon="0.30392">
        <ele>112.88196251262</ele>
        <time>2021-03-07T08:51:30Z</time>
      </trkpt>
      <trkpt lat="46.29791" lon="0.30391">
        <ele>112.95730272867</ele>
        <time>2021-03-07T08:51:32Z</time>
      </trkpt>
      <trkpt lat="46.29789" lon="0.30389">
        <ele>112.62795844954</ele>
        <time>2021-03-07T08:51:34Z</time>
      </trkpt>
      <trkpt lat="46.29787" lon="0.30386">
        <ele>112.27632988524</ele>
        <time>2021-03-07T08:51:36Z</time>
      </trkpt>
      <trkpt lat="46.29784" lon="0.30385">
        <ele>111.68863380514</ele>
        <time>2021-03-07T08:51:38Z</time>
      </trkpt>
      <trkpt lat="46.29783" lon="0.30382">
        <ele>112.06443949975</ele>
        <time>2021-03-07T08:51:40Z</time>
      </trkpt>
      <trkpt lat="46.29779" lon="0.30379">
        <ele>111.28252381925</ele>
        <time>2021-03-07T08:51:42Z</time>
      </trkpt>
      <trkpt lat="46.29778" lon="0.30377">
        <ele>111.33082974795</ele>
        <time>2021-03-07T08:51:44Z</time>
      </trkpt>
      <trkpt lat="46.29776" lon="0.30375">
        <ele>111.17234112322</ele>
        <time>2021-03-07T08:51:46Z</time>
      </trkpt>
      <trkpt lat="46.29774" lon="0.30373">
        <ele>111.85901108943</ele>
        <time>2021-03-07T08:51:47Z</time>
      </trkpt>
      <trkpt lat="46.29772" lon="0.3037">
        <ele>111.229689789</ele>
        <time>2021-03-07T08:51:49Z</time>
      </trkpt>
      <trkpt lat="46.2977" lon="0.30368">
        <ele>110.96155620739</ele>
        <time>2021-03-07T08:51:51Z</time>
      </trkpt>
      <trkpt lat="46.29769" lon="0.30366">
        <ele>111.31843741331</ele>
        <time>2021-03-07T08:51:53Z</time>
      </trkpt>
      <trkpt lat="46.29768" lon="0.30363">
        <ele>110.7950570751</ele>
        <time>2021-03-07T08:51:55Z</time>
      </trkpt>
      <trkpt lat="46.29767" lon="0.3036">
        <ele>110.57902113721</ele>
        <time>2021-03-07T08:52:09Z</time>
      </trkpt>
      <trkpt lat="46.29766" lon="0.30358">
        <ele>110.43767991383</ele>
        <time>2021-03-07T08:52:14Z</time>
      </trkpt>
      <trkpt lat="46.29767" lon="0.30355">
        <ele>110.73945892137</ele>
        <time>2021-03-07T08:52:18Z</time>
      </trkpt>
      <trkpt lat="46.29769" lon="0.30357">
        <ele>110.66587561462</ele>
        <time>2021-03-07T08:52:50Z</time>
      </trkpt>
      <trkpt lat="46.29767" lon="0.30357">
        <ele>110.62729734275</ele>
        <time>2021-03-07T08:53:00Z</time>
      </trkpt>
      <trkpt lat="46.29765" lon="0.30354">
        <ele>110.57400446013</ele>
        <time>2021-03-07T08:53:03Z</time>
      </trkpt>
      <trkpt lat="46.29762" lon="0.30353">
        <ele>110.69079333078</ele>
        <time>2021-03-07T08:53:06Z</time>
      </trkpt>
      <trkpt lat="46.29762" lon="0.3035">
        <ele>110.22229445726</ele>
        <time>2021-03-07T08:53:08Z</time>
      </trkpt>
      <trkpt lat="46.29761" lon="0.30347">
        <ele>110.18909909949</ele>
        <time>2021-03-07T08:53:11Z</time>
      </trkpt>
      <trkpt lat="46.2976" lon="0.30343">
        <ele>110.06120210886</ele>
        <time>2021-03-07T08:53:13Z</time>
      </trkpt>
      <trkpt lat="46.29758" lon="0.30341">
        <ele>109.57652788516</ele>
        <time>2021-03-07T08:53:15Z</time>
      </trkpt>
      <trkpt lat="46.29757" lon="0.30337">
        <ele>110.24813406914</ele>
        <time>2021-03-07T08:53:17Z</time>
      </trkpt>
      <trkpt lat="46.29757" lon="0.30334">
        <ele>110.18774430174</ele>
        <time>2021-03-07T08:53:19Z</time>
      </trkpt>
      <trkpt lat="46.29756" lon="0.30331">
        <ele>109.91243103053</ele>
        <time>2021-03-07T08:53:21Z</time>
      </trkpt>
      <trkpt lat="46.29755" lon="0.30327">
        <ele>109.64731813595</ele>
        <time>2021-03-07T08:53:23Z</time>
      </trkpt>
      <trkpt lat="46.29755" lon="0.30323">
        <ele>110.22680241801</ele>
        <time>2021-03-07T08:53:25Z</time>
      </trkpt>
      <trkpt lat="46.29754" lon="0.30319">
        <ele>110.01102772728</ele>
        <time>2021-03-07T08:53:27Z</time>
      </trkpt>
      <trkpt lat="46.29754" lon="0.30317">
        <ele>109.83547549415</ele>
        <time>2021-03-07T08:53:29Z</time>
      </trkpt>
      <trkpt lat="46.29752" lon="0.30313">
        <ele>110.07482117321</ele>
        <time>2021-03-07T08:53:32Z</time>
      </trkpt>
      <trkpt lat="46.2975" lon="0.3031">
        <ele>109.62683014944</ele>
        <time>2021-03-07T08:53:34Z</time>
      </trkpt>
      <trkpt lat="46.29748" lon="0.30306">
        <ele>110.69294772763</ele>
        <time>2021-03-07T08:53:36Z</time>
      </trkpt>
      <trkpt lat="46.29748" lon="0.30303">
        <ele>110.01106979139</ele>
        <time>2021-03-07T08:53:38Z</time>
      </trkpt>
      <trkpt lat="46.29746" lon="0.30301">
        <ele>110.48239320051</ele>
        <time>2021-03-07T08:53:40Z</time>
      </trkpt>
      <trkpt lat="46.29745" lon="0.30297">
        <ele>110.42853561882</ele>
        <time>2021-03-07T08:53:42Z</time>
      </trkpt>
      <trkpt lat="46.29743" lon="0.30293">
        <ele>110.79381106608</ele>
        <time>2021-03-07T08:53:44Z</time>
      </trkpt>
      <trkpt lat="46.29741" lon="0.30291">
        <ele>110.54784550332</ele>
        <time>2021-03-07T08:53:46Z</time>
      </trkpt>
      <trkpt lat="46.2974" lon="0.30288">
        <ele>110.57184927259</ele>
        <time>2021-03-07T08:53:48Z</time>
      </trkpt>
      <trkpt lat="46.2974" lon="0.30286">
        <ele>110.25647681393</ele>
        <time>2021-03-07T08:53:50Z</time>
      </trkpt>
      <trkpt lat="46.29739" lon="0.30283">
        <ele>110.35347762331</ele>
        <time>2021-03-07T08:53:51Z</time>
      </trkpt>
      <trkpt lat="46.29739" lon="0.30279">
        <ele>110.57379105315</ele>
        <time>2021-03-07T08:53:53Z</time>
      </trkpt>
      <trkpt lat="46.29737" lon="0.30276">
        <ele>110.90760478843</ele>
        <time>2021-03-07T08:53:55Z</time>
      </trkpt>
      <trkpt lat="46.29735" lon="0.30272">
        <ele>110.3248812668</ele>
        <time>2021-03-07T08:53:58Z</time>
      </trkpt>
      <trkpt lat="46.29735" lon="0.3027">
        <ele>110.23271520436</ele>
        <time>2021-03-07T08:53:59Z</time>
      </trkpt>
      <trkpt lat="46.29734" lon="0.30266">
        <ele>110.30277270451</ele>
        <time>2021-03-07T08:54:01Z</time>
      </trkpt>
      <trkpt lat="46.29736" lon="0.30263">
        <ele>110.80644053966</ele>
        <time>2021-03-07T08:54:03Z</time>
      </trkpt>
      <trkpt lat="46.29738" lon="0.30261">
        <ele>110.80588799436</ele>
        <time>2021-03-07T08:54:05Z</time>
      </trkpt>
      <trkpt lat="46.29739" lon="0.30261">
        <ele>110.61868897267</ele>
        <time>2021-03-07T08:54:07Z</time>
      </trkpt>
      <trkpt lat="46.29742" lon="0.30261">
        <ele>110.89453991316</ele>
        <time>2021-03-07T08:54:09Z</time>
      </trkpt>
      <trkpt lat="46.29745" lon="0.30261">
        <ele>111.00049702171</ele>
        <time>2021-03-07T08:54:11Z</time>
      </trkpt>
      <trkpt lat="46.29747" lon="0.3026">
        <ele>110.99860648066</ele>
        <time>2021-03-07T08:54:13Z</time>
      </trkpt>
      <trkpt lat="46.29749" lon="0.30259">
        <ele>111.40093482938</ele>
        <time>2021-03-07T08:54:15Z</time>
      </trkpt>
      <trkpt lat="46.29751" lon="0.30257">
        <ele>111.42210709583</ele>
        <time>2021-03-07T08:54:17Z</time>
      </trkpt>
      <trkpt lat="46.29753" lon="0.30254">
        <ele>111.75489951484</ele>
        <time>2021-03-07T08:54:19Z</time>
      </trkpt>
      <trkpt lat="46.29755" lon="0.30251">
        <ele>111.80839969032</ele>
        <time>2021-03-07T08:54:21Z</time>
      </trkpt>
      <trkpt lat="46.29757" lon="0.30249">
        <ele>111.85154341441</ele>
        <time>2021-03-07T08:54:23Z</time>
      </trkpt>
      <trkpt lat="46.29757" lon="0.30246">
        <ele>111.64262006432</ele>
        <time>2021-03-07T08:54:25Z</time>
      </trkpt>
      <trkpt lat="46.29759" lon="0.30245">
        <ele>112.5289187571</ele>
        <time>2021-03-07T08:54:27Z</time>
      </trkpt>
      <trkpt lat="46.2976" lon="0.30241">
        <ele>111.99115890637</ele>
        <time>2021-03-07T08:54:29Z</time>
      </trkpt>
      <trkpt lat="46.29761" lon="0.30237">
        <ele>112.90355635807</ele>
        <time>2021-03-07T08:54:31Z</time>
      </trkpt>
      <trkpt lat="46.29762" lon="0.30235">
        <ele>112.66785221267</ele>
        <time>2021-03-07T08:54:33Z</time>
      </trkpt>
      <trkpt lat="46.29764" lon="0.30233">
        <ele>112.38198395632</ele>
        <time>2021-03-07T08:54:35Z</time>
      </trkpt>
      <trkpt lat="46.29767" lon="0.30234">
        <ele>112.76498536672</ele>
        <time>2021-03-07T08:54:37Z</time>
      </trkpt>
      <trkpt lat="46.29769" lon="0.30235">
        <ele>113.75310971029</ele>
        <time>2021-03-07T08:54:39Z</time>
      </trkpt>
      <trkpt lat="46.29771" lon="0.30237">
        <ele>113.54731852841</ele>
        <time>2021-03-07T08:54:41Z</time>
      </trkpt>
      <trkpt lat="46.29774" lon="0.30239">
        <ele>113.89275974967</ele>
        <time>2021-03-07T08:54:43Z</time>
      </trkpt>
      <trkpt lat="46.29776" lon="0.30242">
        <ele>113.73038888164</ele>
        <time>2021-03-07T08:54:45Z</time>
      </trkpt>
      <trkpt lat="46.29778" lon="0.30243">
        <ele>113.85302927811</ele>
        <time>2021-03-07T08:54:47Z</time>
      </trkpt>
      <trkpt lat="46.29779" lon="0.30246">
        <ele>113.5492338445</ele>
        <time>2021-03-07T08:54:49Z</time>
      </trkpt>
      <trkpt lat="46.29782" lon="0.30248">
        <ele>114.29648094624</ele>
        <time>2021-03-07T08:54:51Z</time>
      </trkpt>
      <trkpt lat="46.29784" lon="0.30248">
        <ele>114.33362522349</ele>
        <time>2021-03-07T08:54:53Z</time>
      </trkpt>
      <trkpt lat="46.29786" lon="0.30249">
        <ele>114.16548693366</ele>
        <time>2021-03-07T08:54:55Z</time>
      </trkpt>
      <trkpt lat="46.29788" lon="0.30251">
        <ele>114.75373257045</ele>
        <time>2021-03-07T08:54:57Z</time>
      </trkpt>
      <trkpt lat="46.2979" lon="0.30252">
        <ele>114.45049726218</ele>
        <time>2021-03-07T08:54:59Z</time>
      </trkpt>
      <trkpt lat="46.29792" lon="0.30253">
        <ele>114.8988912385</ele>
        <time>2021-03-07T08:55:00Z</time>
      </trkpt>
      <trkpt lat="46.29794" lon="0.30254">
        <ele>115.04851024691</ele>
        <time>2021-03-07T08:55:02Z</time>
      </trkpt>
      <trkpt lat="46.29796" lon="0.30256">
        <ele>115.09915216919</ele>
        <time>2021-03-07T08:55:04Z</time>
      </trkpt>
      <trkpt lat="46.29798" lon="0.30257">
        <ele>115.2819707077</ele>
        <time>2021-03-07T08:55:06Z</time>
      </trkpt>
      <trkpt lat="46.298" lon="0.30258">
        <ele>115.61784457508</ele>
        <time>2021-03-07T08:55:07Z</time>
      </trkpt>
      <trkpt lat="46.29803" lon="0.30261">
        <ele>115.94631400052</ele>
        <time>2021-03-07T08:55:11Z</time>
      </trkpt>
      <trkpt lat="46.29805" lon="0.30262">
        <ele>115.78873960488</ele>
        <time>2021-03-07T08:55:13Z</time>
      </trkpt>
      <trkpt lat="46.29807" lon="0.30263">
        <ele>115.28505193442</ele>
        <time>2021-03-07T08:55:15Z</time>
      </trkpt>
      <trkpt lat="46.2981" lon="0.30264">
        <ele>116.54158341326</ele>
        <time>2021-03-07T08:55:17Z</time>
      </trkpt>
      <trkpt lat="46.29812" lon="0.30266">
        <ele>116.83940522373</ele>
        <time>2021-03-07T08:55:19Z</time>
      </trkpt>
      <trkpt lat="46.29814" lon="0.30267">
        <ele>116.55044581648</ele>
        <time>2021-03-07T08:55:21Z</time>
      </trkpt>
      <trkpt lat="46.29816" lon="0.30268">
        <ele>116.91165260877</ele>
        <time>2021-03-07T08:55:23Z</time>
      </trkpt>
      <trkpt lat="46.29818" lon="0.30269">
        <ele>117.19185288809</ele>
        <time>2021-03-07T08:55:25Z</time>
      </trkpt>
      <trkpt lat="46.29821" lon="0.3027">
        <ele>117.28476692922</ele>
        <time>2021-03-07T08:55:27Z</time>
      </trkpt>
      <trkpt lat="46.29823" lon="0.30272">
        <ele>117.6155016087</ele>
        <time>2021-03-07T08:55:29Z</time>
      </trkpt>
      <trkpt lat="46.29825" lon="0.30274">
        <ele>117.74506186042</ele>
        <time>2021-03-07T08:55:31Z</time>
      </trkpt>
      <trkpt lat="46.29827" lon="0.30275">
        <ele>118.24591394141</ele>
        <time>2021-03-07T08:55:33Z</time>
      </trkpt>
      <trkpt lat="46.29829" lon="0.30275">
        <ele>118.00253227353</ele>
        <time>2021-03-07T08:55:35Z</time>
      </trkpt>
      <trkpt lat="46.29831" lon="0.30274">
        <ele>118.21291461308</ele>
        <time>2021-03-07T08:55:37Z</time>
      </trkpt>
      <trkpt lat="46.29834" lon="0.30272">
        <ele>118.80747905187</ele>
        <time>2021-03-07T08:55:39Z</time>
      </trkpt>
      <trkpt lat="46.29836" lon="0.30271">
        <ele>118.74147160538</ele>
        <time>2021-03-07T08:55:40Z</time>
      </trkpt>
      <trkpt lat="46.29837" lon="0.30268">
        <ele>118.80582050607</ele>
        <time>2021-03-07T08:55:42Z</time>
      </trkpt>
      <trkpt lat="46.29838" lon="0.30266">
        <ele>118.94995193742</ele>
        <time>2021-03-07T08:55:44Z</time>
      </trkpt>
      <trkpt lat="46.29839" lon="0.30263">
        <ele>119.46419018786</ele>
        <time>2021-03-07T08:55:46Z</time>
      </trkpt>
      <trkpt lat="46.2984" lon="0.3026">
        <ele>119.7991914684</ele>
        <time>2021-03-07T08:55:48Z</time>
      </trkpt>
      <trkpt lat="46.29842" lon="0.30257">
        <ele>119.87866368238</ele>
        <time>2021-03-07T08:55:51Z</time>
      </trkpt>
      <trkpt lat="46.29845" lon="0.30255">
        <ele>119.91283340007</ele>
        <time>2021-03-07T08:55:53Z</time>
      </trkpt>
      <trkpt lat="46.29847" lon="0.30253">
        <ele>120.25431074947</ele>
        <time>2021-03-07T08:55:56Z</time>
      </trkpt>
      <trkpt lat="46.29849" lon="0.30252">
        <ele>120.53248058632</ele>
        <time>2021-03-07T08:55:58Z</time>
      </trkpt>
      <trkpt lat="46.29851" lon="0.3025">
        <ele>120.72600109968</ele>
        <time>2021-03-07T08:56:00Z</time>
      </trkpt>
      <trkpt lat="46.29853" lon="0.30248">
        <ele>120.96225101408</ele>
        <time>2021-03-07T08:56:02Z</time>
      </trkpt>
      <trkpt lat="46.29855" lon="0.30247">
        <ele>120.87414871156</ele>
        <time>2021-03-07T08:56:04Z</time>
      </trkpt>
      <trkpt lat="46.29856" lon="0.30244">
        <ele>121.20728041884</ele>
        <time>2021-03-07T08:56:06Z</time>
      </trkpt>
      <trkpt lat="46.29858" lon="0.30242">
        <ele>121.54631729424</ele>
        <time>2021-03-07T08:56:08Z</time>
      </trkpt>
      <trkpt lat="46.2986" lon="0.30241">
        <ele>121.96403372474</ele>
        <time>2021-03-07T08:56:10Z</time>
      </trkpt>
      <trkpt lat="46.29862" lon="0.30239">
        <ele>122.15666281618</ele>
        <time>2021-03-07T08:56:12Z</time>
      </trkpt>
      <trkpt lat="46.29864" lon="0.30237">
        <ele>122.46230405197</ele>
        <time>2021-03-07T08:56:14Z</time>
      </trkpt>
      <trkpt lat="46.29866" lon="0.30234">
        <ele>122.58299433254</ele>
        <time>2021-03-07T08:56:16Z</time>
      </trkpt>
      <trkpt lat="46.29868" lon="0.30233">
        <ele>123.08112737443</ele>
        <time>2021-03-07T08:56:18Z</time>
      </trkpt>
      <trkpt lat="46.29871" lon="0.30231">
        <ele>123.09352114145</ele>
        <time>2021-03-07T08:56:20Z</time>
      </trkpt>
      <trkpt lat="46.29872" lon="0.30228">
        <ele>123.56834994815</ele>
        <time>2021-03-07T08:56:23Z</time>
      </trkpt>
      <trkpt lat="46.29874" lon="0.30226">
        <ele>123.92400890775</ele>
        <time>2021-03-07T08:56:25Z</time>
      </trkpt>
      <trkpt lat="46.29876" lon="0.30224">
        <ele>124.02157981694</ele>
        <time>2021-03-07T08:56:27Z</time>
      </trkpt>
      <trkpt lat="46.29878" lon="0.30221">
        <ele>124.29771794938</ele>
        <time>2021-03-07T08:56:30Z</time>
      </trkpt>
      <trkpt lat="46.2988" lon="0.30218">
        <ele>124.64944573678</ele>
        <time>2021-03-07T08:56:32Z</time>
      </trkpt>
      <trkpt lat="46.29883" lon="0.30217">
        <ele>124.69650615659</ele>
        <time>2021-03-07T08:56:34Z</time>
      </trkpt>
      <trkpt lat="46.29885" lon="0.30215">
        <ele>125.07169102784</ele>
        <time>2021-03-07T08:56:36Z</time>
      </trkpt>
      <trkpt lat="46.29887" lon="0.30213">
        <ele>125.04705354851</ele>
        <time>2021-03-07T08:56:38Z</time>
      </trkpt>
      <trkpt lat="46.29889" lon="0.30211">
        <ele>125.21588397492</ele>
        <time>2021-03-07T08:56:40Z</time>
      </trkpt>
      <trkpt lat="46.29891" lon="0.3021">
        <ele>125.69073611405</ele>
        <time>2021-03-07T08:56:42Z</time>
      </trkpt>
      <trkpt lat="46.29893" lon="0.30208">
        <ele>125.48973704129</ele>
        <time>2021-03-07T08:56:44Z</time>
      </trkpt>
      <trkpt lat="46.29895" lon="0.30207">
        <ele>125.68928909954</ele>
        <time>2021-03-07T08:56:46Z</time>
      </trkpt>
      <trkpt lat="46.29897" lon="0.30206">
        <ele>125.80142388865</ele>
        <time>2021-03-07T08:56:47Z</time>
      </trkpt>
      <trkpt lat="46.299" lon="0.30205">
        <ele>126.24578887131</ele>
        <time>2021-03-07T08:56:49Z</time>
      </trkpt>
      <trkpt lat="46.29901" lon="0.30202">
        <ele>126.12431304902</ele>
        <time>2021-03-07T08:56:51Z</time>
      </trkpt>
      <trkpt lat="46.29903" lon="0.302">
        <ele>126.71306584962</ele>
        <time>2021-03-07T08:56:53Z</time>
      </trkpt>
      <trkpt lat="46.29905" lon="0.30197">
        <ele>126.71895330586</ele>
        <time>2021-03-07T08:56:56Z</time>
      </trkpt>
      <trkpt lat="46.29906" lon="0.30194">
        <ele>126.76225641556</ele>
        <time>2021-03-07T08:56:58Z</time>
      </trkpt>
      <trkpt lat="46.29909" lon="0.30192">
        <ele>126.87651007064</ele>
        <time>2021-03-07T08:57:00Z</time>
      </trkpt>
      <trkpt lat="46.29911" lon="0.30189">
        <ele>127.38328489102</ele>
        <time>2021-03-07T08:57:03Z</time>
      </trkpt>
      <trkpt lat="46.29912" lon="0.30187">
        <ele>127.32107710745</ele>
        <time>2021-03-07T08:57:05Z</time>
      </trkpt>
      <trkpt lat="46.29914" lon="0.30185">
        <ele>127.66590544302</ele>
        <time>2021-03-07T08:57:07Z</time>
      </trkpt>
      <trkpt lat="46.29916" lon="0.30184">
        <ele>127.94749304</ele>
        <time>2021-03-07T08:57:09Z</time>
      </trkpt>
      <trkpt lat="46.29918" lon="0.30181">
        <ele>127.67815003917</ele>
        <time>2021-03-07T08:57:11Z</time>
      </trkpt>
      <trkpt lat="46.29921" lon="0.3018">
        <ele>127.91198683251</ele>
        <time>2021-03-07T08:57:13Z</time>
      </trkpt>
      <trkpt lat="46.29923" lon="0.30177">
        <ele>128.19831155147</ele>
        <time>2021-03-07T08:57:16Z</time>
      </trkpt>
      <trkpt lat="46.29925" lon="0.30175">
        <ele>128.14847999066</ele>
        <time>2021-03-07T08:57:18Z</time>
      </trkpt>
      <trkpt lat="46.29927" lon="0.30173">
        <ele>128.12844423577</ele>
        <time>2021-03-07T08:57:20Z</time>
      </trkpt>
      <trkpt lat="46.29929" lon="0.30171">
        <ele>128.35449145734</ele>
        <time>2021-03-07T08:57:22Z</time>
      </trkpt>
      <trkpt lat="46.29931" lon="0.30169">
        <ele>128.11752258521</ele>
        <time>2021-03-07T08:57:24Z</time>
      </trkpt>
      <trkpt lat="46.29933" lon="0.30168">
        <ele>128.40988861863</ele>
        <time>2021-03-07T08:57:26Z</time>
      </trkpt>
      <trkpt lat="46.29935" lon="0.30165">
        <ele>128.51792600378</ele>
        <time>2021-03-07T08:57:28Z</time>
      </trkpt>
      <trkpt lat="46.29937" lon="0.30163">
        <ele>128.61808731407</ele>
        <time>2021-03-07T08:57:30Z</time>
      </trkpt>
      <trkpt lat="46.29938" lon="0.30161">
        <ele>128.28237022832</ele>
        <time>2021-03-07T08:57:32Z</time>
      </trkpt>
      <trkpt lat="46.2994" lon="0.30159">
        <ele>128.39140192047</ele>
        <time>2021-03-07T08:57:34Z</time>
      </trkpt>
      <trkpt lat="46.29942" lon="0.30158">
        <ele>128.53888422064</ele>
        <time>2021-03-07T08:57:36Z</time>
      </trkpt>
      <trkpt lat="46.29945" lon="0.30156">
        <ele>129.07727860287</ele>
        <time>2021-03-07T08:57:38Z</time>
      </trkpt>
      <trkpt lat="46.29947" lon="0.30155">
        <ele>129.19293581881</ele>
        <time>2021-03-07T08:57:40Z</time>
      </trkpt>
      <trkpt lat="46.2995" lon="0.30154">
        <ele>129.37213550508</ele>
        <time>2021-03-07T08:57:42Z</time>
      </trkpt>
      <trkpt lat="46.29952" lon="0.30153">
        <ele>129.2751502702</ele>
        <time>2021-03-07T08:57:44Z</time>
      </trkpt>
      <trkpt lat="46.29954" lon="0.3015">
        <ele>129.09044872038</ele>
        <time>2021-03-07T08:57:46Z</time>
      </trkpt>
      <trkpt lat="46.29957" lon="0.30148">
        <ele>130.01781286858</ele>
        <time>2021-03-07T08:57:49Z</time>
      </trkpt>
      <trkpt lat="46.2996" lon="0.30147">
        <ele>129.70431767032</ele>
        <time>2021-03-07T08:57:51Z</time>
      </trkpt>
      <trkpt lat="46.29961" lon="0.30145">
        <ele>130.04565499257</ele>
        <time>2021-03-07T08:57:53Z</time>
      </trkpt>
      <trkpt lat="46.29964" lon="0.30144">
        <ele>130.37025512941</ele>
        <time>2021-03-07T08:57:56Z</time>
      </trkpt>
      <trkpt lat="46.29966" lon="0.30142">
        <ele>130.15103094745</ele>
        <time>2021-03-07T08:57:58Z</time>
      </trkpt>
      <trkpt lat="46.29968" lon="0.30141">
        <ele>130.19406145066</ele>
        <time>2021-03-07T08:58:00Z</time>
      </trkpt>
      <trkpt lat="46.2997" lon="0.3014">
        <ele>130.34494755324</ele>
        <time>2021-03-07T08:58:02Z</time>
      </trkpt>
      <trkpt lat="46.29973" lon="0.30139">
        <ele>130.59998600744</ele>
        <time>2021-03-07T08:58:05Z</time>
      </trkpt>
      <trkpt lat="46.29976" lon="0.30138">
        <ele>130.66162612755</ele>
        <time>2021-03-07T08:58:07Z</time>
      </trkpt>
      <trkpt lat="46.29978" lon="0.30136">
        <ele>130.99390374403</ele>
        <time>2021-03-07T08:58:09Z</time>
      </trkpt>
      <trkpt lat="46.29979" lon="0.30134">
        <ele>130.78145965654</ele>
        <time>2021-03-07T08:58:11Z</time>
      </trkpt>
      <trkpt lat="46.29982" lon="0.30134">
        <ele>130.68038078677</ele>
        <time>2021-03-07T08:58:13Z</time>
      </trkpt>
      <trkpt lat="46.29984" lon="0.30133">
        <ele>131.23149657901</ele>
        <time>2021-03-07T08:58:15Z</time>
      </trkpt>
      <trkpt lat="46.29987" lon="0.30132">
        <ele>131.49847689178</ele>
        <time>2021-03-07T08:58:17Z</time>
      </trkpt>
      <trkpt lat="46.2999" lon="0.30131">
        <ele>131.51446851622</ele>
        <time>2021-03-07T08:58:19Z</time>
      </trkpt>
      <trkpt lat="46.29993" lon="0.3013">
        <ele>131.95496264007</ele>
        <time>2021-03-07T08:58:21Z</time>
      </trkpt>
      <trkpt lat="46.29996" lon="0.3013">
        <ele>132.45551175438</ele>
        <time>2021-03-07T08:58:23Z</time>
      </trkpt>
      <trkpt lat="46.29997" lon="0.30129">
        <ele>132.30801903643</ele>
        <time>2021-03-07T08:58:25Z</time>
      </trkpt>
      <trkpt lat="46.3" lon="0.30129">
        <ele>132.70208722074</ele>
        <time>2021-03-07T08:58:27Z</time>
      </trkpt>
      <trkpt lat="46.30002" lon="0.30128">
        <ele>132.44031479955</ele>
        <time>2021-03-07T08:58:29Z</time>
      </trkpt>
      <trkpt lat="46.30005" lon="0.30127">
        <ele>132.91221446823</ele>
        <time>2021-03-07T08:58:31Z</time>
      </trkpt>
      <trkpt lat="46.30009" lon="0.30127">
        <ele>132.57064031065</ele>
        <time>2021-03-07T08:58:33Z</time>
      </trkpt>
      <trkpt lat="46.30011" lon="0.30126">
        <ele>133.05147562642</ele>
        <time>2021-03-07T08:58:35Z</time>
      </trkpt>
      <trkpt lat="46.30013" lon="0.30126">
        <ele>133.19702061731</ele>
        <time>2021-03-07T08:58:37Z</time>
      </trkpt>
      <trkpt lat="46.30015" lon="0.30126">
        <ele>133.49347965978</ele>
        <time>2021-03-07T08:58:39Z</time>
      </trkpt>
      <trkpt lat="46.30018" lon="0.30125">
        <ele>133.43184609897</ele>
        <time>2021-03-07T08:58:42Z</time>
      </trkpt>
      <trkpt lat="46.3002" lon="0.30125">
        <ele>133.56198653486</ele>
        <time>2021-03-07T08:58:44Z</time>
      </trkpt>
      <trkpt lat="46.30022" lon="0.30124">
        <ele>133.76376647502</ele>
        <time>2021-03-07T08:58:45Z</time>
      </trkpt>
      <trkpt lat="46.30024" lon="0.30123">
        <ele>133.79990717955</ele>
        <time>2021-03-07T08:58:48Z</time>
      </trkpt>
      <trkpt lat="46.30026" lon="0.30122">
        <ele>133.74526703916</ele>
        <time>2021-03-07T08:58:50Z</time>
      </trkpt>
      <trkpt lat="46.30028" lon="0.30121">
        <ele>134.27033109032</ele>
        <time>2021-03-07T08:58:52Z</time>
      </trkpt>
      <trkpt lat="46.30031" lon="0.30118">
        <ele>134.33574281354</ele>
        <time>2021-03-07T08:58:54Z</time>
      </trkpt>
      <trkpt lat="46.30034" lon="0.30117">
        <ele>134.41543841828</ele>
        <time>2021-03-07T08:58:56Z</time>
      </trkpt>
      <trkpt lat="46.30036" lon="0.30116">
        <ele>134.27227055933</ele>
        <time>2021-03-07T08:58:58Z</time>
      </trkpt>
      <trkpt lat="46.30038" lon="0.30115">
        <ele>134.3388148332</ele>
        <time>2021-03-07T08:59:00Z</time>
      </trkpt>
      <trkpt lat="46.30039" lon="0.30115">
        <ele>134.37999396678</ele>
        <time>2021-03-07T08:59:01Z</time>
      </trkpt>
      <trkpt lat="46.30041" lon="0.30114">
        <ele>134.55499528814</ele>
        <time>2021-03-07T08:59:03Z</time>
      </trkpt>
      <trkpt lat="46.30044" lon="0.30112">
        <ele>135.13479381334</ele>
        <time>2021-03-07T08:59:05Z</time>
      </trkpt>
      <trkpt lat="46.30046" lon="0.30111">
        <ele>135.11453872919</ele>
        <time>2021-03-07T08:59:07Z</time>
      </trkpt>
      <trkpt lat="46.30048" lon="0.30109">
        <ele>134.83260010649</ele>
        <time>2021-03-07T08:59:09Z</time>
      </trkpt>
      <trkpt lat="46.30052" lon="0.30108">
        <ele>134.57070640009</ele>
        <time>2021-03-07T08:59:11Z</time>
      </trkpt>
      <trkpt lat="46.30054" lon="0.30107">
        <ele>134.90126881935</ele>
        <time>2021-03-07T08:59:13Z</time>
      </trkpt>
      <trkpt lat="46.30056" lon="0.30105">
        <ele>135.20121507719</ele>
        <time>2021-03-07T08:59:16Z</time>
      </trkpt>
      <trkpt lat="46.30058" lon="0.30103">
        <ele>135.00704661198</ele>
        <time>2021-03-07T08:59:18Z</time>
      </trkpt>
      <trkpt lat="46.3006" lon="0.30101">
        <ele>134.67232003249</ele>
        <time>2021-03-07T08:59:20Z</time>
      </trkpt>
      <trkpt lat="46.30063" lon="0.301">
        <ele>134.70622595865</ele>
        <time>2021-03-07T08:59:22Z</time>
      </trkpt>
      <trkpt lat="46.30065" lon="0.30099">
        <ele>134.97546173818</ele>
        <time>2021-03-07T08:59:24Z</time>
      </trkpt>
      <trkpt lat="46.30067" lon="0.30098">
        <ele>135.1532709254</ele>
        <time>2021-03-07T08:59:26Z</time>
      </trkpt>
      <trkpt lat="46.30069" lon="0.30098">
        <ele>135.2012663912</ele>
        <time>2021-03-07T08:59:28Z</time>
      </trkpt>
      <trkpt lat="46.30072" lon="0.30097">
        <ele>135.1426013587</ele>
        <time>2021-03-07T08:59:30Z</time>
      </trkpt>
      <trkpt lat="46.30074" lon="0.30095">
        <ele>135.41816005297</ele>
        <time>2021-03-07T08:59:32Z</time>
      </trkpt>
      <trkpt lat="46.30076" lon="0.30095">
        <ele>135.22408778593</ele>
        <time>2021-03-07T08:59:34Z</time>
      </trkpt>
      <trkpt lat="46.30079" lon="0.30095">
        <ele>135.56371048186</ele>
        <time>2021-03-07T08:59:36Z</time>
      </trkpt>
      <trkpt lat="46.30082" lon="0.30095">
        <ele>135.92251503933</ele>
        <time>2021-03-07T08:59:38Z</time>
      </trkpt>
      <trkpt lat="46.30084" lon="0.30094">
        <ele>135.80012103077</ele>
        <time>2021-03-07T08:59:39Z</time>
      </trkpt>
      <trkpt lat="46.30086" lon="0.30094">
        <ele>135.73192021158</ele>
        <time>2021-03-07T08:59:41Z</time>
      </trkpt>
      <trkpt lat="46.30089" lon="0.30093">
        <ele>135.69979595952</ele>
        <time>2021-03-07T08:59:43Z</time>
      </trkpt>
      <trkpt lat="46.30092" lon="0.30092">
        <ele>136.08854141738</ele>
        <time>2021-03-07T08:59:46Z</time>
      </trkpt>
      <trkpt lat="46.30095" lon="0.30091">
        <ele>136.26457015146</ele>
        <time>2021-03-07T08:59:49Z</time>
      </trkpt>
      <trkpt lat="46.30098" lon="0.3009">
        <ele>136.1346904682</ele>
        <time>2021-03-07T08:59:51Z</time>
      </trkpt>
      <trkpt lat="46.301" lon="0.30088">
        <ele>136.25131854787</ele>
        <time>2021-03-07T08:59:52Z</time>
      </trkpt>
      <trkpt lat="46.30103" lon="0.30087">
        <ele>136.15403362922</ele>
        <time>2021-03-07T08:59:54Z</time>
      </trkpt>
      <trkpt lat="46.30105" lon="0.30086">
        <ele>135.74889108818</ele>
        <time>2021-03-07T08:59:56Z</time>
      </trkpt>
      <trkpt lat="46.30108" lon="0.30084">
        <ele>136.32060286123</ele>
        <time>2021-03-07T08:59:58Z</time>
      </trkpt>
      <trkpt lat="46.3011" lon="0.30082">
        <ele>136.2815189492</ele>
        <time>2021-03-07T09:00:00Z</time>
      </trkpt>
      <trkpt lat="46.30113" lon="0.30081">
        <ele>136.03212524671</ele>
        <time>2021-03-07T09:00:02Z</time>
      </trkpt>
      <trkpt lat="46.30115" lon="0.30079">
        <ele>136.15810252912</ele>
        <time>2021-03-07T09:00:04Z</time>
      </trkpt>
      <trkpt lat="46.30118" lon="0.30078">
        <ele>136.23150630109</ele>
        <time>2021-03-07T09:00:06Z</time>
      </trkpt>
      <trkpt lat="46.3012" lon="0.30075">
        <ele>135.94047010038</ele>
        <time>2021-03-07T09:00:08Z</time>
      </trkpt>
      <trkpt lat="46.30123" lon="0.30074">
        <ele>135.69338677824</ele>
        <time>2021-03-07T09:00:10Z</time>
      </trkpt>
      <trkpt lat="46.30125" lon="0.30071">
        <ele>135.64733742457</ele>
        <time>2021-03-07T09:00:12Z</time>
      </trkpt>
      <trkpt lat="46.30127" lon="0.3007">
        <ele>135.32083048485</ele>
        <time>2021-03-07T09:00:14Z</time>
      </trkpt>
      <trkpt lat="46.3013" lon="0.30069">
        <ele>135.29103367869</ele>
        <time>2021-03-07T09:00:16Z</time>
      </trkpt>
      <trkpt lat="46.30131" lon="0.30067">
        <ele>135.3692069333</ele>
        <time>2021-03-07T09:00:17Z</time>
      </trkpt>
      <trkpt lat="46.30134" lon="0.30065">
        <ele>135.23291842267</ele>
        <time>2021-03-07T09:00:19Z</time>
      </trkpt>
      <trkpt lat="46.30136" lon="0.30063">
        <ele>135.37260407023</ele>
        <time>2021-03-07T09:00:21Z</time>
      </trkpt>
      <trkpt lat="46.30139" lon="0.30061">
        <ele>135.17632180918</ele>
        <time>2021-03-07T09:00:23Z</time>
      </trkpt>
      <trkpt lat="46.3014" lon="0.3006">
        <ele>134.66039695498</ele>
        <time>2021-03-07T09:00:24Z</time>
      </trkpt>
      <trkpt lat="46.30143" lon="0.30058">
        <ele>134.5614508912</ele>
        <time>2021-03-07T09:00:26Z</time>
      </trkpt>
      <trkpt lat="46.30145" lon="0.30056">
        <ele>134.88942697924</ele>
        <time>2021-03-07T09:00:28Z</time>
      </trkpt>
      <trkpt lat="46.30148" lon="0.30054">
        <ele>134.83716304135</ele>
        <time>2021-03-07T09:00:30Z</time>
      </trkpt>
      <trkpt lat="46.3015" lon="0.30052">
        <ele>133.92216442619</ele>
        <time>2021-03-07T09:00:32Z</time>
      </trkpt>
      <trkpt lat="46.30152" lon="0.30051">
        <ele>133.89169055875</ele>
        <time>2021-03-07T09:00:34Z</time>
      </trkpt>
      <trkpt lat="46.30154" lon="0.30049">
        <ele>133.6586298421</ele>
        <time>2021-03-07T09:00:36Z</time>
      </trkpt>
      <trkpt lat="46.30157" lon="0.30048">
        <ele>133.66535443719</ele>
        <time>2021-03-07T09:00:38Z</time>
      </trkpt>
      <trkpt lat="46.30159" lon="0.30047">
        <ele>133.42409859132</ele>
        <time>2021-03-07T09:00:40Z</time>
      </trkpt>
      <trkpt lat="46.30162" lon="0.30046">
        <ele>133.15308437496</ele>
        <time>2021-03-07T09:00:42Z</time>
      </trkpt>
      <trkpt lat="46.30165" lon="0.30044">
        <ele>133.02120671608</ele>
        <time>2021-03-07T09:00:44Z</time>
      </trkpt>
      <trkpt lat="46.30168" lon="0.30043">
        <ele>133.13363712467</ele>
        <time>2021-03-07T09:00:46Z</time>
      </trkpt>
      <trkpt lat="46.30171" lon="0.30041">
        <ele>133.2728268262</ele>
        <time>2021-03-07T09:00:48Z</time>
      </trkpt>
      <trkpt lat="46.30173" lon="0.3004">
        <ele>133.20860547293</ele>
        <time>2021-03-07T09:00:50Z</time>
      </trkpt>
      <trkpt lat="46.30176" lon="0.30039">
        <ele>133.07583227288</ele>
        <time>2021-03-07T09:00:52Z</time>
      </trkpt>
      <trkpt lat="46.30179" lon="0.30037">
        <ele>133.00949295424</ele>
        <time>2021-03-07T09:00:54Z</time>
      </trkpt>
      <trkpt lat="46.30181" lon="0.30036">
        <ele>133.15279874764</ele>
        <time>2021-03-07T09:00:56Z</time>
      </trkpt>
      <trkpt lat="46.30183" lon="0.30036">
        <ele>132.87460619956</ele>
        <time>2021-03-07T09:00:57Z</time>
      </trkpt>
      <trkpt lat="46.30186" lon="0.30035">
        <ele>132.56999088544</ele>
        <time>2021-03-07T09:00:59Z</time>
      </trkpt>
      <trkpt lat="46.3019" lon="0.30034">
        <ele>133.05954073649</ele>
        <time>2021-03-07T09:01:01Z</time>
      </trkpt>
      <trkpt lat="46.30192" lon="0.30032">
        <ele>132.84873901401</ele>
        <time>2021-03-07T09:01:04Z</time>
      </trkpt>
      <trkpt lat="46.30194" lon="0.30031">
        <ele>132.88029913418</ele>
        <time>2021-03-07T09:01:05Z</time>
      </trkpt>
      <trkpt lat="46.30196" lon="0.3003">
        <ele>132.73577537108</ele>
        <time>2021-03-07T09:01:07Z</time>
      </trkpt>
      <trkpt lat="46.30199" lon="0.3003">
        <ele>132.68327480461</ele>
        <time>2021-03-07T09:01:09Z</time>
      </trkpt>
      <trkpt lat="46.30201" lon="0.30029">
        <ele>132.61772115063</ele>
        <time>2021-03-07T09:01:11Z</time>
      </trkpt>
      <trkpt lat="46.30203" lon="0.30029">
        <ele>132.38760675676</ele>
        <time>2021-03-07T09:01:12Z</time>
      </trkpt>
      <trkpt lat="46.30206" lon="0.30028">
        <ele>132.6892214017</ele>
        <time>2021-03-07T09:01:14Z</time>
      </trkpt>
      <trkpt lat="46.30207" lon="0.30027">
        <ele>132.73968531564</ele>
        <time>2021-03-07T09:01:16Z</time>
      </trkpt>
      <trkpt lat="46.3021" lon="0.30026">
        <ele>133.13845690433</ele>
        <time>2021-03-07T09:01:18Z</time>
      </trkpt>
      <trkpt lat="46.30213" lon="0.30026">
        <ele>132.55707585346</ele>
        <time>2021-03-07T09:01:20Z</time>
      </trkpt>
      <trkpt lat="46.30216" lon="0.30025">
        <ele>132.89220264833</ele>
        <time>2021-03-07T09:01:22Z</time>
      </trkpt>
      <trkpt lat="46.30218" lon="0.30024">
        <ele>133.38954222109</ele>
        <time>2021-03-07T09:01:24Z</time>
      </trkpt>
      <trkpt lat="46.3022" lon="0.30023">
        <ele>133.18170055468</ele>
        <time>2021-03-07T09:01:26Z</time>
      </trkpt>
      <trkpt lat="46.30222" lon="0.30022">
        <ele>133.0257324595</ele>
        <time>2021-03-07T09:01:27Z</time>
      </trkpt>
      <trkpt lat="46.30224" lon="0.30022">
        <ele>133.39962322731</ele>
        <time>2021-03-07T09:01:29Z</time>
      </trkpt>
      <trkpt lat="46.30226" lon="0.30022">
        <ele>133.25750566274</ele>
        <time>2021-03-07T09:01:30Z</time>
      </trkpt>
      <trkpt lat="46.30229" lon="0.30022">
        <ele>133.41874749586</ele>
        <time>2021-03-07T09:01:32Z</time>
      </trkpt>
      <trkpt lat="46.30232" lon="0.30022">
        <ele>133.55167217832</ele>
        <time>2021-03-07T09:01:34Z</time>
      </trkpt>
      <trkpt lat="46.30234" lon="0.30022">
        <ele>133.33495368157</ele>
        <time>2021-03-07T09:01:35Z</time>
      </trkpt>
      <trkpt lat="46.30236" lon="0.30021">
        <ele>133.74262948055</ele>
        <time>2021-03-07T09:01:37Z</time>
      </trkpt>
      <trkpt lat="46.3024" lon="0.30021">
        <ele>133.54693181254</ele>
        <time>2021-03-07T09:01:39Z</time>
      </trkpt>
      <trkpt lat="46.30242" lon="0.30021">
        <ele>133.28183449805</ele>
        <time>2021-03-07T09:01:41Z</time>
      </trkpt>
      <trkpt lat="46.30244" lon="0.30021">
        <ele>133.44541822281</ele>
        <time>2021-03-07T09:01:42Z</time>
      </trkpt>
      <trkpt lat="46.30246" lon="0.30021">
        <ele>133.48549152073</ele>
        <time>2021-03-07T09:01:44Z</time>
      </trkpt>
      <trkpt lat="46.30249" lon="0.30021">
        <ele>133.65601353999</ele>
        <time>2021-03-07T09:01:46Z</time>
      </trkpt>
      <trkpt lat="46.30251" lon="0.30021">
        <ele>133.84250269737</ele>
        <time>2021-03-07T09:01:48Z</time>
      </trkpt>
      <trkpt lat="46.30254" lon="0.30021">
        <ele>133.58785443194</ele>
        <time>2021-03-07T09:01:50Z</time>
      </trkpt>
      <trkpt lat="46.30256" lon="0.30021">
        <ele>133.91230308823</ele>
        <time>2021-03-07T09:01:52Z</time>
      </trkpt>
      <trkpt lat="46.30259" lon="0.30022">
        <ele>133.56599834654</ele>
        <time>2021-03-07T09:01:54Z</time>
      </trkpt>
      <trkpt lat="46.30262" lon="0.30022">
        <ele>133.49045139179</ele>
        <time>2021-03-07T09:01:56Z</time>
      </trkpt>
      <trkpt lat="46.30264" lon="0.30023">
        <ele>133.81537928805</ele>
        <time>2021-03-07T09:01:58Z</time>
      </trkpt>
      <trkpt lat="46.30266" lon="0.30023">
        <ele>134.00881833863</ele>
        <time>2021-03-07T09:02:00Z</time>
      </trkpt>
      <trkpt lat="46.30269" lon="0.30023">
        <ele>134.1342782462</ele>
        <time>2021-03-07T09:02:02Z</time>
      </trkpt>
      <trkpt lat="46.30271" lon="0.30022">
        <ele>134.31595406029</ele>
        <time>2021-03-07T09:02:04Z</time>
      </trkpt>
      <trkpt lat="46.30274" lon="0.30022">
        <ele>133.96913820691</ele>
        <time>2021-03-07T09:02:05Z</time>
      </trkpt>
      <trkpt lat="46.30276" lon="0.30022">
        <ele>134.58858463727</ele>
        <time>2021-03-07T09:02:08Z</time>
      </trkpt>
      <trkpt lat="46.3028" lon="0.30021">
        <ele>134.54015433788</ele>
        <time>2021-03-07T09:02:11Z</time>
      </trkpt>
      <trkpt lat="46.30282" lon="0.30021">
        <ele>134.03589903936</ele>
        <time>2021-03-07T09:02:13Z</time>
      </trkpt>
      <trkpt lat="46.30285" lon="0.30021">
        <ele>134.50691029988</ele>
        <time>2021-03-07T09:02:15Z</time>
      </trkpt>
      <trkpt lat="46.30287" lon="0.30019">
        <ele>133.47793789953</ele>
        <time>2021-03-07T09:02:16Z</time>
      </trkpt>
      <trkpt lat="46.30288" lon="0.3002">
        <ele>133.79485655017</ele>
        <time>2021-03-07T09:02:17Z</time>
      </trkpt>
      <trkpt lat="46.30291" lon="0.30019">
        <ele>134.16071631759</ele>
        <time>2021-03-07T09:02:20Z</time>
      </trkpt>
      <trkpt lat="46.30294" lon="0.30018">
        <ele>133.78196824156</ele>
        <time>2021-03-07T09:02:22Z</time>
      </trkpt>
      <trkpt lat="46.30296" lon="0.30018">
        <ele>133.7824779544</ele>
        <time>2021-03-07T09:02:24Z</time>
      </trkpt>
      <trkpt lat="46.30299" lon="0.30017">
        <ele>134.13771716505</ele>
        <time>2021-03-07T09:02:26Z</time>
      </trkpt>
      <trkpt lat="46.30301" lon="0.30017">
        <ele>134.20485214051</ele>
        <time>2021-03-07T09:02:27Z</time>
      </trkpt>
      <trkpt lat="46.30303" lon="0.30017">
        <ele>133.68711931538</ele>
        <time>2021-03-07T09:02:29Z</time>
      </trkpt>
      <trkpt lat="46.30305" lon="0.30017">
        <ele>134.24218547065</ele>
        <time>2021-03-07T09:02:30Z</time>
      </trkpt>
      <trkpt lat="46.30308" lon="0.30017">
        <ele>133.91448525246</ele>
        <time>2021-03-07T09:02:32Z</time>
      </trkpt>
      <trkpt lat="46.3031" lon="0.30016">
        <ele>133.7018220434</ele>
        <time>2021-03-07T09:02:34Z</time>
      </trkpt>
      <trkpt lat="46.30313" lon="0.30016">
        <ele>134.24525868334</ele>
        <time>2021-03-07T09:02:36Z</time>
      </trkpt>
      <trkpt lat="46.30315" lon="0.30017">
        <ele>133.79770623241</ele>
        <time>2021-03-07T09:02:37Z</time>
      </trkpt>
      <trkpt lat="46.30317" lon="0.30017">
        <ele>133.80544566642</ele>
        <time>2021-03-07T09:02:39Z</time>
      </trkpt>
      <trkpt lat="46.30321" lon="0.30016">
        <ele>133.71729101148</ele>
        <time>2021-03-07T09:02:41Z</time>
      </trkpt>
      <trkpt lat="46.30323" lon="0.30015">
        <ele>134.20011681598</ele>
        <time>2021-03-07T09:02:43Z</time>
      </trkpt>
      <trkpt lat="46.30326" lon="0.30015">
        <ele>134.30554997455</ele>
        <time>2021-03-07T09:02:45Z</time>
      </trkpt>
      <trkpt lat="46.3033" lon="0.30014">
        <ele>134.34051979333</ele>
        <time>2021-03-07T09:02:47Z</time>
      </trkpt>
      <trkpt lat="46.30333" lon="0.30013">
        <ele>134.14703084808</ele>
        <time>2021-03-07T09:02:49Z</time>
      </trkpt>
      <trkpt lat="46.30335" lon="0.30013">
        <ele>134.25258211326</ele>
        <time>2021-03-07T09:02:51Z</time>
      </trkpt>
      <trkpt lat="46.30337" lon="0.30011">
        <ele>134.08590263594</ele>
        <time>2021-03-07T09:02:53Z</time>
      </trkpt>
      <trkpt lat="46.30339" lon="0.3001">
        <ele>134.25862107147</ele>
        <time>2021-03-07T09:02:55Z</time>
      </trkpt>
      <trkpt lat="46.30342" lon="0.30009">
        <ele>134.18595362455</ele>
        <time>2021-03-07T09:02:58Z</time>
      </trkpt>
      <trkpt lat="46.30344" lon="0.30008">
        <ele>134.48974151071</ele>
        <time>2021-03-07T09:03:00Z</time>
      </trkpt>
      <trkpt lat="46.30347" lon="0.30007">
        <ele>134.54290858191</ele>
        <time>2021-03-07T09:03:02Z</time>
      </trkpt>
      <trkpt lat="46.3035" lon="0.30006">
        <ele>134.35503639746</ele>
        <time>2021-03-07T09:03:04Z</time>
      </trkpt>
      <trkpt lat="46.30352" lon="0.30005">
        <ele>134.39385375474</ele>
        <time>2021-03-07T09:03:06Z</time>
      </trkpt>
      <trkpt lat="46.30354" lon="0.30004">
        <ele>134.70762567222</ele>
        <time>2021-03-07T09:03:07Z</time>
      </trkpt>
      <trkpt lat="46.30357" lon="0.30003">
        <ele>134.64911496267</ele>
        <time>2021-03-07T09:03:09Z</time>
      </trkpt>
      <trkpt lat="46.30359" lon="0.30002">
        <ele>134.35108257644</ele>
        <time>2021-03-07T09:03:11Z</time>
      </trkpt>
      <trkpt lat="46.30362" lon="0.30001">
        <ele>134.54945483897</ele>
        <time>2021-03-07T09:03:14Z</time>
      </trkpt>
      <trkpt lat="46.30363" lon="0.3">
        <ele>134.96282178443</ele>
        <time>2021-03-07T09:03:16Z</time>
      </trkpt>
      <trkpt lat="46.30366" lon="0.29999">
        <ele>134.70726559963</ele>
        <time>2021-03-07T09:03:17Z</time>
      </trkpt>
      <trkpt lat="46.30368" lon="0.29997">
        <ele>134.49260224309</ele>
        <time>2021-03-07T09:03:19Z</time>
      </trkpt>
      <trkpt lat="46.3037" lon="0.29995">
        <ele>134.61426643468</ele>
        <time>2021-03-07T09:03:20Z</time>
      </trkpt>
      <trkpt lat="46.30371" lon="0.29993">
        <ele>134.73894956615</ele>
        <time>2021-03-07T09:03:22Z</time>
      </trkpt>
      <trkpt lat="46.30373" lon="0.29992">
        <ele>134.13139660284</ele>
        <time>2021-03-07T09:03:24Z</time>
      </trkpt>
      <trkpt lat="46.30376" lon="0.29989">
        <ele>134.25111565739</ele>
        <time>2021-03-07T09:03:26Z</time>
      </trkpt>
      <trkpt lat="46.3038" lon="0.29988">
        <ele>134.0954159731</ele>
        <time>2021-03-07T09:03:28Z</time>
      </trkpt>
      <trkpt lat="46.30382" lon="0.29986">
        <ele>134.22023858968</ele>
        <time>2021-03-07T09:03:30Z</time>
      </trkpt>
      <trkpt lat="46.30384" lon="0.29985">
        <ele>134.47577886842</ele>
        <time>2021-03-07T09:03:32Z</time>
      </trkpt>
      <trkpt lat="46.30385" lon="0.29983">
        <ele>134.31919804309</ele>
        <time>2021-03-07T09:03:33Z</time>
      </trkpt>
      <trkpt lat="46.30389" lon="0.29981">
        <ele>134.23436989263</ele>
        <time>2021-03-07T09:03:36Z</time>
      </trkpt>
      <trkpt lat="46.30391" lon="0.29981">
        <ele>134.25994624849</ele>
        <time>2021-03-07T09:03:37Z</time>
      </trkpt>
      <trkpt lat="46.30394" lon="0.29981">
        <ele>134.07937605586</ele>
        <time>2021-03-07T09:03:39Z</time>
      </trkpt>
      <trkpt lat="46.30396" lon="0.29979">
        <ele>134.42426542472</ele>
        <time>2021-03-07T09:03:41Z</time>
      </trkpt>
      <trkpt lat="46.30398" lon="0.29979">
        <ele>134.58670823649</ele>
        <time>2021-03-07T09:03:42Z</time>
      </trkpt>
      <trkpt lat="46.30401" lon="0.29977">
        <ele>134.78238715604</ele>
        <time>2021-03-07T09:03:45Z</time>
      </trkpt>
      <trkpt lat="46.30404" lon="0.29976">
        <ele>134.47361705638</ele>
        <time>2021-03-07T09:03:47Z</time>
      </trkpt>
      <trkpt lat="46.30406" lon="0.29974">
        <ele>134.57526761107</ele>
        <time>2021-03-07T09:03:50Z</time>
      </trkpt>
      <trkpt lat="46.30409" lon="0.29972">
        <ele>134.62841522228</ele>
        <time>2021-03-07T09:03:52Z</time>
      </trkpt>
      <trkpt lat="46.30411" lon="0.29971">
        <ele>134.8620406352</ele>
        <time>2021-03-07T09:03:54Z</time>
      </trkpt>
      <trkpt lat="46.30414" lon="0.2997">
        <ele>134.46112610865</ele>
        <time>2021-03-07T09:03:56Z</time>
      </trkpt>
      <trkpt lat="46.30416" lon="0.29969">
        <ele>134.86661584955</ele>
        <time>2021-03-07T09:03:58Z</time>
      </trkpt>
      <trkpt lat="46.30418" lon="0.29967">
        <ele>134.44678938854</ele>
        <time>2021-03-07T09:04:00Z</time>
      </trkpt>
      <trkpt lat="46.3042" lon="0.29966">
        <ele>134.65362924337</ele>
        <time>2021-03-07T09:04:02Z</time>
      </trkpt>
      <trkpt lat="46.30422" lon="0.29964">
        <ele>134.55899034627</ele>
        <time>2021-03-07T09:04:03Z</time>
      </trkpt>
      <trkpt lat="46.30424" lon="0.29963">
        <ele>134.41348676104</ele>
        <time>2021-03-07T09:04:05Z</time>
      </trkpt>
      <trkpt lat="46.30426" lon="0.29962">
        <ele>134.63464137167</ele>
        <time>2021-03-07T09:04:07Z</time>
      </trkpt>
      <trkpt lat="46.30428" lon="0.29961">
        <ele>134.69507499132</ele>
        <time>2021-03-07T09:04:09Z</time>
      </trkpt>
      <trkpt lat="46.3043" lon="0.29959">
        <ele>134.54624147248</ele>
        <time>2021-03-07T09:04:10Z</time>
      </trkpt>
      <trkpt lat="46.30432" lon="0.29957">
        <ele>134.25075281877</ele>
        <time>2021-03-07T09:04:12Z</time>
      </trkpt>
      <trkpt lat="46.30434" lon="0.29956">
        <ele>134.31235475093</ele>
        <time>2021-03-07T09:04:13Z</time>
      </trkpt>
      <trkpt lat="46.30436" lon="0.29954">
        <ele>134.41579199024</ele>
        <time>2021-03-07T09:04:15Z</time>
      </trkpt>
      <trkpt lat="46.30439" lon="0.29953">
        <ele>133.98104935978</ele>
        <time>2021-03-07T09:04:17Z</time>
      </trkpt>
      <trkpt lat="46.30441" lon="0.29952">
        <ele>134.23312407825</ele>
        <time>2021-03-07T09:04:18Z</time>
      </trkpt>
      <trkpt lat="46.30443" lon="0.2995">
        <ele>134.48671082687</ele>
        <time>2021-03-07T09:04:21Z</time>
      </trkpt>
      <trkpt lat="46.30444" lon="0.29947">
        <ele>134.34762853105</ele>
        <time>2021-03-07T09:04:23Z</time>
      </trkpt>
      <trkpt lat="46.30447" lon="0.29946">
        <ele>134.18716130685</ele>
        <time>2021-03-07T09:04:25Z</time>
      </trkpt>
      <trkpt lat="46.30449" lon="0.29945">
        <ele>134.2630237313</ele>
        <time>2021-03-07T09:04:27Z</time>
      </trkpt>
      <trkpt lat="46.30451" lon="0.29944">
        <ele>134.43932192586</ele>
        <time>2021-03-07T09:04:29Z</time>
      </trkpt>
      <trkpt lat="46.30454" lon="0.29942">
        <ele>134.41239782982</ele>
        <time>2021-03-07T09:04:31Z</time>
      </trkpt>
      <trkpt lat="46.30456" lon="0.29941">
        <ele>134.34842131287</ele>
        <time>2021-03-07T09:04:32Z</time>
      </trkpt>
      <trkpt lat="46.30458" lon="0.2994">
        <ele>134.61536471825</ele>
        <time>2021-03-07T09:04:34Z</time>
      </trkpt>
      <trkpt lat="46.3046" lon="0.29938">
        <ele>134.40256669931</ele>
        <time>2021-03-07T09:04:37Z</time>
      </trkpt>
      <trkpt lat="46.30461" lon="0.29935">
        <ele>134.26813136414</ele>
        <time>2021-03-07T09:04:39Z</time>
      </trkpt>
      <trkpt lat="46.30465" lon="0.29932">
        <ele>134.29407940991</ele>
        <time>2021-03-07T09:04:42Z</time>
      </trkpt>
      <trkpt lat="46.30468" lon="0.29931">
        <ele>134.31356160156</ele>
        <time>2021-03-07T09:04:44Z</time>
      </trkpt>
      <trkpt lat="46.30471" lon="0.2993">
        <ele>134.60144978296</ele>
        <time>2021-03-07T09:04:46Z</time>
      </trkpt>
      <trkpt lat="46.30473" lon="0.29928">
        <ele>134.69351712428</ele>
        <time>2021-03-07T09:04:48Z</time>
      </trkpt>
      <trkpt lat="46.30476" lon="0.29926">
        <ele>134.48144386336</ele>
        <time>2021-03-07T09:04:50Z</time>
      </trkpt>
      <trkpt lat="46.30478" lon="0.29923">
        <ele>134.74992708303</ele>
        <time>2021-03-07T09:04:52Z</time>
      </trkpt>
      <trkpt lat="46.3048" lon="0.29922">
        <ele>134.40560391266</ele>
        <time>2021-03-07T09:04:54Z</time>
      </trkpt>
      <trkpt lat="46.30483" lon="0.29921">
        <ele>134.42747027986</ele>
        <time>2021-03-07T09:04:56Z</time>
      </trkpt>
      <trkpt lat="46.30485" lon="0.29921">
        <ele>134.70595666301</ele>
        <time>2021-03-07T09:04:58Z</time>
      </trkpt>
      <trkpt lat="46.30488" lon="0.29921">
        <ele>134.48485705722</ele>
        <time>2021-03-07T09:05:00Z</time>
      </trkpt>
      <trkpt lat="46.3049" lon="0.29922">
        <ele>134.58824773412</ele>
        <time>2021-03-07T09:05:01Z</time>
      </trkpt>
      <trkpt lat="46.30492" lon="0.29923">
        <ele>134.7917710701</ele>
        <time>2021-03-07T09:05:03Z</time>
      </trkpt>
      <trkpt lat="46.30494" lon="0.29923">
        <ele>135.0672454033</ele>
        <time>2021-03-07T09:05:05Z</time>
      </trkpt>
      <trkpt lat="46.30496" lon="0.29925">
        <ele>135.16572754737</ele>
        <time>2021-03-07T09:05:07Z</time>
      </trkpt>
      <trkpt lat="46.30498" lon="0.29926">
        <ele>135.58347336482</ele>
        <time>2021-03-07T09:05:08Z</time>
      </trkpt>
      <trkpt lat="46.30499" lon="0.29929">
        <ele>135.77696079761</ele>
        <time>2021-03-07T09:05:10Z</time>
      </trkpt>
      <trkpt lat="46.30501" lon="0.29931">
        <ele>135.52893760707</ele>
        <time>2021-03-07T09:05:12Z</time>
      </trkpt>
      <trkpt lat="46.30504" lon="0.29933">
        <ele>136.29366650432</ele>
        <time>2021-03-07T09:05:14Z</time>
      </trkpt>
      <trkpt lat="46.30505" lon="0.29937">
        <ele>136.05985969305</ele>
        <time>2021-03-07T09:05:17Z</time>
      </trkpt>
      <trkpt lat="46.30506" lon="0.2994">
        <ele>136.54319985583</ele>
        <time>2021-03-07T09:05:19Z</time>
      </trkpt>
      <trkpt lat="46.30508" lon="0.29943">
        <ele>136.78057027515</ele>
        <time>2021-03-07T09:05:21Z</time>
      </trkpt>
      <trkpt lat="46.30509" lon="0.29947">
        <ele>137.11335968971</ele>
        <time>2021-03-07T09:05:24Z</time>
      </trkpt>
      <trkpt lat="46.30512" lon="0.29949">
        <ele>137.20577540621</ele>
        <time>2021-03-07T09:05:26Z</time>
      </trkpt>
      <trkpt lat="46.30514" lon="0.29952">
        <ele>137.97832433507</ele>
        <time>2021-03-07T09:05:28Z</time>
      </trkpt>
      <trkpt lat="46.30516" lon="0.29955">
        <ele>138.16749643441</ele>
        <time>2021-03-07T09:05:30Z</time>
      </trkpt>
      <trkpt lat="46.30518" lon="0.29958">
        <ele>138.24491494242</ele>
        <time>2021-03-07T09:05:33Z</time>
      </trkpt>
      <trkpt lat="46.30519" lon="0.2996">
        <ele>137.78763405047</ele>
        <time>2021-03-07T09:05:35Z</time>
      </trkpt>
      <trkpt lat="46.30522" lon="0.29963">
        <ele>138.14122450072</ele>
        <time>2021-03-07T09:05:37Z</time>
      </trkpt>
      <trkpt lat="46.30524" lon="0.29966">
        <ele>137.94906087685</ele>
        <time>2021-03-07T09:05:39Z</time>
      </trkpt>
      <trkpt lat="46.30525" lon="0.29968">
        <ele>138.05720425211</ele>
        <time>2021-03-07T09:05:41Z</time>
      </trkpt>
      <trkpt lat="46.30527" lon="0.2997">
        <ele>138.89777561929</ele>
        <time>2021-03-07T09:05:43Z</time>
      </trkpt>
      <trkpt lat="46.30528" lon="0.29972">
        <ele>137.87229718734</ele>
        <time>2021-03-07T09:05:45Z</time>
      </trkpt>
      <trkpt lat="46.3053" lon="0.29974">
        <ele>138.05479747802</ele>
        <time>2021-03-07T09:05:46Z</time>
      </trkpt>
      <trkpt lat="46.30531" lon="0.29978">
        <ele>137.96630798001</ele>
        <time>2021-03-07T09:05:48Z</time>
      </trkpt>
      <trkpt lat="46.30533" lon="0.29981">
        <ele>138.28812833596</ele>
        <time>2021-03-07T09:05:50Z</time>
      </trkpt>
      <trkpt lat="46.30535" lon="0.29983">
        <ele>138.49764753878</ele>
        <time>2021-03-07T09:05:52Z</time>
      </trkpt>
      <trkpt lat="46.30537" lon="0.29984">
        <ele>139.01468526851</ele>
        <time>2021-03-07T09:05:54Z</time>
      </trkpt>
      <trkpt lat="46.30539" lon="0.29984">
        <ele>139.01727139857</ele>
        <time>2021-03-07T09:05:57Z</time>
      </trkpt>
      <trkpt lat="46.30542" lon="0.29981">
        <ele>138.90673465841</ele>
        <time>2021-03-07T09:05:59Z</time>
      </trkpt>
      <trkpt lat="46.30543" lon="0.29979">
        <ele>138.39472743031</ele>
        <time>2021-03-07T09:06:01Z</time>
      </trkpt>
      <trkpt lat="46.30545" lon="0.29977">
        <ele>138.81834121514</ele>
        <time>2021-03-07T09:06:03Z</time>
      </trkpt>
      <trkpt lat="46.30547" lon="0.29975">
        <ele>138.8762706602</ele>
        <time>2021-03-07T09:06:05Z</time>
      </trkpt>
      <trkpt lat="46.3055" lon="0.29973">
        <ele>138.97819904611</ele>
        <time>2021-03-07T09:06:07Z</time>
      </trkpt>
      <trkpt lat="46.30552" lon="0.29971">
        <ele>138.72548847925</ele>
        <time>2021-03-07T09:06:09Z</time>
      </trkpt>
      <trkpt lat="46.30554" lon="0.29969">
        <ele>138.90146577824</ele>
        <time>2021-03-07T09:06:11Z</time>
      </trkpt>
      <trkpt lat="46.30557" lon="0.29968">
        <ele>138.86172138434</ele>
        <time>2021-03-07T09:06:13Z</time>
      </trkpt>
      <trkpt lat="46.30559" lon="0.29966">
        <ele>138.9006008869</ele>
        <time>2021-03-07T09:06:15Z</time>
      </trkpt>
      <trkpt lat="46.30561" lon="0.29964">
        <ele>139.1495221192</ele>
        <time>2021-03-07T09:06:17Z</time>
      </trkpt>
      <trkpt lat="46.30563" lon="0.29962">
        <ele>138.73287144676</ele>
        <time>2021-03-07T09:06:19Z</time>
      </trkpt>
      <trkpt lat="46.30566" lon="0.29961">
        <ele>138.78064725641</ele>
        <time>2021-03-07T09:06:21Z</time>
      </trkpt>
      <trkpt lat="46.30568" lon="0.29959">
        <ele>139.13188767526</ele>
        <time>2021-03-07T09:06:23Z</time>
      </trkpt>
      <trkpt lat="46.3057" lon="0.29958">
        <ele>139.19251983333</ele>
        <time>2021-03-07T09:06:25Z</time>
      </trkpt>
      <trkpt lat="46.30572" lon="0.29957">
        <ele>138.49819585495</ele>
        <time>2021-03-07T09:06:27Z</time>
      </trkpt>
      <trkpt lat="46.30575" lon="0.29954">
        <ele>138.62089419737</ele>
        <time>2021-03-07T09:06:29Z</time>
      </trkpt>
      <trkpt lat="46.30577" lon="0.29953">
        <ele>138.95765744243</ele>
        <time>2021-03-07T09:06:31Z</time>
      </trkpt>
      <trkpt lat="46.30579" lon="0.29951">
        <ele>138.82236942183</ele>
        <time>2021-03-07T09:06:33Z</time>
      </trkpt>
      <trkpt lat="46.30581" lon="0.2995">
        <ele>138.6571876565</ele>
        <time>2021-03-07T09:06:35Z</time>
      </trkpt>
      <trkpt lat="46.30583" lon="0.29947">
        <ele>138.33072071522</ele>
        <time>2021-03-07T09:06:37Z</time>
      </trkpt>
      <trkpt lat="46.30585" lon="0.29945">
        <ele>138.48235550337</ele>
        <time>2021-03-07T09:06:39Z</time>
      </trkpt>
      <trkpt lat="46.30587" lon="0.29944">
        <ele>138.11731313635</ele>
        <time>2021-03-07T09:06:41Z</time>
      </trkpt>
      <trkpt lat="46.3059" lon="0.29941">
        <ele>138.2641839413</ele>
        <time>2021-03-07T09:06:43Z</time>
      </trkpt>
      <trkpt lat="46.30592" lon="0.29938">
        <ele>138.30437112041</ele>
        <time>2021-03-07T09:06:45Z</time>
      </trkpt>
      <trkpt lat="46.30594" lon="0.29936">
        <ele>138.3158967318</ele>
        <time>2021-03-07T09:06:47Z</time>
      </trkpt>
      <trkpt lat="46.30595" lon="0.29933">
        <ele>137.8841270972</ele>
        <time>2021-03-07T09:06:49Z</time>
      </trkpt>
      <trkpt lat="46.30594" lon="0.2993">
        <ele>138.20965991355</ele>
        <time>2021-03-07T09:06:51Z</time>
      </trkpt>
      <trkpt lat="46.30595" lon="0.29926">
        <ele>138.02810465172</ele>
        <time>2021-03-07T09:06:53Z</time>
      </trkpt>
      <trkpt lat="46.30596" lon="0.29922">
        <ele>138.21001403406</ele>
        <time>2021-03-07T09:06:56Z</time>
      </trkpt>
      <trkpt lat="46.30597" lon="0.29919">
        <ele>138.00542779546</ele>
        <time>2021-03-07T09:06:58Z</time>
      </trkpt>
      <trkpt lat="46.30598" lon="0.29915">
        <ele>137.98763726745</ele>
        <time>2021-03-07T09:07:00Z</time>
      </trkpt>
      <trkpt lat="46.30597" lon="0.29912">
        <ele>138.25379451085</ele>
        <time>2021-03-07T09:07:02Z</time>
      </trkpt>
      <trkpt lat="46.30599" lon="0.29909">
        <ele>138.07121290732</ele>
        <time>2021-03-07T09:07:04Z</time>
      </trkpt>
      <trkpt lat="46.306" lon="0.29905">
        <ele>137.757955309</ele>
        <time>2021-03-07T09:07:06Z</time>
      </trkpt>
      <trkpt lat="46.306" lon="0.29902">
        <ele>137.74528631102</ele>
        <time>2021-03-07T09:07:08Z</time>
      </trkpt>
      <trkpt lat="46.30602" lon="0.29899">
        <ele>137.35547891166</ele>
        <time>2021-03-07T09:07:10Z</time>
      </trkpt>
      <trkpt lat="46.30602" lon="0.29895">
        <ele>137.55941610411</ele>
        <time>2021-03-07T09:07:12Z</time>
      </trkpt>
      <trkpt lat="46.30603" lon="0.29892">
        <ele>137.76907797437</ele>
        <time>2021-03-07T09:07:14Z</time>
      </trkpt>
      <trkpt lat="46.30603" lon="0.29889">
        <ele>137.25276164711</ele>
        <time>2021-03-07T09:07:15Z</time>
      </trkpt>
      <trkpt lat="46.30604" lon="0.29885">
        <ele>137.39949858189</ele>
        <time>2021-03-07T09:07:17Z</time>
      </trkpt>
      <trkpt lat="46.30605" lon="0.29881">
        <ele>137.17316117883</ele>
        <time>2021-03-07T09:07:19Z</time>
      </trkpt>
      <trkpt lat="46.30606" lon="0.29878">
        <ele>137.12742728088</ele>
        <time>2021-03-07T09:07:21Z</time>
      </trkpt>
      <trkpt lat="46.30607" lon="0.29876">
        <ele>137.00463358499</ele>
        <time>2021-03-07T09:07:22Z</time>
      </trkpt>
      <trkpt lat="46.30608" lon="0.29872">
        <ele>136.96759399027</ele>
        <time>2021-03-07T09:07:24Z</time>
      </trkpt>
      <trkpt lat="46.3061" lon="0.29869">
        <ele>136.72434277926</ele>
        <time>2021-03-07T09:07:26Z</time>
      </trkpt>
      <trkpt lat="46.30612" lon="0.29867">
        <ele>136.42731141578</ele>
        <time>2021-03-07T09:07:28Z</time>
      </trkpt>
      <trkpt lat="46.30614" lon="0.29864">
        <ele>136.25006667711</ele>
        <time>2021-03-07T09:07:30Z</time>
      </trkpt>
      <trkpt lat="46.30615" lon="0.29861">
        <ele>136.47852756456</ele>
        <time>2021-03-07T09:07:32Z</time>
      </trkpt>
      <trkpt lat="46.30617" lon="0.29858">
        <ele>136.06815749314</ele>
        <time>2021-03-07T09:07:34Z</time>
      </trkpt>
      <trkpt lat="46.30618" lon="0.29855">
        <ele>136.34779260121</ele>
        <time>2021-03-07T09:07:36Z</time>
      </trkpt>
      <trkpt lat="46.30621" lon="0.29852">
        <ele>136.07106408384</ele>
        <time>2021-03-07T09:07:38Z</time>
      </trkpt>
      <trkpt lat="46.30622" lon="0.29851">
        <ele>135.87775895465</ele>
        <time>2021-03-07T09:07:40Z</time>
      </trkpt>
      <trkpt lat="46.30624" lon="0.29849">
        <ele>135.91073246207</ele>
        <time>2021-03-07T09:07:42Z</time>
      </trkpt>
      <trkpt lat="46.30627" lon="0.29849">
        <ele>136.4364217259</ele>
        <time>2021-03-07T09:07:44Z</time>
      </trkpt>
      <trkpt lat="46.30629" lon="0.2985">
        <ele>136.0267559411</ele>
        <time>2021-03-07T09:07:46Z</time>
      </trkpt>
      <trkpt lat="46.30631" lon="0.29849">
        <ele>136.59989546053</ele>
        <time>2021-03-07T09:07:47Z</time>
      </trkpt>
      <trkpt lat="46.30633" lon="0.2985">
        <ele>136.59097472671</ele>
        <time>2021-03-07T09:07:49Z</time>
      </trkpt>
      <trkpt lat="46.30636" lon="0.2985">
        <ele>136.63101087417</ele>
        <time>2021-03-07T09:07:51Z</time>
      </trkpt>
      <trkpt lat="46.30639" lon="0.2985">
        <ele>136.79272985272</ele>
        <time>2021-03-07T09:07:53Z</time>
      </trkpt>
      <trkpt lat="46.30642" lon="0.29851">
        <ele>136.6902834978</ele>
        <time>2021-03-07T09:07:55Z</time>
      </trkpt>
      <trkpt lat="46.30645" lon="0.29851">
        <ele>136.73210472893</ele>
        <time>2021-03-07T09:07:57Z</time>
      </trkpt>
      <trkpt lat="46.30647" lon="0.29852">
        <ele>136.88441376202</ele>
        <time>2021-03-07T09:07:59Z</time>
      </trkpt>
      <trkpt lat="46.3065" lon="0.29852">
        <ele>136.6996168578</ele>
        <time>2021-03-07T09:08:01Z</time>
      </trkpt>
      <trkpt lat="46.30653" lon="0.29852">
        <ele>136.55363013875</ele>
        <time>2021-03-07T09:08:03Z</time>
      </trkpt>
      <trkpt lat="46.30655" lon="0.29852">
        <ele>136.85848646611</ele>
        <time>2021-03-07T09:08:05Z</time>
      </trkpt>
      <trkpt lat="46.30657" lon="0.29853">
        <ele>136.88373405579</ele>
        <time>2021-03-07T09:08:07Z</time>
      </trkpt>
      <trkpt lat="46.30661" lon="0.29854">
        <ele>136.80305117648</ele>
        <time>2021-03-07T09:08:09Z</time>
      </trkpt>
      <trkpt lat="46.30662" lon="0.29853">
        <ele>136.58442752715</ele>
        <time>2021-03-07T09:08:11Z</time>
      </trkpt>
      <trkpt lat="46.30665" lon="0.29853">
        <ele>136.92677813582</ele>
        <time>2021-03-07T09:08:13Z</time>
      </trkpt>
      <trkpt lat="46.30668" lon="0.29853">
        <ele>136.74371437449</ele>
        <time>2021-03-07T09:08:15Z</time>
      </trkpt>
      <trkpt lat="46.3067" lon="0.29853">
        <ele>136.93458596431</ele>
        <time>2021-03-07T09:08:17Z</time>
      </trkpt>
      <trkpt lat="46.30672" lon="0.29853">
        <ele>136.69977510069</ele>
        <time>2021-03-07T09:08:18Z</time>
      </trkpt>
      <trkpt lat="46.30674" lon="0.29853">
        <ele>136.79554072861</ele>
        <time>2021-03-07T09:08:20Z</time>
      </trkpt>
      <trkpt lat="46.30676" lon="0.29853">
        <ele>136.98620986287</ele>
        <time>2021-03-07T09:08:22Z</time>
      </trkpt>
      <trkpt lat="46.30678" lon="0.29853">
        <ele>136.68583131954</ele>
        <time>2021-03-07T09:08:24Z</time>
      </trkpt>
      <trkpt lat="46.30681" lon="0.29853">
        <ele>136.19896370731</ele>
        <time>2021-03-07T09:08:27Z</time>
      </trkpt>
      <trkpt lat="46.30685" lon="0.29852">
        <ele>136.51895812806</ele>
        <time>2021-03-07T09:08:29Z</time>
      </trkpt>
      <trkpt lat="46.30687" lon="0.29851">
        <ele>136.79117641132</ele>
        <time>2021-03-07T09:08:32Z</time>
      </trkpt>
      <trkpt lat="46.3069" lon="0.29849">
        <ele>136.36860754061</ele>
        <time>2021-03-07T09:08:34Z</time>
      </trkpt>
      <trkpt lat="46.30694" lon="0.29848">
        <ele>136.87027197424</ele>
        <time>2021-03-07T09:08:36Z</time>
      </trkpt>
      <trkpt lat="46.30696" lon="0.29847">
        <ele>135.91947145015</ele>
        <time>2021-03-07T09:08:38Z</time>
      </trkpt>
      <trkpt lat="46.30699" lon="0.29846">
        <ele>136.30028649326</ele>
        <time>2021-03-07T09:08:40Z</time>
      </trkpt>
      <trkpt lat="46.30703" lon="0.29845">
        <ele>136.42030420154</ele>
        <time>2021-03-07T09:08:42Z</time>
      </trkpt>
      <trkpt lat="46.30705" lon="0.29845">
        <ele>136.35795111582</ele>
        <time>2021-03-07T09:08:44Z</time>
      </trkpt>
      <trkpt lat="46.30707" lon="0.29844">
        <ele>136.21122212615</ele>
        <time>2021-03-07T09:08:46Z</time>
      </trkpt>
      <trkpt lat="46.30709" lon="0.29843">
        <ele>136.14602737967</ele>
        <time>2021-03-07T09:08:48Z</time>
      </trkpt>
      <trkpt lat="46.30711" lon="0.29842">
        <ele>136.03190835007</ele>
        <time>2021-03-07T09:08:49Z</time>
      </trkpt>
      <trkpt lat="46.30713" lon="0.29841">
        <ele>135.95087304804</ele>
        <time>2021-03-07T09:08:51Z</time>
      </trkpt>
      <trkpt lat="46.30716" lon="0.2984">
        <ele>136.16251396574</ele>
        <time>2021-03-07T09:08:53Z</time>
      </trkpt>
      <trkpt lat="46.30718" lon="0.2984">
        <ele>135.58885059692</ele>
        <time>2021-03-07T09:08:54Z</time>
      </trkpt>
      <trkpt lat="46.3072" lon="0.29839">
        <ele>135.58019722067</ele>
        <time>2021-03-07T09:08:57Z</time>
      </trkpt>
      <trkpt lat="46.30722" lon="0.29837">
        <ele>135.11072121281</ele>
        <time>2021-03-07T09:08:59Z</time>
      </trkpt>
      <trkpt lat="46.30724" lon="0.29835">
        <ele>135.49697767757</ele>
        <time>2021-03-07T09:09:01Z</time>
      </trkpt>
      <trkpt lat="46.30726" lon="0.29833">
        <ele>135.36241534073</ele>
        <time>2021-03-07T09:09:03Z</time>
      </trkpt>
      <trkpt lat="46.30729" lon="0.29832">
        <ele>135.72929332871</ele>
        <time>2021-03-07T09:09:05Z</time>
      </trkpt>
      <trkpt lat="46.30731" lon="0.2983">
        <ele>135.22494623624</ele>
        <time>2021-03-07T09:09:07Z</time>
      </trkpt>
      <trkpt lat="46.30734" lon="0.29828">
        <ele>135.2381419735</ele>
        <time>2021-03-07T09:09:09Z</time>
      </trkpt>
      <trkpt lat="46.30736" lon="0.29827">
        <ele>135.19782519527</ele>
        <time>2021-03-07T09:09:11Z</time>
      </trkpt>
      <trkpt lat="46.30738" lon="0.29826">
        <ele>135.15143707581</ele>
        <time>2021-03-07T09:09:12Z</time>
      </trkpt>
      <trkpt lat="46.3074" lon="0.29823">
        <ele>135.08901446499</ele>
        <time>2021-03-07T09:09:14Z</time>
      </trkpt>
      <trkpt lat="46.30742" lon="0.29821">
        <ele>134.75617554691</ele>
        <time>2021-03-07T09:09:16Z</time>
      </trkpt>
      <trkpt lat="46.30744" lon="0.2982">
        <ele>134.58354444988</ele>
        <time>2021-03-07T09:09:18Z</time>
      </trkpt>
      <trkpt lat="46.30746" lon="0.29819">
        <ele>134.62009195425</ele>
        <time>2021-03-07T09:09:19Z</time>
      </trkpt>
      <trkpt lat="46.30749" lon="0.29817">
        <ele>134.54762777686</ele>
        <time>2021-03-07T09:09:21Z</time>
      </trkpt>
      <trkpt lat="46.30751" lon="0.29815">
        <ele>134.29595727194</ele>
        <time>2021-03-07T09:09:23Z</time>
      </trkpt>
      <trkpt lat="46.30753" lon="0.29814">
        <ele>134.50180188753</ele>
        <time>2021-03-07T09:09:25Z</time>
      </trkpt>
      <trkpt lat="46.30755" lon="0.29812">
        <ele>134.10926433094</ele>
        <time>2021-03-07T09:09:26Z</time>
      </trkpt>
      <trkpt lat="46.30757" lon="0.29811">
        <ele>133.81830819882</ele>
        <time>2021-03-07T09:09:28Z</time>
      </trkpt>
      <trkpt lat="46.3076" lon="0.29808">
        <ele>133.5875127418</ele>
        <time>2021-03-07T09:09:30Z</time>
      </trkpt>
      <trkpt lat="46.30763" lon="0.29809">
        <ele>133.60478047747</ele>
        <time>2021-03-07T09:09:32Z</time>
      </trkpt>
      <trkpt lat="46.30766" lon="0.29807">
        <ele>133.084054037</ele>
        <time>2021-03-07T09:09:34Z</time>
      </trkpt>
      <trkpt lat="46.30767" lon="0.29807">
        <ele>132.64768481627</ele>
        <time>2021-03-07T09:09:36Z</time>
      </trkpt>
      <trkpt lat="46.3077" lon="0.29805">
        <ele>132.56709210761</ele>
        <time>2021-03-07T09:09:38Z</time>
      </trkpt>
      <trkpt lat="46.30774" lon="0.29803">
        <ele>132.1464595655</ele>
        <time>2021-03-07T09:09:40Z</time>
      </trkpt>
      <trkpt lat="46.30775" lon="0.29801">
        <ele>132.13340332452</ele>
        <time>2021-03-07T09:09:42Z</time>
      </trkpt>
      <trkpt lat="46.30778" lon="0.298">
        <ele>131.69567362685</ele>
        <time>2021-03-07T09:09:44Z</time>
      </trkpt>
      <trkpt lat="46.3078" lon="0.29799">
        <ele>131.71509345807</ele>
        <time>2021-03-07T09:09:46Z</time>
      </trkpt>
      <trkpt lat="46.30783" lon="0.29798">
        <ele>131.61462183297</ele>
        <time>2021-03-07T09:09:48Z</time>
      </trkpt>
      <trkpt lat="46.30785" lon="0.29798">
        <ele>131.79940903187</ele>
        <time>2021-03-07T09:09:50Z</time>
      </trkpt>
      <trkpt lat="46.30787" lon="0.29797">
        <ele>131.49776798021</ele>
        <time>2021-03-07T09:09:51Z</time>
      </trkpt>
      <trkpt lat="46.3079" lon="0.29795">
        <ele>131.07792952843</ele>
        <time>2021-03-07T09:09:53Z</time>
      </trkpt>
      <trkpt lat="46.30792" lon="0.29795">
        <ele>130.58288367838</ele>
        <time>2021-03-07T09:09:55Z</time>
      </trkpt>
      <trkpt lat="46.30794" lon="0.29793">
        <ele>130.77607890218</ele>
        <time>2021-03-07T09:09:57Z</time>
      </trkpt>
      <trkpt lat="46.30797" lon="0.29792">
        <ele>130.84150908981</ele>
        <time>2021-03-07T09:09:59Z</time>
      </trkpt>
      <trkpt lat="46.30799" lon="0.29791">
        <ele>130.42401764635</ele>
        <time>2021-03-07T09:10:01Z</time>
      </trkpt>
      <trkpt lat="46.30802" lon="0.29789">
        <ele>130.44452258758</ele>
        <time>2021-03-07T09:10:03Z</time>
      </trkpt>
      <trkpt lat="46.30805" lon="0.29788">
        <ele>129.90772290993</ele>
        <time>2021-03-07T09:10:06Z</time>
      </trkpt>
      <trkpt lat="46.30807" lon="0.29788">
        <ele>129.70115993358</ele>
        <time>2021-03-07T09:10:08Z</time>
      </trkpt>
      <trkpt lat="46.30809" lon="0.29785">
        <ele>129.73141157441</ele>
        <time>2021-03-07T09:10:10Z</time>
      </trkpt>
      <trkpt lat="46.30812" lon="0.29783">
        <ele>129.7930988241</ele>
        <time>2021-03-07T09:10:12Z</time>
      </trkpt>
      <trkpt lat="46.30814" lon="0.29782">
        <ele>129.42777955439</ele>
        <time>2021-03-07T09:10:14Z</time>
      </trkpt>
      <trkpt lat="46.30817" lon="0.2978">
        <ele>129.23516496178</ele>
        <time>2021-03-07T09:10:16Z</time>
      </trkpt>
      <trkpt lat="46.30819" lon="0.29779">
        <ele>129.69723051693</ele>
        <time>2021-03-07T09:10:18Z</time>
      </trkpt>
      <trkpt lat="46.30822" lon="0.29777">
        <ele>128.80972475931</ele>
        <time>2021-03-07T09:10:20Z</time>
      </trkpt>
      <trkpt lat="46.30824" lon="0.29775">
        <ele>128.97216032073</ele>
        <time>2021-03-07T09:10:22Z</time>
      </trkpt>
      <trkpt lat="46.30827" lon="0.29773">
        <ele>128.8665513983</ele>
        <time>2021-03-07T09:10:24Z</time>
      </trkpt>
      <trkpt lat="46.30829" lon="0.29771">
        <ele>128.68693099264</ele>
        <time>2021-03-07T09:10:26Z</time>
      </trkpt>
      <trkpt lat="46.30832" lon="0.29769">
        <ele>128.6732252622</ele>
        <time>2021-03-07T09:10:28Z</time>
      </trkpt>
      <trkpt lat="46.30834" lon="0.29767">
        <ele>128.52410352603</ele>
        <time>2021-03-07T09:10:30Z</time>
      </trkpt>
      <trkpt lat="46.30836" lon="0.29765">
        <ele>128.78427426983</ele>
        <time>2021-03-07T09:10:32Z</time>
      </trkpt>
      <trkpt lat="46.30838" lon="0.29763">
        <ele>128.6755638551</ele>
        <time>2021-03-07T09:10:34Z</time>
      </trkpt>
      <trkpt lat="46.30841" lon="0.29761">
        <ele>128.64852745365</ele>
        <time>2021-03-07T09:10:36Z</time>
      </trkpt>
      <trkpt lat="46.30844" lon="0.29759">
        <ele>128.85013433825</ele>
        <time>2021-03-07T09:10:38Z</time>
      </trkpt>
      <trkpt lat="46.30845" lon="0.2976">
        <ele>128.61992467474</ele>
        <time>2021-03-07T09:10:39Z</time>
      </trkpt>
      <trkpt lat="46.30848" lon="0.29761">
        <ele>128.68721930683</ele>
        <time>2021-03-07T09:10:41Z</time>
      </trkpt>
      <trkpt lat="46.3085" lon="0.29762">
        <ele>128.74274878763</ele>
        <time>2021-03-07T09:10:43Z</time>
      </trkpt>
      <trkpt lat="46.30853" lon="0.29763">
        <ele>129.05772856995</ele>
        <time>2021-03-07T09:10:45Z</time>
      </trkpt>
      <trkpt lat="46.30855" lon="0.29764">
        <ele>129.1424740795</ele>
        <time>2021-03-07T09:10:46Z</time>
      </trkpt>
      <trkpt lat="46.30856" lon="0.29766">
        <ele>129.27308380418</ele>
        <time>2021-03-07T09:10:48Z</time>
      </trkpt>
      <trkpt lat="46.30858" lon="0.29769">
        <ele>129.56104881037</ele>
        <time>2021-03-07T09:10:50Z</time>
      </trkpt>
      <trkpt lat="46.3086" lon="0.29772">
        <ele>129.90747367032</ele>
        <time>2021-03-07T09:10:52Z</time>
      </trkpt>
      <trkpt lat="46.3086" lon="0.29775">
        <ele>129.77861952037</ele>
        <time>2021-03-07T09:10:54Z</time>
      </trkpt>
      <trkpt lat="46.30862" lon="0.29779">
        <ele>129.41485255212</ele>
        <time>2021-03-07T09:10:56Z</time>
      </trkpt>
      <trkpt lat="46.30865" lon="0.29781">
        <ele>129.47031031922</ele>
        <time>2021-03-07T09:10:58Z</time>
      </trkpt>
      <trkpt lat="46.30866" lon="0.29784">
        <ele>130.79371477757</ele>
        <time>2021-03-07T09:11:00Z</time>
      </trkpt>
      <trkpt lat="46.30868" lon="0.29785">
        <ele>130.03988756798</ele>
        <time>2021-03-07T09:11:02Z</time>
      </trkpt>
      <trkpt lat="46.3087" lon="0.29786">
        <ele>129.92793996353</ele>
        <time>2021-03-07T09:11:03Z</time>
      </trkpt>
      <trkpt lat="46.30872" lon="0.29788">
        <ele>129.84546704218</ele>
        <time>2021-03-07T09:11:05Z</time>
      </trkpt>
      <trkpt lat="46.30874" lon="0.29792">
        <ele>130.58730299678</ele>
        <time>2021-03-07T09:11:07Z</time>
      </trkpt>
      <trkpt lat="46.30876" lon="0.29794">
        <ele>130.58475492615</ele>
        <time>2021-03-07T09:11:09Z</time>
      </trkpt>
      <trkpt lat="46.30876" lon="0.29798">
        <ele>130.36629769206</ele>
        <time>2021-03-07T09:11:11Z</time>
      </trkpt>
      <trkpt lat="46.30878" lon="0.29801">
        <ele>130.34098546393</ele>
        <time>2021-03-07T09:11:13Z</time>
      </trkpt>
      <trkpt lat="46.30879" lon="0.29803">
        <ele>130.52364705503</ele>
        <time>2021-03-07T09:11:15Z</time>
      </trkpt>
      <trkpt lat="46.30882" lon="0.29805">
        <ele>130.57050882932</ele>
        <time>2021-03-07T09:11:17Z</time>
      </trkpt>
      <trkpt lat="46.30883" lon="0.29807">
        <ele>130.65739348717</ele>
        <time>2021-03-07T09:11:19Z</time>
      </trkpt>
      <trkpt lat="46.30885" lon="0.29808">
        <ele>130.51361500099</ele>
        <time>2021-03-07T09:11:21Z</time>
      </trkpt>
      <trkpt lat="46.30889" lon="0.29809">
        <ele>130.7455080254</ele>
        <time>2021-03-07T09:11:23Z</time>
      </trkpt>
      <trkpt lat="46.3089" lon="0.2981">
        <ele>131.06544322148</ele>
        <time>2021-03-07T09:11:25Z</time>
      </trkpt>
      <trkpt lat="46.30893" lon="0.29811">
        <ele>131.05235508364</ele>
        <time>2021-03-07T09:11:27Z</time>
      </trkpt>
      <trkpt lat="46.30895" lon="0.29814">
        <ele>131.229013253</ele>
        <time>2021-03-07T09:11:29Z</time>
      </trkpt>
      <trkpt lat="46.30897" lon="0.29816">
        <ele>131.81352084689</ele>
        <time>2021-03-07T09:11:31Z</time>
      </trkpt>
      <trkpt lat="46.30899" lon="0.29817">
        <ele>131.44753375184</ele>
        <time>2021-03-07T09:11:33Z</time>
      </trkpt>
      <trkpt lat="46.30901" lon="0.2982">
        <ele>131.86398470774</ele>
        <time>2021-03-07T09:11:35Z</time>
      </trkpt>
      <trkpt lat="46.30903" lon="0.29823">
        <ele>131.79137973115</ele>
        <time>2021-03-07T09:11:37Z</time>
      </trkpt>
      <trkpt lat="46.30904" lon="0.29826">
        <ele>132.09177558403</ele>
        <time>2021-03-07T09:11:39Z</time>
      </trkpt>
      <trkpt lat="46.30906" lon="0.29828">
        <ele>132.62361121178</ele>
        <time>2021-03-07T09:11:41Z</time>
      </trkpt>
      <trkpt lat="46.30908" lon="0.29831">
        <ele>132.81912157033</ele>
        <time>2021-03-07T09:11:43Z</time>
      </trkpt>
      <trkpt lat="46.3091" lon="0.29833">
        <ele>133.01119156741</ele>
        <time>2021-03-07T09:11:45Z</time>
      </trkpt>
      <trkpt lat="46.30913" lon="0.29835">
        <ele>132.96552953776</ele>
        <time>2021-03-07T09:11:48Z</time>
      </trkpt>
      <trkpt lat="46.30914" lon="0.29838">
        <ele>133.50707300752</ele>
        <time>2021-03-07T09:11:50Z</time>
      </trkpt>
      <trkpt lat="46.30916" lon="0.2984">
        <ele>133.38755505439</ele>
        <time>2021-03-07T09:11:52Z</time>
      </trkpt>
      <trkpt lat="46.30918" lon="0.29842">
        <ele>134.2787224371</ele>
        <time>2021-03-07T09:11:54Z</time>
      </trkpt>
      <trkpt lat="46.30921" lon="0.29843">
        <ele>133.57970685884</ele>
        <time>2021-03-07T09:11:56Z</time>
      </trkpt>
      <trkpt lat="46.30923" lon="0.29846">
        <ele>134.06021084636</ele>
        <time>2021-03-07T09:11:58Z</time>
      </trkpt>
      <trkpt lat="46.30925" lon="0.29848">
        <ele>134.3804186834</ele>
        <time>2021-03-07T09:12:00Z</time>
      </trkpt>
      <trkpt lat="46.30926" lon="0.2985">
        <ele>134.08098280523</ele>
        <time>2021-03-07T09:12:02Z</time>
      </trkpt>
      <trkpt lat="46.30929" lon="0.29852">
        <ele>134.16205775458</ele>
        <time>2021-03-07T09:12:04Z</time>
      </trkpt>
      <trkpt lat="46.30931" lon="0.29854">
        <ele>134.38205562159</ele>
        <time>2021-03-07T09:12:06Z</time>
      </trkpt>
      <trkpt lat="46.30932" lon="0.29856">
        <ele>134.43858371675</ele>
        <time>2021-03-07T09:12:08Z</time>
      </trkpt>
      <trkpt lat="46.30934" lon="0.29859">
        <ele>135.1057138294</ele>
        <time>2021-03-07T09:12:10Z</time>
      </trkpt>
      <trkpt lat="46.30935" lon="0.29862">
        <ele>134.54191502742</ele>
        <time>2021-03-07T09:12:12Z</time>
      </trkpt>
      <trkpt lat="46.30937" lon="0.29863">
        <ele>135.00928306859</ele>
        <time>2021-03-07T09:12:14Z</time>
      </trkpt>
      <trkpt lat="46.30939" lon="0.29865">
        <ele>135.24033035524</ele>
        <time>2021-03-07T09:12:16Z</time>
      </trkpt>
      <trkpt lat="46.30941" lon="0.29867">
        <ele>135.08098453842</ele>
        <time>2021-03-07T09:12:18Z</time>
      </trkpt>
      <trkpt lat="46.30942" lon="0.29869">
        <ele>135.34113690164</ele>
        <time>2021-03-07T09:12:19Z</time>
      </trkpt>
      <trkpt lat="46.30943" lon="0.29871">
        <ele>135.12146746647</ele>
        <time>2021-03-07T09:12:21Z</time>
      </trkpt>
      <trkpt lat="46.30946" lon="0.29873">
        <ele>135.28289387003</ele>
        <time>2021-03-07T09:12:23Z</time>
      </trkpt>
      <trkpt lat="46.30947" lon="0.29875">
        <ele>135.78718454856</ele>
        <time>2021-03-07T09:12:25Z</time>
      </trkpt>
      <trkpt lat="46.30948" lon="0.29877">
        <ele>135.52244037576</ele>
        <time>2021-03-07T09:12:27Z</time>
      </trkpt>
      <trkpt lat="46.3095" lon="0.29878">
        <ele>136.1750758104</ele>
        <time>2021-03-07T09:12:29Z</time>
      </trkpt>
      <trkpt lat="46.30953" lon="0.2988">
        <ele>135.89450918324</ele>
        <time>2021-03-07T09:12:31Z</time>
      </trkpt>
      <trkpt lat="46.30954" lon="0.29882">
        <ele>136.07017901167</ele>
        <time>2021-03-07T09:12:33Z</time>
      </trkpt>
      <trkpt lat="46.30956" lon="0.29883">
        <ele>136.11649564654</ele>
        <time>2021-03-07T09:12:35Z</time>
      </trkpt>
      <trkpt lat="46.30957" lon="0.29887">
        <ele>136.12794733327</ele>
        <time>2021-03-07T09:12:37Z</time>
      </trkpt>
      <trkpt lat="46.30959" lon="0.29888">
        <ele>135.6863633059</ele>
        <time>2021-03-07T09:12:39Z</time>
      </trkpt>
      <trkpt lat="46.30962" lon="0.29891">
        <ele>136.05114187766</ele>
        <time>2021-03-07T09:12:41Z</time>
      </trkpt>
      <trkpt lat="46.30964" lon="0.29893">
        <ele>135.88563344814</ele>
        <time>2021-03-07T09:12:43Z</time>
      </trkpt>
      <trkpt lat="46.30966" lon="0.29895">
        <ele>136.3536048485</ele>
        <time>2021-03-07T09:12:46Z</time>
      </trkpt>
      <trkpt lat="46.30969" lon="0.29896">
        <ele>136.61344263423</ele>
        <time>2021-03-07T09:12:48Z</time>
      </trkpt>
      <trkpt lat="46.30971" lon="0.29898">
        <ele>136.66386752389</ele>
        <time>2021-03-07T09:12:50Z</time>
      </trkpt>
      <trkpt lat="46.30973" lon="0.29898">
        <ele>136.58428260125</ele>
        <time>2021-03-07T09:12:52Z</time>
      </trkpt>
      <trkpt lat="46.30975" lon="0.29899">
        <ele>136.43694142159</ele>
        <time>2021-03-07T09:12:54Z</time>
      </trkpt>
      <trkpt lat="46.30977" lon="0.299">
        <ele>136.99341230467</ele>
        <time>2021-03-07T09:12:56Z</time>
      </trkpt>
      <trkpt lat="46.3098" lon="0.299">
        <ele>136.88958650921</ele>
        <time>2021-03-07T09:12:58Z</time>
      </trkpt>
      <trkpt lat="46.30982" lon="0.29899">
        <ele>137.16105500888</ele>
        <time>2021-03-07T09:13:00Z</time>
      </trkpt>
      <trkpt lat="46.30985" lon="0.29898">
        <ele>137.52575209178</ele>
        <time>2021-03-07T09:13:02Z</time>
      </trkpt>
      <trkpt lat="46.30988" lon="0.29897">
        <ele>137.24821648002</ele>
        <time>2021-03-07T09:13:05Z</time>
      </trkpt>
      <trkpt lat="46.3099" lon="0.29896">
        <ele>137.60923855565</ele>
        <time>2021-03-07T09:13:07Z</time>
      </trkpt>
      <trkpt lat="46.30993" lon="0.29894">
        <ele>138.05248567928</ele>
        <time>2021-03-07T09:13:09Z</time>
      </trkpt>
      <trkpt lat="46.30995" lon="0.29893">
        <ele>138.01560598426</ele>
        <time>2021-03-07T09:13:11Z</time>
      </trkpt>
      <trkpt lat="46.30997" lon="0.29892">
        <ele>138.29604735132</ele>
        <time>2021-03-07T09:13:13Z</time>
      </trkpt>
      <trkpt lat="46.31" lon="0.29891">
        <ele>138.40675566904</ele>
        <time>2021-03-07T09:13:15Z</time>
      </trkpt>
      <trkpt lat="46.31003" lon="0.2989">
        <ele>138.28665323555</ele>
        <time>2021-03-07T09:13:17Z</time>
      </trkpt>
      <trkpt lat="46.31005" lon="0.29889">
        <ele>138.29888192937</ele>
        <time>2021-03-07T09:13:19Z</time>
      </trkpt>
      <trkpt lat="46.31007" lon="0.29888">
        <ele>138.83718839381</ele>
        <time>2021-03-07T09:13:22Z</time>
      </trkpt>
      <trkpt lat="46.31009" lon="0.29889">
        <ele>139.16866212338</ele>
        <time>2021-03-07T09:13:23Z</time>
      </trkpt>
      <trkpt lat="46.31012" lon="0.2989">
        <ele>138.7123198323</ele>
        <time>2021-03-07T09:13:24Z</time>
      </trkpt>
      <trkpt lat="46.31013" lon="0.29892">
        <ele>139.39924025163</ele>
        <time>2021-03-07T09:13:25Z</time>
      </trkpt>
      <trkpt lat="46.31016" lon="0.29892">
        <ele>139.27317495644</ele>
        <time>2021-03-07T09:13:27Z</time>
      </trkpt>
      <trkpt lat="46.31019" lon="0.29894">
        <ele>138.9685194185</ele>
        <time>2021-03-07T09:13:29Z</time>
      </trkpt>
      <trkpt lat="46.3102" lon="0.29894">
        <ele>139.06885470171</ele>
        <time>2021-03-07T09:13:30Z</time>
      </trkpt>
      <trkpt lat="46.31022" lon="0.29895">
        <ele>139.10483160429</ele>
        <time>2021-03-07T09:13:31Z</time>
      </trkpt>
      <trkpt lat="46.31025" lon="0.29897">
        <ele>139.26709274109</ele>
        <time>2021-03-07T09:13:33Z</time>
      </trkpt>
      <trkpt lat="46.31027" lon="0.299">
        <ele>139.10646066628</ele>
        <time>2021-03-07T09:13:35Z</time>
      </trkpt>
      <trkpt lat="46.31029" lon="0.29901">
        <ele>139.68653071113</ele>
        <time>2021-03-07T09:13:37Z</time>
      </trkpt>
      <trkpt lat="46.31032" lon="0.29904">
        <ele>139.59582623467</ele>
        <time>2021-03-07T09:13:39Z</time>
      </trkpt>
      <trkpt lat="46.31034" lon="0.29906">
        <ele>139.93885476235</ele>
        <time>2021-03-07T09:13:41Z</time>
      </trkpt>
      <trkpt lat="46.31037" lon="0.29908">
        <ele>139.72881351691</ele>
        <time>2021-03-07T09:13:43Z</time>
      </trkpt>
      <trkpt lat="46.31039" lon="0.2991">
        <ele>139.59264440462</ele>
        <time>2021-03-07T09:13:45Z</time>
      </trkpt>
      <trkpt lat="46.31041" lon="0.29912">
        <ele>139.86065955646</ele>
        <time>2021-03-07T09:13:47Z</time>
      </trkpt>
      <trkpt lat="46.31043" lon="0.29915">
        <ele>139.81253778841</ele>
        <time>2021-03-07T09:13:50Z</time>
      </trkpt>
      <trkpt lat="46.31045" lon="0.29917">
        <ele>140.12241290696</ele>
        <time>2021-03-07T09:13:52Z</time>
      </trkpt>
      <trkpt lat="46.31047" lon="0.29919">
        <ele>140.2197039295</ele>
        <time>2021-03-07T09:13:54Z</time>
      </trkpt>
      <trkpt lat="46.31049" lon="0.29922">
        <ele>139.94019043352</ele>
        <time>2021-03-07T09:13:56Z</time>
      </trkpt>
      <trkpt lat="46.31051" lon="0.29923">
        <ele>140.00989069231</ele>
        <time>2021-03-07T09:13:58Z</time>
      </trkpt>
      <trkpt lat="46.31054" lon="0.29925">
        <ele>140.02611591294</ele>
        <time>2021-03-07T09:14:00Z</time>
      </trkpt>
      <trkpt lat="46.31055" lon="0.29928">
        <ele>140.06471827254</ele>
        <time>2021-03-07T09:14:02Z</time>
      </trkpt>
      <trkpt lat="46.31057" lon="0.2993">
        <ele>140.29859359562</ele>
        <time>2021-03-07T09:14:04Z</time>
      </trkpt>
      <trkpt lat="46.31058" lon="0.29934">
        <ele>140.86968128663</ele>
        <time>2021-03-07T09:14:06Z</time>
      </trkpt>
      <trkpt lat="46.3106" lon="0.29936">
        <ele>140.06051896792</ele>
        <time>2021-03-07T09:14:08Z</time>
      </trkpt>
      <trkpt lat="46.31062" lon="0.29937">
        <ele>140.78781423904</ele>
        <time>2021-03-07T09:14:09Z</time>
      </trkpt>
      <trkpt lat="46.31064" lon="0.2994">
        <ele>140.81623627339</ele>
        <time>2021-03-07T09:14:11Z</time>
      </trkpt>
      <trkpt lat="46.31065" lon="0.29942">
        <ele>140.19847179856</ele>
        <time>2021-03-07T09:14:13Z</time>
      </trkpt>
      <trkpt lat="46.31068" lon="0.29946">
        <ele>140.16397766955</ele>
        <time>2021-03-07T09:14:15Z</time>
      </trkpt>
      <trkpt lat="46.3107" lon="0.29949">
        <ele>140.42813147511</ele>
        <time>2021-03-07T09:14:18Z</time>
      </trkpt>
      <trkpt lat="46.31071" lon="0.29952">
        <ele>140.59434934985</ele>
        <time>2021-03-07T09:14:20Z</time>
      </trkpt>
      <trkpt lat="46.31073" lon="0.29954">
        <ele>140.72655547224</ele>
        <time>2021-03-07T09:14:22Z</time>
      </trkpt>
      <trkpt lat="46.31075" lon="0.29956">
        <ele>140.16554976162</ele>
        <time>2021-03-07T09:14:24Z</time>
      </trkpt>
      <trkpt lat="46.31076" lon="0.29959">
        <ele>140.18897835631</ele>
        <time>2021-03-07T09:14:26Z</time>
      </trkpt>
      <trkpt lat="46.31077" lon="0.29961">
        <ele>140.27708125487</ele>
        <time>2021-03-07T09:14:27Z</time>
      </trkpt>
      <trkpt lat="46.31079" lon="0.29963">
        <ele>140.30645379703</ele>
        <time>2021-03-07T09:14:29Z</time>
      </trkpt>
      <trkpt lat="46.31081" lon="0.29966">
        <ele>140.11227232683</ele>
        <time>2021-03-07T09:14:32Z</time>
      </trkpt>
      <trkpt lat="46.31083" lon="0.29969">
        <ele>140.37561506033</ele>
        <time>2021-03-07T09:14:34Z</time>
      </trkpt>
      <trkpt lat="46.31085" lon="0.29972">
        <ele>140.57430186681</ele>
        <time>2021-03-07T09:14:36Z</time>
      </trkpt>
      <trkpt lat="46.31087" lon="0.29974">
        <ele>140.22623419203</ele>
        <time>2021-03-07T09:14:38Z</time>
      </trkpt>
      <trkpt lat="46.31089" lon="0.29978">
        <ele>140.47366105579</ele>
        <time>2021-03-07T09:14:40Z</time>
      </trkpt>
      <trkpt lat="46.31091" lon="0.2998">
        <ele>140.48445495497</ele>
        <time>2021-03-07T09:14:42Z</time>
      </trkpt>
      <trkpt lat="46.31093" lon="0.29983">
        <ele>140.88213131018</ele>
        <time>2021-03-07T09:14:44Z</time>
      </trkpt>
      <trkpt lat="46.31095" lon="0.29986">
        <ele>140.49159116112</ele>
        <time>2021-03-07T09:14:46Z</time>
      </trkpt>
      <trkpt lat="46.31097" lon="0.29989">
        <ele>140.90985553246</ele>
        <time>2021-03-07T09:14:48Z</time>
      </trkpt>
      <trkpt lat="46.31099" lon="0.29991">
        <ele>140.9291703254</ele>
        <time>2021-03-07T09:14:50Z</time>
      </trkpt>
      <trkpt lat="46.311" lon="0.29994">
        <ele>140.76323666517</ele>
        <time>2021-03-07T09:14:52Z</time>
      </trkpt>
      <trkpt lat="46.31102" lon="0.29996">
        <ele>141.43921965826</ele>
        <time>2021-03-07T09:14:53Z</time>
      </trkpt>
      <trkpt lat="46.31103" lon="0.29998">
        <ele>141.72627883311</ele>
        <time>2021-03-07T09:14:55Z</time>
      </trkpt>
      <trkpt lat="46.31105" lon="0.3">
        <ele>140.92548773158</ele>
        <time>2021-03-07T09:14:57Z</time>
      </trkpt>
      <trkpt lat="46.31106" lon="0.30002">
        <ele>140.3596575791</ele>
        <time>2021-03-07T09:14:59Z</time>
      </trkpt>
      <trkpt lat="46.31109" lon="0.30006">
        <ele>141.00033903401</ele>
        <time>2021-03-07T09:15:01Z</time>
      </trkpt>
      <trkpt lat="46.3111" lon="0.30009">
        <ele>141.25871570874</ele>
        <time>2021-03-07T09:15:03Z</time>
      </trkpt>
      <trkpt lat="46.31113" lon="0.30012">
        <ele>141.46748654172</ele>
        <time>2021-03-07T09:15:05Z</time>
      </trkpt>
      <trkpt lat="46.31115" lon="0.30014">
        <ele>141.15417375602</ele>
        <time>2021-03-07T09:15:07Z</time>
      </trkpt>
      <trkpt lat="46.31115" lon="0.30016">
        <ele>141.10767042357</ele>
        <time>2021-03-07T09:15:09Z</time>
      </trkpt>
      <trkpt lat="46.31117" lon="0.30018">
        <ele>141.19427571166</ele>
        <time>2021-03-07T09:15:10Z</time>
      </trkpt>
      <trkpt lat="46.31119" lon="0.30022">
        <ele>141.21127958875</ele>
        <time>2021-03-07T09:15:13Z</time>
      </trkpt>
      <trkpt lat="46.3112" lon="0.30026">
        <ele>141.42943886016</ele>
        <time>2021-03-07T09:15:16Z</time>
      </trkpt>
      <trkpt lat="46.31122" lon="0.30028">
        <ele>141.06734144036</ele>
        <time>2021-03-07T09:15:18Z</time>
      </trkpt>
      <trkpt lat="46.31123" lon="0.30031">
        <ele>141.3746951092</ele>
        <time>2021-03-07T09:15:20Z</time>
      </trkpt>
      <trkpt lat="46.31125" lon="0.30034">
        <ele>141.24775225483</ele>
        <time>2021-03-07T09:15:22Z</time>
      </trkpt>
      <trkpt lat="46.31127" lon="0.30035">
        <ele>141.20734967198</ele>
        <time>2021-03-07T09:15:23Z</time>
      </trkpt>
      <trkpt lat="46.31129" lon="0.30036">
        <ele>140.86104377732</ele>
        <time>2021-03-07T09:15:25Z</time>
      </trkpt>
      <trkpt lat="46.31132" lon="0.30038">
        <ele>140.60417171568</ele>
        <time>2021-03-07T09:15:28Z</time>
      </trkpt>
      <trkpt lat="46.31134" lon="0.3004">
        <ele>140.59947163612</ele>
        <time>2021-03-07T09:15:30Z</time>
      </trkpt>
      <trkpt lat="46.31136" lon="0.30041">
        <ele>140.73102637753</ele>
        <time>2021-03-07T09:15:33Z</time>
      </trkpt>
      <trkpt lat="46.31138" lon="0.30042">
        <ele>140.49428109825</ele>
        <time>2021-03-07T09:15:35Z</time>
      </trkpt>
      <trkpt lat="46.3114" lon="0.30041">
        <ele>140.48849140201</ele>
        <time>2021-03-07T09:15:37Z</time>
      </trkpt>
      <trkpt lat="46.31142" lon="0.3004">
        <ele>140.48077079188</ele>
        <time>2021-03-07T09:15:39Z</time>
      </trkpt>
      <trkpt lat="46.31144" lon="0.30039">
        <ele>140.35399411526</ele>
        <time>2021-03-07T09:15:41Z</time>
      </trkpt>
      <trkpt lat="46.31146" lon="0.30036">
        <ele>139.99122664519</ele>
        <time>2021-03-07T09:15:43Z</time>
      </trkpt>
      <trkpt lat="46.31148" lon="0.30034">
        <ele>139.4723126553</ele>
        <time>2021-03-07T09:15:45Z</time>
      </trkpt>
      <trkpt lat="46.3115" lon="0.30032">
        <ele>140.43345724978</ele>
        <time>2021-03-07T09:15:47Z</time>
      </trkpt>
      <trkpt lat="46.31152" lon="0.30031">
        <ele>139.88866346236</ele>
        <time>2021-03-07T09:15:49Z</time>
      </trkpt>
      <trkpt lat="46.31154" lon="0.30029">
        <ele>139.74141110852</ele>
        <time>2021-03-07T09:15:51Z</time>
      </trkpt>
      <trkpt lat="46.31155" lon="0.30027">
        <ele>139.79299784731</ele>
        <time>2021-03-07T09:15:53Z</time>
      </trkpt>
      <trkpt lat="46.31157" lon="0.30024">
        <ele>139.20083579421</ele>
        <time>2021-03-07T09:15:55Z</time>
      </trkpt>
      <trkpt lat="46.31159" lon="0.30021">
        <ele>139.35056297481</ele>
        <time>2021-03-07T09:15:57Z</time>
      </trkpt>
      <trkpt lat="46.31161" lon="0.3002">
        <ele>139.45308696385</ele>
        <time>2021-03-07T09:16:01Z</time>
      </trkpt>
      <trkpt lat="46.3116" lon="0.30022">
        <ele>139.65004803799</ele>
        <time>2021-03-07T09:16:10Z</time>
      </trkpt>
      <trkpt lat="46.3116" lon="0.30026">
        <ele>139.6207745336</ele>
        <time>2021-03-07T09:16:27Z</time>
      </trkpt>
      <trkpt lat="46.31162" lon="0.30024">
        <ele>139.39156436175</ele>
        <time>2021-03-07T09:16:33Z</time>
      </trkpt>
      <trkpt lat="46.31164" lon="0.30021">
        <ele>139.44976498187</ele>
        <time>2021-03-07T09:16:36Z</time>
      </trkpt>
      <trkpt lat="46.31168" lon="0.30021">
        <ele>139.44371075649</ele>
        <time>2021-03-07T09:16:43Z</time>
      </trkpt>
      <trkpt lat="46.31166" lon="0.30022">
        <ele>139.34992946777</ele>
        <time>2021-03-07T09:16:53Z</time>
      </trkpt>
      <trkpt lat="46.31165" lon="0.30019">
        <ele>139.4859802518</ele>
        <time>2021-03-07T09:16:59Z</time>
      </trkpt>
      <trkpt lat="46.31166" lon="0.30016">
        <ele>139.33147069067</ele>
        <time>2021-03-07T09:17:08Z</time>
      </trkpt>
      <trkpt lat="46.31164" lon="0.30015">
        <ele>139.18962535542</ele>
        <time>2021-03-07T09:17:17Z</time>
      </trkpt>
      <trkpt lat="46.31161" lon="0.30015">
        <ele>138.98184491042</ele>
        <time>2021-03-07T09:17:22Z</time>
      </trkpt>
      <trkpt lat="46.31162" lon="0.30017">
        <ele>139.63277903944</ele>
        <time>2021-03-07T09:17:31Z</time>
      </trkpt>
      <trkpt lat="46.31164" lon="0.30019">
        <ele>139.43438830227</ele>
        <time>2021-03-07T09:17:59Z</time>
      </trkpt>
      <trkpt lat="46.31165" lon="0.30021">
        <ele>139.19792346843</ele>
        <time>2021-03-07T09:18:15Z</time>
      </trkpt>
      <trkpt lat="46.31163" lon="0.30023">
        <ele>139.47962970566</ele>
        <time>2021-03-07T09:18:46Z</time>
      </trkpt>
      <trkpt lat="46.31165" lon="0.30021">
        <ele>139.50304225087</ele>
        <time>2021-03-07T09:19:03Z</time>
      </trkpt>
      <trkpt lat="46.31165" lon="0.30024">
        <ele>139.58180666063</ele>
        <time>2021-03-07T09:19:28Z</time>
      </trkpt>
      <trkpt lat="46.31166" lon="0.30021">
        <ele>139.01834956463</ele>
        <time>2021-03-07T09:20:06Z</time>
      </trkpt>
      <trkpt lat="46.31166" lon="0.30018">
        <ele>139.17511572968</ele>
        <time>2021-03-07T09:20:13Z</time>
      </trkpt>
      <trkpt lat="46.31165" lon="0.30016">
        <ele>139.28979549836</ele>
        <time>2021-03-07T09:20:23Z</time>
      </trkpt>
      <trkpt lat="46.31163" lon="0.30016">
        <ele>139.30608737934</ele>
        <time>2021-03-07T09:20:57Z</time>
      </trkpt>
      <trkpt lat="46.31165" lon="0.30014">
        <ele>139.08664254658</ele>
        <time>2021-03-07T09:21:22Z</time>
      </trkpt>
      <trkpt lat="46.31163" lon="0.30013">
        <ele>139.06808809936</ele>
        <time>2021-03-07T09:21:35Z</time>
      </trkpt>
      <trkpt lat="46.31164" lon="0.30015">
        <ele>139.18952344917</ele>
        <time>2021-03-07T09:22:24Z</time>
      </trkpt>
      <trkpt lat="46.31166" lon="0.30016">
        <ele>139.27690030076</ele>
        <time>2021-03-07T09:22:48Z</time>
      </trkpt>
      <trkpt lat="46.31164" lon="0.30016">
        <ele>139.29103772994</ele>
        <time>2021-03-07T09:23:18Z</time>
      </trkpt>
      <trkpt lat="46.31166" lon="0.30015">
        <ele>139.19637883455</ele>
        <time>2021-03-07T09:23:38Z</time>
      </trkpt>
      <trkpt lat="46.31168" lon="0.30016">
        <ele>139.03827344254</ele>
        <time>2021-03-07T09:23:43Z</time>
      </trkpt>
      <trkpt lat="46.31166" lon="0.30016">
        <ele>139.1148254266</ele>
        <time>2021-03-07T09:23:48Z</time>
      </trkpt>
      <trkpt lat="46.31168" lon="0.30018">
        <ele>139.01356928609</ele>
        <time>2021-03-07T09:24:41Z</time>
      </trkpt>
      <trkpt lat="46.31166" lon="0.30016">
        <ele>138.90523041319</ele>
        <time>2021-03-07T09:24:50Z</time>
      </trkpt>
      <trkpt lat="46.31164" lon="0.30014">
        <ele>138.76592913456</ele>
        <time>2021-03-07T09:25:05Z</time>
      </trkpt>
      <trkpt lat="46.31166" lon="0.30017">
        <ele>139.0764361266</ele>
        <time>2021-03-07T09:25:19Z</time>
      </trkpt>
      <trkpt lat="46.31168" lon="0.30015">
        <ele>139.28187128063</ele>
        <time>2021-03-07T09:25:38Z</time>
      </trkpt>
      <trkpt lat="46.31168" lon="0.30018">
        <ele>138.91762297414</ele>
        <time>2021-03-07T09:25:48Z</time>
      </trkpt>
      <trkpt lat="46.31166" lon="0.30019">
        <ele>139.05473501142</ele>
        <time>2021-03-07T09:25:51Z</time>
      </trkpt>
      <trkpt lat="46.31166" lon="0.30017">
        <ele>139.16652408335</ele>
        <time>2021-03-07T09:26:01Z</time>
      </trkpt>
      <trkpt lat="46.31164" lon="0.30016">
        <ele>139.24562701397</ele>
        <time>2021-03-07T09:26:34Z</time>
      </trkpt>
      <trkpt lat="46.31166" lon="0.30016">
        <ele>139.17451565899</ele>
        <time>2021-03-07T09:26:40Z</time>
      </trkpt>
      <trkpt lat="46.31164" lon="0.30018">
        <ele>139.16140102781</ele>
        <time>2021-03-07T09:27:19Z</time>
      </trkpt>
      <trkpt lat="46.31167" lon="0.30019">
        <ele>139.13493226096</ele>
        <time>2021-03-07T09:27:24Z</time>
      </trkpt>
      <trkpt lat="46.31165" lon="0.30017">
        <ele>139.39553706162</ele>
        <time>2021-03-07T09:27:35Z</time>
      </trkpt>
      <trkpt lat="46.31167" lon="0.30016">
        <ele>139.45850707311</ele>
        <time>2021-03-07T09:27:44Z</time>
      </trkpt>
      <trkpt lat="46.31169" lon="0.30016">
        <ele>139.18594405707</ele>
        <time>2021-03-07T09:27:52Z</time>
      </trkpt>
      <trkpt lat="46.31168" lon="0.30018">
        <ele>139.10570832901</ele>
        <time>2021-03-07T09:28:19Z</time>
      </trkpt>
      <trkpt lat="46.31166" lon="0.30019">
        <ele>139.37642718013</ele>
        <time>2021-03-07T09:28:34Z</time>
      </trkpt>
      <trkpt lat="46.31167" lon="0.30018">
        <ele>139.28305584565</ele>
        <time>2021-03-07T09:28:50Z</time>
      </trkpt>
      <trkpt lat="46.31166" lon="0.30016">
        <ele>139.42472984269</ele>
        <time>2021-03-07T09:28:55Z</time>
      </trkpt>
      <trkpt lat="46.31164" lon="0.30017">
        <ele>139.20890434086</ele>
        <time>2021-03-07T09:29:12Z</time>
      </trkpt>
      <trkpt lat="46.31166" lon="0.30017">
        <ele>139.45637980103</ele>
        <time>2021-03-07T09:29:19Z</time>
      </trkpt>
      <trkpt lat="46.31168" lon="0.30016">
        <ele>139.0742422035</ele>
        <time>2021-03-07T09:29:32Z</time>
      </trkpt>
      <trkpt lat="46.3117" lon="0.30016">
        <ele>139.08983826917</ele>
        <time>2021-03-07T09:29:40Z</time>
      </trkpt>
      <trkpt lat="46.31168" lon="0.30016">
        <ele>138.8363035582</ele>
        <time>2021-03-07T09:30:03Z</time>
      </trkpt>
      <trkpt lat="46.31166" lon="0.30014">
        <ele>139.04304257687</ele>
        <time>2021-03-07T09:30:25Z</time>
      </trkpt>
      <trkpt lat="46.31168" lon="0.30016">
        <ele>139.23070091661</ele>
        <time>2021-03-07T09:30:36Z</time>
      </trkpt>
      <trkpt lat="46.31167" lon="0.30014">
        <ele>139.08042370994</ele>
        <time>2021-03-07T09:30:45Z</time>
      </trkpt>
      <trkpt lat="46.31165" lon="0.30012">
        <ele>139.17228040658</ele>
        <time>2021-03-07T09:30:47Z</time>
      </trkpt>
      <trkpt lat="46.31164" lon="0.3001">
        <ele>139.25995269418</ele>
        <time>2021-03-07T09:30:50Z</time>
      </trkpt>
      <trkpt lat="46.31165" lon="0.30013">
        <ele>139.09884132445</ele>
        <time>2021-03-07T09:31:03Z</time>
      </trkpt>
      <trkpt lat="46.31164" lon="0.30016">
        <ele>139.42209069896</ele>
        <time>2021-03-07T09:31:16Z</time>
      </trkpt>
      <trkpt lat="46.31163" lon="0.30015">
        <ele>139.60292705707</ele>
        <time>2021-03-07T09:31:42Z</time>
      </trkpt>
      <trkpt lat="46.31165" lon="0.30014">
        <ele>139.07375147939</ele>
        <time>2021-03-07T09:32:02Z</time>
      </trkpt>
      <trkpt lat="46.31168" lon="0.30013">
        <ele>138.94260803424</ele>
        <time>2021-03-07T09:32:05Z</time>
      </trkpt>
      <trkpt lat="46.31169" lon="0.30009">
        <ele>138.87162586115</ele>
        <time>2021-03-07T09:32:06Z</time>
      </trkpt>
      <trkpt lat="46.31171" lon="0.30008">
        <ele>138.56549792085</ele>
        <time>2021-03-07T09:32:08Z</time>
      </trkpt>
      <trkpt lat="46.31172" lon="0.30006">
        <ele>138.43723765295</ele>
        <time>2021-03-07T09:32:11Z</time>
      </trkpt>
      <trkpt lat="46.31172" lon="0.30003">
        <ele>138.31576087605</ele>
        <time>2021-03-07T09:32:13Z</time>
      </trkpt>
      <trkpt lat="46.31174" lon="0.30001">
        <ele>138.42535983119</ele>
        <time>2021-03-07T09:32:15Z</time>
      </trkpt>
      <trkpt lat="46.31176" lon="0.3">
        <ele>137.87291621417</ele>
        <time>2021-03-07T09:32:19Z</time>
      </trkpt>
      <trkpt lat="46.31178" lon="0.29998">
        <ele>137.1952858055</ele>
        <time>2021-03-07T09:32:22Z</time>
      </trkpt>
      <trkpt lat="46.31181" lon="0.29995">
        <ele>137.01480705291</ele>
        <time>2021-03-07T09:32:25Z</time>
      </trkpt>
      <trkpt lat="46.31183" lon="0.29993">
        <ele>136.90874627233</ele>
        <time>2021-03-07T09:32:27Z</time>
      </trkpt>
      <trkpt lat="46.31184" lon="0.29991">
        <ele>137.01369906776</ele>
        <time>2021-03-07T09:32:29Z</time>
      </trkpt>
      <trkpt lat="46.31186" lon="0.2999">
        <ele>136.86863211449</ele>
        <time>2021-03-07T09:32:31Z</time>
      </trkpt>
      <trkpt lat="46.31187" lon="0.29988">
        <ele>136.08011574019</ele>
        <time>2021-03-07T09:32:34Z</time>
      </trkpt>
      <trkpt lat="46.3119" lon="0.29986">
        <ele>136.51279758289</ele>
        <time>2021-03-07T09:32:38Z</time>
      </trkpt>
      <trkpt lat="46.31192" lon="0.29985">
        <ele>135.96843613405</ele>
        <time>2021-03-07T09:32:39Z</time>
      </trkpt>
      <trkpt lat="46.31194" lon="0.29981">
        <ele>135.6583583951</ele>
        <time>2021-03-07T09:32:41Z</time>
      </trkpt>
      <trkpt lat="46.31195" lon="0.29979">
        <ele>135.32969151903</ele>
        <time>2021-03-07T09:32:43Z</time>
      </trkpt>
      <trkpt lat="46.31197" lon="0.29978">
        <ele>135.19578530919</ele>
        <time>2021-03-07T09:32:45Z</time>
      </trkpt>
      <trkpt lat="46.31198" lon="0.29974">
        <ele>135.08160108142</ele>
        <time>2021-03-07T09:32:48Z</time>
      </trkpt>
      <trkpt lat="46.312" lon="0.29973">
        <ele>134.87206725124</ele>
        <time>2021-03-07T09:32:49Z</time>
      </trkpt>
      <trkpt lat="46.31202" lon="0.29971">
        <ele>134.94234639313</ele>
        <time>2021-03-07T09:32:52Z</time>
      </trkpt>
      <trkpt lat="46.31204" lon="0.29967">
        <ele>134.28153274395</ele>
        <time>2021-03-07T09:32:55Z</time>
      </trkpt>
      <trkpt lat="46.31205" lon="0.29964">
        <ele>133.92575957719</ele>
        <time>2021-03-07T09:32:57Z</time>
      </trkpt>
      <trkpt lat="46.31207" lon="0.29963">
        <ele>133.74423610978</ele>
        <time>2021-03-07T09:32:59Z</time>
      </trkpt>
      <trkpt lat="46.31208" lon="0.29959">
        <ele>133.60283446126</ele>
        <time>2021-03-07T09:33:01Z</time>
      </trkpt>
      <trkpt lat="46.31209" lon="0.29955">
        <ele>133.39677419886</ele>
        <time>2021-03-07T09:33:05Z</time>
      </trkpt>
      <trkpt lat="46.31211" lon="0.29952">
        <ele>132.73295169696</ele>
        <time>2021-03-07T09:33:08Z</time>
      </trkpt>
      <trkpt lat="46.31212" lon="0.29949">
        <ele>132.38328859955</ele>
        <time>2021-03-07T09:33:10Z</time>
      </trkpt>
      <trkpt lat="46.31213" lon="0.29946">
        <ele>132.81406609248</ele>
        <time>2021-03-07T09:33:12Z</time>
      </trkpt>
      <trkpt lat="46.31215" lon="0.29943">
        <ele>131.27431058884</ele>
        <time>2021-03-07T09:33:14Z</time>
      </trkpt>
      <trkpt lat="46.31217" lon="0.29941">
        <ele>132.17551070359</ele>
        <time>2021-03-07T09:33:15Z</time>
      </trkpt>
      <trkpt lat="46.31217" lon="0.29939">
        <ele>131.89671061002</ele>
        <time>2021-03-07T09:33:17Z</time>
      </trkpt>
      <trkpt lat="46.31218" lon="0.29936">
        <ele>131.28068610001</ele>
        <time>2021-03-07T09:33:19Z</time>
      </trkpt>
      <trkpt lat="46.31219" lon="0.29933">
        <ele>131.20477641374</ele>
        <time>2021-03-07T09:33:21Z</time>
      </trkpt>
      <trkpt lat="46.3122" lon="0.29931">
        <ele>131.03725505434</ele>
        <time>2021-03-07T09:33:23Z</time>
      </trkpt>
      <trkpt lat="46.31221" lon="0.29929">
        <ele>131.00409958139</ele>
        <time>2021-03-07T09:33:24Z</time>
      </trkpt>
      <trkpt lat="46.31222" lon="0.29926">
        <ele>130.50199324545</ele>
        <time>2021-03-07T09:33:26Z</time>
      </trkpt>
      <trkpt lat="46.31223" lon="0.29924">
        <ele>130.1754602259</ele>
        <time>2021-03-07T09:33:29Z</time>
      </trkpt>
      <trkpt lat="46.31225" lon="0.29921">
        <ele>130.40726149082</ele>
        <time>2021-03-07T09:33:31Z</time>
      </trkpt>
      <trkpt lat="46.31227" lon="0.29917">
        <ele>129.84379984904</ele>
        <time>2021-03-07T09:33:34Z</time>
      </trkpt>
      <trkpt lat="46.31229" lon="0.29915">
        <ele>129.35747001972</ele>
        <time>2021-03-07T09:33:36Z</time>
      </trkpt>
      <trkpt lat="46.3123" lon="0.29912">
        <ele>128.60136082023</ele>
        <time>2021-03-07T09:33:39Z</time>
      </trkpt>
      <trkpt lat="46.31231" lon="0.2991">
        <ele>128.59784334712</ele>
        <time>2021-03-07T09:33:41Z</time>
      </trkpt>
      <trkpt lat="46.31233" lon="0.29906">
        <ele>128.75823000539</ele>
        <time>2021-03-07T09:33:43Z</time>
      </trkpt>
      <trkpt lat="46.31233" lon="0.29903">
        <ele>128.54915149976</ele>
        <time>2021-03-07T09:33:45Z</time>
      </trkpt>
      <trkpt lat="46.31233" lon="0.299">
        <ele>128.42522334494</ele>
        <time>2021-03-07T09:33:47Z</time>
      </trkpt>
      <trkpt lat="46.31234" lon="0.29898">
        <ele>127.97055735346</ele>
        <time>2021-03-07T09:33:49Z</time>
      </trkpt>
      <trkpt lat="46.31235" lon="0.29895">
        <ele>127.75778436568</ele>
        <time>2021-03-07T09:33:51Z</time>
      </trkpt>
      <trkpt lat="46.31236" lon="0.29891">
        <ele>127.7098535113</ele>
        <time>2021-03-07T09:33:53Z</time>
      </trkpt>
      <trkpt lat="46.31237" lon="0.29889">
        <ele>127.85396405961</ele>
        <time>2021-03-07T09:33:55Z</time>
      </trkpt>
      <trkpt lat="46.31239" lon="0.29886">
        <ele>127.62160259765</ele>
        <time>2021-03-07T09:33:58Z</time>
      </trkpt>
      <trkpt lat="46.3124" lon="0.29883">
        <ele>127.53189319745</ele>
        <time>2021-03-07T09:34:00Z</time>
      </trkpt>
      <trkpt lat="46.3124" lon="0.29879">
        <ele>127.37956416514</ele>
        <time>2021-03-07T09:34:02Z</time>
      </trkpt>
      <trkpt lat="46.3124" lon="0.29875">
        <ele>126.78130409401</ele>
        <time>2021-03-07T09:34:04Z</time>
      </trkpt>
      <trkpt lat="46.31242" lon="0.29872">
        <ele>127.62576526776</ele>
        <time>2021-03-07T09:34:07Z</time>
      </trkpt>
      <trkpt lat="46.31242" lon="0.29869">
        <ele>126.39277395792</ele>
        <time>2021-03-07T09:34:08Z</time>
      </trkpt>
      <trkpt lat="46.31243" lon="0.29866">
        <ele>126.93790448084</ele>
        <time>2021-03-07T09:34:10Z</time>
      </trkpt>
      <trkpt lat="46.31244" lon="0.29863">
        <ele>126.27264853567</ele>
        <time>2021-03-07T09:34:13Z</time>
      </trkpt>
      <trkpt lat="46.31245" lon="0.2986">
        <ele>126.26820129156</ele>
        <time>2021-03-07T09:34:15Z</time>
      </trkpt>
      <trkpt lat="46.31246" lon="0.29856">
        <ele>125.65407789219</ele>
        <time>2021-03-07T09:34:17Z</time>
      </trkpt>
      <trkpt lat="46.31247" lon="0.29854">
        <ele>125.81718583032</ele>
        <time>2021-03-07T09:34:19Z</time>
      </trkpt>
      <trkpt lat="46.31248" lon="0.29851">
        <ele>125.53851786908</ele>
        <time>2021-03-07T09:34:22Z</time>
      </trkpt>
      <trkpt lat="46.31249" lon="0.29847">
        <ele>124.70998892095</ele>
        <time>2021-03-07T09:34:24Z</time>
      </trkpt>
      <trkpt lat="46.31249" lon="0.29844">
        <ele>125.68025436625</ele>
        <time>2021-03-07T09:34:26Z</time>
      </trkpt>
      <trkpt lat="46.31251" lon="0.2984">
        <ele>124.44172796328</ele>
        <time>2021-03-07T09:34:29Z</time>
      </trkpt>
      <trkpt lat="46.31252" lon="0.29837">
        <ele>124.03834837768</ele>
        <time>2021-03-07T09:34:31Z</time>
      </trkpt>
      <trkpt lat="46.31253" lon="0.29835">
        <ele>124.24692003429</ele>
        <time>2021-03-07T09:34:33Z</time>
      </trkpt>
      <trkpt lat="46.31253" lon="0.29833">
        <ele>123.90621632803</ele>
        <time>2021-03-07T09:34:34Z</time>
      </trkpt>
      <trkpt lat="46.31253" lon="0.2983">
        <ele>123.29856408108</ele>
        <time>2021-03-07T09:34:36Z</time>
      </trkpt>
      <trkpt lat="46.31254" lon="0.29827">
        <ele>124.48498056084</ele>
        <time>2021-03-07T09:34:38Z</time>
      </trkpt>
      <trkpt lat="46.31255" lon="0.29825">
        <ele>122.99334124848</ele>
        <time>2021-03-07T09:34:40Z</time>
      </trkpt>
      <trkpt lat="46.31256" lon="0.29821">
        <ele>122.72753920779</ele>
        <time>2021-03-07T09:34:43Z</time>
      </trkpt>
      <trkpt lat="46.31257" lon="0.29819">
        <ele>122.36861980241</ele>
        <time>2021-03-07T09:34:44Z</time>
      </trkpt>
      <trkpt lat="46.31259" lon="0.29816">
        <ele>122.45945301279</ele>
        <time>2021-03-07T09:34:47Z</time>
      </trkpt>
      <trkpt lat="46.31261" lon="0.29815">
        <ele>122.44386137184</ele>
        <time>2021-03-07T09:34:49Z</time>
      </trkpt>
      <trkpt lat="46.31261" lon="0.29819">
        <ele>122.09217780642</ele>
        <time>2021-03-07T09:34:51Z</time>
      </trkpt>
      <trkpt lat="46.31262" lon="0.29822">
        <ele>122.22807849571</ele>
        <time>2021-03-07T09:34:53Z</time>
      </trkpt>
      <trkpt lat="46.31263" lon="0.29825">
        <ele>121.21196338441</ele>
        <time>2021-03-07T09:34:55Z</time>
      </trkpt>
      <trkpt lat="46.31264" lon="0.29827">
        <ele>121.10576206259</ele>
        <time>2021-03-07T09:34:56Z</time>
      </trkpt>
      <trkpt lat="46.31263" lon="0.29832">
        <ele>122.54160362203</ele>
        <time>2021-03-07T09:34:59Z</time>
      </trkpt>
      <trkpt lat="46.31263" lon="0.29835">
        <ele>121.69603110757</ele>
        <time>2021-03-07T09:35:01Z</time>
      </trkpt>
      <trkpt lat="46.31263" lon="0.29838">
        <ele>121.76643031929</ele>
        <time>2021-03-07T09:35:04Z</time>
      </trkpt>
      <trkpt lat="46.31263" lon="0.29841">
        <ele>122.2170806909</ele>
        <time>2021-03-07T09:35:06Z</time>
      </trkpt>
      <trkpt lat="46.31262" lon="0.29844">
        <ele>122.33123417292</ele>
        <time>2021-03-07T09:35:08Z</time>
      </trkpt>
      <trkpt lat="46.31262" lon="0.29848">
        <ele>122.86784060113</ele>
        <time>2021-03-07T09:35:11Z</time>
      </trkpt>
      <trkpt lat="46.3126" lon="0.29851">
        <ele>122.49673136696</ele>
        <time>2021-03-07T09:35:13Z</time>
      </trkpt>
      <trkpt lat="46.3126" lon="0.29855">
        <ele>122.42902910803</ele>
        <time>2021-03-07T09:35:16Z</time>
      </trkpt>
      <trkpt lat="46.3126" lon="0.29858">
        <ele>122.8277048599</ele>
        <time>2021-03-07T09:35:18Z</time>
      </trkpt>
      <trkpt lat="46.31259" lon="0.29862">
        <ele>122.8696637461</ele>
        <time>2021-03-07T09:35:20Z</time>
      </trkpt>
      <trkpt lat="46.31259" lon="0.29865">
        <ele>123.41523035243</ele>
        <time>2021-03-07T09:35:22Z</time>
      </trkpt>
      <trkpt lat="46.31258" lon="0.2987">
        <ele>123.53476358671</ele>
        <time>2021-03-07T09:35:24Z</time>
      </trkpt>
      <trkpt lat="46.31257" lon="0.29873">
        <ele>123.57704033703</ele>
        <time>2021-03-07T09:35:25Z</time>
      </trkpt>
      <trkpt lat="46.31257" lon="0.29876">
        <ele>124.026208831</ele>
        <time>2021-03-07T09:35:27Z</time>
      </trkpt>
      <trkpt lat="46.31256" lon="0.29879">
        <ele>123.26947304048</ele>
        <time>2021-03-07T09:35:29Z</time>
      </trkpt>
      <trkpt lat="46.31257" lon="0.29882">
        <ele>124.2780700922</ele>
        <time>2021-03-07T09:35:31Z</time>
      </trkpt>
      <trkpt lat="46.31257" lon="0.29886">
        <ele>124.66896810662</ele>
        <time>2021-03-07T09:35:33Z</time>
      </trkpt>
      <trkpt lat="46.31257" lon="0.29891">
        <ele>126.39121328201</ele>
        <time>2021-03-07T09:35:35Z</time>
      </trkpt>
      <trkpt lat="46.31256" lon="0.29895">
        <ele>124.6163621312</ele>
        <time>2021-03-07T09:35:37Z</time>
      </trkpt>
      <trkpt lat="46.31256" lon="0.29897">
        <ele>124.91090363637</ele>
        <time>2021-03-07T09:35:38Z</time>
      </trkpt>
      <trkpt lat="46.31255" lon="0.29901">
        <ele>124.67158055026</ele>
        <time>2021-03-07T09:35:40Z</time>
      </trkpt>
      <trkpt lat="46.31255" lon="0.29905">
        <ele>124.86840093415</ele>
        <time>2021-03-07T09:35:42Z</time>
      </trkpt>
      <trkpt lat="46.31255" lon="0.29908">
        <ele>124.83592895605</ele>
        <time>2021-03-07T09:35:44Z</time>
      </trkpt>
      <trkpt lat="46.31254" lon="0.29912">
        <ele>125.01512683369</ele>
        <time>2021-03-07T09:35:46Z</time>
      </trkpt>
      <trkpt lat="46.31254" lon="0.29916">
        <ele>125.03988326341</ele>
        <time>2021-03-07T09:35:49Z</time>
      </trkpt>
      <trkpt lat="46.31254" lon="0.29919">
        <ele>125.17233371455</ele>
        <time>2021-03-07T09:35:51Z</time>
      </trkpt>
      <trkpt lat="46.31254" lon="0.29923">
        <ele>125.36997278593</ele>
        <time>2021-03-07T09:35:53Z</time>
      </trkpt>
      <trkpt lat="46.31254" lon="0.29926">
        <ele>125.32603160944</ele>
        <time>2021-03-07T09:35:56Z</time>
      </trkpt>
      <trkpt lat="46.31254" lon="0.29929">
        <ele>125.56721234322</ele>
        <time>2021-03-07T09:35:58Z</time>
      </trkpt>
      <trkpt lat="46.31255" lon="0.29933">
        <ele>125.6261609206</ele>
        <time>2021-03-07T09:36:00Z</time>
      </trkpt>
      <trkpt lat="46.31256" lon="0.29935">
        <ele>125.76886277646</ele>
        <time>2021-03-07T09:36:02Z</time>
      </trkpt>
      <trkpt lat="46.31257" lon="0.29939">
        <ele>125.59967752453</ele>
        <time>2021-03-07T09:36:04Z</time>
      </trkpt>
      <trkpt lat="46.31258" lon="0.29943">
        <ele>125.56884464901</ele>
        <time>2021-03-07T09:36:06Z</time>
      </trkpt>
      <trkpt lat="46.31259" lon="0.29946">
        <ele>125.62416805141</ele>
        <time>2021-03-07T09:36:08Z</time>
      </trkpt>
      <trkpt lat="46.31258" lon="0.29951">
        <ele>125.68265824206</ele>
        <time>2021-03-07T09:36:11Z</time>
      </trkpt>
      <trkpt lat="46.31258" lon="0.29954">
        <ele>125.49180528522</ele>
        <time>2021-03-07T09:36:13Z</time>
      </trkpt>
      <trkpt lat="46.31259" lon="0.29958">
        <ele>126.20510365162</ele>
        <time>2021-03-07T09:36:15Z</time>
      </trkpt>
      <trkpt lat="46.31259" lon="0.29961">
        <ele>125.84151967429</ele>
        <time>2021-03-07T09:36:17Z</time>
      </trkpt>
      <trkpt lat="46.3126" lon="0.29965">
        <ele>126.03101595864</ele>
        <time>2021-03-07T09:36:19Z</time>
      </trkpt>
      <trkpt lat="46.3126" lon="0.29968">
        <ele>125.95615734626</ele>
        <time>2021-03-07T09:36:21Z</time>
      </trkpt>
      <trkpt lat="46.3126" lon="0.29971">
        <ele>125.97001573723</ele>
        <time>2021-03-07T09:36:23Z</time>
      </trkpt>
      <trkpt lat="46.3126" lon="0.29975">
        <ele>126.33139905985</ele>
        <time>2021-03-07T09:36:25Z</time>
      </trkpt>
      <trkpt lat="46.3126" lon="0.29978">
        <ele>126.11163865775</ele>
        <time>2021-03-07T09:36:28Z</time>
      </trkpt>
      <trkpt lat="46.31261" lon="0.29981">
        <ele>126.25398602616</ele>
        <time>2021-03-07T09:36:30Z</time>
      </trkpt>
      <trkpt lat="46.31262" lon="0.29985">
        <ele>126.5557482224</ele>
        <time>2021-03-07T09:36:32Z</time>
      </trkpt>
      <trkpt lat="46.31262" lon="0.29989">
        <ele>126.48919972684</ele>
        <time>2021-03-07T09:36:34Z</time>
      </trkpt>
      <trkpt lat="46.31263" lon="0.29992">
        <ele>126.59137877543</ele>
        <time>2021-03-07T09:36:36Z</time>
      </trkpt>
      <trkpt lat="46.31264" lon="0.29995">
        <ele>126.38773791771</ele>
        <time>2021-03-07T09:36:38Z</time>
      </trkpt>
      <trkpt lat="46.31264" lon="0.29998">
        <ele>126.84434757661</ele>
        <time>2021-03-07T09:36:40Z</time>
      </trkpt>
      <trkpt lat="46.31264" lon="0.30003">
        <ele>126.33182502259</ele>
        <time>2021-03-07T09:36:43Z</time>
      </trkpt>
      <trkpt lat="46.31265" lon="0.30007">
        <ele>126.83482997119</ele>
        <time>2021-03-07T09:36:45Z</time>
      </trkpt>
      <trkpt lat="46.31266" lon="0.3001">
        <ele>126.91430766322</ele>
        <time>2021-03-07T09:36:47Z</time>
      </trkpt>
      <trkpt lat="46.31267" lon="0.30013">
        <ele>127.53336310945</ele>
        <time>2021-03-07T09:36:49Z</time>
      </trkpt>
      <trkpt lat="46.31268" lon="0.30017">
        <ele>127.54625023808</ele>
        <time>2021-03-07T09:36:51Z</time>
      </trkpt>
      <trkpt lat="46.31268" lon="0.3002">
        <ele>127.51645232271</ele>
        <time>2021-03-07T09:36:53Z</time>
      </trkpt>
      <trkpt lat="46.31268" lon="0.30023">
        <ele>127.92649920471</ele>
        <time>2021-03-07T09:36:54Z</time>
      </trkpt>
      <trkpt lat="46.31269" lon="0.30028">
        <ele>127.69853777625</ele>
        <time>2021-03-07T09:36:56Z</time>
      </trkpt>
      <trkpt lat="46.31269" lon="0.3003">
        <ele>127.71107561979</ele>
        <time>2021-03-07T09:36:57Z</time>
      </trkpt>
      <trkpt lat="46.3127" lon="0.30034">
        <ele>127.94149774686</ele>
        <time>2021-03-07T09:36:59Z</time>
      </trkpt>
      <trkpt lat="46.3127" lon="0.30037">
        <ele>128.44024521671</ele>
        <time>2021-03-07T09:37:01Z</time>
      </trkpt>
      <trkpt lat="46.31271" lon="0.30041">
        <ele>128.96012565773</ele>
        <time>2021-03-07T09:37:03Z</time>
      </trkpt>
      <trkpt lat="46.31272" lon="0.30046">
        <ele>128.80904604774</ele>
        <time>2021-03-07T09:37:05Z</time>
      </trkpt>
      <trkpt lat="46.31274" lon="0.3005">
        <ele>129.71364647988</ele>
        <time>2021-03-07T09:37:07Z</time>
      </trkpt>
      <trkpt lat="46.31274" lon="0.30053">
        <ele>129.92759752087</ele>
        <time>2021-03-07T09:37:09Z</time>
      </trkpt>
      <trkpt lat="46.31274" lon="0.30057">
        <ele>130.48057229165</ele>
        <time>2021-03-07T09:37:11Z</time>
      </trkpt>
      <trkpt lat="46.31275" lon="0.3006">
        <ele>130.82521083206</ele>
        <time>2021-03-07T09:37:13Z</time>
      </trkpt>
      <trkpt lat="46.31276" lon="0.30063">
        <ele>131.09024234954</ele>
        <time>2021-03-07T09:37:15Z</time>
      </trkpt>
      <trkpt lat="46.31276" lon="0.30066">
        <ele>131.23151909839</ele>
        <time>2021-03-07T09:37:18Z</time>
      </trkpt>
      <trkpt lat="46.31277" lon="0.3007">
        <ele>131.81526567414</ele>
        <time>2021-03-07T09:37:21Z</time>
      </trkpt>
      <trkpt lat="46.31278" lon="0.30073">
        <ele>132.30033435207</ele>
        <time>2021-03-07T09:37:23Z</time>
      </trkpt>
      <trkpt lat="46.31279" lon="0.30076">
        <ele>132.25193057768</ele>
        <time>2021-03-07T09:37:25Z</time>
      </trkpt>
      <trkpt lat="46.3128" lon="0.30079">
        <ele>132.79411777761</ele>
        <time>2021-03-07T09:37:27Z</time>
      </trkpt>
      <trkpt lat="46.31281" lon="0.30085">
        <ele>133.15431648027</ele>
        <time>2021-03-07T09:37:30Z</time>
      </trkpt>
      <trkpt lat="46.31282" lon="0.30088">
        <ele>133.35755794123</ele>
        <time>2021-03-07T09:37:32Z</time>
      </trkpt>
      <trkpt lat="46.31283" lon="0.3009">
        <ele>133.07105367165</ele>
        <time>2021-03-07T09:37:33Z</time>
      </trkpt>
      <trkpt lat="46.31283" lon="0.30094">
        <ele>133.24677965045</ele>
        <time>2021-03-07T09:37:35Z</time>
      </trkpt>
      <trkpt lat="46.31283" lon="0.30097">
        <ele>133.26719368249</ele>
        <time>2021-03-07T09:37:37Z</time>
      </trkpt>
      <trkpt lat="46.31283" lon="0.301">
        <ele>133.92680854257</ele>
        <time>2021-03-07T09:37:39Z</time>
      </trkpt>
      <trkpt lat="46.31285" lon="0.30104">
        <ele>133.84617780708</ele>
        <time>2021-03-07T09:37:41Z</time>
      </trkpt>
      <trkpt lat="46.31286" lon="0.30107">
        <ele>134.3324523773</ele>
        <time>2021-03-07T09:37:43Z</time>
      </trkpt>
      <trkpt lat="46.31287" lon="0.3011">
        <ele>134.34136753436</ele>
        <time>2021-03-07T09:37:45Z</time>
      </trkpt>
      <trkpt lat="46.31288" lon="0.30113">
        <ele>135.24470080063</ele>
        <time>2021-03-07T09:37:47Z</time>
      </trkpt>
      <trkpt lat="46.31289" lon="0.30116">
        <ele>134.86087452527</ele>
        <time>2021-03-07T09:37:49Z</time>
      </trkpt>
      <trkpt lat="46.31288" lon="0.30119">
        <ele>134.92263956368</ele>
        <time>2021-03-07T09:37:51Z</time>
      </trkpt>
      <trkpt lat="46.31289" lon="0.30122">
        <ele>135.26913873386</ele>
        <time>2021-03-07T09:37:53Z</time>
      </trkpt>
      <trkpt lat="46.31291" lon="0.30125">
        <ele>135.45818010811</ele>
        <time>2021-03-07T09:37:55Z</time>
      </trkpt>
      <trkpt lat="46.31292" lon="0.30128">
        <ele>135.65177587513</ele>
        <time>2021-03-07T09:37:57Z</time>
      </trkpt>
      <trkpt lat="46.31294" lon="0.30131">
        <ele>135.71026300266</ele>
        <time>2021-03-07T09:37:59Z</time>
      </trkpt>
      <trkpt lat="46.31296" lon="0.30133">
        <ele>136.01854170207</ele>
        <time>2021-03-07T09:38:00Z</time>
      </trkpt>
      <trkpt lat="46.31297" lon="0.30135">
        <ele>136.17043952085</ele>
        <time>2021-03-07T09:38:01Z</time>
      </trkpt>
      <trkpt lat="46.31298" lon="0.30138">
        <ele>135.57860620692</ele>
        <time>2021-03-07T09:38:03Z</time>
      </trkpt>
      <trkpt lat="46.313" lon="0.30142">
        <ele>135.58388494886</ele>
        <time>2021-03-07T09:38:05Z</time>
      </trkpt>
      <trkpt lat="46.31301" lon="0.30145">
        <ele>135.37690021098</ele>
        <time>2021-03-07T09:38:07Z</time>
      </trkpt>
      <trkpt lat="46.31303" lon="0.30147">
        <ele>135.77401643619</ele>
        <time>2021-03-07T09:38:09Z</time>
      </trkpt>
      <trkpt lat="46.31305" lon="0.30149">
        <ele>135.2151400093</ele>
        <time>2021-03-07T09:38:11Z</time>
      </trkpt>
      <trkpt lat="46.31307" lon="0.3015">
        <ele>135.10503994394</ele>
        <time>2021-03-07T09:38:13Z</time>
      </trkpt>
      <trkpt lat="46.31308" lon="0.30152">
        <ele>134.8918479085</ele>
        <time>2021-03-07T09:38:15Z</time>
      </trkpt>
      <trkpt lat="46.31311" lon="0.30153">
        <ele>134.62126504909</ele>
        <time>2021-03-07T09:38:17Z</time>
      </trkpt>
      <trkpt lat="46.31313" lon="0.30155">
        <ele>133.82926871162</ele>
        <time>2021-03-07T09:38:19Z</time>
      </trkpt>
      <trkpt lat="46.31314" lon="0.30156">
        <ele>133.29577204585</ele>
        <time>2021-03-07T09:38:21Z</time>
      </trkpt>
      <trkpt lat="46.31316" lon="0.30159">
        <ele>133.19821553305</ele>
        <time>2021-03-07T09:38:23Z</time>
      </trkpt>
      <trkpt lat="46.31318" lon="0.3016">
        <ele>133.05921308324</ele>
        <time>2021-03-07T09:38:24Z</time>
      </trkpt>
      <trkpt lat="46.3132" lon="0.30161">
        <ele>132.04889788385</ele>
        <time>2021-03-07T09:38:26Z</time>
      </trkpt>
      <trkpt lat="46.31322" lon="0.30163">
        <ele>131.39419157337</ele>
        <time>2021-03-07T09:38:28Z</time>
      </trkpt>
      <trkpt lat="46.31324" lon="0.30164">
        <ele>131.2234061975</ele>
        <time>2021-03-07T09:38:30Z</time>
      </trkpt>
      <trkpt lat="46.31326" lon="0.30166">
        <ele>131.92269328889</ele>
        <time>2021-03-07T09:38:32Z</time>
      </trkpt>
      <trkpt lat="46.31328" lon="0.30168">
        <ele>131.71210912894</ele>
        <time>2021-03-07T09:38:34Z</time>
      </trkpt>
      <trkpt lat="46.3133" lon="0.3017">
        <ele>132.13195467182</ele>
        <time>2021-03-07T09:38:36Z</time>
      </trkpt>
      <trkpt lat="46.31332" lon="0.30172">
        <ele>131.73529155087</ele>
        <time>2021-03-07T09:38:38Z</time>
      </trkpt>
      <trkpt lat="46.31334" lon="0.30174">
        <ele>132.11628678907</ele>
        <time>2021-03-07T09:38:40Z</time>
      </trkpt>
      <trkpt lat="46.31335" lon="0.30177">
        <ele>132.06108031701</ele>
        <time>2021-03-07T09:38:43Z</time>
      </trkpt>
      <trkpt lat="46.31337" lon="0.3018">
        <ele>132.02849032264</ele>
        <time>2021-03-07T09:38:45Z</time>
      </trkpt>
      <trkpt lat="46.31339" lon="0.30182">
        <ele>132.09999581613</ele>
        <time>2021-03-07T09:38:47Z</time>
      </trkpt>
      <trkpt lat="46.3134" lon="0.30183">
        <ele>132.01165246684</ele>
        <time>2021-03-07T09:38:48Z</time>
      </trkpt>
      <trkpt lat="46.31342" lon="0.30185">
        <ele>131.82488894463</ele>
        <time>2021-03-07T09:38:50Z</time>
      </trkpt>
      <trkpt lat="46.31344" lon="0.30187">
        <ele>131.92317338753</ele>
        <time>2021-03-07T09:38:52Z</time>
      </trkpt>
      <trkpt lat="46.31347" lon="0.30189">
        <ele>131.58036492951</ele>
        <time>2021-03-07T09:38:54Z</time>
      </trkpt>
      <trkpt lat="46.31349" lon="0.30189">
        <ele>131.27240179107</ele>
        <time>2021-03-07T09:38:55Z</time>
      </trkpt>
      <trkpt lat="46.3135" lon="0.30192">
        <ele>131.12192108948</ele>
        <time>2021-03-07T09:38:57Z</time>
      </trkpt>
      <trkpt lat="46.31352" lon="0.30194">
        <ele>130.6398900738</ele>
        <time>2021-03-07T09:38:59Z</time>
      </trkpt>
      <trkpt lat="46.31354" lon="0.30196">
        <ele>130.73087335099</ele>
        <time>2021-03-07T09:39:01Z</time>
      </trkpt>
      <trkpt lat="46.31356" lon="0.30199">
        <ele>130.58056494687</ele>
        <time>2021-03-07T09:39:03Z</time>
      </trkpt>
      <trkpt lat="46.31358" lon="0.30201">
        <ele>130.28812514804</ele>
        <time>2021-03-07T09:39:05Z</time>
      </trkpt>
      <trkpt lat="46.3136" lon="0.30205">
        <ele>132.11609505583</ele>
        <time>2021-03-07T09:39:08Z</time>
      </trkpt>
      <trkpt lat="46.31362" lon="0.30206">
        <ele>131.25568626914</ele>
        <time>2021-03-07T09:39:10Z</time>
      </trkpt>
      <trkpt lat="46.31363" lon="0.30208">
        <ele>130.6094293287</ele>
        <time>2021-03-07T09:39:12Z</time>
      </trkpt>
      <trkpt lat="46.31365" lon="0.30211">
        <ele>130.16499493085</ele>
        <time>2021-03-07T09:39:14Z</time>
      </trkpt>
      <trkpt lat="46.31366" lon="0.30214">
        <ele>131.21666839439</ele>
        <time>2021-03-07T09:39:16Z</time>
      </trkpt>
      <trkpt lat="46.31368" lon="0.30215">
        <ele>130.77894177567</ele>
        <time>2021-03-07T09:39:18Z</time>
      </trkpt>
      <trkpt lat="46.31371" lon="0.30215">
        <ele>130.77052301262</ele>
        <time>2021-03-07T09:39:20Z</time>
      </trkpt>
      <trkpt lat="46.31373" lon="0.30216">
        <ele>129.79768863693</ele>
        <time>2021-03-07T09:39:22Z</time>
      </trkpt>
      <trkpt lat="46.31374" lon="0.30218">
        <ele>129.88339987583</ele>
        <time>2021-03-07T09:39:25Z</time>
      </trkpt>
      <trkpt lat="46.31377" lon="0.3022">
        <ele>129.30341964029</ele>
        <time>2021-03-07T09:39:27Z</time>
      </trkpt>
      <trkpt lat="46.31379" lon="0.30222">
        <ele>129.28707586508</ele>
        <time>2021-03-07T09:39:29Z</time>
      </trkpt>
      <trkpt lat="46.31381" lon="0.30223">
        <ele>128.41435932834</ele>
        <time>2021-03-07T09:39:31Z</time>
      </trkpt>
      <trkpt lat="46.31383" lon="0.30226">
        <ele>128.72759395279</ele>
        <time>2021-03-07T09:39:33Z</time>
      </trkpt>
      <trkpt lat="46.31385" lon="0.30228">
        <ele>128.40438423399</ele>
        <time>2021-03-07T09:39:35Z</time>
      </trkpt>
      <trkpt lat="46.31386" lon="0.30231">
        <ele>128.35061638709</ele>
        <time>2021-03-07T09:39:38Z</time>
      </trkpt>
      <trkpt lat="46.31388" lon="0.30232">
        <ele>128.10330935102</ele>
        <time>2021-03-07T09:39:40Z</time>
      </trkpt>
      <trkpt lat="46.3139" lon="0.30235">
        <ele>128.4083754262</ele>
        <time>2021-03-07T09:39:42Z</time>
      </trkpt>
      <trkpt lat="46.31392" lon="0.30236">
        <ele>128.08355193492</ele>
        <time>2021-03-07T09:39:43Z</time>
      </trkpt>
      <trkpt lat="46.31393" lon="0.30239">
        <ele>127.99657303188</ele>
        <time>2021-03-07T09:39:45Z</time>
      </trkpt>
      <trkpt lat="46.31395" lon="0.30241">
        <ele>128.52474798169</ele>
        <time>2021-03-07T09:39:47Z</time>
      </trkpt>
      <trkpt lat="46.31397" lon="0.30243">
        <ele>128.32035532594</ele>
        <time>2021-03-07T09:39:48Z</time>
      </trkpt>
      <trkpt lat="46.314" lon="0.30246">
        <ele>128.34430065565</ele>
        <time>2021-03-07T09:39:50Z</time>
      </trkpt>
      <trkpt lat="46.31402" lon="0.30248">
        <ele>128.54175524041</ele>
        <time>2021-03-07T09:39:52Z</time>
      </trkpt>
      <trkpt lat="46.31403" lon="0.3025">
        <ele>128.27505978849</ele>
        <time>2021-03-07T09:39:54Z</time>
      </trkpt>
      <trkpt lat="46.31405" lon="0.30251">
        <ele>128.24238895252</ele>
        <time>2021-03-07T09:39:55Z</time>
      </trkpt>
      <trkpt lat="46.31407" lon="0.30254">
        <ele>128.42311783321</ele>
        <time>2021-03-07T09:39:57Z</time>
      </trkpt>
      <trkpt lat="46.31409" lon="0.30256">
        <ele>128.40151133947</ele>
        <time>2021-03-07T09:39:59Z</time>
      </trkpt>
      <trkpt lat="46.31411" lon="0.30258">
        <ele>128.37485004403</ele>
        <time>2021-03-07T09:40:01Z</time>
      </trkpt>
      <trkpt lat="46.31412" lon="0.3026">
        <ele>128.95656370372</ele>
        <time>2021-03-07T09:40:03Z</time>
      </trkpt>
      <trkpt lat="46.31414" lon="0.30263">
        <ele>129.02711788099</ele>
        <time>2021-03-07T09:40:05Z</time>
      </trkpt>
      <trkpt lat="46.31416" lon="0.30265">
        <ele>129.54129377846</ele>
        <time>2021-03-07T09:40:08Z</time>
      </trkpt>
      <trkpt lat="46.31418" lon="0.30266">
        <ele>129.80807570461</ele>
        <time>2021-03-07T09:40:10Z</time>
      </trkpt>
      <trkpt lat="46.31419" lon="0.30269">
        <ele>129.84434521291</ele>
        <time>2021-03-07T09:40:12Z</time>
      </trkpt>
      <trkpt lat="46.31421" lon="0.30271">
        <ele>130.4213848589</ele>
        <time>2021-03-07T09:40:14Z</time>
      </trkpt>
      <trkpt lat="46.31423" lon="0.30273">
        <ele>130.82228945661</ele>
        <time>2021-03-07T09:40:16Z</time>
      </trkpt>
      <trkpt lat="46.31425" lon="0.30276">
        <ele>131.54738360457</ele>
        <time>2021-03-07T09:40:18Z</time>
      </trkpt>
      <trkpt lat="46.31427" lon="0.30277">
        <ele>131.74975991063</ele>
        <time>2021-03-07T09:40:20Z</time>
      </trkpt>
      <trkpt lat="46.31429" lon="0.30279">
        <ele>132.08533843514</ele>
        <time>2021-03-07T09:40:22Z</time>
      </trkpt>
      <trkpt lat="46.31431" lon="0.30281">
        <ele>132.60395270679</ele>
        <time>2021-03-07T09:40:25Z</time>
      </trkpt>
      <trkpt lat="46.31433" lon="0.30282">
        <ele>132.20792456344</ele>
        <time>2021-03-07T09:40:27Z</time>
      </trkpt>
      <trkpt lat="46.31436" lon="0.30283">
        <ele>132.18149693403</ele>
        <time>2021-03-07T09:40:29Z</time>
      </trkpt>
      <trkpt lat="46.31438" lon="0.30283">
        <ele>132.1041351594</ele>
        <time>2021-03-07T09:40:31Z</time>
      </trkpt>
      <trkpt lat="46.3144" lon="0.30281">
        <ele>131.5263131028</ele>
        <time>2021-03-07T09:40:33Z</time>
      </trkpt>
      <trkpt lat="46.31443" lon="0.3028">
        <ele>130.66384769883</ele>
        <time>2021-03-07T09:40:35Z</time>
      </trkpt>
      <trkpt lat="46.31445" lon="0.30279">
        <ele>130.60298825428</ele>
        <time>2021-03-07T09:40:37Z</time>
      </trkpt>
      <trkpt lat="46.31449" lon="0.30278">
        <ele>129.69034518953</ele>
        <time>2021-03-07T09:40:39Z</time>
      </trkpt>
      <trkpt lat="46.3145" lon="0.30276">
        <ele>129.4668095177</ele>
        <time>2021-03-07T09:40:41Z</time>
      </trkpt>
      <trkpt lat="46.31453" lon="0.30274">
        <ele>129.54396213125</ele>
        <time>2021-03-07T09:40:42Z</time>
      </trkpt>
      <trkpt lat="46.31456" lon="0.30271">
        <ele>129.07563179918</ele>
        <time>2021-03-07T09:40:44Z</time>
      </trkpt>
      <trkpt lat="46.31458" lon="0.3027">
        <ele>128.63127284497</ele>
        <time>2021-03-07T09:40:45Z</time>
      </trkpt>
      <trkpt lat="46.31461" lon="0.30266">
        <ele>128.51279879175</ele>
        <time>2021-03-07T09:40:47Z</time>
      </trkpt>
      <trkpt lat="46.31463" lon="0.30264">
        <ele>128.24497697689</ele>
        <time>2021-03-07T09:40:49Z</time>
      </trkpt>
      <trkpt lat="46.31465" lon="0.30262">
        <ele>127.7982717501</ele>
        <time>2021-03-07T09:40:50Z</time>
      </trkpt>
      <trkpt lat="46.31467" lon="0.3026">
        <ele>128.11262265872</ele>
        <time>2021-03-07T09:40:52Z</time>
      </trkpt>
      <trkpt lat="46.31469" lon="0.30257">
        <ele>127.59807364363</ele>
        <time>2021-03-07T09:40:54Z</time>
      </trkpt>
      <trkpt lat="46.31471" lon="0.30254">
        <ele>127.49780204892</ele>
        <time>2021-03-07T09:40:56Z</time>
      </trkpt>
      <trkpt lat="46.31472" lon="0.30251">
        <ele>127.56318905484</ele>
        <time>2021-03-07T09:40:58Z</time>
      </trkpt>
      <trkpt lat="46.31473" lon="0.30248">
        <ele>127.24421344511</ele>
        <time>2021-03-07T09:41:00Z</time>
      </trkpt>
      <trkpt lat="46.31474" lon="0.30245">
        <ele>127.11748285312</ele>
        <time>2021-03-07T09:41:02Z</time>
      </trkpt>
      <trkpt lat="46.31476" lon="0.30242">
        <ele>127.7098602429</ele>
        <time>2021-03-07T09:41:04Z</time>
      </trkpt>
      <trkpt lat="46.31478" lon="0.30239">
        <ele>127.29814696778</ele>
        <time>2021-03-07T09:41:06Z</time>
      </trkpt>
      <trkpt lat="46.31479" lon="0.30236">
        <ele>127.5981261367</ele>
        <time>2021-03-07T09:41:09Z</time>
      </trkpt>
      <trkpt lat="46.31479" lon="0.30232">
        <ele>127.58224038314</ele>
        <time>2021-03-07T09:41:11Z</time>
      </trkpt>
      <trkpt lat="46.3148" lon="0.30229">
        <ele>127.40734674316</ele>
        <time>2021-03-07T09:41:13Z</time>
      </trkpt>
      <trkpt lat="46.3148" lon="0.30226">
        <ele>127.8905553231</ele>
        <time>2021-03-07T09:41:15Z</time>
      </trkpt>
      <trkpt lat="46.3148" lon="0.30223">
        <ele>127.51969140396</ele>
        <time>2021-03-07T09:41:17Z</time>
      </trkpt>
      <trkpt lat="46.31479" lon="0.30219">
        <ele>127.10669642966</ele>
        <time>2021-03-07T09:41:20Z</time>
      </trkpt>
      <trkpt lat="46.31478" lon="0.30216">
        <ele>126.94255204778</ele>
        <time>2021-03-07T09:41:22Z</time>
      </trkpt>
      <trkpt lat="46.31479" lon="0.30212">
        <ele>127.14340973645</ele>
        <time>2021-03-07T09:41:24Z</time>
      </trkpt>
      <trkpt lat="46.31478" lon="0.3021">
        <ele>127.05136626028</ele>
        <time>2021-03-07T09:41:25Z</time>
      </trkpt>
      <trkpt lat="46.31477" lon="0.30208">
        <ele>126.94056581054</ele>
        <time>2021-03-07T09:41:26Z</time>
      </trkpt>
      <trkpt lat="46.31476" lon="0.30205">
        <ele>126.83723609243</ele>
        <time>2021-03-07T09:41:28Z</time>
      </trkpt>
      <trkpt lat="46.31475" lon="0.30201">
        <ele>126.72011761088</ele>
        <time>2021-03-07T09:41:30Z</time>
      </trkpt>
      <trkpt lat="46.31474" lon="0.30199">
        <ele>126.56083615404</ele>
        <time>2021-03-07T09:41:32Z</time>
      </trkpt>
      <trkpt lat="46.31474" lon="0.30195">
        <ele>126.42034210172</ele>
        <time>2021-03-07T09:41:34Z</time>
      </trkpt>
      <trkpt lat="46.31472" lon="0.30192">
        <ele>126.70740971901</ele>
        <time>2021-03-07T09:41:36Z</time>
      </trkpt>
      <trkpt lat="46.31472" lon="0.30188">
        <ele>126.63206378929</ele>
        <time>2021-03-07T09:41:38Z</time>
      </trkpt>
      <trkpt lat="46.3147" lon="0.30184">
        <ele>126.51929889806</ele>
        <time>2021-03-07T09:41:40Z</time>
      </trkpt>
      <trkpt lat="46.31469" lon="0.3018">
        <ele>126.53724526707</ele>
        <time>2021-03-07T09:41:42Z</time>
      </trkpt>
      <trkpt lat="46.31469" lon="0.30177">
        <ele>126.51907400601</ele>
        <time>2021-03-07T09:41:43Z</time>
      </trkpt>
      <trkpt lat="46.31468" lon="0.30173">
        <ele>126.82455516234</ele>
        <time>2021-03-07T09:41:45Z</time>
      </trkpt>
      <trkpt lat="46.31466" lon="0.3017">
        <ele>126.83504875377</ele>
        <time>2021-03-07T09:41:47Z</time>
      </trkpt>
      <trkpt lat="46.31465" lon="0.30167">
        <ele>126.53178145271</ele>
        <time>2021-03-07T09:41:49Z</time>
      </trkpt>
      <trkpt lat="46.31464" lon="0.30165">
        <ele>126.77280361019</ele>
        <time>2021-03-07T09:41:50Z</time>
      </trkpt>
      <trkpt lat="46.31464" lon="0.30162">
        <ele>126.88372171577</ele>
        <time>2021-03-07T09:41:52Z</time>
      </trkpt>
      <trkpt lat="46.31463" lon="0.30158">
        <ele>126.77156087849</ele>
        <time>2021-03-07T09:41:54Z</time>
      </trkpt>
      <trkpt lat="46.31463" lon="0.30154">
        <ele>126.96428202465</ele>
        <time>2021-03-07T09:41:56Z</time>
      </trkpt>
      <trkpt lat="46.31463" lon="0.30151">
        <ele>126.84319945425</ele>
        <time>2021-03-07T09:41:57Z</time>
      </trkpt>
      <trkpt lat="46.31462" lon="0.30148">
        <ele>127.04266995285</ele>
        <time>2021-03-07T09:41:58Z</time>
      </trkpt>
      <trkpt lat="46.31462" lon="0.30146">
        <ele>126.72926584911</ele>
        <time>2021-03-07T09:42:00Z</time>
      </trkpt>
      <trkpt lat="46.31461" lon="0.30143">
        <ele>127.14481892996</ele>
        <time>2021-03-07T09:42:03Z</time>
      </trkpt>
      <trkpt lat="46.31459" lon="0.30139">
        <ele>127.18322307989</ele>
        <time>2021-03-07T09:42:05Z</time>
      </trkpt>
      <trkpt lat="46.31459" lon="0.30136">
        <ele>127.25194286928</ele>
        <time>2021-03-07T09:42:07Z</time>
      </trkpt>
      <trkpt lat="46.31458" lon="0.30133">
        <ele>127.03670761734</ele>
        <time>2021-03-07T09:42:09Z</time>
      </trkpt>
      <trkpt lat="46.31459" lon="0.3013">
        <ele>126.67531999759</ele>
        <time>2021-03-07T09:42:11Z</time>
      </trkpt>
      <trkpt lat="46.31458" lon="0.30127">
        <ele>127.0479325261</ele>
        <time>2021-03-07T09:42:13Z</time>
      </trkpt>
      <trkpt lat="46.31457" lon="0.30124">
        <ele>127.02191483323</ele>
        <time>2021-03-07T09:42:15Z</time>
      </trkpt>
      <trkpt lat="46.31457" lon="0.30121">
        <ele>127.13650293555</ele>
        <time>2021-03-07T09:42:17Z</time>
      </trkpt>
      <trkpt lat="46.31456" lon="0.30117">
        <ele>126.8573025763</ele>
        <time>2021-03-07T09:42:19Z</time>
      </trkpt>
      <trkpt lat="46.31455" lon="0.30114">
        <ele>126.85812481306</ele>
        <time>2021-03-07T09:42:21Z</time>
      </trkpt>
      <trkpt lat="46.31455" lon="0.3011">
        <ele>126.59845569357</ele>
        <time>2021-03-07T09:42:23Z</time>
      </trkpt>
      <trkpt lat="46.31453" lon="0.30106">
        <ele>126.93431138154</ele>
        <time>2021-03-07T09:42:25Z</time>
      </trkpt>
      <trkpt lat="46.31452" lon="0.30104">
        <ele>126.8948151283</ele>
        <time>2021-03-07T09:42:27Z</time>
      </trkpt>
      <trkpt lat="46.31451" lon="0.30101">
        <ele>126.49313850887</ele>
        <time>2021-03-07T09:42:28Z</time>
      </trkpt>
      <trkpt lat="46.31451" lon="0.30098">
        <ele>126.48925324157</ele>
        <time>2021-03-07T09:42:30Z</time>
      </trkpt>
      <trkpt lat="46.31451" lon="0.30093">
        <ele>126.12044187635</ele>
        <time>2021-03-07T09:42:32Z</time>
      </trkpt>
      <trkpt lat="46.3145" lon="0.30089">
        <ele>126.46748062689</ele>
        <time>2021-03-07T09:42:34Z</time>
      </trkpt>
      <trkpt lat="46.3145" lon="0.30086">
        <ele>126.43180840556</ele>
        <time>2021-03-07T09:42:36Z</time>
      </trkpt>
      <trkpt lat="46.31448" lon="0.30082">
        <ele>125.96077340748</ele>
        <time>2021-03-07T09:42:39Z</time>
      </trkpt>
      <trkpt lat="46.31447" lon="0.30079">
        <ele>126.17146533914</ele>
        <time>2021-03-07T09:42:40Z</time>
      </trkpt>
      <trkpt lat="46.31447" lon="0.30076">
        <ele>124.96773636527</ele>
        <time>2021-03-07T09:42:42Z</time>
      </trkpt>
      <trkpt lat="46.31447" lon="0.30073">
        <ele>125.56820801832</ele>
        <time>2021-03-07T09:42:44Z</time>
      </trkpt>
      <trkpt lat="46.31448" lon="0.30069">
        <ele>125.29238191154</ele>
        <time>2021-03-07T09:42:46Z</time>
      </trkpt>
      <trkpt lat="46.31448" lon="0.30065">
        <ele>125.66585705895</ele>
        <time>2021-03-07T09:42:48Z</time>
      </trkpt>
      <trkpt lat="46.31448" lon="0.30061">
        <ele>126.30235657841</ele>
        <time>2021-03-07T09:42:50Z</time>
      </trkpt>
      <trkpt lat="46.31448" lon="0.30057">
        <ele>125.72820660472</ele>
        <time>2021-03-07T09:42:52Z</time>
      </trkpt>
      <trkpt lat="46.31449" lon="0.30054">
        <ele>125.63603807054</ele>
        <time>2021-03-07T09:42:54Z</time>
      </trkpt>
      <trkpt lat="46.31449" lon="0.30051">
        <ele>125.66336224694</ele>
        <time>2021-03-07T09:42:56Z</time>
      </trkpt>
      <trkpt lat="46.3145" lon="0.30045">
        <ele>126.3210440902</ele>
        <time>2021-03-07T09:42:58Z</time>
      </trkpt>
      <trkpt lat="46.31452" lon="0.30042">
        <ele>126.14881454129</ele>
        <time>2021-03-07T09:43:00Z</time>
      </trkpt>
      <trkpt lat="46.31454" lon="0.30042">
        <ele>126.06704434194</ele>
        <time>2021-03-07T09:43:04Z</time>
      </trkpt>
      <trkpt lat="46.31455" lon="0.30044">
        <ele>126.56907147728</ele>
        <time>2021-03-07T09:43:07Z</time>
      </trkpt>
      <trkpt lat="46.31458" lon="0.30047">
        <ele>127.41975363251</ele>
        <time>2021-03-07T09:43:10Z</time>
      </trkpt>
      <trkpt lat="46.31458" lon="0.3005">
        <ele>127.40964594577</ele>
        <time>2021-03-07T09:43:12Z</time>
      </trkpt>
      <trkpt lat="46.31459" lon="0.30054">
        <ele>128.04586999118</ele>
        <time>2021-03-07T09:43:15Z</time>
      </trkpt>
      <trkpt lat="46.3146" lon="0.30056">
        <ele>128.50116139092</ele>
        <time>2021-03-07T09:43:17Z</time>
      </trkpt>
      <trkpt lat="46.31461" lon="0.30059">
        <ele>128.98709338717</ele>
        <time>2021-03-07T09:43:20Z</time>
      </trkpt>
      <trkpt lat="46.31462" lon="0.30062">
        <ele>128.81377429701</ele>
        <time>2021-03-07T09:43:23Z</time>
      </trkpt>
      <trkpt lat="46.31463" lon="0.30064">
        <ele>129.66851390246</ele>
        <time>2021-03-07T09:43:25Z</time>
      </trkpt>
      <trkpt lat="46.31464" lon="0.30068">
        <ele>129.36075136717</ele>
        <time>2021-03-07T09:43:28Z</time>
      </trkpt>
      <trkpt lat="46.31466" lon="0.30071">
        <ele>129.91760247108</ele>
        <time>2021-03-07T09:43:31Z</time>
      </trkpt>
      <trkpt lat="46.31467" lon="0.30074">
        <ele>130.06006608624</ele>
        <time>2021-03-07T09:43:33Z</time>
      </trkpt>
      <trkpt lat="46.31468" lon="0.30077">
        <ele>130.52240207326</ele>
        <time>2021-03-07T09:43:36Z</time>
      </trkpt>
      <trkpt lat="46.31469" lon="0.3008">
        <ele>130.87327413913</ele>
        <time>2021-03-07T09:43:38Z</time>
      </trkpt>
      <trkpt lat="46.31471" lon="0.30083">
        <ele>130.99586090725</ele>
        <time>2021-03-07T09:43:41Z</time>
      </trkpt>
      <trkpt lat="46.31472" lon="0.30086">
        <ele>130.81108295266</ele>
        <time>2021-03-07T09:43:43Z</time>
      </trkpt>
      <trkpt lat="46.31473" lon="0.30088">
        <ele>131.912021094</ele>
        <time>2021-03-07T09:43:45Z</time>
      </trkpt>
      <trkpt lat="46.31475" lon="0.30092">
        <ele>132.12282112427</ele>
        <time>2021-03-07T09:43:48Z</time>
      </trkpt>
      <trkpt lat="46.31476" lon="0.30094">
        <ele>132.28713086061</ele>
        <time>2021-03-07T09:43:50Z</time>
      </trkpt>
      <trkpt lat="46.31477" lon="0.30097">
        <ele>132.60934411827</ele>
        <time>2021-03-07T09:43:52Z</time>
      </trkpt>
      <trkpt lat="46.31478" lon="0.30101">
        <ele>132.65759044793</ele>
        <time>2021-03-07T09:43:55Z</time>
      </trkpt>
      <trkpt lat="46.3148" lon="0.30102">
        <ele>132.7057202626</ele>
        <time>2021-03-07T09:43:57Z</time>
      </trkpt>
      <trkpt lat="46.31481" lon="0.30104">
        <ele>133.23963976745</ele>
        <time>2021-03-07T09:43:59Z</time>
      </trkpt>
      <trkpt lat="46.31483" lon="0.30106">
        <ele>133.51157409325</ele>
        <time>2021-03-07T09:44:01Z</time>
      </trkpt>
      <trkpt lat="46.31484" lon="0.30108">
        <ele>133.95398783777</ele>
        <time>2021-03-07T09:44:03Z</time>
      </trkpt>
      <trkpt lat="46.31486" lon="0.3011">
        <ele>133.72777375765</ele>
        <time>2021-03-07T09:44:05Z</time>
      </trkpt>
      <trkpt lat="46.31487" lon="0.30112">
        <ele>133.98494707793</ele>
        <time>2021-03-07T09:44:07Z</time>
      </trkpt>
      <trkpt lat="46.31488" lon="0.30115">
        <ele>134.6700209491</ele>
        <time>2021-03-07T09:44:09Z</time>
      </trkpt>
      <trkpt lat="46.31488" lon="0.30118">
        <ele>134.84760199394</ele>
        <time>2021-03-07T09:44:11Z</time>
      </trkpt>
      <trkpt lat="46.31491" lon="0.30121">
        <ele>134.90533437394</ele>
        <time>2021-03-07T09:44:14Z</time>
      </trkpt>
      <trkpt lat="46.31492" lon="0.30124">
        <ele>135.21852972265</ele>
        <time>2021-03-07T09:44:17Z</time>
      </trkpt>
      <trkpt lat="46.31494" lon="0.30127">
        <ele>135.25165105425</ele>
        <time>2021-03-07T09:44:21Z</time>
      </trkpt>
      <trkpt lat="46.31495" lon="0.30129">
        <ele>135.54564173147</ele>
        <time>2021-03-07T09:44:23Z</time>
      </trkpt>
      <trkpt lat="46.31498" lon="0.3013">
        <ele>136.24560360238</ele>
        <time>2021-03-07T09:44:27Z</time>
      </trkpt>
      <trkpt lat="46.315" lon="0.30131">
        <ele>136.38056796603</ele>
        <time>2021-03-07T09:44:29Z</time>
      </trkpt>
      <trkpt lat="46.31503" lon="0.30133">
        <ele>136.39718981087</ele>
        <time>2021-03-07T09:44:32Z</time>
      </trkpt>
      <trkpt lat="46.31505" lon="0.30135">
        <ele>137.35977743287</ele>
        <time>2021-03-07T09:44:34Z</time>
      </trkpt>
      <trkpt lat="46.31507" lon="0.30137">
        <ele>137.23889149819</ele>
        <time>2021-03-07T09:44:37Z</time>
      </trkpt>
      <trkpt lat="46.31509" lon="0.30139">
        <ele>137.63177337311</ele>
        <time>2021-03-07T09:44:39Z</time>
      </trkpt>
      <trkpt lat="46.3151" lon="0.30139">
        <ele>137.87543985248</ele>
        <time>2021-03-07T09:44:42Z</time>
      </trkpt>
      <trkpt lat="46.31509" lon="0.30137">
        <ele>137.74068537913</ele>
        <time>2021-03-07T09:44:48Z</time>
      </trkpt>
      <trkpt lat="46.31513" lon="0.30138">
        <ele>137.71457059309</ele>
        <time>2021-03-07T09:44:52Z</time>
      </trkpt>
      <trkpt lat="46.31515" lon="0.3014">
        <ele>138.43497464061</ele>
        <time>2021-03-07T09:44:54Z</time>
      </trkpt>
      <trkpt lat="46.31518" lon="0.3014">
        <ele>138.49367068522</ele>
        <time>2021-03-07T09:44:57Z</time>
      </trkpt>
      <trkpt lat="46.3152" lon="0.3014">
        <ele>138.65813234355</ele>
        <time>2021-03-07T09:44:59Z</time>
      </trkpt>
      <trkpt lat="46.31522" lon="0.30142">
        <ele>140.27089956589</ele>
        <time>2021-03-07T09:45:01Z</time>
      </trkpt>
      <trkpt lat="46.31525" lon="0.30143">
        <ele>139.46187566314</ele>
        <time>2021-03-07T09:45:03Z</time>
      </trkpt>
      <trkpt lat="46.31527" lon="0.30144">
        <ele>140.12314193323</ele>
        <time>2021-03-07T09:45:05Z</time>
      </trkpt>
      <trkpt lat="46.31529" lon="0.30144">
        <ele>139.68706627004</ele>
        <time>2021-03-07T09:45:07Z</time>
      </trkpt>
      <trkpt lat="46.31531" lon="0.30144">
        <ele>140.38816132769</ele>
        <time>2021-03-07T09:45:09Z</time>
      </trkpt>
      <trkpt lat="46.31533" lon="0.30145">
        <ele>140.63837059867</ele>
        <time>2021-03-07T09:45:11Z</time>
      </trkpt>
      <trkpt lat="46.31535" lon="0.30144">
        <ele>140.84763704147</ele>
        <time>2021-03-07T09:45:14Z</time>
      </trkpt>
      <trkpt lat="46.31538" lon="0.30145">
        <ele>141.19207262341</ele>
        <time>2021-03-07T09:45:16Z</time>
      </trkpt>
      <trkpt lat="46.3154" lon="0.30146">
        <ele>141.68581420276</ele>
        <time>2021-03-07T09:45:18Z</time>
      </trkpt>
      <trkpt lat="46.31542" lon="0.30147">
        <ele>141.36500401143</ele>
        <time>2021-03-07T09:45:20Z</time>
      </trkpt>
      <trkpt lat="46.31544" lon="0.30148">
        <ele>141.80650951341</ele>
        <time>2021-03-07T09:45:23Z</time>
      </trkpt>
      <trkpt lat="46.31546" lon="0.30148">
        <ele>142.36115559936</ele>
        <time>2021-03-07T09:45:25Z</time>
      </trkpt>
      <trkpt lat="46.31548" lon="0.30149">
        <ele>142.72175574303</ele>
        <time>2021-03-07T09:45:27Z</time>
      </trkpt>
      <trkpt lat="46.31551" lon="0.3015">
        <ele>143.06299708597</ele>
        <time>2021-03-07T09:45:30Z</time>
      </trkpt>
      <trkpt lat="46.31553" lon="0.30151">
        <ele>143.14716158248</ele>
        <time>2021-03-07T09:45:33Z</time>
      </trkpt>
      <trkpt lat="46.31556" lon="0.30153">
        <ele>143.48683764599</ele>
        <time>2021-03-07T09:45:36Z</time>
      </trkpt>
      <trkpt lat="46.31558" lon="0.30154">
        <ele>143.50592773594</ele>
        <time>2021-03-07T09:45:38Z</time>
      </trkpt>
      <trkpt lat="46.3156" lon="0.30154">
        <ele>143.90321549773</ele>
        <time>2021-03-07T09:45:40Z</time>
      </trkpt>
      <trkpt lat="46.31562" lon="0.30156">
        <ele>144.28289378714</ele>
        <time>2021-03-07T09:45:43Z</time>
      </trkpt>
      <trkpt lat="46.31564" lon="0.30159">
        <ele>144.39137680642</ele>
        <time>2021-03-07T09:45:46Z</time>
      </trkpt>
      <trkpt lat="46.31566" lon="0.30161">
        <ele>144.42429454066</ele>
        <time>2021-03-07T09:45:48Z</time>
      </trkpt>
      <trkpt lat="46.31568" lon="0.30162">
        <ele>144.89403610118</ele>
        <time>2021-03-07T09:45:50Z</time>
      </trkpt>
      <trkpt lat="46.31569" lon="0.30163">
        <ele>144.94922898803</ele>
        <time>2021-03-07T09:45:52Z</time>
      </trkpt>
      <trkpt lat="46.31572" lon="0.30165">
        <ele>144.890799121</ele>
        <time>2021-03-07T09:45:54Z</time>
      </trkpt>
      <trkpt lat="46.31574" lon="0.30167">
        <ele>145.25685965829</ele>
        <time>2021-03-07T09:45:56Z</time>
      </trkpt>
      <trkpt lat="46.31576" lon="0.30168">
        <ele>145.23488481436</ele>
        <time>2021-03-07T09:45:59Z</time>
      </trkpt>
      <trkpt lat="46.31578" lon="0.30168">
        <ele>145.55008210242</ele>
        <time>2021-03-07T09:46:01Z</time>
      </trkpt>
      <trkpt lat="46.31579" lon="0.30169">
        <ele>145.74833132885</ele>
        <time>2021-03-07T09:46:03Z</time>
      </trkpt>
      <trkpt lat="46.31582" lon="0.30171">
        <ele>145.02126413304</ele>
        <time>2021-03-07T09:46:05Z</time>
      </trkpt>
      <trkpt lat="46.31583" lon="0.30172">
        <ele>145.85323501658</ele>
        <time>2021-03-07T09:46:06Z</time>
      </trkpt>
      <trkpt lat="46.31585" lon="0.30173">
        <ele>146.4026914211</ele>
        <time>2021-03-07T09:46:09Z</time>
      </trkpt>
      <trkpt lat="46.31587" lon="0.30174">
        <ele>146.52481365297</ele>
        <time>2021-03-07T09:46:11Z</time>
      </trkpt>
      <trkpt lat="46.31589" lon="0.30177">
        <ele>146.26545017119</ele>
        <time>2021-03-07T09:46:13Z</time>
      </trkpt>
      <trkpt lat="46.31593" lon="0.30178">
        <ele>146.52555312868</ele>
        <time>2021-03-07T09:46:15Z</time>
      </trkpt>
      <trkpt lat="46.31595" lon="0.30179">
        <ele>146.88180082571</ele>
        <time>2021-03-07T09:46:17Z</time>
      </trkpt>
      <trkpt lat="46.31598" lon="0.30181">
        <ele>146.7117885761</ele>
        <time>2021-03-07T09:46:19Z</time>
      </trkpt>
      <trkpt lat="46.31599" lon="0.30183">
        <ele>146.79654885456</ele>
        <time>2021-03-07T09:46:21Z</time>
      </trkpt>
      <trkpt lat="46.31602" lon="0.30184">
        <ele>147.4704806963</ele>
        <time>2021-03-07T09:46:24Z</time>
      </trkpt>
      <trkpt lat="46.31604" lon="0.30185">
        <ele>146.97196834348</ele>
        <time>2021-03-07T09:46:26Z</time>
      </trkpt>
      <trkpt lat="46.31606" lon="0.30186">
        <ele>147.84536341485</ele>
        <time>2021-03-07T09:46:28Z</time>
      </trkpt>
      <trkpt lat="46.31609" lon="0.30187">
        <ele>147.72840509377</ele>
        <time>2021-03-07T09:46:30Z</time>
      </trkpt>
      <trkpt lat="46.31611" lon="0.30189">
        <ele>147.86964883283</ele>
        <time>2021-03-07T09:46:33Z</time>
      </trkpt>
      <trkpt lat="46.31613" lon="0.30189">
        <ele>147.54689639714</ele>
        <time>2021-03-07T09:46:35Z</time>
      </trkpt>
      <trkpt lat="46.31615" lon="0.3019">
        <ele>148.02835737728</ele>
        <time>2021-03-07T09:46:37Z</time>
      </trkpt>
      <trkpt lat="46.31617" lon="0.30192">
        <ele>147.87204268109</ele>
        <time>2021-03-07T09:46:39Z</time>
      </trkpt>
      <trkpt lat="46.31619" lon="0.30193">
        <ele>147.97850734275</ele>
        <time>2021-03-07T09:46:41Z</time>
      </trkpt>
      <trkpt lat="46.31621" lon="0.30195">
        <ele>148.44947738387</ele>
        <time>2021-03-07T09:46:43Z</time>
      </trkpt>
      <trkpt lat="46.31624" lon="0.30196">
        <ele>148.92923523672</ele>
        <time>2021-03-07T09:46:45Z</time>
      </trkpt>
      <trkpt lat="46.31626" lon="0.30197">
        <ele>149.25634128973</ele>
        <time>2021-03-07T09:46:47Z</time>
      </trkpt>
      <trkpt lat="46.31628" lon="0.30199">
        <ele>149.01794859394</ele>
        <time>2021-03-07T09:46:49Z</time>
      </trkpt>
      <trkpt lat="46.31631" lon="0.30201">
        <ele>149.15081639495</ele>
        <time>2021-03-07T09:46:51Z</time>
      </trkpt>
      <trkpt lat="46.31633" lon="0.30203">
        <ele>148.94583733566</ele>
        <time>2021-03-07T09:46:53Z</time>
      </trkpt>
      <trkpt lat="46.31636" lon="0.30204">
        <ele>149.6799394777</ele>
        <time>2021-03-07T09:46:55Z</time>
      </trkpt>
      <trkpt lat="46.31638" lon="0.30206">
        <ele>150.24089384079</ele>
        <time>2021-03-07T09:46:57Z</time>
      </trkpt>
      <trkpt lat="46.31639" lon="0.30207">
        <ele>149.44990431704</ele>
        <time>2021-03-07T09:46:59Z</time>
      </trkpt>
      <trkpt lat="46.31642" lon="0.30209">
        <ele>150.29670532048</ele>
        <time>2021-03-07T09:47:01Z</time>
      </trkpt>
      <trkpt lat="46.31643" lon="0.3021">
        <ele>150.52539823577</ele>
        <time>2021-03-07T09:47:02Z</time>
      </trkpt>
      <trkpt lat="46.31646" lon="0.30211">
        <ele>150.3438956188</ele>
        <time>2021-03-07T09:47:04Z</time>
      </trkpt>
      <trkpt lat="46.31647" lon="0.30212">
        <ele>150.57520622388</ele>
        <time>2021-03-07T09:47:06Z</time>
      </trkpt>
      <trkpt lat="46.3165" lon="0.30213">
        <ele>151.361449752</ele>
        <time>2021-03-07T09:47:08Z</time>
      </trkpt>
      <trkpt lat="46.31651" lon="0.30215">
        <ele>151.08190540783</ele>
        <time>2021-03-07T09:47:10Z</time>
      </trkpt>
      <trkpt lat="46.31653" lon="0.30217">
        <ele>151.26479896996</ele>
        <time>2021-03-07T09:47:12Z</time>
      </trkpt>
      <trkpt lat="46.31655" lon="0.30218">
        <ele>151.39600599092</ele>
        <time>2021-03-07T09:47:14Z</time>
      </trkpt>
      <trkpt lat="46.31657" lon="0.30219">
        <ele>151.24526643753</ele>
        <time>2021-03-07T09:47:16Z</time>
      </trkpt>
      <trkpt lat="46.31659" lon="0.30219">
        <ele>151.49515532516</ele>
        <time>2021-03-07T09:47:18Z</time>
      </trkpt>
      <trkpt lat="46.31662" lon="0.3022">
        <ele>151.7117913859</ele>
        <time>2021-03-07T09:47:20Z</time>
      </trkpt>
      <trkpt lat="46.31664" lon="0.30221">
        <ele>151.69168030377</ele>
        <time>2021-03-07T09:47:22Z</time>
      </trkpt>
      <trkpt lat="46.31667" lon="0.30221">
        <ele>151.97310209554</ele>
        <time>2021-03-07T09:47:24Z</time>
      </trkpt>
      <trkpt lat="46.31669" lon="0.30223">
        <ele>152.02714940347</ele>
        <time>2021-03-07T09:47:26Z</time>
      </trkpt>
      <trkpt lat="46.31672" lon="0.30223">
        <ele>152.08010583371</ele>
        <time>2021-03-07T09:47:28Z</time>
      </trkpt>
      <trkpt lat="46.31675" lon="0.30224">
        <ele>152.25631634519</ele>
        <time>2021-03-07T09:47:30Z</time>
      </trkpt>
      <trkpt lat="46.31677" lon="0.30224">
        <ele>152.35928121116</ele>
        <time>2021-03-07T09:47:32Z</time>
      </trkpt>
      <trkpt lat="46.31679" lon="0.30225">
        <ele>152.69564392697</ele>
        <time>2021-03-07T09:47:34Z</time>
      </trkpt>
      <trkpt lat="46.31682" lon="0.30225">
        <ele>152.29143693671</ele>
        <time>2021-03-07T09:47:36Z</time>
      </trkpt>
      <trkpt lat="46.31684" lon="0.30226">
        <ele>152.61881433241</ele>
        <time>2021-03-07T09:47:38Z</time>
      </trkpt>
      <trkpt lat="46.31686" lon="0.30227">
        <ele>153.06857653987</ele>
        <time>2021-03-07T09:47:41Z</time>
      </trkpt>
      <trkpt lat="46.31689" lon="0.30228">
        <ele>152.39839127939</ele>
        <time>2021-03-07T09:47:43Z</time>
      </trkpt>
      <trkpt lat="46.31691" lon="0.30227">
        <ele>152.75844027288</ele>
        <time>2021-03-07T09:47:45Z</time>
      </trkpt>
      <trkpt lat="46.31693" lon="0.30228">
        <ele>153.1801613709</ele>
        <time>2021-03-07T09:47:47Z</time>
      </trkpt>
      <trkpt lat="46.31696" lon="0.30228">
        <ele>152.55676785111</ele>
        <time>2021-03-07T09:47:49Z</time>
      </trkpt>
      <trkpt lat="46.31698" lon="0.30229">
        <ele>153.17002657335</ele>
        <time>2021-03-07T09:47:51Z</time>
      </trkpt>
      <trkpt lat="46.317" lon="0.30229">
        <ele>153.85277303588</ele>
        <time>2021-03-07T09:47:53Z</time>
      </trkpt>
      <trkpt lat="46.31703" lon="0.30231">
        <ele>153.04805907235</ele>
        <time>2021-03-07T09:47:55Z</time>
      </trkpt>
      <trkpt lat="46.31705" lon="0.30232">
        <ele>153.76805429719</ele>
        <time>2021-03-07T09:47:57Z</time>
      </trkpt>
      <trkpt lat="46.31707" lon="0.30232">
        <ele>154.44037426729</ele>
        <time>2021-03-07T09:47:59Z</time>
      </trkpt>
      <trkpt lat="46.3171" lon="0.30233">
        <ele>153.57255410217</ele>
        <time>2021-03-07T09:48:01Z</time>
      </trkpt>
      <trkpt lat="46.31713" lon="0.30234">
        <ele>154.10550499987</ele>
        <time>2021-03-07T09:48:04Z</time>
      </trkpt>
      <trkpt lat="46.31716" lon="0.30235">
        <ele>154.02183933649</ele>
        <time>2021-03-07T09:48:06Z</time>
      </trkpt>
      <trkpt lat="46.31718" lon="0.30236">
        <ele>154.17158505879</ele>
        <time>2021-03-07T09:48:07Z</time>
      </trkpt>
      <trkpt lat="46.31721" lon="0.30238">
        <ele>154.2795276409</ele>
        <time>2021-03-07T09:48:09Z</time>
      </trkpt>
      <trkpt lat="46.31723" lon="0.30239">
        <ele>154.54205846507</ele>
        <time>2021-03-07T09:48:11Z</time>
      </trkpt>
      <trkpt lat="46.31725" lon="0.30241">
        <ele>154.30107242055</ele>
        <time>2021-03-07T09:48:13Z</time>
      </trkpt>
      <trkpt lat="46.31727" lon="0.30243">
        <ele>154.34562769812</ele>
        <time>2021-03-07T09:48:15Z</time>
      </trkpt>
      <trkpt lat="46.3173" lon="0.30244">
        <ele>154.59275177866</ele>
        <time>2021-03-07T09:48:17Z</time>
      </trkpt>
      <trkpt lat="46.31731" lon="0.30246">
        <ele>155.15613575187</ele>
        <time>2021-03-07T09:48:19Z</time>
      </trkpt>
      <trkpt lat="46.31734" lon="0.30248">
        <ele>154.51917870156</ele>
        <time>2021-03-07T09:48:21Z</time>
      </trkpt>
      <trkpt lat="46.31736" lon="0.30248">
        <ele>155.00928651448</ele>
        <time>2021-03-07T09:48:23Z</time>
      </trkpt>
      <trkpt lat="46.31738" lon="0.30249">
        <ele>155.00188331865</ele>
        <time>2021-03-07T09:48:25Z</time>
      </trkpt>
      <trkpt lat="46.31741" lon="0.30251">
        <ele>155.22449346073</ele>
        <time>2021-03-07T09:48:27Z</time>
      </trkpt>
      <trkpt lat="46.31743" lon="0.30252">
        <ele>154.97103748191</ele>
        <time>2021-03-07T09:48:29Z</time>
      </trkpt>
      <trkpt lat="46.31746" lon="0.30254">
        <ele>154.32335662935</ele>
        <time>2021-03-07T09:48:31Z</time>
      </trkpt>
      <trkpt lat="46.31749" lon="0.30255">
        <ele>155.15841902606</ele>
        <time>2021-03-07T09:48:33Z</time>
      </trkpt>
      <trkpt lat="46.31751" lon="0.30254">
        <ele>155.02554884274</ele>
        <time>2021-03-07T09:48:34Z</time>
      </trkpt>
      <trkpt lat="46.31753" lon="0.30255">
        <ele>155.3791988166</ele>
        <time>2021-03-07T09:48:36Z</time>
      </trkpt>
      <trkpt lat="46.31756" lon="0.30256">
        <ele>155.97624585684</ele>
        <time>2021-03-07T09:48:38Z</time>
      </trkpt>
      <trkpt lat="46.31759" lon="0.30257">
        <ele>155.76282463968</ele>
        <time>2021-03-07T09:48:40Z</time>
      </trkpt>
      <trkpt lat="46.31762" lon="0.30257">
        <ele>154.76312824432</ele>
        <time>2021-03-07T09:48:42Z</time>
      </trkpt>
      <trkpt lat="46.31765" lon="0.30258">
        <ele>155.32670670748</ele>
        <time>2021-03-07T09:48:44Z</time>
      </trkpt>
      <trkpt lat="46.31767" lon="0.3026">
        <ele>155.93525370676</ele>
        <time>2021-03-07T09:48:46Z</time>
      </trkpt>
      <trkpt lat="46.3177" lon="0.3026">
        <ele>155.78093862999</ele>
        <time>2021-03-07T09:48:49Z</time>
      </trkpt>
      <trkpt lat="46.31772" lon="0.30261">
        <ele>156.25792053435</ele>
        <time>2021-03-07T09:48:51Z</time>
      </trkpt>
      <trkpt lat="46.31774" lon="0.30262">
        <ele>156.10553397518</ele>
        <time>2021-03-07T09:48:53Z</time>
      </trkpt>
      <trkpt lat="46.31778" lon="0.30263">
        <ele>156.00461802632</ele>
        <time>2021-03-07T09:48:56Z</time>
      </trkpt>
      <trkpt lat="46.31781" lon="0.30264">
        <ele>156.2048685411</ele>
        <time>2021-03-07T09:48:58Z</time>
      </trkpt>
      <trkpt lat="46.31783" lon="0.30264">
        <ele>156.50437245145</ele>
        <time>2021-03-07T09:48:59Z</time>
      </trkpt>
      <trkpt lat="46.31784" lon="0.30266">
        <ele>156.94895137101</ele>
        <time>2021-03-07T09:49:01Z</time>
      </trkpt>
      <trkpt lat="46.31786" lon="0.30268">
        <ele>156.01235136017</ele>
        <time>2021-03-07T09:49:03Z</time>
      </trkpt>
      <trkpt lat="46.31788" lon="0.3027">
        <ele>156.42775059864</ele>
        <time>2021-03-07T09:49:05Z</time>
      </trkpt>
      <trkpt lat="46.3179" lon="0.30271">
        <ele>156.73181406502</ele>
        <time>2021-03-07T09:49:07Z</time>
      </trkpt>
      <trkpt lat="46.31793" lon="0.30272">
        <ele>157.38283750508</ele>
        <time>2021-03-07T09:49:09Z</time>
      </trkpt>
      <trkpt lat="46.31795" lon="0.30272">
        <ele>156.04720613547</ele>
        <time>2021-03-07T09:49:11Z</time>
      </trkpt>
      <trkpt lat="46.31797" lon="0.30273">
        <ele>156.8831574088</ele>
        <time>2021-03-07T09:49:12Z</time>
      </trkpt>
      <trkpt lat="46.31799" lon="0.30275">
        <ele>157.42606479861</ele>
        <time>2021-03-07T09:49:14Z</time>
      </trkpt>
      <trkpt lat="46.31801" lon="0.30276">
        <ele>156.52683985326</ele>
        <time>2021-03-07T09:49:16Z</time>
      </trkpt>
      <trkpt lat="46.31804" lon="0.30277">
        <ele>156.75163272861</ele>
        <time>2021-03-07T09:49:18Z</time>
      </trkpt>
      <trkpt lat="46.31807" lon="0.30278">
        <ele>156.86182915792</ele>
        <time>2021-03-07T09:49:20Z</time>
      </trkpt>
      <trkpt lat="46.3181" lon="0.3028">
        <ele>157.37651311792</ele>
        <time>2021-03-07T09:49:22Z</time>
      </trkpt>
      <trkpt lat="46.31812" lon="0.30281">
        <ele>156.31836311519</ele>
        <time>2021-03-07T09:49:24Z</time>
      </trkpt>
      <trkpt lat="46.31815" lon="0.30283">
        <ele>157.58427734859</ele>
        <time>2021-03-07T09:49:26Z</time>
      </trkpt>
      <trkpt lat="46.31817" lon="0.30285">
        <ele>157.36652645655</ele>
        <time>2021-03-07T09:49:28Z</time>
      </trkpt>
      <trkpt lat="46.3182" lon="0.30286">
        <ele>158.29158867896</ele>
        <time>2021-03-07T09:49:30Z</time>
      </trkpt>
      <trkpt lat="46.31823" lon="0.30286">
        <ele>157.84699985012</ele>
        <time>2021-03-07T09:49:32Z</time>
      </trkpt>
      <trkpt lat="46.31825" lon="0.30285">
        <ele>157.74277177732</ele>
        <time>2021-03-07T09:49:34Z</time>
      </trkpt>
      <trkpt lat="46.31828" lon="0.30284">
        <ele>158.30180796143</ele>
        <time>2021-03-07T09:49:36Z</time>
      </trkpt>
      <trkpt lat="46.31831" lon="0.30282">
        <ele>157.65545048937</ele>
        <time>2021-03-07T09:49:39Z</time>
      </trkpt>
      <trkpt lat="46.31832" lon="0.30279">
        <ele>158.1266706083</ele>
        <time>2021-03-07T09:49:41Z</time>
      </trkpt>
      <trkpt lat="46.31835" lon="0.30276">
        <ele>158.34715322871</ele>
        <time>2021-03-07T09:49:43Z</time>
      </trkpt>
      <trkpt lat="46.31836" lon="0.30273">
        <ele>158.10962935071</ele>
        <time>2021-03-07T09:49:45Z</time>
      </trkpt>
      <trkpt lat="46.31837" lon="0.30271">
        <ele>158.12873129919</ele>
        <time>2021-03-07T09:49:47Z</time>
      </trkpt>
      <trkpt lat="46.31839" lon="0.30268">
        <ele>158.99653101899</ele>
        <time>2021-03-07T09:49:49Z</time>
      </trkpt>
      <trkpt lat="46.3184" lon="0.30265">
        <ele>157.99159555044</ele>
        <time>2021-03-07T09:49:51Z</time>
      </trkpt>
      <trkpt lat="46.31842" lon="0.30263">
        <ele>157.89995479584</ele>
        <time>2021-03-07T09:49:52Z</time>
      </trkpt>
      <trkpt lat="46.31843" lon="0.3026">
        <ele>157.57995218318</ele>
        <time>2021-03-07T09:49:54Z</time>
      </trkpt>
      <trkpt lat="46.31844" lon="0.30257">
        <ele>157.50856994186</ele>
        <time>2021-03-07T09:49:56Z</time>
      </trkpt>
      <trkpt lat="46.31845" lon="0.30253">
        <ele>158.3808329422</ele>
        <time>2021-03-07T09:49:58Z</time>
      </trkpt>
      <trkpt lat="46.31846" lon="0.3025">
        <ele>158.10869632661</ele>
        <time>2021-03-07T09:50:00Z</time>
      </trkpt>
      <trkpt lat="46.31847" lon="0.30246">
        <ele>158.17589688301</ele>
        <time>2021-03-07T09:50:02Z</time>
      </trkpt>
      <trkpt lat="46.31849" lon="0.30242">
        <ele>158.03279135376</ele>
        <time>2021-03-07T09:50:04Z</time>
      </trkpt>
      <trkpt lat="46.31849" lon="0.30239">
        <ele>157.92562201247</ele>
        <time>2021-03-07T09:50:05Z</time>
      </trkpt>
      <trkpt lat="46.3185" lon="0.30236">
        <ele>157.72413324285</ele>
        <time>2021-03-07T09:50:07Z</time>
      </trkpt>
      <trkpt lat="46.31852" lon="0.30233">
        <ele>158.21580255777</ele>
        <time>2021-03-07T09:50:09Z</time>
      </trkpt>
      <trkpt lat="46.31853" lon="0.3023">
        <ele>158.47193988971</ele>
        <time>2021-03-07T09:50:11Z</time>
      </trkpt>
      <trkpt lat="46.31855" lon="0.30227">
        <ele>158.14442190994</ele>
        <time>2021-03-07T09:50:12Z</time>
      </trkpt>
      <trkpt lat="46.31854" lon="0.30224">
        <ele>157.58119773772</ele>
        <time>2021-03-07T09:50:14Z</time>
      </trkpt>
      <trkpt lat="46.31856" lon="0.3022">
        <ele>157.47479730099</ele>
        <time>2021-03-07T09:50:16Z</time>
      </trkpt>
      <trkpt lat="46.31857" lon="0.30218">
        <ele>157.08314732276</ele>
        <time>2021-03-07T09:50:17Z</time>
      </trkpt>
      <trkpt lat="46.31857" lon="0.30215">
        <ele>157.19619636796</ele>
        <time>2021-03-07T09:50:19Z</time>
      </trkpt>
      <trkpt lat="46.31859" lon="0.30212">
        <ele>157.64222399518</ele>
        <time>2021-03-07T09:50:21Z</time>
      </trkpt>
      <trkpt lat="46.31861" lon="0.30209">
        <ele>157.45900753327</ele>
        <time>2021-03-07T09:50:23Z</time>
      </trkpt>
      <trkpt lat="46.31863" lon="0.30206">
        <ele>157.82523802482</ele>
        <time>2021-03-07T09:50:25Z</time>
      </trkpt>
      <trkpt lat="46.31866" lon="0.30202">
        <ele>158.00609831698</ele>
        <time>2021-03-07T09:50:27Z</time>
      </trkpt>
      <trkpt lat="46.31867" lon="0.30199">
        <ele>158.15309588984</ele>
        <time>2021-03-07T09:50:29Z</time>
      </trkpt>
      <trkpt lat="46.31868" lon="0.30197">
        <ele>158.26321936399</ele>
        <time>2021-03-07T09:50:31Z</time>
      </trkpt>
      <trkpt lat="46.31871" lon="0.30194">
        <ele>158.5556407189</ele>
        <time>2021-03-07T09:50:33Z</time>
      </trkpt>
      <trkpt lat="46.31872" lon="0.30192">
        <ele>158.57494670339</ele>
        <time>2021-03-07T09:50:34Z</time>
      </trkpt>
      <trkpt lat="46.31874" lon="0.3019">
        <ele>158.15546383616</ele>
        <time>2021-03-07T09:50:36Z</time>
      </trkpt>
      <trkpt lat="46.31875" lon="0.30187">
        <ele>158.35084974859</ele>
        <time>2021-03-07T09:50:38Z</time>
      </trkpt>
      <trkpt lat="46.31878" lon="0.30185">
        <ele>158.1532269353</ele>
        <time>2021-03-07T09:50:40Z</time>
      </trkpt>
      <trkpt lat="46.3188" lon="0.30182">
        <ele>158.55731603689</ele>
        <time>2021-03-07T09:50:42Z</time>
      </trkpt>
      <trkpt lat="46.31882" lon="0.30179">
        <ele>158.43309945054</ele>
        <time>2021-03-07T09:50:44Z</time>
      </trkpt>
      <trkpt lat="46.31884" lon="0.30175">
        <ele>157.90399209596</ele>
        <time>2021-03-07T09:50:46Z</time>
      </trkpt>
      <trkpt lat="46.31886" lon="0.30173">
        <ele>158.29559291806</ele>
        <time>2021-03-07T09:50:48Z</time>
      </trkpt>
      <trkpt lat="46.31888" lon="0.3017">
        <ele>158.10725999624</ele>
        <time>2021-03-07T09:50:49Z</time>
      </trkpt>
      <trkpt lat="46.31889" lon="0.30168">
        <ele>158.09627206437</ele>
        <time>2021-03-07T09:50:51Z</time>
      </trkpt>
      <trkpt lat="46.3189" lon="0.30165">
        <ele>157.90666414332</ele>
        <time>2021-03-07T09:50:53Z</time>
      </trkpt>
      <trkpt lat="46.31892" lon="0.30161">
        <ele>157.65701331105</ele>
        <time>2021-03-07T09:50:55Z</time>
      </trkpt>
      <trkpt lat="46.31894" lon="0.30159">
        <ele>158.07012946997</ele>
        <time>2021-03-07T09:50:57Z</time>
      </trkpt>
      <trkpt lat="46.31896" lon="0.30155">
        <ele>158.35207097139</ele>
        <time>2021-03-07T09:50:59Z</time>
      </trkpt>
      <trkpt lat="46.31898" lon="0.30152">
        <ele>158.2691207258</ele>
        <time>2021-03-07T09:51:01Z</time>
      </trkpt>
      <trkpt lat="46.31899" lon="0.30149">
        <ele>158.39943551179</ele>
        <time>2021-03-07T09:51:03Z</time>
      </trkpt>
      <trkpt lat="46.31901" lon="0.30145">
        <ele>159.02725984342</ele>
        <time>2021-03-07T09:51:05Z</time>
      </trkpt>
      <trkpt lat="46.31902" lon="0.30142">
        <ele>158.79923065472</ele>
        <time>2021-03-07T09:51:07Z</time>
      </trkpt>
      <trkpt lat="46.31903" lon="0.3014">
        <ele>158.52038000431</ele>
        <time>2021-03-07T09:51:09Z</time>
      </trkpt>
      <trkpt lat="46.31905" lon="0.30136">
        <ele>158.40116432309</ele>
        <time>2021-03-07T09:51:11Z</time>
      </trkpt>
      <trkpt lat="46.31906" lon="0.30133">
        <ele>157.9466837151</ele>
        <time>2021-03-07T09:51:13Z</time>
      </trkpt>
      <trkpt lat="46.31908" lon="0.3013">
        <ele>157.91502554715</ele>
        <time>2021-03-07T09:51:15Z</time>
      </trkpt>
      <trkpt lat="46.3191" lon="0.30127">
        <ele>158.24640646949</ele>
        <time>2021-03-07T09:51:17Z</time>
      </trkpt>
      <trkpt lat="46.3191" lon="0.30123">
        <ele>157.63571719173</ele>
        <time>2021-03-07T09:51:19Z</time>
      </trkpt>
      <trkpt lat="46.31913" lon="0.3012">
        <ele>157.82944262028</ele>
        <time>2021-03-07T09:51:21Z</time>
      </trkpt>
      <trkpt lat="46.31915" lon="0.30118">
        <ele>157.73459078372</ele>
        <time>2021-03-07T09:51:23Z</time>
      </trkpt>
      <trkpt lat="46.31916" lon="0.30115">
        <ele>157.93709929381</ele>
        <time>2021-03-07T09:51:25Z</time>
      </trkpt>
      <trkpt lat="46.31918" lon="0.30112">
        <ele>158.21824039146</ele>
        <time>2021-03-07T09:51:27Z</time>
      </trkpt>
      <trkpt lat="46.31919" lon="0.30109">
        <ele>158.05205665901</ele>
        <time>2021-03-07T09:51:29Z</time>
      </trkpt>
      <trkpt lat="46.31921" lon="0.30106">
        <ele>158.13697470725</ele>
        <time>2021-03-07T09:51:31Z</time>
      </trkpt>
      <trkpt lat="46.31924" lon="0.30103">
        <ele>158.05329881888</ele>
        <time>2021-03-07T09:51:33Z</time>
      </trkpt>
      <trkpt lat="46.31925" lon="0.301">
        <ele>157.79844779707</ele>
        <time>2021-03-07T09:51:35Z</time>
      </trkpt>
      <trkpt lat="46.31927" lon="0.30098">
        <ele>158.28406657372</ele>
        <time>2021-03-07T09:51:37Z</time>
      </trkpt>
      <trkpt lat="46.31929" lon="0.30096">
        <ele>158.00158701837</ele>
        <time>2021-03-07T09:51:39Z</time>
      </trkpt>
      <trkpt lat="46.31931" lon="0.30093">
        <ele>157.80170848407</ele>
        <time>2021-03-07T09:51:41Z</time>
      </trkpt>
      <trkpt lat="46.31933" lon="0.30091">
        <ele>158.05571568944</ele>
        <time>2021-03-07T09:51:43Z</time>
      </trkpt>
      <trkpt lat="46.31935" lon="0.30088">
        <ele>158.10388337262</ele>
        <time>2021-03-07T09:51:45Z</time>
      </trkpt>
      <trkpt lat="46.31937" lon="0.30085">
        <ele>157.94177659228</ele>
        <time>2021-03-07T09:51:47Z</time>
      </trkpt>
      <trkpt lat="46.31939" lon="0.30084">
        <ele>157.26954688877</ele>
        <time>2021-03-07T09:51:49Z</time>
      </trkpt>
      <trkpt lat="46.3194" lon="0.30081">
        <ele>157.05694980361</ele>
        <time>2021-03-07T09:51:50Z</time>
      </trkpt>
      <trkpt lat="46.31942" lon="0.30079">
        <ele>157.90751548111</ele>
        <time>2021-03-07T09:51:52Z</time>
      </trkpt>
      <trkpt lat="46.31944" lon="0.30077">
        <ele>158.15534924436</ele>
        <time>2021-03-07T09:51:54Z</time>
      </trkpt>
      <trkpt lat="46.31946" lon="0.30074">
        <ele>158.23040697351</ele>
        <time>2021-03-07T09:51:56Z</time>
      </trkpt>
      <trkpt lat="46.31948" lon="0.30071">
        <ele>157.73926402722</ele>
        <time>2021-03-07T09:51:58Z</time>
      </trkpt>
      <trkpt lat="46.31949" lon="0.30069">
        <ele>156.94391776249</ele>
        <time>2021-03-07T09:52:00Z</time>
      </trkpt>
      <trkpt lat="46.31951" lon="0.30066">
        <ele>157.48147215601</ele>
        <time>2021-03-07T09:52:02Z</time>
      </trkpt>
      <trkpt lat="46.31952" lon="0.30064">
        <ele>158.11816697754</ele>
        <time>2021-03-07T09:52:04Z</time>
      </trkpt>
      <trkpt lat="46.31955" lon="0.30061">
        <ele>157.07705650665</ele>
        <time>2021-03-07T09:52:06Z</time>
      </trkpt>
      <trkpt lat="46.31956" lon="0.30058">
        <ele>157.75880645681</ele>
        <time>2021-03-07T09:52:08Z</time>
      </trkpt>
      <trkpt lat="46.31958" lon="0.30056">
        <ele>157.3804850895</ele>
        <time>2021-03-07T09:52:10Z</time>
      </trkpt>
      <trkpt lat="46.3196" lon="0.30053">
        <ele>157.96340488084</ele>
        <time>2021-03-07T09:52:12Z</time>
      </trkpt>
      <trkpt lat="46.31962" lon="0.3005">
        <ele>157.66082048416</ele>
        <time>2021-03-07T09:52:14Z</time>
      </trkpt>
      <trkpt lat="46.31964" lon="0.30048">
        <ele>157.78591335751</ele>
        <time>2021-03-07T09:52:16Z</time>
      </trkpt>
      <trkpt lat="46.31966" lon="0.30045">
        <ele>157.70594372693</ele>
        <time>2021-03-07T09:52:18Z</time>
      </trkpt>
      <trkpt lat="46.31968" lon="0.30043">
        <ele>157.61649747938</ele>
        <time>2021-03-07T09:52:20Z</time>
      </trkpt>
      <trkpt lat="46.31969" lon="0.3004">
        <ele>157.19064470567</ele>
        <time>2021-03-07T09:52:22Z</time>
      </trkpt>
      <trkpt lat="46.3197" lon="0.30038">
        <ele>157.21178646386</ele>
        <time>2021-03-07T09:52:23Z</time>
      </trkpt>
      <trkpt lat="46.31972" lon="0.30035">
        <ele>157.09178653453</ele>
        <time>2021-03-07T09:52:25Z</time>
      </trkpt>
      <trkpt lat="46.31974" lon="0.30031">
        <ele>157.44412125181</ele>
        <time>2021-03-07T09:52:28Z</time>
      </trkpt>
      <trkpt lat="46.31977" lon="0.30029">
        <ele>157.81216511969</ele>
        <time>2021-03-07T09:52:30Z</time>
      </trkpt>
      <trkpt lat="46.31979" lon="0.30027">
        <ele>158.07378350757</ele>
        <time>2021-03-07T09:52:32Z</time>
      </trkpt>
      <trkpt lat="46.3198" lon="0.30025">
        <ele>157.61376352329</ele>
        <time>2021-03-07T09:52:33Z</time>
      </trkpt>
      <trkpt lat="46.31981" lon="0.30022">
        <ele>157.72351768799</ele>
        <time>2021-03-07T09:52:37Z</time>
      </trkpt>
      <trkpt lat="46.31982" lon="0.30019">
        <ele>157.81402529124</ele>
        <time>2021-03-07T09:52:40Z</time>
      </trkpt>
      <trkpt lat="46.31984" lon="0.30017">
        <ele>158.10806499608</ele>
        <time>2021-03-07T09:52:43Z</time>
      </trkpt>
      <trkpt lat="46.31985" lon="0.30015">
        <ele>157.53678281419</ele>
        <time>2021-03-07T09:52:45Z</time>
      </trkpt>
      <trkpt lat="46.31986" lon="0.30012">
        <ele>157.75887604617</ele>
        <time>2021-03-07T09:52:47Z</time>
      </trkpt>
      <trkpt lat="46.31987" lon="0.30009">
        <ele>158.1408173237</ele>
        <time>2021-03-07T09:52:49Z</time>
      </trkpt>
      <trkpt lat="46.31989" lon="0.30006">
        <ele>157.83844395541</ele>
        <time>2021-03-07T09:52:51Z</time>
      </trkpt>
      <trkpt lat="46.3199" lon="0.30004">
        <ele>158.10268096533</ele>
        <time>2021-03-07T09:52:53Z</time>
      </trkpt>
      <trkpt lat="46.31992" lon="0.30001">
        <ele>157.81412036996</ele>
        <time>2021-03-07T09:52:57Z</time>
      </trkpt>
      <trkpt lat="46.31993" lon="0.29998">
        <ele>158.0567683354</ele>
        <time>2021-03-07T09:52:59Z</time>
      </trkpt>
      <trkpt lat="46.31996" lon="0.29996">
        <ele>158.02057942003</ele>
        <time>2021-03-07T09:53:01Z</time>
      </trkpt>
      <trkpt lat="46.31998" lon="0.29992">
        <ele>158.15639528632</ele>
        <time>2021-03-07T09:53:03Z</time>
      </trkpt>
      <trkpt lat="46.32001" lon="0.29989">
        <ele>158.06193942949</ele>
        <time>2021-03-07T09:53:06Z</time>
      </trkpt>
      <trkpt lat="46.32003" lon="0.29986">
        <ele>157.92555477377</ele>
        <time>2021-03-07T09:53:08Z</time>
      </trkpt>
      <trkpt lat="46.32004" lon="0.29985">
        <ele>157.94056073856</ele>
        <time>2021-03-07T09:53:10Z</time>
      </trkpt>
      <trkpt lat="46.32007" lon="0.29982">
        <ele>157.65463313833</ele>
        <time>2021-03-07T09:53:12Z</time>
      </trkpt>
      <trkpt lat="46.32009" lon="0.2998">
        <ele>158.33342037816</ele>
        <time>2021-03-07T09:53:14Z</time>
      </trkpt>
      <trkpt lat="46.32012" lon="0.29977">
        <ele>158.06226037629</ele>
        <time>2021-03-07T09:53:16Z</time>
      </trkpt>
      <trkpt lat="46.32014" lon="0.29975">
        <ele>157.82679413538</ele>
        <time>2021-03-07T09:53:18Z</time>
      </trkpt>
      <trkpt lat="46.32017" lon="0.29971">
        <ele>157.7890495304</ele>
        <time>2021-03-07T09:53:20Z</time>
      </trkpt>
      <trkpt lat="46.32019" lon="0.29968">
        <ele>157.80151488353</ele>
        <time>2021-03-07T09:53:21Z</time>
      </trkpt>
      <trkpt lat="46.32021" lon="0.29965">
        <ele>158.22506487742</ele>
        <time>2021-03-07T09:53:23Z</time>
      </trkpt>
      <trkpt lat="46.32022" lon="0.29962">
        <ele>158.6637220066</ele>
        <time>2021-03-07T09:53:24Z</time>
      </trkpt>
      <trkpt lat="46.32025" lon="0.29959">
        <ele>158.1828306606</ele>
        <time>2021-03-07T09:53:26Z</time>
      </trkpt>
      <trkpt lat="46.32026" lon="0.29957">
        <ele>158.46640946995</ele>
        <time>2021-03-07T09:53:28Z</time>
      </trkpt>
      <trkpt lat="46.32028" lon="0.29954">
        <ele>158.30371677503</ele>
        <time>2021-03-07T09:53:29Z</time>
      </trkpt>
      <trkpt lat="46.32029" lon="0.29952">
        <ele>158.40357963555</ele>
        <time>2021-03-07T09:53:31Z</time>
      </trkpt>
      <trkpt lat="46.3203" lon="0.29949">
        <ele>158.17520362791</ele>
        <time>2021-03-07T09:53:33Z</time>
      </trkpt>
      <trkpt lat="46.32031" lon="0.29946">
        <ele>158.62630770821</ele>
        <time>2021-03-07T09:53:35Z</time>
      </trkpt>
      <trkpt lat="46.32033" lon="0.29944">
        <ele>158.57555963099</ele>
        <time>2021-03-07T09:53:37Z</time>
      </trkpt>
      <trkpt lat="46.32034" lon="0.29941">
        <ele>158.42940545455</ele>
        <time>2021-03-07T09:53:39Z</time>
      </trkpt>
      <trkpt lat="46.32036" lon="0.29939">
        <ele>158.21810420044</ele>
        <time>2021-03-07T09:53:41Z</time>
      </trkpt>
      <trkpt lat="46.32037" lon="0.29937">
        <ele>158.33593293931</ele>
        <time>2021-03-07T09:53:42Z</time>
      </trkpt>
      <trkpt lat="46.32038" lon="0.29933">
        <ele>158.45698090643</ele>
        <time>2021-03-07T09:53:44Z</time>
      </trkpt>
      <trkpt lat="46.3204" lon="0.29929">
        <ele>158.18660074938</ele>
        <time>2021-03-07T09:53:46Z</time>
      </trkpt>
      <trkpt lat="46.32041" lon="0.29925">
        <ele>157.93934438191</ele>
        <time>2021-03-07T09:53:48Z</time>
      </trkpt>
      <trkpt lat="46.32042" lon="0.29921">
        <ele>158.1623208262</ele>
        <time>2021-03-07T09:53:50Z</time>
      </trkpt>
      <trkpt lat="46.32042" lon="0.29918">
        <ele>157.96341245249</ele>
        <time>2021-03-07T09:53:51Z</time>
      </trkpt>
      <trkpt lat="46.32041" lon="0.29913">
        <ele>158.22472555097</ele>
        <time>2021-03-07T09:53:53Z</time>
      </trkpt>
      <trkpt lat="46.32042" lon="0.29909">
        <ele>157.66166571062</ele>
        <time>2021-03-07T09:53:55Z</time>
      </trkpt>
      <trkpt lat="46.32042" lon="0.29905">
        <ele>157.54171721544</ele>
        <time>2021-03-07T09:53:57Z</time>
      </trkpt>
      <trkpt lat="46.32042" lon="0.29901">
        <ele>157.32806040812</ele>
        <time>2021-03-07T09:53:59Z</time>
      </trkpt>
      <trkpt lat="46.32043" lon="0.29896">
        <ele>157.32571485825</ele>
        <time>2021-03-07T09:54:01Z</time>
      </trkpt>
      <trkpt lat="46.32043" lon="0.29893">
        <ele>157.38778123073</ele>
        <time>2021-03-07T09:54:02Z</time>
      </trkpt>
      <trkpt lat="46.32043" lon="0.29889">
        <ele>157.04819648713</ele>
        <time>2021-03-07T09:54:05Z</time>
      </trkpt>
      <trkpt lat="46.32043" lon="0.29886">
        <ele>156.66606666707</ele>
        <time>2021-03-07T09:54:07Z</time>
      </trkpt>
      <trkpt lat="46.32043" lon="0.29884">
        <ele>156.59884899482</ele>
        <time>2021-03-07T09:54:08Z</time>
      </trkpt>
      <trkpt lat="46.32043" lon="0.2988">
        <ele>156.4631556794</ele>
        <time>2021-03-07T09:54:10Z</time>
      </trkpt>
      <trkpt lat="46.32043" lon="0.29876">
        <ele>156.40156339295</ele>
        <time>2021-03-07T09:54:12Z</time>
      </trkpt>
      <trkpt lat="46.32042" lon="0.29873">
        <ele>156.14909504354</ele>
        <time>2021-03-07T09:54:14Z</time>
      </trkpt>
      <trkpt lat="46.32043" lon="0.2987">
        <ele>156.01898959558</ele>
        <time>2021-03-07T09:54:16Z</time>
      </trkpt>
      <trkpt lat="46.32043" lon="0.29867">
        <ele>155.81481440272</ele>
        <time>2021-03-07T09:54:18Z</time>
      </trkpt>
      <trkpt lat="46.32043" lon="0.29863">
        <ele>155.84685044736</ele>
        <time>2021-03-07T09:54:21Z</time>
      </trkpt>
      <trkpt lat="46.32042" lon="0.2986">
        <ele>155.16034900118</ele>
        <time>2021-03-07T09:54:23Z</time>
      </trkpt>
      <trkpt lat="46.32042" lon="0.29855">
        <ele>155.19024397712</ele>
        <time>2021-03-07T09:54:26Z</time>
      </trkpt>
      <trkpt lat="46.32043" lon="0.29851">
        <ele>155.01359259337</ele>
        <time>2021-03-07T09:54:28Z</time>
      </trkpt>
      <trkpt lat="46.32042" lon="0.29847">
        <ele>154.70356217492</ele>
        <time>2021-03-07T09:54:30Z</time>
      </trkpt>
      <trkpt lat="46.32042" lon="0.29842">
        <ele>154.50648152642</ele>
        <time>2021-03-07T09:54:32Z</time>
      </trkpt>
      <trkpt lat="46.32043" lon="0.29839">
        <ele>154.0553709995</ele>
        <time>2021-03-07T09:54:34Z</time>
      </trkpt>
      <trkpt lat="46.32044" lon="0.29836">
        <ele>154.16832154524</ele>
        <time>2021-03-07T09:54:36Z</time>
      </trkpt>
      <trkpt lat="46.32044" lon="0.29832">
        <ele>154.20486546308</ele>
        <time>2021-03-07T09:54:38Z</time>
      </trkpt>
      <trkpt lat="46.32045" lon="0.29828">
        <ele>153.61486818921</ele>
        <time>2021-03-07T09:54:40Z</time>
      </trkpt>
      <trkpt lat="46.32045" lon="0.29824">
        <ele>153.53875378054</ele>
        <time>2021-03-07T09:54:42Z</time>
      </trkpt>
      <trkpt lat="46.32045" lon="0.2982">
        <ele>153.50940212794</ele>
        <time>2021-03-07T09:54:44Z</time>
      </trkpt>
      <trkpt lat="46.32046" lon="0.29817">
        <ele>153.12095915433</ele>
        <time>2021-03-07T09:54:46Z</time>
      </trkpt>
      <trkpt lat="46.32047" lon="0.29814">
        <ele>153.17068961728</ele>
        <time>2021-03-07T09:54:48Z</time>
      </trkpt>
      <trkpt lat="46.32048" lon="0.29811">
        <ele>153.45113016199</ele>
        <time>2021-03-07T09:54:50Z</time>
      </trkpt>
      <trkpt lat="46.32048" lon="0.29807">
        <ele>153.38554896973</ele>
        <time>2021-03-07T09:54:52Z</time>
      </trkpt>
      <trkpt lat="46.32049" lon="0.29804">
        <ele>153.18594055809</ele>
        <time>2021-03-07T09:54:54Z</time>
      </trkpt>
      <trkpt lat="46.32049" lon="0.29801">
        <ele>153.04521152284</ele>
        <time>2021-03-07T09:54:56Z</time>
      </trkpt>
      <trkpt lat="46.32051" lon="0.29798">
        <ele>153.21941022668</ele>
        <time>2021-03-07T09:54:58Z</time>
      </trkpt>
      <trkpt lat="46.32051" lon="0.29795">
        <ele>152.91854174249</ele>
        <time>2021-03-07T09:55:00Z</time>
      </trkpt>
      <trkpt lat="46.32052" lon="0.29791">
        <ele>153.06261864956</ele>
        <time>2021-03-07T09:55:02Z</time>
      </trkpt>
      <trkpt lat="46.32053" lon="0.29787">
        <ele>153.01231904514</ele>
        <time>2021-03-07T09:55:04Z</time>
      </trkpt>
      <trkpt lat="46.32054" lon="0.29783">
        <ele>153.14081445057</ele>
        <time>2021-03-07T09:55:06Z</time>
      </trkpt>
      <trkpt lat="46.32055" lon="0.29779">
        <ele>153.48132165987</ele>
        <time>2021-03-07T09:55:08Z</time>
      </trkpt>
      <trkpt lat="46.32056" lon="0.29776">
        <ele>153.20851123333</ele>
        <time>2021-03-07T09:55:10Z</time>
      </trkpt>
      <trkpt lat="46.32057" lon="0.29773">
        <ele>153.42816180363</ele>
        <time>2021-03-07T09:55:12Z</time>
      </trkpt>
      <trkpt lat="46.32057" lon="0.2977">
        <ele>153.36368455924</ele>
        <time>2021-03-07T09:55:14Z</time>
      </trkpt>
      <trkpt lat="46.32058" lon="0.29767">
        <ele>153.26269382518</ele>
        <time>2021-03-07T09:55:16Z</time>
      </trkpt>
      <trkpt lat="46.32059" lon="0.29765">
        <ele>153.44470359944</ele>
        <time>2021-03-07T09:55:18Z</time>
      </trkpt>
      <trkpt lat="46.3206" lon="0.29761">
        <ele>153.25450167619</ele>
        <time>2021-03-07T09:55:20Z</time>
      </trkpt>
      <trkpt lat="46.32061" lon="0.29757">
        <ele>153.04507154133</ele>
        <time>2021-03-07T09:55:22Z</time>
      </trkpt>
      <trkpt lat="46.32062" lon="0.29755">
        <ele>153.13019251171</ele>
        <time>2021-03-07T09:55:23Z</time>
      </trkpt>
      <trkpt lat="46.32063" lon="0.2975">
        <ele>153.1501483554</ele>
        <time>2021-03-07T09:55:25Z</time>
      </trkpt>
      <trkpt lat="46.32063" lon="0.29747">
        <ele>153.32259029243</ele>
        <time>2021-03-07T09:55:27Z</time>
      </trkpt>
      <trkpt lat="46.32063" lon="0.29743">
        <ele>153.36104066111</ele>
        <time>2021-03-07T09:55:29Z</time>
      </trkpt>
      <trkpt lat="46.32064" lon="0.2974">
        <ele>153.3086585775</ele>
        <time>2021-03-07T09:55:31Z</time>
      </trkpt>
      <trkpt lat="46.32065" lon="0.29736">
        <ele>153.08483660687</ele>
        <time>2021-03-07T09:55:33Z</time>
      </trkpt>
      <trkpt lat="46.32066" lon="0.29733">
        <ele>153.34328675922</ele>
        <time>2021-03-07T09:55:35Z</time>
      </trkpt>
      <trkpt lat="46.32066" lon="0.29728">
        <ele>153.36562749464</ele>
        <time>2021-03-07T09:55:38Z</time>
      </trkpt>
      <trkpt lat="46.32067" lon="0.29725">
        <ele>153.15750157367</ele>
        <time>2021-03-07T09:55:40Z</time>
      </trkpt>
      <trkpt lat="46.32067" lon="0.29722">
        <ele>153.16373326164</ele>
        <time>2021-03-07T09:55:41Z</time>
      </trkpt>
      <trkpt lat="46.32067" lon="0.29718">
        <ele>153.00469111931</ele>
        <time>2021-03-07T09:55:43Z</time>
      </trkpt>
      <trkpt lat="46.32068" lon="0.29714">
        <ele>152.90068484284</ele>
        <time>2021-03-07T09:55:45Z</time>
      </trkpt>
      <trkpt lat="46.32069" lon="0.29709">
        <ele>153.03627760056</ele>
        <time>2021-03-07T09:55:47Z</time>
      </trkpt>
      <trkpt lat="46.32069" lon="0.29706">
        <ele>152.92100641038</ele>
        <time>2021-03-07T09:55:49Z</time>
      </trkpt>
      <trkpt lat="46.32071" lon="0.29702">
        <ele>152.88358940184</ele>
        <time>2021-03-07T09:55:51Z</time>
      </trkpt>
      <trkpt lat="46.32071" lon="0.29699">
        <ele>152.80140355695</ele>
        <time>2021-03-07T09:55:53Z</time>
      </trkpt>
      <trkpt lat="46.32072" lon="0.29695">
        <ele>152.80444476381</ele>
        <time>2021-03-07T09:55:55Z</time>
      </trkpt>
      <trkpt lat="46.32073" lon="0.29692">
        <ele>152.27724784892</ele>
        <time>2021-03-07T09:55:56Z</time>
      </trkpt>
      <trkpt lat="46.32074" lon="0.29689">
        <ele>152.63899991568</ele>
        <time>2021-03-07T09:55:58Z</time>
      </trkpt>
      <trkpt lat="46.32074" lon="0.29686">
        <ele>152.35623740312</ele>
        <time>2021-03-07T09:56:00Z</time>
      </trkpt>
      <trkpt lat="46.32075" lon="0.29683">
        <ele>152.71995969396</ele>
        <time>2021-03-07T09:56:02Z</time>
      </trkpt>
      <trkpt lat="46.32076" lon="0.29679">
        <ele>152.45042242855</ele>
        <time>2021-03-07T09:56:04Z</time>
      </trkpt>
      <trkpt lat="46.32076" lon="0.29674">
        <ele>152.51800546888</ele>
        <time>2021-03-07T09:56:06Z</time>
      </trkpt>
      <trkpt lat="46.32076" lon="0.2967">
        <ele>152.50368004199</ele>
        <time>2021-03-07T09:56:08Z</time>
      </trkpt>
      <trkpt lat="46.32077" lon="0.29667">
        <ele>152.71090470999</ele>
        <time>2021-03-07T09:56:10Z</time>
      </trkpt>
      <trkpt lat="46.32077" lon="0.29663">
        <ele>152.38058796525</ele>
        <time>2021-03-07T09:56:12Z</time>
      </trkpt>
      <trkpt lat="46.32078" lon="0.2966">
        <ele>152.39430545829</ele>
        <time>2021-03-07T09:56:14Z</time>
      </trkpt>
      <trkpt lat="46.32078" lon="0.29656">
        <ele>152.59203082323</ele>
        <time>2021-03-07T09:56:16Z</time>
      </trkpt>
      <trkpt lat="46.32079" lon="0.29652">
        <ele>152.51148920506</ele>
        <time>2021-03-07T09:56:18Z</time>
      </trkpt>
      <trkpt lat="46.32079" lon="0.29649">
        <ele>152.47311086301</ele>
        <time>2021-03-07T09:56:20Z</time>
      </trkpt>
      <trkpt lat="46.3208" lon="0.29646">
        <ele>152.31114338525</ele>
        <time>2021-03-07T09:56:22Z</time>
      </trkpt>
      <trkpt lat="46.3208" lon="0.29643">
        <ele>152.3758658208</ele>
        <time>2021-03-07T09:56:24Z</time>
      </trkpt>
      <trkpt lat="46.32081" lon="0.2964">
        <ele>152.01724781934</ele>
        <time>2021-03-07T09:56:26Z</time>
      </trkpt>
      <trkpt lat="46.32081" lon="0.29637">
        <ele>152.2500958303</ele>
        <time>2021-03-07T09:56:27Z</time>
      </trkpt>
      <trkpt lat="46.32082" lon="0.29633">
        <ele>152.35309631564</ele>
        <time>2021-03-07T09:56:29Z</time>
      </trkpt>
      <trkpt lat="46.32084" lon="0.29631">
        <ele>152.26107407361</ele>
        <time>2021-03-07T09:56:31Z</time>
      </trkpt>
      <trkpt lat="46.32086" lon="0.29629">
        <ele>152.3614749657</ele>
        <time>2021-03-07T09:56:32Z</time>
      </trkpt>
      <trkpt lat="46.32087" lon="0.29627">
        <ele>152.26881680079</ele>
        <time>2021-03-07T09:56:33Z</time>
      </trkpt>
      <trkpt lat="46.32089" lon="0.29624">
        <ele>152.34327966254</ele>
        <time>2021-03-07T09:56:35Z</time>
      </trkpt>
      <trkpt lat="46.3209" lon="0.29621">
        <ele>151.94882796146</ele>
        <time>2021-03-07T09:56:37Z</time>
      </trkpt>
      <trkpt lat="46.32092" lon="0.29619">
        <ele>152.00341806933</ele>
        <time>2021-03-07T09:56:39Z</time>
      </trkpt>
      <trkpt lat="46.32094" lon="0.29618">
        <ele>151.80036558677</ele>
        <time>2021-03-07T09:56:40Z</time>
      </trkpt>
      <trkpt lat="46.32096" lon="0.29615">
        <ele>151.9667013716</ele>
        <time>2021-03-07T09:56:42Z</time>
      </trkpt>
      <trkpt lat="46.32098" lon="0.29611">
        <ele>152.08803719468</ele>
        <time>2021-03-07T09:56:44Z</time>
      </trkpt>
      <trkpt lat="46.321" lon="0.29609">
        <ele>152.1909414921</ele>
        <time>2021-03-07T09:56:46Z</time>
      </trkpt>
      <trkpt lat="46.32102" lon="0.29606">
        <ele>152.10812495183</ele>
        <time>2021-03-07T09:56:48Z</time>
      </trkpt>
      <trkpt lat="46.32105" lon="0.29605">
        <ele>151.99299361277</ele>
        <time>2021-03-07T09:56:50Z</time>
      </trkpt>
      <trkpt lat="46.32108" lon="0.29602">
        <ele>151.59341373481</ele>
        <time>2021-03-07T09:56:53Z</time>
      </trkpt>
      <trkpt lat="46.32109" lon="0.296">
        <ele>151.70987200364</ele>
        <time>2021-03-07T09:56:54Z</time>
      </trkpt>
      <trkpt lat="46.32112" lon="0.29597">
        <ele>151.50840396807</ele>
        <time>2021-03-07T09:56:57Z</time>
      </trkpt>
      <trkpt lat="46.32115" lon="0.29595">
        <ele>151.54371344391</ele>
        <time>2021-03-07T09:56:59Z</time>
      </trkpt>
      <trkpt lat="46.32116" lon="0.29594">
        <ele>151.31341525353</ele>
        <time>2021-03-07T09:57:00Z</time>
      </trkpt>
      <trkpt lat="46.32118" lon="0.29593">
        <ele>151.40801739879</ele>
        <time>2021-03-07T09:57:01Z</time>
      </trkpt>
      <trkpt lat="46.3212" lon="0.2959">
        <ele>151.50014922582</ele>
        <time>2021-03-07T09:57:03Z</time>
      </trkpt>
      <trkpt lat="46.32122" lon="0.29589">
        <ele>151.22736552078</ele>
        <time>2021-03-07T09:57:05Z</time>
      </trkpt>
      <trkpt lat="46.32125" lon="0.29587">
        <ele>151.29915571958</ele>
        <time>2021-03-07T09:57:07Z</time>
      </trkpt>
      <trkpt lat="46.32128" lon="0.29585">
        <ele>151.42089879885</ele>
        <time>2021-03-07T09:57:09Z</time>
      </trkpt>
      <trkpt lat="46.3213" lon="0.29584">
        <ele>151.41632461362</ele>
        <time>2021-03-07T09:57:11Z</time>
      </trkpt>
      <trkpt lat="46.32133" lon="0.29584">
        <ele>151.88823220413</ele>
        <time>2021-03-07T09:57:13Z</time>
      </trkpt>
      <trkpt lat="46.32136" lon="0.29583">
        <ele>151.81271388941</ele>
        <time>2021-03-07T09:57:16Z</time>
      </trkpt>
      <trkpt lat="46.32138" lon="0.29584">
        <ele>152.52122510783</ele>
        <time>2021-03-07T09:57:18Z</time>
      </trkpt>
      <trkpt lat="46.32138" lon="0.29588">
        <ele>152.76202532463</ele>
        <time>2021-03-07T09:57:21Z</time>
      </trkpt>
      <trkpt lat="46.32139" lon="0.29591">
        <ele>153.11283839215</ele>
        <time>2021-03-07T09:57:23Z</time>
      </trkpt>
      <trkpt lat="46.3214" lon="0.29594">
        <ele>152.31940944027</ele>
        <time>2021-03-07T09:57:25Z</time>
      </trkpt>
      <trkpt lat="46.32142" lon="0.29598">
        <ele>152.28735291027</ele>
        <time>2021-03-07T09:57:27Z</time>
      </trkpt>
      <trkpt lat="46.32143" lon="0.29601">
        <ele>153.02632158436</ele>
        <time>2021-03-07T09:57:29Z</time>
      </trkpt>
      <trkpt lat="46.32144" lon="0.29604">
        <ele>153.04346870352</ele>
        <time>2021-03-07T09:57:31Z</time>
      </trkpt>
      <trkpt lat="46.32145" lon="0.29607">
        <ele>152.94015292078</ele>
        <time>2021-03-07T09:57:33Z</time>
      </trkpt>
      <trkpt lat="46.32146" lon="0.2961">
        <ele>152.8361676354</ele>
        <time>2021-03-07T09:57:36Z</time>
      </trkpt>
      <trkpt lat="46.32146" lon="0.29614">
        <ele>152.96293854341</ele>
        <time>2021-03-07T09:57:38Z</time>
      </trkpt>
      <trkpt lat="46.32146" lon="0.29617">
        <ele>153.00013273023</ele>
        <time>2021-03-07T09:57:40Z</time>
      </trkpt>
      <trkpt lat="46.32146" lon="0.29621">
        <ele>153.22758162767</ele>
        <time>2021-03-07T09:57:42Z</time>
      </trkpt>
      <trkpt lat="46.32146" lon="0.29624">
        <ele>152.95672445837</ele>
        <time>2021-03-07T09:57:44Z</time>
      </trkpt>
      <trkpt lat="46.32147" lon="0.29628">
        <ele>153.31140541099</ele>
        <time>2021-03-07T09:57:46Z</time>
      </trkpt>
      <trkpt lat="46.32148" lon="0.29632">
        <ele>153.56656848639</ele>
        <time>2021-03-07T09:57:48Z</time>
      </trkpt>
      <trkpt lat="46.32148" lon="0.29636">
        <ele>153.58051849157</ele>
        <time>2021-03-07T09:57:50Z</time>
      </trkpt>
      <trkpt lat="46.32148" lon="0.29641">
        <ele>153.98049708363</ele>
        <time>2021-03-07T09:57:53Z</time>
      </trkpt>
      <trkpt lat="46.32148" lon="0.29644">
        <ele>154.01495249569</ele>
        <time>2021-03-07T09:57:55Z</time>
      </trkpt>
      <trkpt lat="46.32149" lon="0.29648">
        <ele>153.63180666696</ele>
        <time>2021-03-07T09:57:57Z</time>
      </trkpt>
      <trkpt lat="46.32149" lon="0.29651">
        <ele>153.65315410867</ele>
        <time>2021-03-07T09:57:59Z</time>
      </trkpt>
      <trkpt lat="46.32149" lon="0.29654">
        <ele>154.78316647094</ele>
        <time>2021-03-07T09:58:01Z</time>
      </trkpt>
      <trkpt lat="46.3215" lon="0.29657">
        <ele>154.68110500462</ele>
        <time>2021-03-07T09:58:03Z</time>
      </trkpt>
      <trkpt lat="46.32151" lon="0.2966">
        <ele>154.6959976526</ele>
        <time>2021-03-07T09:58:05Z</time>
      </trkpt>
      <trkpt lat="46.32151" lon="0.29664">
        <ele>154.70975720882</ele>
        <time>2021-03-07T09:58:07Z</time>
      </trkpt>
      <trkpt lat="46.32152" lon="0.29668">
        <ele>154.92058036104</ele>
        <time>2021-03-07T09:58:09Z</time>
      </trkpt>
      <trkpt lat="46.32153" lon="0.29672">
        <ele>155.16675141454</ele>
        <time>2021-03-07T09:58:11Z</time>
      </trkpt>
      <trkpt lat="46.32154" lon="0.29674">
        <ele>155.67666243669</ele>
        <time>2021-03-07T09:58:13Z</time>
      </trkpt>
      <trkpt lat="46.32154" lon="0.29678">
        <ele>155.21613098122</ele>
        <time>2021-03-07T09:58:15Z</time>
      </trkpt>
      <trkpt lat="46.32155" lon="0.29681">
        <ele>155.27763002645</ele>
        <time>2021-03-07T09:58:18Z</time>
      </trkpt>
      <trkpt lat="46.32156" lon="0.29684">
        <ele>155.49569811393</ele>
        <time>2021-03-07T09:58:19Z</time>
      </trkpt>
      <trkpt lat="46.32157" lon="0.29687">
        <ele>155.34554788005</ele>
        <time>2021-03-07T09:58:21Z</time>
      </trkpt>
      <trkpt lat="46.32158" lon="0.29691">
        <ele>155.35943704844</ele>
        <time>2021-03-07T09:58:23Z</time>
      </trkpt>
      <trkpt lat="46.32159" lon="0.29694">
        <ele>155.90970986523</ele>
        <time>2021-03-07T09:58:25Z</time>
      </trkpt>
      <trkpt lat="46.32159" lon="0.29698">
        <ele>155.94329870027</ele>
        <time>2021-03-07T09:58:27Z</time>
      </trkpt>
      <trkpt lat="46.3216" lon="0.29701">
        <ele>155.83644933719</ele>
        <time>2021-03-07T09:58:29Z</time>
      </trkpt>
      <trkpt lat="46.3216" lon="0.29705">
        <ele>155.92937088385</ele>
        <time>2021-03-07T09:58:31Z</time>
      </trkpt>
      <trkpt lat="46.32161" lon="0.29709">
        <ele>156.27521824371</ele>
        <time>2021-03-07T09:58:33Z</time>
      </trkpt>
      <trkpt lat="46.32161" lon="0.29712">
        <ele>155.99231751263</ele>
        <time>2021-03-07T09:58:35Z</time>
      </trkpt>
      <trkpt lat="46.32163" lon="0.29715">
        <ele>156.23504351825</ele>
        <time>2021-03-07T09:58:37Z</time>
      </trkpt>
      <trkpt lat="46.32163" lon="0.29718">
        <ele>156.18395541888</ele>
        <time>2021-03-07T09:58:39Z</time>
      </trkpt>
      <trkpt lat="46.32164" lon="0.29721">
        <ele>156.21853835881</ele>
        <time>2021-03-07T09:58:41Z</time>
      </trkpt>
      <trkpt lat="46.32165" lon="0.29724">
        <ele>156.50429717824</ele>
        <time>2021-03-07T09:58:43Z</time>
      </trkpt>
      <trkpt lat="46.32167" lon="0.29727">
        <ele>156.98635863326</ele>
        <time>2021-03-07T09:58:45Z</time>
      </trkpt>
      <trkpt lat="46.32168" lon="0.2973">
        <ele>156.77294303849</ele>
        <time>2021-03-07T09:58:47Z</time>
      </trkpt>
      <trkpt lat="46.32169" lon="0.29733">
        <ele>157.16758184321</ele>
        <time>2021-03-07T09:58:49Z</time>
      </trkpt>
      <trkpt lat="46.3217" lon="0.29736">
        <ele>157.01386116352</ele>
        <time>2021-03-07T09:58:51Z</time>
      </trkpt>
      <trkpt lat="46.32172" lon="0.29739">
        <ele>157.01283048932</ele>
        <time>2021-03-07T09:58:53Z</time>
      </trkpt>
      <trkpt lat="46.32173" lon="0.29742">
        <ele>157.19121023826</ele>
        <time>2021-03-07T09:58:55Z</time>
      </trkpt>
      <trkpt lat="46.32174" lon="0.29745">
        <ele>157.28317151871</ele>
        <time>2021-03-07T09:58:57Z</time>
      </trkpt>
      <trkpt lat="46.32176" lon="0.29748">
        <ele>157.70031478722</ele>
        <time>2021-03-07T09:58:59Z</time>
      </trkpt>
      <trkpt lat="46.32177" lon="0.29751">
        <ele>157.55002929736</ele>
        <time>2021-03-07T09:59:01Z</time>
      </trkpt>
      <trkpt lat="46.32178" lon="0.29754">
        <ele>157.61260178033</ele>
        <time>2021-03-07T09:59:03Z</time>
      </trkpt>
      <trkpt lat="46.3218" lon="0.29758">
        <ele>157.78048290685</ele>
        <time>2021-03-07T09:59:05Z</time>
      </trkpt>
      <trkpt lat="46.32181" lon="0.29761">
        <ele>157.63854264189</ele>
        <time>2021-03-07T09:59:07Z</time>
      </trkpt>
      <trkpt lat="46.32183" lon="0.29763">
        <ele>158.00816462561</ele>
        <time>2021-03-07T09:59:09Z</time>
      </trkpt>
      <trkpt lat="46.32184" lon="0.29767">
        <ele>158.00902504474</ele>
        <time>2021-03-07T09:59:11Z</time>
      </trkpt>
      <trkpt lat="46.32185" lon="0.29771">
        <ele>157.85058018658</ele>
        <time>2021-03-07T09:59:13Z</time>
      </trkpt>
      <trkpt lat="46.32186" lon="0.29774">
        <ele>158.04627904668</ele>
        <time>2021-03-07T09:59:15Z</time>
      </trkpt>
      <trkpt lat="46.32187" lon="0.29777">
        <ele>158.46002623811</ele>
        <time>2021-03-07T09:59:17Z</time>
      </trkpt>
      <trkpt lat="46.32189" lon="0.2978">
        <ele>158.30601192825</ele>
        <time>2021-03-07T09:59:19Z</time>
      </trkpt>
      <trkpt lat="46.32191" lon="0.29783">
        <ele>158.71396091301</ele>
        <time>2021-03-07T09:59:21Z</time>
      </trkpt>
      <trkpt lat="46.32192" lon="0.29786">
        <ele>159.34249219857</ele>
        <time>2021-03-07T09:59:23Z</time>
      </trkpt>
      <trkpt lat="46.32193" lon="0.29789">
        <ele>159.2700646054</ele>
        <time>2021-03-07T09:59:25Z</time>
      </trkpt>
      <trkpt lat="46.32194" lon="0.29793">
        <ele>159.1783822123</ele>
        <time>2021-03-07T09:59:27Z</time>
      </trkpt>
      <trkpt lat="46.32195" lon="0.29796">
        <ele>159.61285903864</ele>
        <time>2021-03-07T09:59:29Z</time>
      </trkpt>
      <trkpt lat="46.32196" lon="0.29798">
        <ele>159.32494941168</ele>
        <time>2021-03-07T09:59:31Z</time>
      </trkpt>
      <trkpt lat="46.32197" lon="0.29801">
        <ele>159.91641837452</ele>
        <time>2021-03-07T09:59:33Z</time>
      </trkpt>
      <trkpt lat="46.32198" lon="0.29805">
        <ele>160.1502359435</ele>
        <time>2021-03-07T09:59:35Z</time>
      </trkpt>
      <trkpt lat="46.32199" lon="0.29807">
        <ele>160.62150909659</ele>
        <time>2021-03-07T09:59:37Z</time>
      </trkpt>
      <trkpt lat="46.32201" lon="0.29811">
        <ele>160.60284919571</ele>
        <time>2021-03-07T09:59:39Z</time>
      </trkpt>
      <trkpt lat="46.32202" lon="0.29813">
        <ele>160.66338847391</ele>
        <time>2021-03-07T09:59:41Z</time>
      </trkpt>
      <trkpt lat="46.32203" lon="0.29816">
        <ele>160.55516503006</ele>
        <time>2021-03-07T09:59:43Z</time>
      </trkpt>
      <trkpt lat="46.32205" lon="0.29819">
        <ele>160.80289113987</ele>
        <time>2021-03-07T09:59:45Z</time>
      </trkpt>
      <trkpt lat="46.32207" lon="0.29822">
        <ele>161.34362347703</ele>
        <time>2021-03-07T09:59:47Z</time>
      </trkpt>
      <trkpt lat="46.32209" lon="0.29822">
        <ele>161.36469592992</ele>
        <time>2021-03-07T09:59:48Z</time>
      </trkpt>
      <trkpt lat="46.32211" lon="0.29822">
        <ele>161.36176303495</ele>
        <time>2021-03-07T09:59:50Z</time>
      </trkpt>
      <trkpt lat="46.32213" lon="0.29822">
        <ele>161.40749418549</ele>
        <time>2021-03-07T09:59:52Z</time>
      </trkpt>
      <trkpt lat="46.32216" lon="0.29821">
        <ele>161.05929224472</ele>
        <time>2021-03-07T09:59:54Z</time>
      </trkpt>
      <trkpt lat="46.32218" lon="0.2982">
        <ele>161.60125780571</ele>
        <time>2021-03-07T09:59:56Z</time>
      </trkpt>
      <trkpt lat="46.32221" lon="0.29819">
        <ele>161.34402632061</ele>
        <time>2021-03-07T09:59:58Z</time>
      </trkpt>
      <trkpt lat="46.32223" lon="0.29819">
        <ele>161.47868962772</ele>
        <time>2021-03-07T10:00:00Z</time>
      </trkpt>
      <trkpt lat="46.32225" lon="0.29818">
        <ele>161.19423112646</ele>
        <time>2021-03-07T10:00:02Z</time>
      </trkpt>
      <trkpt lat="46.32227" lon="0.29817">
        <ele>160.9896829538</ele>
        <time>2021-03-07T10:00:04Z</time>
      </trkpt>
      <trkpt lat="46.3223" lon="0.29817">
        <ele>161.42933970876</ele>
        <time>2021-03-07T10:00:06Z</time>
      </trkpt>
      <trkpt lat="46.32232" lon="0.29817">
        <ele>161.16955257021</ele>
        <time>2021-03-07T10:00:08Z</time>
      </trkpt>
      <trkpt lat="46.32236" lon="0.29817">
        <ele>160.94581647962</ele>
        <time>2021-03-07T10:00:10Z</time>
      </trkpt>
      <trkpt lat="46.32237" lon="0.29817">
        <ele>161.23647271935</ele>
        <time>2021-03-07T10:00:11Z</time>
      </trkpt>
      <trkpt lat="46.3224" lon="0.29817">
        <ele>161.08754070383</ele>
        <time>2021-03-07T10:00:13Z</time>
      </trkpt>
      <trkpt lat="46.32242" lon="0.29818">
        <ele>161.25358699542</ele>
        <time>2021-03-07T10:00:15Z</time>
      </trkpt>
      <trkpt lat="46.32244" lon="0.29818">
        <ele>161.23783703241</ele>
        <time>2021-03-07T10:00:17Z</time>
      </trkpt>
      <trkpt lat="46.32248" lon="0.29819">
        <ele>161.02298539318</ele>
        <time>2021-03-07T10:00:19Z</time>
      </trkpt>
      <trkpt lat="46.3225" lon="0.2982">
        <ele>160.91083585285</ele>
        <time>2021-03-07T10:00:20Z</time>
      </trkpt>
      <trkpt lat="46.32253" lon="0.29819">
        <ele>161.07580852881</ele>
        <time>2021-03-07T10:00:23Z</time>
      </trkpt>
      <trkpt lat="46.32255" lon="0.2982">
        <ele>161.00567738432</ele>
        <time>2021-03-07T10:00:25Z</time>
      </trkpt>
      <trkpt lat="46.32257" lon="0.29821">
        <ele>161.12121071853</ele>
        <time>2021-03-07T10:00:27Z</time>
      </trkpt>
      <trkpt lat="46.32259" lon="0.29822">
        <ele>161.34444969986</ele>
        <time>2021-03-07T10:00:29Z</time>
      </trkpt>
      <trkpt lat="46.32261" lon="0.29822">
        <ele>161.28658690769</ele>
        <time>2021-03-07T10:00:31Z</time>
      </trkpt>
      <trkpt lat="46.32264" lon="0.29823">
        <ele>161.49650059175</ele>
        <time>2021-03-07T10:00:33Z</time>
      </trkpt>
      <trkpt lat="46.32266" lon="0.29824">
        <ele>161.79354932811</ele>
        <time>2021-03-07T10:00:35Z</time>
      </trkpt>
      <trkpt lat="46.32269" lon="0.29823">
        <ele>161.68158302084</ele>
        <time>2021-03-07T10:00:37Z</time>
      </trkpt>
      <trkpt lat="46.32271" lon="0.29824">
        <ele>161.42378261406</ele>
        <time>2021-03-07T10:00:39Z</time>
      </trkpt>
      <trkpt lat="46.32274" lon="0.29825">
        <ele>161.23825817648</ele>
        <time>2021-03-07T10:00:41Z</time>
      </trkpt>
      <trkpt lat="46.32277" lon="0.29826">
        <ele>161.97658792604</ele>
        <time>2021-03-07T10:00:43Z</time>
      </trkpt>
      <trkpt lat="46.32279" lon="0.29827">
        <ele>161.91697449703</ele>
        <time>2021-03-07T10:00:45Z</time>
      </trkpt>
      <trkpt lat="46.32282" lon="0.29827">
        <ele>161.92579335999</ele>
        <time>2021-03-07T10:00:47Z</time>
      </trkpt>
      <trkpt lat="46.32285" lon="0.29828">
        <ele>162.1566667622</ele>
        <time>2021-03-07T10:00:49Z</time>
      </trkpt>
      <trkpt lat="46.32288" lon="0.29828">
        <ele>161.86195183359</ele>
        <time>2021-03-07T10:00:51Z</time>
      </trkpt>
      <trkpt lat="46.3229" lon="0.29828">
        <ele>162.28887310065</ele>
        <time>2021-03-07T10:00:53Z</time>
      </trkpt>
      <trkpt lat="46.32291" lon="0.29829">
        <ele>161.97254319116</ele>
        <time>2021-03-07T10:00:56Z</time>
      </trkpt>
      <trkpt lat="46.32295" lon="0.29831">
        <ele>162.58816944622</ele>
        <time>2021-03-07T10:00:59Z</time>
      </trkpt>
      <trkpt lat="46.32296" lon="0.29833">
        <ele>162.42048614286</ele>
        <time>2021-03-07T10:01:01Z</time>
      </trkpt>
      <trkpt lat="46.32299" lon="0.29835">
        <ele>162.18091480061</ele>
        <time>2021-03-07T10:01:03Z</time>
      </trkpt>
      <trkpt lat="46.32301" lon="0.29837">
        <ele>162.81629343051</ele>
        <time>2021-03-07T10:01:05Z</time>
      </trkpt>
      <trkpt lat="46.32303" lon="0.29838">
        <ele>163.0506985737</ele>
        <time>2021-03-07T10:01:07Z</time>
      </trkpt>
      <trkpt lat="46.32305" lon="0.2984">
        <ele>163.27547678538</ele>
        <time>2021-03-07T10:01:09Z</time>
      </trkpt>
      <trkpt lat="46.32308" lon="0.29842">
        <ele>163.26779861376</ele>
        <time>2021-03-07T10:01:11Z</time>
      </trkpt>
      <trkpt lat="46.3231" lon="0.29844">
        <ele>163.39580480848</ele>
        <time>2021-03-07T10:01:13Z</time>
      </trkpt>
      <trkpt lat="46.32313" lon="0.29846">
        <ele>163.69677612558</ele>
        <time>2021-03-07T10:01:15Z</time>
      </trkpt>
      <trkpt lat="46.32315" lon="0.29848">
        <ele>162.64947631583</ele>
        <time>2021-03-07T10:01:17Z</time>
      </trkpt>
      <trkpt lat="46.32318" lon="0.2985">
        <ele>163.50605523121</ele>
        <time>2021-03-07T10:01:19Z</time>
      </trkpt>
      <trkpt lat="46.3232" lon="0.29851">
        <ele>163.80973262805</ele>
        <time>2021-03-07T10:01:21Z</time>
      </trkpt>
      <trkpt lat="46.32322" lon="0.29851">
        <ele>163.86503033992</ele>
        <time>2021-03-07T10:01:22Z</time>
      </trkpt>
      <trkpt lat="46.32324" lon="0.29853">
        <ele>163.93817954231</ele>
        <time>2021-03-07T10:01:24Z</time>
      </trkpt>
      <trkpt lat="46.32327" lon="0.29854">
        <ele>164.22316657472</ele>
        <time>2021-03-07T10:01:26Z</time>
      </trkpt>
      <trkpt lat="46.32329" lon="0.29855">
        <ele>163.95931886509</ele>
        <time>2021-03-07T10:01:28Z</time>
      </trkpt>
      <trkpt lat="46.32331" lon="0.29856">
        <ele>164.15905532613</ele>
        <time>2021-03-07T10:01:29Z</time>
      </trkpt>
      <trkpt lat="46.32334" lon="0.29856">
        <ele>164.43881300651</ele>
        <time>2021-03-07T10:01:31Z</time>
      </trkpt>
      <trkpt lat="46.32336" lon="0.29857">
        <ele>164.58056255989</ele>
        <time>2021-03-07T10:01:33Z</time>
      </trkpt>
      <trkpt lat="46.32338" lon="0.29857">
        <ele>164.36740184389</ele>
        <time>2021-03-07T10:01:35Z</time>
      </trkpt>
      <trkpt lat="46.32341" lon="0.29857">
        <ele>164.26894083712</ele>
        <time>2021-03-07T10:01:37Z</time>
      </trkpt>
      <trkpt lat="46.32343" lon="0.29857">
        <ele>164.45917165838</ele>
        <time>2021-03-07T10:01:39Z</time>
      </trkpt>
      <trkpt lat="46.32346" lon="0.29856">
        <ele>164.62869040389</ele>
        <time>2021-03-07T10:01:41Z</time>
      </trkpt>
      <trkpt lat="46.3235" lon="0.29855">
        <ele>164.79190502875</ele>
        <time>2021-03-07T10:01:43Z</time>
      </trkpt>
      <trkpt lat="46.32353" lon="0.29855">
        <ele>164.51626606565</ele>
        <time>2021-03-07T10:01:45Z</time>
      </trkpt>
      <trkpt lat="46.32356" lon="0.29854">
        <ele>164.75486680213</ele>
        <time>2021-03-07T10:01:47Z</time>
      </trkpt>
      <trkpt lat="46.32358" lon="0.29854">
        <ele>165.0153111117</ele>
        <time>2021-03-07T10:01:48Z</time>
      </trkpt>
      <trkpt lat="46.3236" lon="0.29853">
        <ele>164.49683835637</ele>
        <time>2021-03-07T10:01:50Z</time>
      </trkpt>
      <trkpt lat="46.32363" lon="0.29853">
        <ele>165.32520493958</ele>
        <time>2021-03-07T10:01:52Z</time>
      </trkpt>
      <trkpt lat="46.32365" lon="0.29855">
        <ele>165.35157207493</ele>
        <time>2021-03-07T10:01:55Z</time>
      </trkpt>
      <trkpt lat="46.32366" lon="0.29858">
        <ele>165.80512340739</ele>
        <time>2021-03-07T10:01:57Z</time>
      </trkpt>
      <trkpt lat="46.32365" lon="0.29862">
        <ele>165.18353438284</ele>
        <time>2021-03-07T10:01:59Z</time>
      </trkpt>
      <trkpt lat="46.32364" lon="0.29865">
        <ele>165.9235342415</ele>
        <time>2021-03-07T10:02:01Z</time>
      </trkpt>
      <trkpt lat="46.32363" lon="0.29868">
        <ele>165.75571701955</ele>
        <time>2021-03-07T10:02:03Z</time>
      </trkpt>
      <trkpt lat="46.32362" lon="0.29871">
        <ele>165.77075095754</ele>
        <time>2021-03-07T10:02:05Z</time>
      </trkpt>
      <trkpt lat="46.32361" lon="0.29874">
        <ele>166.17153914925</ele>
        <time>2021-03-07T10:02:07Z</time>
      </trkpt>
      <trkpt lat="46.32361" lon="0.29878">
        <ele>166.08793111611</ele>
        <time>2021-03-07T10:02:09Z</time>
      </trkpt>
      <trkpt lat="46.3236" lon="0.29881">
        <ele>166.04440949764</ele>
        <time>2021-03-07T10:02:11Z</time>
      </trkpt>
      <trkpt lat="46.3236" lon="0.29884">
        <ele>166.27557559498</ele>
        <time>2021-03-07T10:02:13Z</time>
      </trkpt>
      <trkpt lat="46.32359" lon="0.29888">
        <ele>166.55542793777</ele>
        <time>2021-03-07T10:02:15Z</time>
      </trkpt>
      <trkpt lat="46.32358" lon="0.29891">
        <ele>166.20117500331</ele>
        <time>2021-03-07T10:02:17Z</time>
      </trkpt>
      <trkpt lat="46.32358" lon="0.29895">
        <ele>166.63466926292</ele>
        <time>2021-03-07T10:02:20Z</time>
      </trkpt>
      <trkpt lat="46.32357" lon="0.29899">
        <ele>166.62702291645</ele>
        <time>2021-03-07T10:02:22Z</time>
      </trkpt>
      <trkpt lat="46.32357" lon="0.29903">
        <ele>167.38117332663</ele>
        <time>2021-03-07T10:02:24Z</time>
      </trkpt>
      <trkpt lat="46.32356" lon="0.29907">
        <ele>166.72986771911</ele>
        <time>2021-03-07T10:02:27Z</time>
      </trkpt>
      <trkpt lat="46.32355" lon="0.29911">
        <ele>166.99725977052</ele>
        <time>2021-03-07T10:02:29Z</time>
      </trkpt>
      <trkpt lat="46.32355" lon="0.29914">
        <ele>167.40814872831</ele>
        <time>2021-03-07T10:02:31Z</time>
      </trkpt>
      <trkpt lat="46.32355" lon="0.29917">
        <ele>167.01727648173</ele>
        <time>2021-03-07T10:02:33Z</time>
      </trkpt>
      <trkpt lat="46.32354" lon="0.29921">
        <ele>167.59162729792</ele>
        <time>2021-03-07T10:02:35Z</time>
      </trkpt>
      <trkpt lat="46.32353" lon="0.29924">
        <ele>167.74985386897</ele>
        <time>2021-03-07T10:02:37Z</time>
      </trkpt>
      <trkpt lat="46.32352" lon="0.29928">
        <ele>167.81637049466</ele>
        <time>2021-03-07T10:02:39Z</time>
      </trkpt>
      <trkpt lat="46.32352" lon="0.29931">
        <ele>167.76005343534</ele>
        <time>2021-03-07T10:02:41Z</time>
      </trkpt>
      <trkpt lat="46.32351" lon="0.29935">
        <ele>167.62944414932</ele>
        <time>2021-03-07T10:02:43Z</time>
      </trkpt>
      <trkpt lat="46.32351" lon="0.29938">
        <ele>167.90519105084</ele>
        <time>2021-03-07T10:02:45Z</time>
      </trkpt>
      <trkpt lat="46.3235" lon="0.29942">
        <ele>168.24307294376</ele>
        <time>2021-03-07T10:02:47Z</time>
      </trkpt>
      <trkpt lat="46.32349" lon="0.29945">
        <ele>168.1010295758</ele>
        <time>2021-03-07T10:02:49Z</time>
      </trkpt>
      <trkpt lat="46.32348" lon="0.29949">
        <ele>168.05043726601</ele>
        <time>2021-03-07T10:02:51Z</time>
      </trkpt>
      <trkpt lat="46.32348" lon="0.29952">
        <ele>168.22233206499</ele>
        <time>2021-03-07T10:02:53Z</time>
      </trkpt>
      <trkpt lat="46.32347" lon="0.29956">
        <ele>168.91094364878</ele>
        <time>2021-03-07T10:02:55Z</time>
      </trkpt>
      <trkpt lat="46.32346" lon="0.2996">
        <ele>168.74790351931</ele>
        <time>2021-03-07T10:02:57Z</time>
      </trkpt>
      <trkpt lat="46.32345" lon="0.29963">
        <ele>168.62214456592</ele>
        <time>2021-03-07T10:02:59Z</time>
      </trkpt>
      <trkpt lat="46.32344" lon="0.29966">
        <ele>168.55195544101</ele>
        <time>2021-03-07T10:03:01Z</time>
      </trkpt>
      <trkpt lat="46.32343" lon="0.2997">
        <ele>168.69939266518</ele>
        <time>2021-03-07T10:03:03Z</time>
      </trkpt>
      <trkpt lat="46.32341" lon="0.29973">
        <ele>168.57300897129</ele>
        <time>2021-03-07T10:03:05Z</time>
      </trkpt>
      <trkpt lat="46.3234" lon="0.29977">
        <ele>168.67453369871</ele>
        <time>2021-03-07T10:03:07Z</time>
      </trkpt>
      <trkpt lat="46.32339" lon="0.29981">
        <ele>168.80318548903</ele>
        <time>2021-03-07T10:03:09Z</time>
      </trkpt>
      <trkpt lat="46.32338" lon="0.29985">
        <ele>168.9908577688</ele>
        <time>2021-03-07T10:03:11Z</time>
      </trkpt>
      <trkpt lat="46.32337" lon="0.2999">
        <ele>168.48390961252</ele>
        <time>2021-03-07T10:03:13Z</time>
      </trkpt>
      <trkpt lat="46.32336" lon="0.29994">
        <ele>168.57217385154</ele>
        <time>2021-03-07T10:03:15Z</time>
      </trkpt>
      <trkpt lat="46.32335" lon="0.29997">
        <ele>168.61590893194</ele>
        <time>2021-03-07T10:03:17Z</time>
      </trkpt>
      <trkpt lat="46.32334" lon="0.30001">
        <ele>169.10064918362</ele>
        <time>2021-03-07T10:03:19Z</time>
      </trkpt>
      <trkpt lat="46.32333" lon="0.30005">
        <ele>169.12748209946</ele>
        <time>2021-03-07T10:03:21Z</time>
      </trkpt>
      <trkpt lat="46.32331" lon="0.30008">
        <ele>168.47254566289</ele>
        <time>2021-03-07T10:03:23Z</time>
      </trkpt>
      <trkpt lat="46.3233" lon="0.30011">
        <ele>169.1926988326</ele>
        <time>2021-03-07T10:03:25Z</time>
      </trkpt>
      <trkpt lat="46.32329" lon="0.30015">
        <ele>169.26031548437</ele>
        <time>2021-03-07T10:03:27Z</time>
      </trkpt>
      <trkpt lat="46.32328" lon="0.30018">
        <ele>169.23211384937</ele>
        <time>2021-03-07T10:03:29Z</time>
      </trkpt>
      <trkpt lat="46.32326" lon="0.30022">
        <ele>169.28103338648</ele>
        <time>2021-03-07T10:03:31Z</time>
      </trkpt>
      <trkpt lat="46.32325" lon="0.30026">
        <ele>169.15364141203</ele>
        <time>2021-03-07T10:03:33Z</time>
      </trkpt>
      <trkpt lat="46.32325" lon="0.30029">
        <ele>169.10572641622</ele>
        <time>2021-03-07T10:03:35Z</time>
      </trkpt>
      <trkpt lat="46.32324" lon="0.30033">
        <ele>169.56696493179</ele>
        <time>2021-03-07T10:03:37Z</time>
      </trkpt>
      <trkpt lat="46.32322" lon="0.30035">
        <ele>169.09098094981</ele>
        <time>2021-03-07T10:03:38Z</time>
      </trkpt>
      <trkpt lat="46.32322" lon="0.30038">
        <ele>169.78686657827</ele>
        <time>2021-03-07T10:03:40Z</time>
      </trkpt>
      <trkpt lat="46.32322" lon="0.30041">
        <ele>169.958835111</ele>
        <time>2021-03-07T10:03:42Z</time>
      </trkpt>
      <trkpt lat="46.3232" lon="0.30045">
        <ele>170.27292318642</ele>
        <time>2021-03-07T10:03:44Z</time>
      </trkpt>
      <trkpt lat="46.32319" lon="0.30048">
        <ele>170.02943920344</ele>
        <time>2021-03-07T10:03:46Z</time>
      </trkpt>
      <trkpt lat="46.32318" lon="0.30051">
        <ele>170.06247278303</ele>
        <time>2021-03-07T10:03:47Z</time>
      </trkpt>
      <trkpt lat="46.32317" lon="0.30054">
        <ele>170.309206306</ele>
        <time>2021-03-07T10:03:49Z</time>
      </trkpt>
      <trkpt lat="46.32316" lon="0.30057">
        <ele>170.81292947754</ele>
        <time>2021-03-07T10:03:51Z</time>
      </trkpt>
      <trkpt lat="46.32315" lon="0.3006">
        <ele>170.79979557265</ele>
        <time>2021-03-07T10:03:53Z</time>
      </trkpt>
      <trkpt lat="46.32314" lon="0.30064">
        <ele>170.87123405188</ele>
        <time>2021-03-07T10:03:55Z</time>
      </trkpt>
      <trkpt lat="46.32312" lon="0.30068">
        <ele>170.76887329482</ele>
        <time>2021-03-07T10:03:57Z</time>
      </trkpt>
      <trkpt lat="46.32311" lon="0.30071">
        <ele>171.14763938356</ele>
        <time>2021-03-07T10:03:59Z</time>
      </trkpt>
      <trkpt lat="46.32311" lon="0.30074">
        <ele>171.46490023565</ele>
        <time>2021-03-07T10:04:01Z</time>
      </trkpt>
      <trkpt lat="46.32309" lon="0.30079">
        <ele>171.30325740483</ele>
        <time>2021-03-07T10:04:03Z</time>
      </trkpt>
      <trkpt lat="46.32308" lon="0.30082">
        <ele>171.61192407925</ele>
        <time>2021-03-07T10:04:05Z</time>
      </trkpt>
      <trkpt lat="46.32306" lon="0.30085">
        <ele>172.16848991625</ele>
        <time>2021-03-07T10:04:07Z</time>
      </trkpt>
      <trkpt lat="46.32306" lon="0.30088">
        <ele>171.87923626229</ele>
        <time>2021-03-07T10:04:09Z</time>
      </trkpt>
      <trkpt lat="46.32304" lon="0.30091">
        <ele>171.88877389859</ele>
        <time>2021-03-07T10:04:11Z</time>
      </trkpt>
      <trkpt lat="46.32303" lon="0.30095">
        <ele>171.81897871103</ele>
        <time>2021-03-07T10:04:13Z</time>
      </trkpt>
      <trkpt lat="46.32302" lon="0.30098">
        <ele>171.4794253828</ele>
        <time>2021-03-07T10:04:15Z</time>
      </trkpt>
      <trkpt lat="46.32301" lon="0.30102">
        <ele>172.14082980994</ele>
        <time>2021-03-07T10:04:17Z</time>
      </trkpt>
      <trkpt lat="46.32301" lon="0.30105">
        <ele>172.18782836478</ele>
        <time>2021-03-07T10:04:19Z</time>
      </trkpt>
      <trkpt lat="46.323" lon="0.30109">
        <ele>172.1307736868</ele>
        <time>2021-03-07T10:04:21Z</time>
      </trkpt>
      <trkpt lat="46.32299" lon="0.30112">
        <ele>172.48358524777</ele>
        <time>2021-03-07T10:04:23Z</time>
      </trkpt>
      <trkpt lat="46.32299" lon="0.30116">
        <ele>172.71640642174</ele>
        <time>2021-03-07T10:04:25Z</time>
      </trkpt>
      <trkpt lat="46.32298" lon="0.30119">
        <ele>172.81560837198</ele>
        <time>2021-03-07T10:04:27Z</time>
      </trkpt>
      <trkpt lat="46.32297" lon="0.30122">
        <ele>172.4740607217</ele>
        <time>2021-03-07T10:04:29Z</time>
      </trkpt>
      <trkpt lat="46.32296" lon="0.30126">
        <ele>172.74790001381</ele>
        <time>2021-03-07T10:04:31Z</time>
      </trkpt>
      <trkpt lat="46.32295" lon="0.3013">
        <ele>172.86292107962</ele>
        <time>2021-03-07T10:04:33Z</time>
      </trkpt>
      <trkpt lat="46.32295" lon="0.30132">
        <ele>173.00729499757</ele>
        <time>2021-03-07T10:04:34Z</time>
      </trkpt>
      <trkpt lat="46.32294" lon="0.30135">
        <ele>172.90050287638</ele>
        <time>2021-03-07T10:04:36Z</time>
      </trkpt>
      <trkpt lat="46.32294" lon="0.30139">
        <ele>172.79728624225</ele>
        <time>2021-03-07T10:04:38Z</time>
      </trkpt>
      <trkpt lat="46.32293" lon="0.30142">
        <ele>173.21433254331</ele>
        <time>2021-03-07T10:04:40Z</time>
      </trkpt>
      <trkpt lat="46.32292" lon="0.30146">
        <ele>173.28742359485</ele>
        <time>2021-03-07T10:04:42Z</time>
      </trkpt>
      <trkpt lat="46.32291" lon="0.3015">
        <ele>173.1691456642</ele>
        <time>2021-03-07T10:04:44Z</time>
      </trkpt>
      <trkpt lat="46.3229" lon="0.30153">
        <ele>173.77812928427</ele>
        <time>2021-03-07T10:04:46Z</time>
      </trkpt>
      <trkpt lat="46.32289" lon="0.30157">
        <ele>173.06104902737</ele>
        <time>2021-03-07T10:04:48Z</time>
      </trkpt>
      <trkpt lat="46.32289" lon="0.3016">
        <ele>173.57470650505</ele>
        <time>2021-03-07T10:04:50Z</time>
      </trkpt>
      <trkpt lat="46.32288" lon="0.30164">
        <ele>173.20665848535</ele>
        <time>2021-03-07T10:04:52Z</time>
      </trkpt>
      <trkpt lat="46.32286" lon="0.30167">
        <ele>173.21685068868</ele>
        <time>2021-03-07T10:04:54Z</time>
      </trkpt>
      <trkpt lat="46.32285" lon="0.30171">
        <ele>173.77080399636</ele>
        <time>2021-03-07T10:04:56Z</time>
      </trkpt>
      <trkpt lat="46.32284" lon="0.30175">
        <ele>173.44237782434</ele>
        <time>2021-03-07T10:04:58Z</time>
      </trkpt>
      <trkpt lat="46.32283" lon="0.30177">
        <ele>173.84079081286</ele>
        <time>2021-03-07T10:05:00Z</time>
      </trkpt>
      <trkpt lat="46.32283" lon="0.3018">
        <ele>174.14467066713</ele>
        <time>2021-03-07T10:05:02Z</time>
      </trkpt>
      <trkpt lat="46.32282" lon="0.30184">
        <ele>173.48628346063</ele>
        <time>2021-03-07T10:05:04Z</time>
      </trkpt>
      <trkpt lat="46.3228" lon="0.30188">
        <ele>174.29080899432</ele>
        <time>2021-03-07T10:05:06Z</time>
      </trkpt>
      <trkpt lat="46.32279" lon="0.30191">
        <ele>174.30508737639</ele>
        <time>2021-03-07T10:05:08Z</time>
      </trkpt>
      <trkpt lat="46.32279" lon="0.30195">
        <ele>174.29918012954</ele>
        <time>2021-03-07T10:05:10Z</time>
      </trkpt>
      <trkpt lat="46.32278" lon="0.30197">
        <ele>174.9829776492</ele>
        <time>2021-03-07T10:05:11Z</time>
      </trkpt>
      <trkpt lat="46.32276" lon="0.30199">
        <ele>174.6561528882</ele>
        <time>2021-03-07T10:05:13Z</time>
      </trkpt>
      <trkpt lat="46.32275" lon="0.30202">
        <ele>174.09074531123</ele>
        <time>2021-03-07T10:05:15Z</time>
      </trkpt>
      <trkpt lat="46.32275" lon="0.30205">
        <ele>174.47967368085</ele>
        <time>2021-03-07T10:05:17Z</time>
      </trkpt>
      <trkpt lat="46.32273" lon="0.3021">
        <ele>174.77285157703</ele>
        <time>2021-03-07T10:05:19Z</time>
      </trkpt>
      <trkpt lat="46.32272" lon="0.30213">
        <ele>174.91952347104</ele>
        <time>2021-03-07T10:05:21Z</time>
      </trkpt>
      <trkpt lat="46.32271" lon="0.30216">
        <ele>174.75007700175</ele>
        <time>2021-03-07T10:05:23Z</time>
      </trkpt>
      <trkpt lat="46.32271" lon="0.30218">
        <ele>174.8837443199</ele>
        <time>2021-03-07T10:05:24Z</time>
      </trkpt>
      <trkpt lat="46.32269" lon="0.30222">
        <ele>175.16809891164</ele>
        <time>2021-03-07T10:05:26Z</time>
      </trkpt>
      <trkpt lat="46.32268" lon="0.30225">
        <ele>175.26222106908</ele>
        <time>2021-03-07T10:05:28Z</time>
      </trkpt>
      <trkpt lat="46.32267" lon="0.30228">
        <ele>175.06894293614</ele>
        <time>2021-03-07T10:05:30Z</time>
      </trkpt>
      <trkpt lat="46.32265" lon="0.3023">
        <ele>174.97541229427</ele>
        <time>2021-03-07T10:05:32Z</time>
      </trkpt>
      <trkpt lat="46.32264" lon="0.30234">
        <ele>175.59006887116</ele>
        <time>2021-03-07T10:05:34Z</time>
      </trkpt>
      <trkpt lat="46.32262" lon="0.30237">
        <ele>175.57806191035</ele>
        <time>2021-03-07T10:05:36Z</time>
      </trkpt>
      <trkpt lat="46.32261" lon="0.30241">
        <ele>175.5480194604</ele>
        <time>2021-03-07T10:05:38Z</time>
      </trkpt>
      <trkpt lat="46.3226" lon="0.30243">
        <ele>176.0311589567</ele>
        <time>2021-03-07T10:05:40Z</time>
      </trkpt>
      <trkpt lat="46.32259" lon="0.30247">
        <ele>175.96286653168</ele>
        <time>2021-03-07T10:05:42Z</time>
      </trkpt>
      <trkpt lat="46.32258" lon="0.3025">
        <ele>176.01292999554</ele>
        <time>2021-03-07T10:05:44Z</time>
      </trkpt>
      <trkpt lat="46.32257" lon="0.30253">
        <ele>176.00230015721</ele>
        <time>2021-03-07T10:05:46Z</time>
      </trkpt>
      <trkpt lat="46.32256" lon="0.30257">
        <ele>175.26824514847</ele>
        <time>2021-03-07T10:05:48Z</time>
      </trkpt>
      <trkpt lat="46.32255" lon="0.30259">
        <ele>175.73854762316</ele>
        <time>2021-03-07T10:05:50Z</time>
      </trkpt>
      <trkpt lat="46.32254" lon="0.30263">
        <ele>176.05372559372</ele>
        <time>2021-03-07T10:05:52Z</time>
      </trkpt>
      <trkpt lat="46.32253" lon="0.30268">
        <ele>176.21626845375</ele>
        <time>2021-03-07T10:05:54Z</time>
      </trkpt>
      <trkpt lat="46.32252" lon="0.3027">
        <ele>175.98147305567</ele>
        <time>2021-03-07T10:05:56Z</time>
      </trkpt>
      <trkpt lat="46.32251" lon="0.30274">
        <ele>175.99094477482</ele>
        <time>2021-03-07T10:05:58Z</time>
      </trkpt>
      <trkpt lat="46.32249" lon="0.30278">
        <ele>175.8453406645</ele>
        <time>2021-03-07T10:06:00Z</time>
      </trkpt>
      <trkpt lat="46.32248" lon="0.30282">
        <ele>176.29567985982</ele>
        <time>2021-03-07T10:06:02Z</time>
      </trkpt>
      <trkpt lat="46.32247" lon="0.30285">
        <ele>176.33055665065</ele>
        <time>2021-03-07T10:06:04Z</time>
      </trkpt>
      <trkpt lat="46.32246" lon="0.30289">
        <ele>176.97395115718</ele>
        <time>2021-03-07T10:06:06Z</time>
      </trkpt>
      <trkpt lat="46.32245" lon="0.30292">
        <ele>176.74786592927</ele>
        <time>2021-03-07T10:06:08Z</time>
      </trkpt>
      <trkpt lat="46.32244" lon="0.30295">
        <ele>176.76647918485</ele>
        <time>2021-03-07T10:06:10Z</time>
      </trkpt>
      <trkpt lat="46.32243" lon="0.30299">
        <ele>176.40882049128</ele>
        <time>2021-03-07T10:06:12Z</time>
      </trkpt>
      <trkpt lat="46.32242" lon="0.30303">
        <ele>177.20634132531</ele>
        <time>2021-03-07T10:06:14Z</time>
      </trkpt>
      <trkpt lat="46.3224" lon="0.30307">
        <ele>176.6508851843</ele>
        <time>2021-03-07T10:06:16Z</time>
      </trkpt>
      <trkpt lat="46.32239" lon="0.30312">
        <ele>177.0867143441</ele>
        <time>2021-03-07T10:06:19Z</time>
      </trkpt>
      <trkpt lat="46.32238" lon="0.30315">
        <ele>177.04586808383</ele>
        <time>2021-03-07T10:06:21Z</time>
      </trkpt>
      <trkpt lat="46.32238" lon="0.30318">
        <ele>177.25646113604</ele>
        <time>2021-03-07T10:06:22Z</time>
      </trkpt>
      <trkpt lat="46.32237" lon="0.3032">
        <ele>177.11629269179</ele>
        <time>2021-03-07T10:06:24Z</time>
      </trkpt>
      <trkpt lat="46.32236" lon="0.30323">
        <ele>177.25945210364</ele>
        <time>2021-03-07T10:06:25Z</time>
      </trkpt>
      <trkpt lat="46.32235" lon="0.30326">
        <ele>177.71794696525</ele>
        <time>2021-03-07T10:06:27Z</time>
      </trkpt>
      <trkpt lat="46.32235" lon="0.30329">
        <ele>177.50033212826</ele>
        <time>2021-03-07T10:06:29Z</time>
      </trkpt>
      <trkpt lat="46.32234" lon="0.30333">
        <ele>177.20574419014</ele>
        <time>2021-03-07T10:06:31Z</time>
      </trkpt>
      <trkpt lat="46.32232" lon="0.30336">
        <ele>177.62211082503</ele>
        <time>2021-03-07T10:06:33Z</time>
      </trkpt>
      <trkpt lat="46.32231" lon="0.3034">
        <ele>177.98873395566</ele>
        <time>2021-03-07T10:06:35Z</time>
      </trkpt>
      <trkpt lat="46.3223" lon="0.30342">
        <ele>177.66457526386</ele>
        <time>2021-03-07T10:06:37Z</time>
      </trkpt>
      <trkpt lat="46.32228" lon="0.30346">
        <ele>177.98494765721</ele>
        <time>2021-03-07T10:06:39Z</time>
      </trkpt>
      <trkpt lat="46.32227" lon="0.3035">
        <ele>178.29131442402</ele>
        <time>2021-03-07T10:06:41Z</time>
      </trkpt>
      <trkpt lat="46.32227" lon="0.30353">
        <ele>177.7934045298</ele>
        <time>2021-03-07T10:06:43Z</time>
      </trkpt>
      <trkpt lat="46.32226" lon="0.30356">
        <ele>177.99168069661</ele>
        <time>2021-03-07T10:06:45Z</time>
      </trkpt>
      <trkpt lat="46.32225" lon="0.3036">
        <ele>178.13488898799</ele>
        <time>2021-03-07T10:06:47Z</time>
      </trkpt>
      <trkpt lat="46.32224" lon="0.30363">
        <ele>178.699340594</ele>
        <time>2021-03-07T10:06:49Z</time>
      </trkpt>
      <trkpt lat="46.32223" lon="0.30367">
        <ele>178.72869439144</ele>
        <time>2021-03-07T10:06:51Z</time>
      </trkpt>
      <trkpt lat="46.32222" lon="0.30371">
        <ele>178.33718372136</ele>
        <time>2021-03-07T10:06:53Z</time>
      </trkpt>
      <trkpt lat="46.32221" lon="0.30375">
        <ele>179.1041402705</ele>
        <time>2021-03-07T10:06:55Z</time>
      </trkpt>
      <trkpt lat="46.32221" lon="0.30378">
        <ele>178.75290025398</ele>
        <time>2021-03-07T10:06:57Z</time>
      </trkpt>
      <trkpt lat="46.3222" lon="0.30382">
        <ele>178.07849484961</ele>
        <time>2021-03-07T10:06:59Z</time>
      </trkpt>
      <trkpt lat="46.32219" lon="0.30386">
        <ele>178.40568331163</ele>
        <time>2021-03-07T10:07:01Z</time>
      </trkpt>
      <trkpt lat="46.32218" lon="0.30389">
        <ele>178.7057717219</ele>
        <time>2021-03-07T10:07:03Z</time>
      </trkpt>
      <trkpt lat="46.32217" lon="0.30393">
        <ele>177.6107845353</ele>
        <time>2021-03-07T10:07:05Z</time>
      </trkpt>
      <trkpt lat="46.32217" lon="0.30395">
        <ele>178.20973323099</ele>
        <time>2021-03-07T10:07:06Z</time>
      </trkpt>
      <trkpt lat="46.32217" lon="0.30398">
        <ele>178.12155706901</ele>
        <time>2021-03-07T10:07:08Z</time>
      </trkpt>
      <trkpt lat="46.32216" lon="0.30402">
        <ele>178.58315703459</ele>
        <time>2021-03-07T10:07:10Z</time>
      </trkpt>
      <trkpt lat="46.32216" lon="0.30406">
        <ele>178.86099167075</ele>
        <time>2021-03-07T10:07:12Z</time>
      </trkpt>
      <trkpt lat="46.32215" lon="0.30409">
        <ele>178.75287393387</ele>
        <time>2021-03-07T10:07:14Z</time>
      </trkpt>
      <trkpt lat="46.32215" lon="0.30413">
        <ele>179.05453645997</ele>
        <time>2021-03-07T10:07:16Z</time>
      </trkpt>
      <trkpt lat="46.32214" lon="0.30418">
        <ele>179.3577801045</ele>
        <time>2021-03-07T10:07:18Z</time>
      </trkpt>
      <trkpt lat="46.32213" lon="0.30421">
        <ele>178.78375380673</ele>
        <time>2021-03-07T10:07:20Z</time>
      </trkpt>
      <trkpt lat="46.32213" lon="0.30423">
        <ele>179.12016148865</ele>
        <time>2021-03-07T10:07:21Z</time>
      </trkpt>
      <trkpt lat="46.32213" lon="0.30427">
        <ele>178.80364990886</ele>
        <time>2021-03-07T10:07:23Z</time>
      </trkpt>
      <trkpt lat="46.32212" lon="0.3043">
        <ele>179.08272949234</ele>
        <time>2021-03-07T10:07:25Z</time>
      </trkpt>
      <trkpt lat="46.32211" lon="0.30434">
        <ele>179.42582438793</ele>
        <time>2021-03-07T10:07:27Z</time>
      </trkpt>
      <trkpt lat="46.3221" lon="0.30438">
        <ele>179.32355355844</ele>
        <time>2021-03-07T10:07:29Z</time>
      </trkpt>
      <trkpt lat="46.3221" lon="0.30442">
        <ele>179.3034102153</ele>
        <time>2021-03-07T10:07:31Z</time>
      </trkpt>
      <trkpt lat="46.32209" lon="0.30445">
        <ele>180.23350644484</ele>
        <time>2021-03-07T10:07:33Z</time>
      </trkpt>
      <trkpt lat="46.32209" lon="0.30449">
        <ele>180.25137393456</ele>
        <time>2021-03-07T10:07:35Z</time>
      </trkpt>
      <trkpt lat="46.32208" lon="0.30453">
        <ele>179.94788406417</ele>
        <time>2021-03-07T10:07:37Z</time>
      </trkpt>
      <trkpt lat="46.32207" lon="0.30457">
        <ele>180.33922420722</ele>
        <time>2021-03-07T10:07:39Z</time>
      </trkpt>
      <trkpt lat="46.32206" lon="0.3046">
        <ele>180.07247004379</ele>
        <time>2021-03-07T10:07:41Z</time>
      </trkpt>
      <trkpt lat="46.32206" lon="0.30463">
        <ele>180.08043738268</ele>
        <time>2021-03-07T10:07:43Z</time>
      </trkpt>
      <trkpt lat="46.32205" lon="0.30468">
        <ele>180.1254795948</ele>
        <time>2021-03-07T10:07:45Z</time>
      </trkpt>
      <trkpt lat="46.32204" lon="0.30471">
        <ele>179.9058021633</ele>
        <time>2021-03-07T10:07:47Z</time>
      </trkpt>
      <trkpt lat="46.32203" lon="0.30475">
        <ele>180.10307805147</ele>
        <time>2021-03-07T10:07:49Z</time>
      </trkpt>
      <trkpt lat="46.32202" lon="0.30479">
        <ele>180.01613067463</ele>
        <time>2021-03-07T10:07:51Z</time>
      </trkpt>
      <trkpt lat="46.32201" lon="0.30482">
        <ele>180.69825641625</ele>
        <time>2021-03-07T10:07:53Z</time>
      </trkpt>
      <trkpt lat="46.32199" lon="0.30486">
        <ele>180.8188450709</ele>
        <time>2021-03-07T10:07:55Z</time>
      </trkpt>
      <trkpt lat="46.32198" lon="0.30489">
        <ele>180.19374640007</ele>
        <time>2021-03-07T10:07:57Z</time>
      </trkpt>
      <trkpt lat="46.32197" lon="0.30492">
        <ele>180.50541273691</ele>
        <time>2021-03-07T10:07:58Z</time>
      </trkpt>
      <trkpt lat="46.32196" lon="0.30495">
        <ele>180.38389231171</ele>
        <time>2021-03-07T10:08:00Z</time>
      </trkpt>
      <trkpt lat="46.32195" lon="0.30498">
        <ele>180.40937643591</ele>
        <time>2021-03-07T10:08:02Z</time>
      </trkpt>
      <trkpt lat="46.32193" lon="0.30501">
        <ele>180.16388712637</ele>
        <time>2021-03-07T10:08:04Z</time>
      </trkpt>
      <trkpt lat="46.32192" lon="0.30504">
        <ele>180.41915057041</ele>
        <time>2021-03-07T10:08:06Z</time>
      </trkpt>
      <trkpt lat="46.32191" lon="0.30508">
        <ele>180.50559317507</ele>
        <time>2021-03-07T10:08:08Z</time>
      </trkpt>
      <trkpt lat="46.32189" lon="0.30511">
        <ele>180.48853913136</ele>
        <time>2021-03-07T10:08:10Z</time>
      </trkpt>
      <trkpt lat="46.32188" lon="0.30513">
        <ele>180.38121175114</ele>
        <time>2021-03-07T10:08:11Z</time>
      </trkpt>
      <trkpt lat="46.32186" lon="0.30516">
        <ele>180.87149363104</ele>
        <time>2021-03-07T10:08:13Z</time>
      </trkpt>
      <trkpt lat="46.32185" lon="0.3052">
        <ele>180.40944833215</ele>
        <time>2021-03-07T10:08:15Z</time>
      </trkpt>
      <trkpt lat="46.32183" lon="0.30524">
        <ele>180.65875106957</ele>
        <time>2021-03-07T10:08:17Z</time>
      </trkpt>
      <trkpt lat="46.32182" lon="0.30526">
        <ele>181.03745248821</ele>
        <time>2021-03-07T10:08:19Z</time>
      </trkpt>
      <trkpt lat="46.32181" lon="0.30529">
        <ele>181.13557807636</ele>
        <time>2021-03-07T10:08:20Z</time>
      </trkpt>
      <trkpt lat="46.3218" lon="0.30532">
        <ele>180.41719499603</ele>
        <time>2021-03-07T10:08:22Z</time>
      </trkpt>
      <trkpt lat="46.32179" lon="0.30535">
        <ele>181.05031261407</ele>
        <time>2021-03-07T10:08:24Z</time>
      </trkpt>
      <trkpt lat="46.32177" lon="0.30538">
        <ele>180.91399573721</ele>
        <time>2021-03-07T10:08:26Z</time>
      </trkpt>
      <trkpt lat="46.32176" lon="0.30542">
        <ele>181.01606015582</ele>
        <time>2021-03-07T10:08:28Z</time>
      </trkpt>
      <trkpt lat="46.32175" lon="0.30545">
        <ele>180.67538310308</ele>
        <time>2021-03-07T10:08:30Z</time>
      </trkpt>
      <trkpt lat="46.32174" lon="0.30548">
        <ele>181.05082937516</ele>
        <time>2021-03-07T10:08:31Z</time>
      </trkpt>
      <trkpt lat="46.32173" lon="0.30551">
        <ele>180.88527655043</ele>
        <time>2021-03-07T10:08:33Z</time>
      </trkpt>
      <trkpt lat="46.32172" lon="0.30554">
        <ele>181.14913487993</ele>
        <time>2021-03-07T10:08:35Z</time>
      </trkpt>
      <trkpt lat="46.32171" lon="0.30558">
        <ele>181.56381683424</ele>
        <time>2021-03-07T10:08:37Z</time>
      </trkpt>
      <trkpt lat="46.3217" lon="0.30561">
        <ele>181.58139071986</ele>
        <time>2021-03-07T10:08:39Z</time>
      </trkpt>
      <trkpt lat="46.32168" lon="0.30566">
        <ele>180.93564023823</ele>
        <time>2021-03-07T10:08:42Z</time>
      </trkpt>
      <trkpt lat="46.32167" lon="0.30569">
        <ele>181.63610148989</ele>
        <time>2021-03-07T10:08:44Z</time>
      </trkpt>
      <trkpt lat="46.32167" lon="0.30572">
        <ele>181.39276867546</ele>
        <time>2021-03-07T10:08:46Z</time>
      </trkpt>
      <trkpt lat="46.32165" lon="0.30577">
        <ele>181.1039064629</ele>
        <time>2021-03-07T10:08:48Z</time>
      </trkpt>
      <trkpt lat="46.32165" lon="0.3058">
        <ele>180.98315062653</ele>
        <time>2021-03-07T10:08:50Z</time>
      </trkpt>
      <trkpt lat="46.32163" lon="0.30584">
        <ele>180.92562063225</ele>
        <time>2021-03-07T10:08:52Z</time>
      </trkpt>
      <trkpt lat="46.32163" lon="0.30587">
        <ele>181.20835365076</ele>
        <time>2021-03-07T10:08:54Z</time>
      </trkpt>
      <trkpt lat="46.32162" lon="0.30591">
        <ele>181.18930102605</ele>
        <time>2021-03-07T10:08:56Z</time>
      </trkpt>
      <trkpt lat="46.32161" lon="0.30594">
        <ele>181.26958743669</ele>
        <time>2021-03-07T10:08:58Z</time>
      </trkpt>
      <trkpt lat="46.32161" lon="0.30598">
        <ele>181.47298112512</ele>
        <time>2021-03-07T10:09:00Z</time>
      </trkpt>
      <trkpt lat="46.3216" lon="0.30601">
        <ele>181.38647734746</ele>
        <time>2021-03-07T10:09:02Z</time>
      </trkpt>
      <trkpt lat="46.32159" lon="0.30604">
        <ele>181.62029178161</ele>
        <time>2021-03-07T10:09:04Z</time>
      </trkpt>
      <trkpt lat="46.32158" lon="0.30608">
        <ele>181.43433650397</ele>
        <time>2021-03-07T10:09:06Z</time>
      </trkpt>
      <trkpt lat="46.32158" lon="0.30611">
        <ele>181.53807066847</ele>
        <time>2021-03-07T10:09:08Z</time>
      </trkpt>
      <trkpt lat="46.32157" lon="0.30615">
        <ele>181.29318949301</ele>
        <time>2021-03-07T10:09:10Z</time>
      </trkpt>
      <trkpt lat="46.32156" lon="0.30619">
        <ele>181.68441578001</ele>
        <time>2021-03-07T10:09:12Z</time>
      </trkpt>
      <trkpt lat="46.32155" lon="0.30623">
        <ele>182.51109891664</ele>
        <time>2021-03-07T10:09:14Z</time>
      </trkpt>
      <trkpt lat="46.32154" lon="0.30627">
        <ele>181.62579959817</ele>
        <time>2021-03-07T10:09:16Z</time>
      </trkpt>
      <trkpt lat="46.32153" lon="0.30629">
        <ele>181.73441510089</ele>
        <time>2021-03-07T10:09:17Z</time>
      </trkpt>
      <trkpt lat="46.32153" lon="0.30632">
        <ele>182.27249256242</ele>
        <time>2021-03-07T10:09:19Z</time>
      </trkpt>
      <trkpt lat="46.32152" lon="0.30636">
        <ele>181.94264221657</ele>
        <time>2021-03-07T10:09:21Z</time>
      </trkpt>
      <trkpt lat="46.3215" lon="0.3064">
        <ele>181.83078772761</ele>
        <time>2021-03-07T10:09:23Z</time>
      </trkpt>
      <trkpt lat="46.3215" lon="0.30643">
        <ele>182.15300096665</ele>
        <time>2021-03-07T10:09:25Z</time>
      </trkpt>
      <trkpt lat="46.32149" lon="0.30647">
        <ele>182.21931893844</ele>
        <time>2021-03-07T10:09:27Z</time>
      </trkpt>
      <trkpt lat="46.32149" lon="0.30649">
        <ele>182.14201969281</ele>
        <time>2021-03-07T10:09:28Z</time>
      </trkpt>
      <trkpt lat="46.32148" lon="0.30652">
        <ele>182.12886327412</ele>
        <time>2021-03-07T10:09:30Z</time>
      </trkpt>
      <trkpt lat="46.32147" lon="0.30656">
        <ele>182.35255042277</ele>
        <time>2021-03-07T10:09:32Z</time>
      </trkpt>
      <trkpt lat="46.32146" lon="0.3066">
        <ele>182.23702263273</ele>
        <time>2021-03-07T10:09:34Z</time>
      </trkpt>
      <trkpt lat="46.32145" lon="0.30664">
        <ele>182.63935706858</ele>
        <time>2021-03-07T10:09:36Z</time>
      </trkpt>
      <trkpt lat="46.32145" lon="0.30668">
        <ele>182.1898918217</ele>
        <time>2021-03-07T10:09:38Z</time>
      </trkpt>
      <trkpt lat="46.32144" lon="0.30671">
        <ele>182.13067209721</ele>
        <time>2021-03-07T10:09:40Z</time>
      </trkpt>
      <trkpt lat="46.32144" lon="0.30674">
        <ele>182.76669008937</ele>
        <time>2021-03-07T10:09:42Z</time>
      </trkpt>
      <trkpt lat="46.32143" lon="0.30679">
        <ele>182.68997532409</ele>
        <time>2021-03-07T10:09:44Z</time>
      </trkpt>
      <trkpt lat="46.32142" lon="0.30683">
        <ele>182.11572403926</ele>
        <time>2021-03-07T10:09:46Z</time>
      </trkpt>
      <trkpt lat="46.32142" lon="0.30686">
        <ele>182.53108936548</ele>
        <time>2021-03-07T10:09:48Z</time>
      </trkpt>
      <trkpt lat="46.32143" lon="0.3069">
        <ele>182.95647499058</ele>
        <time>2021-03-07T10:09:50Z</time>
      </trkpt>
      <trkpt lat="46.32142" lon="0.30693">
        <ele>182.57582086604</ele>
        <time>2021-03-07T10:09:52Z</time>
      </trkpt>
      <trkpt lat="46.32142" lon="0.30696">
        <ele>182.59277333412</ele>
        <time>2021-03-07T10:09:54Z</time>
      </trkpt>
      <trkpt lat="46.32142" lon="0.307">
        <ele>182.90639994107</ele>
        <time>2021-03-07T10:09:56Z</time>
      </trkpt>
      <trkpt lat="46.32142" lon="0.30705">
        <ele>183.30998821743</ele>
        <time>2021-03-07T10:09:58Z</time>
      </trkpt>
      <trkpt lat="46.32142" lon="0.30708">
        <ele>182.64079571888</ele>
        <time>2021-03-07T10:10:00Z</time>
      </trkpt>
      <trkpt lat="46.32141" lon="0.30713">
        <ele>183.10227822233</ele>
        <time>2021-03-07T10:10:02Z</time>
      </trkpt>
      <trkpt lat="46.32141" lon="0.30716">
        <ele>183.21097581089</ele>
        <time>2021-03-07T10:10:04Z</time>
      </trkpt>
      <trkpt lat="46.32142" lon="0.30719">
        <ele>183.1274960041</ele>
        <time>2021-03-07T10:10:06Z</time>
      </trkpt>
      <trkpt lat="46.32141" lon="0.30724">
        <ele>183.42830576003</ele>
        <time>2021-03-07T10:10:08Z</time>
      </trkpt>
      <trkpt lat="46.32141" lon="0.30727">
        <ele>183.74268611707</ele>
        <time>2021-03-07T10:10:10Z</time>
      </trkpt>
      <trkpt lat="46.3214" lon="0.30732">
        <ele>183.50151667278</ele>
        <time>2021-03-07T10:10:12Z</time>
      </trkpt>
      <trkpt lat="46.3214" lon="0.30735">
        <ele>183.74487233441</ele>
        <time>2021-03-07T10:10:14Z</time>
      </trkpt>
      <trkpt lat="46.32139" lon="0.3074">
        <ele>183.61505305301</ele>
        <time>2021-03-07T10:10:16Z</time>
      </trkpt>
      <trkpt lat="46.32138" lon="0.30744">
        <ele>184.35343792755</ele>
        <time>2021-03-07T10:10:19Z</time>
      </trkpt>
      <trkpt lat="46.32138" lon="0.30748">
        <ele>184.45774465706</ele>
        <time>2021-03-07T10:10:21Z</time>
      </trkpt>
      <trkpt lat="46.32137" lon="0.30752">
        <ele>184.05918339267</ele>
        <time>2021-03-07T10:10:23Z</time>
      </trkpt>
      <trkpt lat="46.32136" lon="0.30756">
        <ele>183.92949802149</ele>
        <time>2021-03-07T10:10:25Z</time>
      </trkpt>
      <trkpt lat="46.32135" lon="0.30759">
        <ele>183.76024017017</ele>
        <time>2021-03-07T10:10:27Z</time>
      </trkpt>
      <trkpt lat="46.32135" lon="0.30762">
        <ele>184.04268838651</ele>
        <time>2021-03-07T10:10:28Z</time>
      </trkpt>
      <trkpt lat="46.32134" lon="0.30766">
        <ele>184.42286158446</ele>
        <time>2021-03-07T10:10:30Z</time>
      </trkpt>
      <trkpt lat="46.32133" lon="0.30769">
        <ele>184.50357441138</ele>
        <time>2021-03-07T10:10:32Z</time>
      </trkpt>
      <trkpt lat="46.32132" lon="0.30772">
        <ele>184.43341514096</ele>
        <time>2021-03-07T10:10:34Z</time>
      </trkpt>
      <trkpt lat="46.32131" lon="0.30776">
        <ele>183.83668229077</ele>
        <time>2021-03-07T10:10:36Z</time>
      </trkpt>
      <trkpt lat="46.3213" lon="0.3078">
        <ele>184.42406833917</ele>
        <time>2021-03-07T10:10:38Z</time>
      </trkpt>
      <trkpt lat="46.32128" lon="0.30783">
        <ele>184.26335890405</ele>
        <time>2021-03-07T10:10:40Z</time>
      </trkpt>
      <trkpt lat="46.32127" lon="0.30787">
        <ele>184.41758157965</ele>
        <time>2021-03-07T10:10:42Z</time>
      </trkpt>
      <trkpt lat="46.32126" lon="0.30789">
        <ele>184.66070263274</ele>
        <time>2021-03-07T10:10:43Z</time>
      </trkpt>
      <trkpt lat="46.32125" lon="0.30792">
        <ele>184.3072085632</ele>
        <time>2021-03-07T10:10:45Z</time>
      </trkpt>
      <trkpt lat="46.32123" lon="0.30796">
        <ele>184.16108214296</ele>
        <time>2021-03-07T10:10:47Z</time>
      </trkpt>
      <trkpt lat="46.32122" lon="0.30799">
        <ele>184.45242826547</ele>
        <time>2021-03-07T10:10:49Z</time>
      </trkpt>
      <trkpt lat="46.32121" lon="0.30802">
        <ele>184.36160875298</ele>
        <time>2021-03-07T10:10:51Z</time>
      </trkpt>
      <trkpt lat="46.32119" lon="0.30805">
        <ele>184.08420960326</ele>
        <time>2021-03-07T10:10:53Z</time>
      </trkpt>
      <trkpt lat="46.32117" lon="0.30809">
        <ele>184.70820421074</ele>
        <time>2021-03-07T10:10:55Z</time>
      </trkpt>
      <trkpt lat="46.32117" lon="0.30812">
        <ele>184.05123944581</ele>
        <time>2021-03-07T10:10:57Z</time>
      </trkpt>
      <trkpt lat="46.32116" lon="0.30816">
        <ele>183.75536783133</ele>
        <time>2021-03-07T10:10:59Z</time>
      </trkpt>
      <trkpt lat="46.32115" lon="0.30819">
        <ele>184.13515705429</ele>
        <time>2021-03-07T10:11:01Z</time>
      </trkpt>
      <trkpt lat="46.32114" lon="0.30823">
        <ele>183.9887830792</ele>
        <time>2021-03-07T10:11:03Z</time>
      </trkpt>
      <trkpt lat="46.32112" lon="0.30826">
        <ele>183.99726091698</ele>
        <time>2021-03-07T10:11:05Z</time>
      </trkpt>
      <trkpt lat="46.32111" lon="0.30829">
        <ele>184.02373267431</ele>
        <time>2021-03-07T10:11:07Z</time>
      </trkpt>
      <trkpt lat="46.3211" lon="0.30833">
        <ele>184.30455887876</ele>
        <time>2021-03-07T10:11:09Z</time>
      </trkpt>
      <trkpt lat="46.32109" lon="0.30836">
        <ele>184.21525487304</ele>
        <time>2021-03-07T10:11:11Z</time>
      </trkpt>
      <trkpt lat="46.32108" lon="0.30839">
        <ele>184.55030070152</ele>
        <time>2021-03-07T10:11:13Z</time>
      </trkpt>
      <trkpt lat="46.32107" lon="0.30843">
        <ele>184.27964645345</ele>
        <time>2021-03-07T10:11:15Z</time>
      </trkpt>
      <trkpt lat="46.32106" lon="0.30846">
        <ele>184.14138623979</ele>
        <time>2021-03-07T10:11:17Z</time>
      </trkpt>
      <trkpt lat="46.32104" lon="0.3085">
        <ele>184.35029962007</ele>
        <time>2021-03-07T10:11:19Z</time>
      </trkpt>
      <trkpt lat="46.32104" lon="0.30853">
        <ele>184.57740889862</ele>
        <time>2021-03-07T10:11:20Z</time>
      </trkpt>
      <trkpt lat="46.32102" lon="0.30857">
        <ele>184.25560298283</ele>
        <time>2021-03-07T10:11:23Z</time>
      </trkpt>
      <trkpt lat="46.32101" lon="0.3086">
        <ele>184.29386130162</ele>
        <time>2021-03-07T10:11:25Z</time>
      </trkpt>
      <trkpt lat="46.321" lon="0.30863">
        <ele>184.67759234831</ele>
        <time>2021-03-07T10:11:27Z</time>
      </trkpt>
      <trkpt lat="46.32099" lon="0.30867">
        <ele>184.50853472576</ele>
        <time>2021-03-07T10:11:29Z</time>
      </trkpt>
      <trkpt lat="46.32098" lon="0.3087">
        <ele>184.86514937039</ele>
        <time>2021-03-07T10:11:31Z</time>
      </trkpt>
      <trkpt lat="46.32096" lon="0.30873">
        <ele>185.15413174871</ele>
        <time>2021-03-07T10:11:33Z</time>
      </trkpt>
      <trkpt lat="46.32095" lon="0.30877">
        <ele>184.86350696906</ele>
        <time>2021-03-07T10:11:35Z</time>
      </trkpt>
      <trkpt lat="46.32094" lon="0.30881">
        <ele>184.76260752045</ele>
        <time>2021-03-07T10:11:37Z</time>
      </trkpt>
      <trkpt lat="46.32093" lon="0.30884">
        <ele>184.66255165543</ele>
        <time>2021-03-07T10:11:39Z</time>
      </trkpt>
      <trkpt lat="46.32091" lon="0.30888">
        <ele>184.57711398508</ele>
        <time>2021-03-07T10:11:41Z</time>
      </trkpt>
      <trkpt lat="46.32089" lon="0.30891">
        <ele>184.79843226634</ele>
        <time>2021-03-07T10:11:43Z</time>
      </trkpt>
      <trkpt lat="46.32088" lon="0.30895">
        <ele>185.12942327373</ele>
        <time>2021-03-07T10:11:45Z</time>
      </trkpt>
      <trkpt lat="46.32087" lon="0.30898">
        <ele>184.77935758326</ele>
        <time>2021-03-07T10:11:47Z</time>
      </trkpt>
      <trkpt lat="46.32086" lon="0.309">
        <ele>184.45727329701</ele>
        <time>2021-03-07T10:11:49Z</time>
      </trkpt>
      <trkpt lat="46.32085" lon="0.30903">
        <ele>184.66157837212</ele>
        <time>2021-03-07T10:11:51Z</time>
      </trkpt>
      <trkpt lat="46.32083" lon="0.30906">
        <ele>184.67759071384</ele>
        <time>2021-03-07T10:11:53Z</time>
      </trkpt>
      <trkpt lat="46.32083" lon="0.30908">
        <ele>185.11429559626</ele>
        <time>2021-03-07T10:11:55Z</time>
      </trkpt>
      <trkpt lat="46.32081" lon="0.30912">
        <ele>184.73400578182</ele>
        <time>2021-03-07T10:11:58Z</time>
      </trkpt>
      <trkpt lat="46.3208" lon="0.3091">
        <ele>184.90201811586</ele>
        <time>2021-03-07T10:12:16Z</time>
      </trkpt>
      <trkpt lat="46.32078" lon="0.30909">
        <ele>184.66596275847</ele>
        <time>2021-03-07T10:12:57Z</time>
      </trkpt>
      <trkpt lat="46.32078" lon="0.30912">
        <ele>183.97936357278</ele>
        <time>2021-03-07T10:13:10Z</time>
      </trkpt>
      <trkpt lat="46.32077" lon="0.30915">
        <ele>184.29001546837</ele>
        <time>2021-03-07T10:13:11Z</time>
      </trkpt>
      <trkpt lat="46.32077" lon="0.30919">
        <ele>184.23918515537</ele>
        <time>2021-03-07T10:13:13Z</time>
      </trkpt>
      <trkpt lat="46.32077" lon="0.30922">
        <ele>184.70693191234</ele>
        <time>2021-03-07T10:13:15Z</time>
      </trkpt>
      <trkpt lat="46.32077" lon="0.30926">
        <ele>184.27647500765</ele>
        <time>2021-03-07T10:13:18Z</time>
      </trkpt>
      <trkpt lat="46.32076" lon="0.3093">
        <ele>184.56077918876</ele>
        <time>2021-03-07T10:13:21Z</time>
      </trkpt>
      <trkpt lat="46.32075" lon="0.30932">
        <ele>184.74571474921</ele>
        <time>2021-03-07T10:13:22Z</time>
      </trkpt>
      <trkpt lat="46.32074" lon="0.30936">
        <ele>184.66929658968</ele>
        <time>2021-03-07T10:13:24Z</time>
      </trkpt>
      <trkpt lat="46.32074" lon="0.3094">
        <ele>184.22999624163</ele>
        <time>2021-03-07T10:13:27Z</time>
      </trkpt>
      <trkpt lat="46.32074" lon="0.30943">
        <ele>184.45688290428</ele>
        <time>2021-03-07T10:13:29Z</time>
      </trkpt>
      <trkpt lat="46.32073" lon="0.30947">
        <ele>184.53675787803</ele>
        <time>2021-03-07T10:13:31Z</time>
      </trkpt>
      <trkpt lat="46.32074" lon="0.3095">
        <ele>184.62745631952</ele>
        <time>2021-03-07T10:13:33Z</time>
      </trkpt>
      <trkpt lat="46.32073" lon="0.30953">
        <ele>184.56745898072</ele>
        <time>2021-03-07T10:13:35Z</time>
      </trkpt>
      <trkpt lat="46.32073" lon="0.30958">
        <ele>184.91479036491</ele>
        <time>2021-03-07T10:13:37Z</time>
      </trkpt>
      <trkpt lat="46.32073" lon="0.30961">
        <ele>183.88164821733</ele>
        <time>2021-03-07T10:13:39Z</time>
      </trkpt>
      <trkpt lat="46.32073" lon="0.30966">
        <ele>184.7591286106</ele>
        <time>2021-03-07T10:13:41Z</time>
      </trkpt>
      <trkpt lat="46.32073" lon="0.30969">
        <ele>184.8541282462</ele>
        <time>2021-03-07T10:13:43Z</time>
      </trkpt>
      <trkpt lat="46.32072" lon="0.30972">
        <ele>185.48437131755</ele>
        <time>2021-03-07T10:13:45Z</time>
      </trkpt>
      <trkpt lat="46.32072" lon="0.30976">
        <ele>185.44634328038</ele>
        <time>2021-03-07T10:13:47Z</time>
      </trkpt>
      <trkpt lat="46.32072" lon="0.30979">
        <ele>185.20102115814</ele>
        <time>2021-03-07T10:13:49Z</time>
      </trkpt>
      <trkpt lat="46.32072" lon="0.30982">
        <ele>183.99144848529</ele>
        <time>2021-03-07T10:13:51Z</time>
      </trkpt>
      <trkpt lat="46.32072" lon="0.30987">
        <ele>185.07985749189</ele>
        <time>2021-03-07T10:13:53Z</time>
      </trkpt>
      <trkpt lat="46.32072" lon="0.3099">
        <ele>184.78620229568</ele>
        <time>2021-03-07T10:13:55Z</time>
      </trkpt>
      <trkpt lat="46.32073" lon="0.30994">
        <ele>185.08085532859</ele>
        <time>2021-03-07T10:13:57Z</time>
      </trkpt>
      <trkpt lat="46.32073" lon="0.30998">
        <ele>185.1965846559</ele>
        <time>2021-03-07T10:13:59Z</time>
      </trkpt>
      <trkpt lat="46.32073" lon="0.31002">
        <ele>185.42056823988</ele>
        <time>2021-03-07T10:14:01Z</time>
      </trkpt>
      <trkpt lat="46.32074" lon="0.31006">
        <ele>185.4943618821</ele>
        <time>2021-03-07T10:14:03Z</time>
      </trkpt>
      <trkpt lat="46.32075" lon="0.3101">
        <ele>185.19124726672</ele>
        <time>2021-03-07T10:14:05Z</time>
      </trkpt>
      <trkpt lat="46.32074" lon="0.31014">
        <ele>185.24483065773</ele>
        <time>2021-03-07T10:14:07Z</time>
      </trkpt>
      <trkpt lat="46.32074" lon="0.31019">
        <ele>185.31497277971</ele>
        <time>2021-03-07T10:14:09Z</time>
      </trkpt>
      <trkpt lat="46.32075" lon="0.31023">
        <ele>185.23933045007</ele>
        <time>2021-03-07T10:14:11Z</time>
      </trkpt>
      <trkpt lat="46.32075" lon="0.31028">
        <ele>185.05363559444</ele>
        <time>2021-03-07T10:14:13Z</time>
      </trkpt>
      <trkpt lat="46.32075" lon="0.31033">
        <ele>185.34095120989</ele>
        <time>2021-03-07T10:14:15Z</time>
      </trkpt>
      <trkpt lat="46.32075" lon="0.31036">
        <ele>185.14686250407</ele>
        <time>2021-03-07T10:14:17Z</time>
      </trkpt>
      <trkpt lat="46.32076" lon="0.3104">
        <ele>184.96674662735</ele>
        <time>2021-03-07T10:14:19Z</time>
      </trkpt>
      <trkpt lat="46.32076" lon="0.31045">
        <ele>185.32394306175</ele>
        <time>2021-03-07T10:14:21Z</time>
      </trkpt>
      <trkpt lat="46.32075" lon="0.31048">
        <ele>185.24630208313</ele>
        <time>2021-03-07T10:14:23Z</time>
      </trkpt>
      <trkpt lat="46.32075" lon="0.31052">
        <ele>185.14434430748</ele>
        <time>2021-03-07T10:14:25Z</time>
      </trkpt>
      <trkpt lat="46.32076" lon="0.31056">
        <ele>185.61143096909</ele>
        <time>2021-03-07T10:14:27Z</time>
      </trkpt>
      <trkpt lat="46.32076" lon="0.31059">
        <ele>185.77664171997</ele>
        <time>2021-03-07T10:14:29Z</time>
      </trkpt>
      <trkpt lat="46.32076" lon="0.31064">
        <ele>185.43092065584</ele>
        <time>2021-03-07T10:14:31Z</time>
      </trkpt>
      <trkpt lat="46.32076" lon="0.31068">
        <ele>185.23938328773</ele>
        <time>2021-03-07T10:14:33Z</time>
      </trkpt>
      <trkpt lat="46.32077" lon="0.31072">
        <ele>185.35057116114</ele>
        <time>2021-03-07T10:14:35Z</time>
      </trkpt>
      <trkpt lat="46.32077" lon="0.31076">
        <ele>185.65195550211</ele>
        <time>2021-03-07T10:14:37Z</time>
      </trkpt>
      <trkpt lat="46.32077" lon="0.3108">
        <ele>185.43536814954</ele>
        <time>2021-03-07T10:14:39Z</time>
      </trkpt>
      <trkpt lat="46.32077" lon="0.31083">
        <ele>185.2262274567</ele>
        <time>2021-03-07T10:14:41Z</time>
      </trkpt>
      <trkpt lat="46.32077" lon="0.31087">
        <ele>185.76013361942</ele>
        <time>2021-03-07T10:14:43Z</time>
      </trkpt>
      <trkpt lat="46.32077" lon="0.31091">
        <ele>186.00084695686</ele>
        <time>2021-03-07T10:14:45Z</time>
      </trkpt>
      <trkpt lat="46.32077" lon="0.31095">
        <ele>185.90017628763</ele>
        <time>2021-03-07T10:14:47Z</time>
      </trkpt>
      <trkpt lat="46.32077" lon="0.311">
        <ele>185.65197431017</ele>
        <time>2021-03-07T10:14:49Z</time>
      </trkpt>
      <trkpt lat="46.32077" lon="0.31104">
        <ele>185.70833262894</ele>
        <time>2021-03-07T10:14:51Z</time>
      </trkpt>
      <trkpt lat="46.32077" lon="0.31107">
        <ele>185.74693336338</ele>
        <time>2021-03-07T10:14:53Z</time>
      </trkpt>
      <trkpt lat="46.32077" lon="0.3111">
        <ele>185.60261116456</ele>
        <time>2021-03-07T10:14:55Z</time>
      </trkpt>
      <trkpt lat="46.32077" lon="0.31115">
        <ele>185.98364580516</ele>
        <time>2021-03-07T10:14:57Z</time>
      </trkpt>
      <trkpt lat="46.32078" lon="0.31119">
        <ele>186.22966501396</ele>
        <time>2021-03-07T10:14:59Z</time>
      </trkpt>
      <trkpt lat="46.32079" lon="0.31122">
        <ele>185.87800277676</ele>
        <time>2021-03-07T10:15:01Z</time>
      </trkpt>
      <trkpt lat="46.32079" lon="0.31126">
        <ele>186.21120412089</ele>
        <time>2021-03-07T10:15:03Z</time>
      </trkpt>
      <trkpt lat="46.32079" lon="0.3113">
        <ele>185.63789292518</ele>
        <time>2021-03-07T10:15:05Z</time>
      </trkpt>
      <trkpt lat="46.3208" lon="0.31133">
        <ele>185.19797908794</ele>
        <time>2021-03-07T10:15:07Z</time>
      </trkpt>
      <trkpt lat="46.32081" lon="0.31136">
        <ele>185.49567700736</ele>
        <time>2021-03-07T10:15:09Z</time>
      </trkpt>
      <trkpt lat="46.32082" lon="0.31139">
        <ele>186.26040331833</ele>
        <time>2021-03-07T10:15:11Z</time>
      </trkpt>
      <trkpt lat="46.32081" lon="0.31143">
        <ele>186.08346168138</ele>
        <time>2021-03-07T10:15:13Z</time>
      </trkpt>
      <trkpt lat="46.32082" lon="0.31148">
        <ele>185.649525268</ele>
        <time>2021-03-07T10:15:15Z</time>
      </trkpt>
      <trkpt lat="46.32082" lon="0.31152">
        <ele>186.103689963</ele>
        <time>2021-03-07T10:15:17Z</time>
      </trkpt>
      <trkpt lat="46.32082" lon="0.31155">
        <ele>186.11484337412</ele>
        <time>2021-03-07T10:15:19Z</time>
      </trkpt>
      <trkpt lat="46.32082" lon="0.31159">
        <ele>185.95296877064</ele>
        <time>2021-03-07T10:15:21Z</time>
      </trkpt>
      <trkpt lat="46.32082" lon="0.31164">
        <ele>186.04316013586</ele>
        <time>2021-03-07T10:15:23Z</time>
      </trkpt>
      <trkpt lat="46.32082" lon="0.31167">
        <ele>185.63383526169</ele>
        <time>2021-03-07T10:15:25Z</time>
      </trkpt>
      <trkpt lat="46.32082" lon="0.31171">
        <ele>185.27373740822</ele>
        <time>2021-03-07T10:15:27Z</time>
      </trkpt>
      <trkpt lat="46.32083" lon="0.31175">
        <ele>186.14635626692</ele>
        <time>2021-03-07T10:15:29Z</time>
      </trkpt>
      <trkpt lat="46.32082" lon="0.31178">
        <ele>186.09238362033</ele>
        <time>2021-03-07T10:15:31Z</time>
      </trkpt>
      <trkpt lat="46.32081" lon="0.31182">
        <ele>186.13118358701</ele>
        <time>2021-03-07T10:15:33Z</time>
      </trkpt>
      <trkpt lat="46.32081" lon="0.31187">
        <ele>185.79315387178</ele>
        <time>2021-03-07T10:15:35Z</time>
      </trkpt>
      <trkpt lat="46.32081" lon="0.3119">
        <ele>186.25651754439</ele>
        <time>2021-03-07T10:15:37Z</time>
      </trkpt>
      <trkpt lat="46.32081" lon="0.31193">
        <ele>185.91948788334</ele>
        <time>2021-03-07T10:15:38Z</time>
      </trkpt>
      <trkpt lat="46.3208" lon="0.31196">
        <ele>185.72577439342</ele>
        <time>2021-03-07T10:15:40Z</time>
      </trkpt>
      <trkpt lat="46.32079" lon="0.31199">
        <ele>185.98955850862</ele>
        <time>2021-03-07T10:15:42Z</time>
      </trkpt>
      <trkpt lat="46.32079" lon="0.31203">
        <ele>185.72387688421</ele>
        <time>2021-03-07T10:15:44Z</time>
      </trkpt>
      <trkpt lat="46.32079" lon="0.31205">
        <ele>185.5805778848</ele>
        <time>2021-03-07T10:15:45Z</time>
      </trkpt>
      <trkpt lat="46.32078" lon="0.3121">
        <ele>185.57960838825</ele>
        <time>2021-03-07T10:15:47Z</time>
      </trkpt>
      <trkpt lat="46.32077" lon="0.31215">
        <ele>186.52548894379</ele>
        <time>2021-03-07T10:15:49Z</time>
      </trkpt>
      <trkpt lat="46.32076" lon="0.31218">
        <ele>185.90176444408</ele>
        <time>2021-03-07T10:15:51Z</time>
      </trkpt>
      <trkpt lat="46.32076" lon="0.31223">
        <ele>184.92261371948</ele>
        <time>2021-03-07T10:15:53Z</time>
      </trkpt>
      <trkpt lat="46.32076" lon="0.31226">
        <ele>184.96175221726</ele>
        <time>2021-03-07T10:15:55Z</time>
      </trkpt>
      <trkpt lat="46.32076" lon="0.31229">
        <ele>184.92667065002</ele>
        <time>2021-03-07T10:15:57Z</time>
      </trkpt>
      <trkpt lat="46.32075" lon="0.31233">
        <ele>185.10083267558</ele>
        <time>2021-03-07T10:15:59Z</time>
      </trkpt>
      <trkpt lat="46.32075" lon="0.31236">
        <ele>184.77202546317</ele>
        <time>2021-03-07T10:16:00Z</time>
      </trkpt>
      <trkpt lat="46.32075" lon="0.31241">
        <ele>184.4540183153</ele>
        <time>2021-03-07T10:16:02Z</time>
      </trkpt>
      <trkpt lat="46.32074" lon="0.31245">
        <ele>184.78013389744</ele>
        <time>2021-03-07T10:16:04Z</time>
      </trkpt>
      <trkpt lat="46.32074" lon="0.31249">
        <ele>184.49701454677</ele>
        <time>2021-03-07T10:16:06Z</time>
      </trkpt>
      <trkpt lat="46.32073" lon="0.31253">
        <ele>184.05245382339</ele>
        <time>2021-03-07T10:16:08Z</time>
      </trkpt>
      <trkpt lat="46.32072" lon="0.31256">
        <ele>184.0758932773</ele>
        <time>2021-03-07T10:16:09Z</time>
      </trkpt>
      <trkpt lat="46.32072" lon="0.3126">
        <ele>183.70810970012</ele>
        <time>2021-03-07T10:16:11Z</time>
      </trkpt>
      <trkpt lat="46.32072" lon="0.31264">
        <ele>183.99097535759</ele>
        <time>2021-03-07T10:16:13Z</time>
      </trkpt>
      <trkpt lat="46.32071" lon="0.31267">
        <ele>184.89908419643</ele>
        <time>2021-03-07T10:16:15Z</time>
      </trkpt>
      <trkpt lat="46.32071" lon="0.31271">
        <ele>183.66752906051</ele>
        <time>2021-03-07T10:16:17Z</time>
      </trkpt>
      <trkpt lat="46.32071" lon="0.31275">
        <ele>184.67111987621</ele>
        <time>2021-03-07T10:16:19Z</time>
      </trkpt>
      <trkpt lat="46.3207" lon="0.31278">
        <ele>184.20057926327</ele>
        <time>2021-03-07T10:16:20Z</time>
      </trkpt>
      <trkpt lat="46.32071" lon="0.31281">
        <ele>183.84339733701</ele>
        <time>2021-03-07T10:16:22Z</time>
      </trkpt>
      <trkpt lat="46.32071" lon="0.31285">
        <ele>183.54944614228</ele>
        <time>2021-03-07T10:16:24Z</time>
      </trkpt>
      <trkpt lat="46.32071" lon="0.31289">
        <ele>183.86304802913</ele>
        <time>2021-03-07T10:16:26Z</time>
      </trkpt>
      <trkpt lat="46.32071" lon="0.31293">
        <ele>183.4620509455</ele>
        <time>2021-03-07T10:16:28Z</time>
      </trkpt>
      <trkpt lat="46.32072" lon="0.31296">
        <ele>183.12099096831</ele>
        <time>2021-03-07T10:16:30Z</time>
      </trkpt>
      <trkpt lat="46.32072" lon="0.31299">
        <ele>183.00475697778</ele>
        <time>2021-03-07T10:16:32Z</time>
      </trkpt>
      <trkpt lat="46.32072" lon="0.31302">
        <ele>183.07350669987</ele>
        <time>2021-03-07T10:16:33Z</time>
      </trkpt>
      <trkpt lat="46.32072" lon="0.31305">
        <ele>182.96628116351</ele>
        <time>2021-03-07T10:16:34Z</time>
      </trkpt>
      <trkpt lat="46.32073" lon="0.31308">
        <ele>182.398835917</ele>
        <time>2021-03-07T10:16:36Z</time>
      </trkpt>
      <trkpt lat="46.32073" lon="0.31313">
        <ele>183.008893013</ele>
        <time>2021-03-07T10:16:38Z</time>
      </trkpt>
      <trkpt lat="46.32073" lon="0.31316">
        <ele>182.90147524048</ele>
        <time>2021-03-07T10:16:40Z</time>
      </trkpt>
      <trkpt lat="46.32073" lon="0.3132">
        <ele>183.10451847687</ele>
        <time>2021-03-07T10:16:42Z</time>
      </trkpt>
      <trkpt lat="46.32074" lon="0.31324">
        <ele>182.91920627654</ele>
        <time>2021-03-07T10:16:44Z</time>
      </trkpt>
      <trkpt lat="46.32074" lon="0.31329">
        <ele>183.07484089956</ele>
        <time>2021-03-07T10:16:46Z</time>
      </trkpt>
      <trkpt lat="46.32075" lon="0.31332">
        <ele>182.45017544273</ele>
        <time>2021-03-07T10:16:48Z</time>
      </trkpt>
      <trkpt lat="46.32075" lon="0.31336">
        <ele>182.31883695628</ele>
        <time>2021-03-07T10:16:50Z</time>
      </trkpt>
      <trkpt lat="46.32076" lon="0.3134">
        <ele>182.79420800973</ele>
        <time>2021-03-07T10:16:52Z</time>
      </trkpt>
      <trkpt lat="46.32077" lon="0.31344">
        <ele>182.03675677348</ele>
        <time>2021-03-07T10:16:54Z</time>
      </trkpt>
      <trkpt lat="46.32077" lon="0.31348">
        <ele>182.62684272509</ele>
        <time>2021-03-07T10:16:56Z</time>
      </trkpt>
      <trkpt lat="46.32078" lon="0.31351">
        <ele>181.542901868</ele>
        <time>2021-03-07T10:16:58Z</time>
      </trkpt>
      <trkpt lat="46.32078" lon="0.31354">
        <ele>183.11300215963</ele>
        <time>2021-03-07T10:17:00Z</time>
      </trkpt>
      <trkpt lat="46.32079" lon="0.31358">
        <ele>182.47658874746</ele>
        <time>2021-03-07T10:17:02Z</time>
      </trkpt>
      <trkpt lat="46.3208" lon="0.31362">
        <ele>181.94360669609</ele>
        <time>2021-03-07T10:17:04Z</time>
      </trkpt>
      <trkpt lat="46.32081" lon="0.31366">
        <ele>181.49957966246</ele>
        <time>2021-03-07T10:17:06Z</time>
      </trkpt>
      <trkpt lat="46.32082" lon="0.3137">
        <ele>181.73774376791</ele>
        <time>2021-03-07T10:17:08Z</time>
      </trkpt>
      <trkpt lat="46.32083" lon="0.31374">
        <ele>181.52411632985</ele>
        <time>2021-03-07T10:17:10Z</time>
      </trkpt>
      <trkpt lat="46.32083" lon="0.31378">
        <ele>181.5335996924</ele>
        <time>2021-03-07T10:17:12Z</time>
      </trkpt>
      <trkpt lat="46.32084" lon="0.31381">
        <ele>181.7938645957</ele>
        <time>2021-03-07T10:17:14Z</time>
      </trkpt>
      <trkpt lat="46.32085" lon="0.31385">
        <ele>181.29706214927</ele>
        <time>2021-03-07T10:17:16Z</time>
      </trkpt>
      <trkpt lat="46.32086" lon="0.31388">
        <ele>181.00689312071</ele>
        <time>2021-03-07T10:17:18Z</time>
      </trkpt>
      <trkpt lat="46.32087" lon="0.31392">
        <ele>181.30655341502</ele>
        <time>2021-03-07T10:17:20Z</time>
      </trkpt>
      <trkpt lat="46.32088" lon="0.31396">
        <ele>181.14710468985</ele>
        <time>2021-03-07T10:17:22Z</time>
      </trkpt>
      <trkpt lat="46.32089" lon="0.314">
        <ele>180.97528893873</ele>
        <time>2021-03-07T10:17:24Z</time>
      </trkpt>
      <trkpt lat="46.32091" lon="0.31404">
        <ele>181.0834895419</ele>
        <time>2021-03-07T10:17:26Z</time>
      </trkpt>
      <trkpt lat="46.32092" lon="0.31407">
        <ele>180.30229056068</ele>
        <time>2021-03-07T10:17:28Z</time>
      </trkpt>
      <trkpt lat="46.32093" lon="0.31411">
        <ele>180.40012966655</ele>
        <time>2021-03-07T10:17:30Z</time>
      </trkpt>
      <trkpt lat="46.32093" lon="0.31415">
        <ele>180.74589801766</ele>
        <time>2021-03-07T10:17:32Z</time>
      </trkpt>
      <trkpt lat="46.32095" lon="0.31419">
        <ele>180.5983181037</ele>
        <time>2021-03-07T10:17:35Z</time>
      </trkpt>
      <trkpt lat="46.32096" lon="0.31423">
        <ele>180.48064645007</ele>
        <time>2021-03-07T10:17:37Z</time>
      </trkpt>
      <trkpt lat="46.32098" lon="0.31427">
        <ele>180.55893711094</ele>
        <time>2021-03-07T10:17:39Z</time>
      </trkpt>
      <trkpt lat="46.32099" lon="0.3143">
        <ele>180.61398432404</ele>
        <time>2021-03-07T10:17:41Z</time>
      </trkpt>
      <trkpt lat="46.32098" lon="0.31434">
        <ele>180.24251721241</ele>
        <time>2021-03-07T10:17:43Z</time>
      </trkpt>
      <trkpt lat="46.32096" lon="0.31436">
        <ele>180.03152647708</ele>
        <time>2021-03-07T10:17:45Z</time>
      </trkpt>
      <trkpt lat="46.32094" lon="0.31437">
        <ele>180.96132368408</ele>
        <time>2021-03-07T10:17:47Z</time>
      </trkpt>
      <trkpt lat="46.32091" lon="0.3144">
        <ele>180.22068058327</ele>
        <time>2021-03-07T10:17:49Z</time>
      </trkpt>
      <trkpt lat="46.32089" lon="0.31441">
        <ele>180.10353673156</ele>
        <time>2021-03-07T10:17:50Z</time>
      </trkpt>
      <trkpt lat="46.32086" lon="0.31443">
        <ele>180.11447148118</ele>
        <time>2021-03-07T10:17:52Z</time>
      </trkpt>
      <trkpt lat="46.32083" lon="0.31444">
        <ele>179.9694166109</ele>
        <time>2021-03-07T10:17:55Z</time>
      </trkpt>
      <trkpt lat="46.32081" lon="0.31445">
        <ele>180.00427662581</ele>
        <time>2021-03-07T10:17:57Z</time>
      </trkpt>
      <trkpt lat="46.32078" lon="0.31447">
        <ele>180.02061200235</ele>
        <time>2021-03-07T10:17:59Z</time>
      </trkpt>
      <trkpt lat="46.32076" lon="0.31448">
        <ele>179.9697765559</ele>
        <time>2021-03-07T10:18:01Z</time>
      </trkpt>
      <trkpt lat="46.32074" lon="0.3145">
        <ele>179.51200661808</ele>
        <time>2021-03-07T10:18:03Z</time>
      </trkpt>
      <trkpt lat="46.32071" lon="0.31451">
        <ele>179.77046245802</ele>
        <time>2021-03-07T10:18:05Z</time>
      </trkpt>
      <trkpt lat="46.32069" lon="0.31452">
        <ele>179.30280586705</ele>
        <time>2021-03-07T10:18:07Z</time>
      </trkpt>
      <trkpt lat="46.32066" lon="0.31454">
        <ele>179.37924450822</ele>
        <time>2021-03-07T10:18:09Z</time>
      </trkpt>
      <trkpt lat="46.32063" lon="0.31456">
        <ele>179.2569893999</ele>
        <time>2021-03-07T10:18:12Z</time>
      </trkpt>
      <trkpt lat="46.32061" lon="0.31457">
        <ele>178.40383765008</ele>
        <time>2021-03-07T10:18:14Z</time>
      </trkpt>
      <trkpt lat="46.32059" lon="0.31459">
        <ele>178.86627297476</ele>
        <time>2021-03-07T10:18:16Z</time>
      </trkpt>
      <trkpt lat="46.32056" lon="0.3146">
        <ele>178.50957698468</ele>
        <time>2021-03-07T10:18:18Z</time>
      </trkpt>
      <trkpt lat="46.32054" lon="0.31462">
        <ele>178.91196833644</ele>
        <time>2021-03-07T10:18:20Z</time>
      </trkpt>
      <trkpt lat="46.32051" lon="0.31464">
        <ele>178.91828357615</ele>
        <time>2021-03-07T10:18:22Z</time>
      </trkpt>
      <trkpt lat="46.3205" lon="0.31466">
        <ele>178.77439691871</ele>
        <time>2021-03-07T10:18:24Z</time>
      </trkpt>
      <trkpt lat="46.32047" lon="0.31466">
        <ele>178.75221315119</ele>
        <time>2021-03-07T10:18:26Z</time>
      </trkpt>
      <trkpt lat="46.32045" lon="0.31468">
        <ele>178.50078319758</ele>
        <time>2021-03-07T10:18:28Z</time>
      </trkpt>
      <trkpt lat="46.32042" lon="0.31471">
        <ele>178.50716970395</ele>
        <time>2021-03-07T10:18:30Z</time>
      </trkpt>
      <trkpt lat="46.3204" lon="0.31473">
        <ele>178.31216857675</ele>
        <time>2021-03-07T10:18:32Z</time>
      </trkpt>
      <trkpt lat="46.32038" lon="0.31474">
        <ele>178.29863808397</ele>
        <time>2021-03-07T10:18:34Z</time>
      </trkpt>
      <trkpt lat="46.32036" lon="0.31475">
        <ele>178.30878983904</ele>
        <time>2021-03-07T10:18:36Z</time>
      </trkpt>
      <trkpt lat="46.32038" lon="0.31477">
        <ele>177.75546490215</ele>
        <time>2021-03-07T10:18:43Z</time>
      </trkpt>
      <trkpt lat="46.32035" lon="0.31478">
        <ele>177.31891598366</ele>
        <time>2021-03-07T10:18:47Z</time>
      </trkpt>
      <trkpt lat="46.32032" lon="0.3148">
        <ele>177.33858522214</ele>
        <time>2021-03-07T10:18:49Z</time>
      </trkpt>
      <trkpt lat="46.3203" lon="0.31482">
        <ele>177.66038533486</ele>
        <time>2021-03-07T10:18:51Z</time>
      </trkpt>
      <trkpt lat="46.32028" lon="0.31483">
        <ele>177.87432982028</ele>
        <time>2021-03-07T10:18:53Z</time>
      </trkpt>
      <trkpt lat="46.32026" lon="0.31485">
        <ele>177.44472012296</ele>
        <time>2021-03-07T10:18:55Z</time>
      </trkpt>
      <trkpt lat="46.32023" lon="0.31487">
        <ele>177.49562109914</ele>
        <time>2021-03-07T10:18:57Z</time>
      </trkpt>
      <trkpt lat="46.32021" lon="0.31489">
        <ele>177.30629739258</ele>
        <time>2021-03-07T10:18:59Z</time>
      </trkpt>
      <trkpt lat="46.3202" lon="0.31491">
        <ele>177.27389839012</ele>
        <time>2021-03-07T10:19:01Z</time>
      </trkpt>
      <trkpt lat="46.32018" lon="0.31493">
        <ele>177.16466190293</ele>
        <time>2021-03-07T10:19:03Z</time>
      </trkpt>
      <trkpt lat="46.32016" lon="0.31494">
        <ele>177.19346013479</ele>
        <time>2021-03-07T10:19:04Z</time>
      </trkpt>
      <trkpt lat="46.32014" lon="0.31497">
        <ele>176.94805476535</ele>
        <time>2021-03-07T10:19:06Z</time>
      </trkpt>
      <trkpt lat="46.32012" lon="0.31499">
        <ele>176.63399273809</ele>
        <time>2021-03-07T10:19:08Z</time>
      </trkpt>
      <trkpt lat="46.3201" lon="0.31502">
        <ele>176.35751052294</ele>
        <time>2021-03-07T10:19:10Z</time>
      </trkpt>
      <trkpt lat="46.32008" lon="0.31505">
        <ele>175.84198252391</ele>
        <time>2021-03-07T10:19:12Z</time>
      </trkpt>
      <trkpt lat="46.32006" lon="0.31507">
        <ele>175.62966545299</ele>
        <time>2021-03-07T10:19:14Z</time>
      </trkpt>
      <trkpt lat="46.32004" lon="0.3151">
        <ele>176.62436325941</ele>
        <time>2021-03-07T10:19:16Z</time>
      </trkpt>
      <trkpt lat="46.32003" lon="0.31512">
        <ele>176.06867154595</ele>
        <time>2021-03-07T10:19:17Z</time>
      </trkpt>
      <trkpt lat="46.32001" lon="0.31513">
        <ele>175.88027597126</ele>
        <time>2021-03-07T10:19:19Z</time>
      </trkpt>
      <trkpt lat="46.32" lon="0.31516">
        <ele>175.31084035989</ele>
        <time>2021-03-07T10:19:21Z</time>
      </trkpt>
      <trkpt lat="46.31998" lon="0.31519">
        <ele>175.39769200236</ele>
        <time>2021-03-07T10:19:23Z</time>
      </trkpt>
      <trkpt lat="46.31996" lon="0.31521">
        <ele>175.74944249727</ele>
        <time>2021-03-07T10:19:25Z</time>
      </trkpt>
      <trkpt lat="46.31995" lon="0.31524">
        <ele>174.68787593115</ele>
        <time>2021-03-07T10:19:27Z</time>
      </trkpt>
      <trkpt lat="46.31993" lon="0.31527">
        <ele>175.53221052326</ele>
        <time>2021-03-07T10:19:29Z</time>
      </trkpt>
      <trkpt lat="46.31991" lon="0.31529">
        <ele>175.04782029055</ele>
        <time>2021-03-07T10:19:31Z</time>
      </trkpt>
      <trkpt lat="46.31989" lon="0.31532">
        <ele>175.11416368745</ele>
        <time>2021-03-07T10:19:33Z</time>
      </trkpt>
      <trkpt lat="46.31987" lon="0.31535">
        <ele>175.62856765185</ele>
        <time>2021-03-07T10:19:35Z</time>
      </trkpt>
      <trkpt lat="46.31986" lon="0.31538">
        <ele>174.43255882524</ele>
        <time>2021-03-07T10:19:37Z</time>
      </trkpt>
      <trkpt lat="46.31984" lon="0.3154">
        <ele>175.48142830282</ele>
        <time>2021-03-07T10:19:39Z</time>
      </trkpt>
      <trkpt lat="46.31982" lon="0.31544">
        <ele>173.65403580852</ele>
        <time>2021-03-07T10:19:41Z</time>
      </trkpt>
      <trkpt lat="46.3198" lon="0.31546">
        <ele>174.89742583595</ele>
        <time>2021-03-07T10:19:43Z</time>
      </trkpt>
      <trkpt lat="46.31979" lon="0.31548">
        <ele>174.70386555791</ele>
        <time>2021-03-07T10:19:45Z</time>
      </trkpt>
      <trkpt lat="46.31977" lon="0.31551">
        <ele>173.96545573696</ele>
        <time>2021-03-07T10:19:47Z</time>
      </trkpt>
      <trkpt lat="46.31975" lon="0.31554">
        <ele>174.27846311778</ele>
        <time>2021-03-07T10:19:49Z</time>
      </trkpt>
      <trkpt lat="46.31974" lon="0.31556">
        <ele>174.55855253898</ele>
        <time>2021-03-07T10:19:51Z</time>
      </trkpt>
      <trkpt lat="46.31972" lon="0.31559">
        <ele>174.91617503483</ele>
        <time>2021-03-07T10:19:53Z</time>
      </trkpt>
      <trkpt lat="46.3197" lon="0.31562">
        <ele>174.43404802028</ele>
        <time>2021-03-07T10:19:55Z</time>
      </trkpt>
      <trkpt lat="46.31968" lon="0.31564">
        <ele>173.6706593167</ele>
        <time>2021-03-07T10:19:57Z</time>
      </trkpt>
      <trkpt lat="46.31966" lon="0.31567">
        <ele>174.08364148065</ele>
        <time>2021-03-07T10:19:59Z</time>
      </trkpt>
      <trkpt lat="46.31964" lon="0.31569">
        <ele>174.48390603065</ele>
        <time>2021-03-07T10:20:01Z</time>
      </trkpt>
      <trkpt lat="46.31962" lon="0.31572">
        <ele>173.57733859308</ele>
        <time>2021-03-07T10:20:03Z</time>
      </trkpt>
      <trkpt lat="46.3196" lon="0.31574">
        <ele>173.68829284143</ele>
        <time>2021-03-07T10:20:05Z</time>
      </trkpt>
      <trkpt lat="46.31958" lon="0.31577">
        <ele>173.52335918974</ele>
        <time>2021-03-07T10:20:07Z</time>
      </trkpt>
      <trkpt lat="46.31956" lon="0.31579">
        <ele>173.13062662352</ele>
        <time>2021-03-07T10:20:09Z</time>
      </trkpt>
      <trkpt lat="46.31954" lon="0.31583">
        <ele>173.61970285792</ele>
        <time>2021-03-07T10:20:11Z</time>
      </trkpt>
      <trkpt lat="46.31953" lon="0.31585">
        <ele>173.38099727407</ele>
        <time>2021-03-07T10:20:13Z</time>
      </trkpt>
      <trkpt lat="46.31951" lon="0.31587">
        <ele>173.76323594805</ele>
        <time>2021-03-07T10:20:15Z</time>
      </trkpt>
      <trkpt lat="46.31949" lon="0.3159">
        <ele>173.57268446684</ele>
        <time>2021-03-07T10:20:17Z</time>
      </trkpt>
      <trkpt lat="46.31948" lon="0.31592">
        <ele>172.78950804658</ele>
        <time>2021-03-07T10:20:19Z</time>
      </trkpt>
      <trkpt lat="46.31945" lon="0.31595">
        <ele>172.96650377568</ele>
        <time>2021-03-07T10:20:21Z</time>
      </trkpt>
      <trkpt lat="46.31944" lon="0.31597">
        <ele>172.90358735994</ele>
        <time>2021-03-07T10:20:22Z</time>
      </trkpt>
      <trkpt lat="46.31943" lon="0.316">
        <ele>172.63897730131</ele>
        <time>2021-03-07T10:20:24Z</time>
      </trkpt>
      <trkpt lat="46.31941" lon="0.316">
        <ele>173.18230617233</ele>
        <time>2021-03-07T10:20:25Z</time>
      </trkpt>
      <trkpt lat="46.31939" lon="0.31602">
        <ele>172.97246680316</ele>
        <time>2021-03-07T10:20:27Z</time>
      </trkpt>
      <trkpt lat="46.31937" lon="0.31605">
        <ele>172.90130004659</ele>
        <time>2021-03-07T10:20:29Z</time>
      </trkpt>
      <trkpt lat="46.31935" lon="0.31608">
        <ele>172.62181204278</ele>
        <time>2021-03-07T10:20:31Z</time>
      </trkpt>
      <trkpt lat="46.31933" lon="0.3161">
        <ele>172.31849946827</ele>
        <time>2021-03-07T10:20:33Z</time>
      </trkpt>
      <trkpt lat="46.31932" lon="0.31612">
        <ele>172.43357268907</ele>
        <time>2021-03-07T10:20:34Z</time>
      </trkpt>
      <trkpt lat="46.3193" lon="0.31615">
        <ele>172.73690918367</ele>
        <time>2021-03-07T10:20:36Z</time>
      </trkpt>
      <trkpt lat="46.31928" lon="0.31617">
        <ele>172.77473343164</ele>
        <time>2021-03-07T10:20:38Z</time>
      </trkpt>
      <trkpt lat="46.31926" lon="0.31621">
        <ele>172.66595778987</ele>
        <time>2021-03-07T10:20:40Z</time>
      </trkpt>
      <trkpt lat="46.31924" lon="0.31623">
        <ele>172.39033790492</ele>
        <time>2021-03-07T10:20:43Z</time>
      </trkpt>
      <trkpt lat="46.31922" lon="0.31625">
        <ele>172.45982544776</ele>
        <time>2021-03-07T10:20:44Z</time>
      </trkpt>
      <trkpt lat="46.3192" lon="0.31628">
        <ele>172.09188046958</ele>
        <time>2021-03-07T10:20:46Z</time>
      </trkpt>
      <trkpt lat="46.31918" lon="0.3163">
        <ele>172.19216863625</ele>
        <time>2021-03-07T10:20:49Z</time>
      </trkpt>
      <trkpt lat="46.31916" lon="0.31633">
        <ele>171.40982533712</ele>
        <time>2021-03-07T10:20:51Z</time>
      </trkpt>
      <trkpt lat="46.31915" lon="0.31636">
        <ele>171.85698648356</ele>
        <time>2021-03-07T10:20:53Z</time>
      </trkpt>
      <trkpt lat="46.31913" lon="0.31639">
        <ele>171.45337403938</ele>
        <time>2021-03-07T10:20:56Z</time>
      </trkpt>
      <trkpt lat="46.31912" lon="0.31641">
        <ele>172.19289434701</ele>
        <time>2021-03-07T10:20:59Z</time>
      </trkpt>
      <trkpt lat="46.31911" lon="0.31643">
        <ele>172.0117055187</ele>
        <time>2021-03-07T10:21:01Z</time>
      </trkpt>
      <trkpt lat="46.31909" lon="0.31645">
        <ele>171.93537560664</ele>
        <time>2021-03-07T10:21:03Z</time>
      </trkpt>
      <trkpt lat="46.31907" lon="0.31647">
        <ele>171.24528998043</ele>
        <time>2021-03-07T10:21:05Z</time>
      </trkpt>
      <trkpt lat="46.31906" lon="0.31649">
        <ele>171.75820619334</ele>
        <time>2021-03-07T10:21:07Z</time>
      </trkpt>
      <trkpt lat="46.31904" lon="0.31651">
        <ele>171.62807685416</ele>
        <time>2021-03-07T10:21:09Z</time>
      </trkpt>
      <trkpt lat="46.31902" lon="0.31653">
        <ele>171.288524515</ele>
        <time>2021-03-07T10:21:11Z</time>
      </trkpt>
      <trkpt lat="46.319" lon="0.31655">
        <ele>171.79369394109</ele>
        <time>2021-03-07T10:21:13Z</time>
      </trkpt>
      <trkpt lat="46.31897" lon="0.31657">
        <ele>171.17917411402</ele>
        <time>2021-03-07T10:21:15Z</time>
      </trkpt>
      <trkpt lat="46.31896" lon="0.3166">
        <ele>170.97128805611</ele>
        <time>2021-03-07T10:21:17Z</time>
      </trkpt>
      <trkpt lat="46.31893" lon="0.31662">
        <ele>171.09497611038</ele>
        <time>2021-03-07T10:21:19Z</time>
      </trkpt>
      <trkpt lat="46.31892" lon="0.31664">
        <ele>171.2805878222</ele>
        <time>2021-03-07T10:21:21Z</time>
      </trkpt>
      <trkpt lat="46.3189" lon="0.31666">
        <ele>171.42893063463</ele>
        <time>2021-03-07T10:21:23Z</time>
      </trkpt>
      <trkpt lat="46.31888" lon="0.31667">
        <ele>171.35615668166</ele>
        <time>2021-03-07T10:21:25Z</time>
      </trkpt>
      <trkpt lat="46.31886" lon="0.3167">
        <ele>170.16244739294</ele>
        <time>2021-03-07T10:21:27Z</time>
      </trkpt>
      <trkpt lat="46.31884" lon="0.31672">
        <ele>170.79950146936</ele>
        <time>2021-03-07T10:21:29Z</time>
      </trkpt>
      <trkpt lat="46.31882" lon="0.31673">
        <ele>171.19285264146</ele>
        <time>2021-03-07T10:21:31Z</time>
      </trkpt>
      <trkpt lat="46.3188" lon="0.31675">
        <ele>170.87203709502</ele>
        <time>2021-03-07T10:21:33Z</time>
      </trkpt>
      <trkpt lat="46.31878" lon="0.31677">
        <ele>171.39750273991</ele>
        <time>2021-03-07T10:21:35Z</time>
      </trkpt>
      <trkpt lat="46.31876" lon="0.3168">
        <ele>171.03447899502</ele>
        <time>2021-03-07T10:21:37Z</time>
      </trkpt>
      <trkpt lat="46.31873" lon="0.31682">
        <ele>170.80205759034</ele>
        <time>2021-03-07T10:21:40Z</time>
      </trkpt>
      <trkpt lat="46.31871" lon="0.31684">
        <ele>171.17052187864</ele>
        <time>2021-03-07T10:21:42Z</time>
      </trkpt>
      <trkpt lat="46.31869" lon="0.31687">
        <ele>171.18571183644</ele>
        <time>2021-03-07T10:21:44Z</time>
      </trkpt>
      <trkpt lat="46.31867" lon="0.31689">
        <ele>171.6274224706</ele>
        <time>2021-03-07T10:21:47Z</time>
      </trkpt>
      <trkpt lat="46.31865" lon="0.3169">
        <ele>171.50228602067</ele>
        <time>2021-03-07T10:21:49Z</time>
      </trkpt>
      <trkpt lat="46.31867" lon="0.31691">
        <ele>171.10308486409</ele>
        <time>2021-03-07T10:22:09Z</time>
      </trkpt>
      <trkpt lat="46.31868" lon="0.3169">
        <ele>171.15945895109</ele>
        <time>2021-03-07T10:22:15Z</time>
      </trkpt>
      <trkpt lat="46.31869" lon="0.31687">
        <ele>171.1210064739</ele>
        <time>2021-03-07T10:22:40Z</time>
      </trkpt>
      <trkpt lat="46.31871" lon="0.31686">
        <ele>171.15698806103</ele>
        <time>2021-03-07T10:22:43Z</time>
      </trkpt>
      <trkpt lat="46.31873" lon="0.31684">
        <ele>171.21056091134</ele>
        <time>2021-03-07T10:22:46Z</time>
      </trkpt>
      <trkpt lat="46.31875" lon="0.31684">
        <ele>171.20732865669</ele>
        <time>2021-03-07T10:22:49Z</time>
      </trkpt>
      <trkpt lat="46.31878" lon="0.31682">
        <ele>171.21938262414</ele>
        <time>2021-03-07T10:22:51Z</time>
      </trkpt>
      <trkpt lat="46.31879" lon="0.31679">
        <ele>171.14775679167</ele>
        <time>2021-03-07T10:22:56Z</time>
      </trkpt>
      <trkpt lat="46.31879" lon="0.31677">
        <ele>171.23372752126</ele>
        <time>2021-03-07T10:23:19Z</time>
      </trkpt>
      <trkpt lat="46.31878" lon="0.31679">
        <ele>171.27044592798</ele>
        <time>2021-03-07T10:23:34Z</time>
      </trkpt>
      <trkpt lat="46.31877" lon="0.31681">
        <ele>171.17752936855</ele>
        <time>2021-03-07T10:23:38Z</time>
      </trkpt>
      <trkpt lat="46.31875" lon="0.31682">
        <ele>170.8324131174</ele>
        <time>2021-03-07T10:23:40Z</time>
      </trkpt>
      <trkpt lat="46.31873" lon="0.31683">
        <ele>171.08152466733</ele>
        <time>2021-03-07T10:23:43Z</time>
      </trkpt>
      <trkpt lat="46.31871" lon="0.31684">
        <ele>171.14190709591</ele>
        <time>2021-03-07T10:23:47Z</time>
      </trkpt>
      <trkpt lat="46.31868" lon="0.31685">
        <ele>171.10595390759</ele>
        <time>2021-03-07T10:23:50Z</time>
      </trkpt>
      <trkpt lat="46.31866" lon="0.31687">
        <ele>171.19156235829</ele>
        <time>2021-03-07T10:23:54Z</time>
      </trkpt>
      <trkpt lat="46.31863" lon="0.31688">
        <ele>171.28561403789</ele>
        <time>2021-03-07T10:23:57Z</time>
      </trkpt>
      <trkpt lat="46.31861" lon="0.31687">
        <ele>171.17716348264</ele>
        <time>2021-03-07T10:24:00Z</time>
      </trkpt>
      <trkpt lat="46.31859" lon="0.31685">
        <ele>171.55499668792</ele>
        <time>2021-03-07T10:24:02Z</time>
      </trkpt>
      <trkpt lat="46.31856" lon="0.31682">
        <ele>171.47740657441</ele>
        <time>2021-03-07T10:24:04Z</time>
      </trkpt>
      <trkpt lat="46.31855" lon="0.31679">
        <ele>171.06264942046</ele>
        <time>2021-03-07T10:24:06Z</time>
      </trkpt>
      <trkpt lat="46.31853" lon="0.31677">
        <ele>171.05190296005</ele>
        <time>2021-03-07T10:24:08Z</time>
      </trkpt>
      <trkpt lat="46.3185" lon="0.31674">
        <ele>171.50190825108</ele>
        <time>2021-03-07T10:24:10Z</time>
      </trkpt>
      <trkpt lat="46.31849" lon="0.31671">
        <ele>171.7215999132</ele>
        <time>2021-03-07T10:24:12Z</time>
      </trkpt>
      <trkpt lat="46.31847" lon="0.31669">
        <ele>170.72141859587</ele>
        <time>2021-03-07T10:24:14Z</time>
      </trkpt>
      <trkpt lat="46.31845" lon="0.31667">
        <ele>170.92752888054</ele>
        <time>2021-03-07T10:24:16Z</time>
      </trkpt>
      <trkpt lat="46.31844" lon="0.31665">
        <ele>170.88051733933</ele>
        <time>2021-03-07T10:24:18Z</time>
      </trkpt>
      <trkpt lat="46.31842" lon="0.31662">
        <ele>171.6168793831</ele>
        <time>2021-03-07T10:24:20Z</time>
      </trkpt>
      <trkpt lat="46.3184" lon="0.3166">
        <ele>171.34332762659</ele>
        <time>2021-03-07T10:24:22Z</time>
      </trkpt>
      <trkpt lat="46.31838" lon="0.31658">
        <ele>171.34142375644</ele>
        <time>2021-03-07T10:24:24Z</time>
      </trkpt>
      <trkpt lat="46.31837" lon="0.31655">
        <ele>171.71894766297</ele>
        <time>2021-03-07T10:24:26Z</time>
      </trkpt>
      <trkpt lat="46.31836" lon="0.31654">
        <ele>171.54352839105</ele>
        <time>2021-03-07T10:24:27Z</time>
      </trkpt>
      <trkpt lat="46.31834" lon="0.31652">
        <ele>171.53578196</ele>
        <time>2021-03-07T10:24:29Z</time>
      </trkpt>
      <trkpt lat="46.31831" lon="0.31648">
        <ele>172.53707440849</ele>
        <time>2021-03-07T10:24:31Z</time>
      </trkpt>
      <trkpt lat="46.31831" lon="0.31646">
        <ele>172.55499450769</ele>
        <time>2021-03-07T10:24:32Z</time>
      </trkpt>
      <trkpt lat="46.31829" lon="0.31644">
        <ele>172.23228446115</ele>
        <time>2021-03-07T10:24:34Z</time>
      </trkpt>
      <trkpt lat="46.31826" lon="0.31641">
        <ele>172.32399532199</ele>
        <time>2021-03-07T10:24:36Z</time>
      </trkpt>
      <trkpt lat="46.31824" lon="0.3164">
        <ele>171.89066891838</ele>
        <time>2021-03-07T10:24:38Z</time>
      </trkpt>
      <trkpt lat="46.31822" lon="0.31637">
        <ele>172.15847684629</ele>
        <time>2021-03-07T10:24:40Z</time>
      </trkpt>
      <trkpt lat="46.3182" lon="0.31634">
        <ele>172.00090096053</ele>
        <time>2021-03-07T10:24:42Z</time>
      </trkpt>
      <trkpt lat="46.31818" lon="0.31631">
        <ele>171.8233739296</ele>
        <time>2021-03-07T10:24:44Z</time>
      </trkpt>
      <trkpt lat="46.31816" lon="0.31629">
        <ele>171.89666346367</ele>
        <time>2021-03-07T10:24:46Z</time>
      </trkpt>
      <trkpt lat="46.31813" lon="0.31627">
        <ele>172.19759980589</ele>
        <time>2021-03-07T10:24:48Z</time>
      </trkpt>
      <trkpt lat="46.31812" lon="0.31623">
        <ele>172.15421510302</ele>
        <time>2021-03-07T10:24:50Z</time>
      </trkpt>
      <trkpt lat="46.31811" lon="0.3162">
        <ele>171.68969654106</ele>
        <time>2021-03-07T10:24:52Z</time>
      </trkpt>
      <trkpt lat="46.31809" lon="0.31618">
        <ele>171.93239518441</ele>
        <time>2021-03-07T10:24:54Z</time>
      </trkpt>
      <trkpt lat="46.31806" lon="0.31615">
        <ele>171.98914069217</ele>
        <time>2021-03-07T10:24:56Z</time>
      </trkpt>
      <trkpt lat="46.31805" lon="0.31613">
        <ele>172.07817569561</ele>
        <time>2021-03-07T10:24:58Z</time>
      </trkpt>
      <trkpt lat="46.31803" lon="0.3161">
        <ele>172.51862990391</ele>
        <time>2021-03-07T10:25:00Z</time>
      </trkpt>
      <trkpt lat="46.31801" lon="0.31607">
        <ele>172.34647218231</ele>
        <time>2021-03-07T10:25:02Z</time>
      </trkpt>
      <trkpt lat="46.31799" lon="0.31604">
        <ele>171.6688361913</ele>
        <time>2021-03-07T10:25:04Z</time>
      </trkpt>
      <trkpt lat="46.31797" lon="0.31603">
        <ele>171.81109249312</ele>
        <time>2021-03-07T10:25:06Z</time>
      </trkpt>
      <trkpt lat="46.31795" lon="0.316">
        <ele>171.79115874786</ele>
        <time>2021-03-07T10:25:08Z</time>
      </trkpt>
      <trkpt lat="46.31794" lon="0.31598">
        <ele>172.14677890949</ele>
        <time>2021-03-07T10:25:10Z</time>
      </trkpt>
      <trkpt lat="46.31792" lon="0.31596">
        <ele>171.31008753739</ele>
        <time>2021-03-07T10:25:12Z</time>
      </trkpt>
      <trkpt lat="46.3179" lon="0.31593">
        <ele>171.51300129574</ele>
        <time>2021-03-07T10:25:14Z</time>
      </trkpt>
      <trkpt lat="46.31788" lon="0.31591">
        <ele>171.54281891696</ele>
        <time>2021-03-07T10:25:16Z</time>
      </trkpt>
      <trkpt lat="46.31786" lon="0.31588">
        <ele>171.55773861054</ele>
        <time>2021-03-07T10:25:18Z</time>
      </trkpt>
      <trkpt lat="46.31784" lon="0.31585">
        <ele>171.2746737022</ele>
        <time>2021-03-07T10:25:20Z</time>
      </trkpt>
      <trkpt lat="46.31782" lon="0.31583">
        <ele>170.23866339121</ele>
        <time>2021-03-07T10:25:22Z</time>
      </trkpt>
      <trkpt lat="46.3178" lon="0.3158">
        <ele>171.76625023596</ele>
        <time>2021-03-07T10:25:24Z</time>
      </trkpt>
      <trkpt lat="46.31778" lon="0.31578">
        <ele>170.79638779256</ele>
        <time>2021-03-07T10:25:26Z</time>
      </trkpt>
      <trkpt lat="46.31776" lon="0.31574">
        <ele>171.22164731566</ele>
        <time>2021-03-07T10:25:28Z</time>
      </trkpt>
      <trkpt lat="46.31773" lon="0.31571">
        <ele>170.82003448624</ele>
        <time>2021-03-07T10:25:31Z</time>
      </trkpt>
      <trkpt lat="46.31771" lon="0.31569">
        <ele>171.0475647077</ele>
        <time>2021-03-07T10:25:33Z</time>
      </trkpt>
      <trkpt lat="46.3177" lon="0.31566">
        <ele>170.76455978397</ele>
        <time>2021-03-07T10:25:35Z</time>
      </trkpt>
      <trkpt lat="46.31767" lon="0.31564">
        <ele>170.67754229903</ele>
        <time>2021-03-07T10:25:37Z</time>
      </trkpt>
      <trkpt lat="46.31765" lon="0.31561">
        <ele>170.64369602781</ele>
        <time>2021-03-07T10:25:39Z</time>
      </trkpt>
      <trkpt lat="46.31764" lon="0.31559">
        <ele>171.13495902624</ele>
        <time>2021-03-07T10:25:41Z</time>
      </trkpt>
      <trkpt lat="46.31761" lon="0.31556">
        <ele>171.03908172622</ele>
        <time>2021-03-07T10:25:43Z</time>
      </trkpt>
      <trkpt lat="46.3176" lon="0.31554">
        <ele>170.93407291919</ele>
        <time>2021-03-07T10:25:45Z</time>
      </trkpt>
      <trkpt lat="46.31758" lon="0.31552">
        <ele>170.89280457143</ele>
        <time>2021-03-07T10:25:47Z</time>
      </trkpt>
      <trkpt lat="46.31756" lon="0.31548">
        <ele>170.98681312334</ele>
        <time>2021-03-07T10:25:49Z</time>
      </trkpt>
      <trkpt lat="46.31754" lon="0.31546">
        <ele>171.05960910674</ele>
        <time>2021-03-07T10:25:51Z</time>
      </trkpt>
      <trkpt lat="46.31752" lon="0.31544">
        <ele>170.90177063551</ele>
        <time>2021-03-07T10:25:53Z</time>
      </trkpt>
      <trkpt lat="46.3175" lon="0.31541">
        <ele>170.50756299496</ele>
        <time>2021-03-07T10:25:55Z</time>
      </trkpt>
      <trkpt lat="46.31749" lon="0.31539">
        <ele>171.06424041092</ele>
        <time>2021-03-07T10:25:57Z</time>
      </trkpt>
      <trkpt lat="46.31747" lon="0.31537">
        <ele>170.99815886468</ele>
        <time>2021-03-07T10:25:58Z</time>
      </trkpt>
      <trkpt lat="46.31745" lon="0.31534">
        <ele>170.54036534298</ele>
        <time>2021-03-07T10:26:00Z</time>
      </trkpt>
      <trkpt lat="46.31743" lon="0.31534">
        <ele>170.5495210886</ele>
        <time>2021-03-07T10:26:03Z</time>
      </trkpt>
      <trkpt lat="46.31741" lon="0.31534">
        <ele>170.63839094527</ele>
        <time>2021-03-07T10:26:06Z</time>
      </trkpt>
      <trkpt lat="46.31738" lon="0.31535">
        <ele>169.77885028627</ele>
        <time>2021-03-07T10:26:08Z</time>
      </trkpt>
      <trkpt lat="46.31736" lon="0.31538">
        <ele>169.89517865796</ele>
        <time>2021-03-07T10:26:10Z</time>
      </trkpt>
      <trkpt lat="46.31734" lon="0.3154">
        <ele>171.2542231055</ele>
        <time>2021-03-07T10:26:13Z</time>
      </trkpt>
      <trkpt lat="46.31732" lon="0.31543">
        <ele>169.85480729584</ele>
        <time>2021-03-07T10:26:15Z</time>
      </trkpt>
      <trkpt lat="46.31729" lon="0.31544">
        <ele>169.95705585089</ele>
        <time>2021-03-07T10:26:17Z</time>
      </trkpt>
      <trkpt lat="46.31727" lon="0.31546">
        <ele>169.25489108078</ele>
        <time>2021-03-07T10:26:19Z</time>
      </trkpt>
      <trkpt lat="46.31725" lon="0.31548">
        <ele>169.81045260746</ele>
        <time>2021-03-07T10:26:21Z</time>
      </trkpt>
      <trkpt lat="46.31723" lon="0.31551">
        <ele>170.12285424117</ele>
        <time>2021-03-07T10:26:23Z</time>
      </trkpt>
      <trkpt lat="46.31721" lon="0.31554">
        <ele>170.02050347812</ele>
        <time>2021-03-07T10:26:25Z</time>
      </trkpt>
      <trkpt lat="46.31719" lon="0.31557">
        <ele>169.41672649607</ele>
        <time>2021-03-07T10:26:27Z</time>
      </trkpt>
      <trkpt lat="46.31717" lon="0.31559">
        <ele>169.82228984125</ele>
        <time>2021-03-07T10:26:29Z</time>
      </trkpt>
      <trkpt lat="46.31715" lon="0.31562">
        <ele>170.05417768285</ele>
        <time>2021-03-07T10:26:31Z</time>
      </trkpt>
      <trkpt lat="46.31713" lon="0.31564">
        <ele>169.96879017167</ele>
        <time>2021-03-07T10:26:33Z</time>
      </trkpt>
      <trkpt lat="46.31711" lon="0.31567">
        <ele>169.77950718254</ele>
        <time>2021-03-07T10:26:35Z</time>
      </trkpt>
      <trkpt lat="46.31709" lon="0.31568">
        <ele>169.53481234517</ele>
        <time>2021-03-07T10:26:37Z</time>
      </trkpt>
      <trkpt lat="46.31707" lon="0.31569">
        <ele>169.98964935914</ele>
        <time>2021-03-07T10:26:39Z</time>
      </trkpt>
      <trkpt lat="46.31704" lon="0.31568">
        <ele>169.60696969181</ele>
        <time>2021-03-07T10:26:41Z</time>
      </trkpt>
      <trkpt lat="46.31702" lon="0.31567">
        <ele>169.9114880329</ele>
        <time>2021-03-07T10:26:43Z</time>
      </trkpt>
      <trkpt lat="46.31699" lon="0.31566">
        <ele>169.39452419057</ele>
        <time>2021-03-07T10:26:45Z</time>
      </trkpt>
      <trkpt lat="46.31697" lon="0.31564">
        <ele>169.26470779441</ele>
        <time>2021-03-07T10:26:47Z</time>
      </trkpt>
      <trkpt lat="46.31695" lon="0.31562">
        <ele>169.1289044423</ele>
        <time>2021-03-07T10:26:49Z</time>
      </trkpt>
      <trkpt lat="46.31692" lon="0.31561">
        <ele>168.99125096761</ele>
        <time>2021-03-07T10:26:51Z</time>
      </trkpt>
      <trkpt lat="46.3169" lon="0.3156">
        <ele>168.81402795855</ele>
        <time>2021-03-07T10:26:53Z</time>
      </trkpt>
      <trkpt lat="46.31688" lon="0.31559">
        <ele>169.10557121318</ele>
        <time>2021-03-07T10:26:55Z</time>
      </trkpt>
      <trkpt lat="46.31685" lon="0.31557">
        <ele>168.61787281744</ele>
        <time>2021-03-07T10:26:57Z</time>
      </trkpt>
      <trkpt lat="46.31683" lon="0.31557">
        <ele>168.60768273007</ele>
        <time>2021-03-07T10:26:59Z</time>
      </trkpt>
      <trkpt lat="46.3168" lon="0.31556">
        <ele>168.58230745792</ele>
        <time>2021-03-07T10:27:01Z</time>
      </trkpt>
      <trkpt lat="46.31679" lon="0.31555">
        <ele>168.55083841924</ele>
        <time>2021-03-07T10:27:02Z</time>
      </trkpt>
      <trkpt lat="46.31676" lon="0.31554">
        <ele>168.25344205834</ele>
        <time>2021-03-07T10:27:04Z</time>
      </trkpt>
      <trkpt lat="46.31674" lon="0.31553">
        <ele>168.04923565686</ele>
        <time>2021-03-07T10:27:06Z</time>
      </trkpt>
      <trkpt lat="46.31671" lon="0.31551">
        <ele>168.07733279094</ele>
        <time>2021-03-07T10:27:08Z</time>
      </trkpt>
      <trkpt lat="46.31669" lon="0.31551">
        <ele>167.6396393897</ele>
        <time>2021-03-07T10:27:10Z</time>
      </trkpt>
      <trkpt lat="46.31667" lon="0.31549">
        <ele>167.63706673682</ele>
        <time>2021-03-07T10:27:11Z</time>
      </trkpt>
      <trkpt lat="46.31665" lon="0.31548">
        <ele>167.46390304808</ele>
        <time>2021-03-07T10:27:13Z</time>
      </trkpt>
      <trkpt lat="46.31663" lon="0.31547">
        <ele>167.4312548358</ele>
        <time>2021-03-07T10:27:15Z</time>
      </trkpt>
      <trkpt lat="46.3166" lon="0.31546">
        <ele>167.33525151853</ele>
        <time>2021-03-07T10:27:17Z</time>
      </trkpt>
      <trkpt lat="46.31658" lon="0.31545">
        <ele>167.18650668859</ele>
        <time>2021-03-07T10:27:19Z</time>
      </trkpt>
      <trkpt lat="46.31655" lon="0.31543">
        <ele>166.94779131096</ele>
        <time>2021-03-07T10:27:21Z</time>
      </trkpt>
      <trkpt lat="46.31652" lon="0.31542">
        <ele>166.7097752681</ele>
        <time>2021-03-07T10:27:23Z</time>
      </trkpt>
      <trkpt lat="46.31649" lon="0.31541">
        <ele>166.48997120839</ele>
        <time>2021-03-07T10:27:26Z</time>
      </trkpt>
      <trkpt lat="46.31647" lon="0.3154">
        <ele>166.20616567228</ele>
        <time>2021-03-07T10:27:28Z</time>
      </trkpt>
      <trkpt lat="46.31643" lon="0.3154">
        <ele>166.87430655025</ele>
        <time>2021-03-07T10:27:30Z</time>
      </trkpt>
      <trkpt lat="46.31641" lon="0.31539">
        <ele>165.53126981296</ele>
        <time>2021-03-07T10:27:32Z</time>
      </trkpt>
      <trkpt lat="46.31639" lon="0.31538">
        <ele>166.18134368304</ele>
        <time>2021-03-07T10:27:34Z</time>
      </trkpt>
      <trkpt lat="46.31636" lon="0.31537">
        <ele>165.88651178125</ele>
        <time>2021-03-07T10:27:36Z</time>
      </trkpt>
      <trkpt lat="46.31634" lon="0.31535">
        <ele>164.9446039591</ele>
        <time>2021-03-07T10:27:38Z</time>
      </trkpt>
      <trkpt lat="46.31632" lon="0.31533">
        <ele>165.16804300435</ele>
        <time>2021-03-07T10:27:40Z</time>
      </trkpt>
      <trkpt lat="46.31629" lon="0.31534">
        <ele>165.07624714077</ele>
        <time>2021-03-07T10:27:42Z</time>
      </trkpt>
      <trkpt lat="46.31627" lon="0.31532">
        <ele>165.26317890268</ele>
        <time>2021-03-07T10:27:43Z</time>
      </trkpt>
      <trkpt lat="46.31624" lon="0.31531">
        <ele>164.5866483422</ele>
        <time>2021-03-07T10:27:46Z</time>
      </trkpt>
      <trkpt lat="46.31621" lon="0.3153">
        <ele>164.27089330554</ele>
        <time>2021-03-07T10:27:48Z</time>
      </trkpt>
      <trkpt lat="46.31618" lon="0.31529">
        <ele>164.30171939917</ele>
        <time>2021-03-07T10:27:50Z</time>
      </trkpt>
      <trkpt lat="46.31615" lon="0.31528">
        <ele>164.32063927408</ele>
        <time>2021-03-07T10:27:52Z</time>
      </trkpt>
      <trkpt lat="46.31613" lon="0.31525">
        <ele>163.93701695092</ele>
        <time>2021-03-07T10:27:54Z</time>
      </trkpt>
      <trkpt lat="46.3161" lon="0.31524">
        <ele>163.91491456609</ele>
        <time>2021-03-07T10:27:56Z</time>
      </trkpt>
      <trkpt lat="46.31608" lon="0.31523">
        <ele>163.83114833478</ele>
        <time>2021-03-07T10:27:58Z</time>
      </trkpt>
      <trkpt lat="46.31605" lon="0.31522">
        <ele>163.44557547476</ele>
        <time>2021-03-07T10:28:00Z</time>
      </trkpt>
      <trkpt lat="46.31604" lon="0.31521">
        <ele>163.52621066943</ele>
        <time>2021-03-07T10:28:01Z</time>
      </trkpt>
      <trkpt lat="46.31601" lon="0.3152">
        <ele>163.69057016633</ele>
        <time>2021-03-07T10:28:03Z</time>
      </trkpt>
      <trkpt lat="46.31599" lon="0.31519">
        <ele>163.51118418202</ele>
        <time>2021-03-07T10:28:05Z</time>
      </trkpt>
      <trkpt lat="46.31597" lon="0.31518">
        <ele>163.64048877917</ele>
        <time>2021-03-07T10:28:07Z</time>
      </trkpt>
      <trkpt lat="46.31594" lon="0.31517">
        <ele>162.85012187902</ele>
        <time>2021-03-07T10:28:09Z</time>
      </trkpt>
      <trkpt lat="46.31592" lon="0.31516">
        <ele>163.15619721916</ele>
        <time>2021-03-07T10:28:11Z</time>
      </trkpt>
      <trkpt lat="46.3159" lon="0.31514">
        <ele>163.21113082115</ele>
        <time>2021-03-07T10:28:13Z</time>
      </trkpt>
      <trkpt lat="46.31587" lon="0.31514">
        <ele>163.48666456901</ele>
        <time>2021-03-07T10:28:15Z</time>
      </trkpt>
      <trkpt lat="46.31584" lon="0.31515">
        <ele>162.89669814426</ele>
        <time>2021-03-07T10:28:17Z</time>
      </trkpt>
      <trkpt lat="46.31582" lon="0.31517">
        <ele>162.40513074398</ele>
        <time>2021-03-07T10:28:19Z</time>
      </trkpt>
      <trkpt lat="46.3158" lon="0.31521">
        <ele>164.22342491709</ele>
        <time>2021-03-07T10:28:21Z</time>
      </trkpt>
      <trkpt lat="46.31579" lon="0.31524">
        <ele>163.61376875173</ele>
        <time>2021-03-07T10:28:23Z</time>
      </trkpt>
      <trkpt lat="46.31578" lon="0.31527">
        <ele>163.00672590546</ele>
        <time>2021-03-07T10:28:25Z</time>
      </trkpt>
      <trkpt lat="46.31578" lon="0.31531">
        <ele>162.99806796573</ele>
        <time>2021-03-07T10:28:27Z</time>
      </trkpt>
      <trkpt lat="46.31578" lon="0.31535">
        <ele>163.37601668295</ele>
        <time>2021-03-07T10:28:29Z</time>
      </trkpt>
      <trkpt lat="46.31579" lon="0.31539">
        <ele>163.32936390303</ele>
        <time>2021-03-07T10:28:31Z</time>
      </trkpt>
      <trkpt lat="46.31579" lon="0.31542">
        <ele>163.29820868094</ele>
        <time>2021-03-07T10:28:33Z</time>
      </trkpt>
      <trkpt lat="46.31579" lon="0.31546">
        <ele>163.21606557257</ele>
        <time>2021-03-07T10:28:35Z</time>
      </trkpt>
      <trkpt lat="46.3158" lon="0.3155">
        <ele>163.53777903505</ele>
        <time>2021-03-07T10:28:37Z</time>
      </trkpt>
      <trkpt lat="46.3158" lon="0.31554">
        <ele>163.92615723889</ele>
        <time>2021-03-07T10:28:39Z</time>
      </trkpt>
      <trkpt lat="46.31581" lon="0.31558">
        <ele>163.9147819262</ele>
        <time>2021-03-07T10:28:41Z</time>
      </trkpt>
      <trkpt lat="46.31582" lon="0.31561">
        <ele>164.47592016496</ele>
        <time>2021-03-07T10:28:43Z</time>
      </trkpt>
      <trkpt lat="46.31582" lon="0.31565">
        <ele>164.52109014988</ele>
        <time>2021-03-07T10:28:45Z</time>
      </trkpt>
      <trkpt lat="46.31583" lon="0.31569">
        <ele>164.10804402549</ele>
        <time>2021-03-07T10:28:47Z</time>
      </trkpt>
      <trkpt lat="46.31583" lon="0.31573">
        <ele>164.28013395146</ele>
        <time>2021-03-07T10:28:49Z</time>
      </trkpt>
      <trkpt lat="46.31583" lon="0.31578">
        <ele>164.32912066393</ele>
        <time>2021-03-07T10:28:51Z</time>
      </trkpt>
      <trkpt lat="46.31583" lon="0.31581">
        <ele>164.09958369471</ele>
        <time>2021-03-07T10:28:53Z</time>
      </trkpt>
      <trkpt lat="46.31584" lon="0.31585">
        <ele>164.53425959405</ele>
        <time>2021-03-07T10:28:55Z</time>
      </trkpt>
      <trkpt lat="46.31584" lon="0.31589">
        <ele>164.46049599815</ele>
        <time>2021-03-07T10:28:57Z</time>
      </trkpt>
      <trkpt lat="46.31585" lon="0.31592">
        <ele>164.46242006589</ele>
        <time>2021-03-07T10:28:59Z</time>
      </trkpt>
      <trkpt lat="46.31586" lon="0.31594">
        <ele>164.38796073012</ele>
        <time>2021-03-07T10:29:00Z</time>
      </trkpt>
      <trkpt lat="46.31586" lon="0.31598">
        <ele>164.7303545624</ele>
        <time>2021-03-07T10:29:02Z</time>
      </trkpt>
      <trkpt lat="46.31585" lon="0.31603">
        <ele>164.54147924017</ele>
        <time>2021-03-07T10:29:04Z</time>
      </trkpt>
      <trkpt lat="46.31583" lon="0.31606">
        <ele>164.95528944768</ele>
        <time>2021-03-07T10:29:06Z</time>
      </trkpt>
      <trkpt lat="46.31582" lon="0.3161">
        <ele>164.76271420252</ele>
        <time>2021-03-07T10:29:08Z</time>
      </trkpt>
      <trkpt lat="46.3158" lon="0.31614">
        <ele>165.0604025675</ele>
        <time>2021-03-07T10:29:10Z</time>
      </trkpt>
      <trkpt lat="46.31579" lon="0.31617">
        <ele>165.3023305824</ele>
        <time>2021-03-07T10:29:12Z</time>
      </trkpt>
      <trkpt lat="46.31578" lon="0.31619">
        <ele>164.84959398489</ele>
        <time>2021-03-07T10:29:13Z</time>
      </trkpt>
      <trkpt lat="46.31576" lon="0.31623">
        <ele>164.72134185676</ele>
        <time>2021-03-07T10:29:15Z</time>
      </trkpt>
      <trkpt lat="46.31575" lon="0.31625">
        <ele>164.65422146395</ele>
        <time>2021-03-07T10:29:17Z</time>
      </trkpt>
      <trkpt lat="46.31574" lon="0.31629">
        <ele>164.59917795844</ele>
        <time>2021-03-07T10:29:19Z</time>
      </trkpt>
      <trkpt lat="46.31573" lon="0.31633">
        <ele>164.89475195203</ele>
        <time>2021-03-07T10:29:21Z</time>
      </trkpt>
      <trkpt lat="46.31572" lon="0.31637">
        <ele>164.5726221567</ele>
        <time>2021-03-07T10:29:23Z</time>
      </trkpt>
      <trkpt lat="46.3157" lon="0.3164">
        <ele>164.72450698819</ele>
        <time>2021-03-07T10:29:25Z</time>
      </trkpt>
      <trkpt lat="46.31569" lon="0.31644">
        <ele>164.58117591217</ele>
        <time>2021-03-07T10:29:27Z</time>
      </trkpt>
      <trkpt lat="46.31568" lon="0.31648">
        <ele>164.76345019881</ele>
        <time>2021-03-07T10:29:29Z</time>
      </trkpt>
      <trkpt lat="46.31567" lon="0.31651">
        <ele>164.21459208708</ele>
        <time>2021-03-07T10:29:31Z</time>
      </trkpt>
      <trkpt lat="46.31565" lon="0.31654">
        <ele>164.71232219227</ele>
        <time>2021-03-07T10:29:33Z</time>
      </trkpt>
      <trkpt lat="46.31564" lon="0.31658">
        <ele>164.51988472976</ele>
        <time>2021-03-07T10:29:35Z</time>
      </trkpt>
      <trkpt lat="46.31563" lon="0.31661">
        <ele>164.65028992109</ele>
        <time>2021-03-07T10:29:37Z</time>
      </trkpt>
      <trkpt lat="46.31561" lon="0.31665">
        <ele>164.0785096949</ele>
        <time>2021-03-07T10:29:39Z</time>
      </trkpt>
      <trkpt lat="46.3156" lon="0.31667">
        <ele>164.51729662158</ele>
        <time>2021-03-07T10:29:40Z</time>
      </trkpt>
      <trkpt lat="46.31558" lon="0.3167">
        <ele>164.08825225849</ele>
        <time>2021-03-07T10:29:42Z</time>
      </trkpt>
      <trkpt lat="46.31557" lon="0.31674">
        <ele>163.7838928923</ele>
        <time>2021-03-07T10:29:44Z</time>
      </trkpt>
      <trkpt lat="46.31555" lon="0.31677">
        <ele>164.17252669204</ele>
        <time>2021-03-07T10:29:46Z</time>
      </trkpt>
      <trkpt lat="46.31554" lon="0.3168">
        <ele>164.31904823706</ele>
        <time>2021-03-07T10:29:48Z</time>
      </trkpt>
      <trkpt lat="46.31553" lon="0.31684">
        <ele>164.47423909139</ele>
        <time>2021-03-07T10:29:50Z</time>
      </trkpt>
      <trkpt lat="46.31551" lon="0.31687">
        <ele>164.25275808852</ele>
        <time>2021-03-07T10:29:52Z</time>
      </trkpt>
      <trkpt lat="46.3155" lon="0.31689">
        <ele>164.25013760384</ele>
        <time>2021-03-07T10:29:53Z</time>
      </trkpt>
      <trkpt lat="46.31549" lon="0.31692">
        <ele>164.08041315246</ele>
        <time>2021-03-07T10:29:55Z</time>
      </trkpt>
      <trkpt lat="46.31548" lon="0.31696">
        <ele>163.84156900458</ele>
        <time>2021-03-07T10:29:57Z</time>
      </trkpt>
      <trkpt lat="46.31546" lon="0.317">
        <ele>163.96043540165</ele>
        <time>2021-03-07T10:29:59Z</time>
      </trkpt>
      <trkpt lat="46.31545" lon="0.31702">
        <ele>163.9603277389</ele>
        <time>2021-03-07T10:30:01Z</time>
      </trkpt>
      <trkpt lat="46.31543" lon="0.31706">
        <ele>164.01398767717</ele>
        <time>2021-03-07T10:30:03Z</time>
      </trkpt>
      <trkpt lat="46.31542" lon="0.31709">
        <ele>163.61101615336</ele>
        <time>2021-03-07T10:30:05Z</time>
      </trkpt>
      <trkpt lat="46.3154" lon="0.31713">
        <ele>163.55047785863</ele>
        <time>2021-03-07T10:30:07Z</time>
      </trkpt>
      <trkpt lat="46.31538" lon="0.31717">
        <ele>163.94071948435</ele>
        <time>2021-03-07T10:30:09Z</time>
      </trkpt>
      <trkpt lat="46.31537" lon="0.3172">
        <ele>163.89568556286</ele>
        <time>2021-03-07T10:30:11Z</time>
      </trkpt>
      <trkpt lat="46.31536" lon="0.31722">
        <ele>164.05798627343</ele>
        <time>2021-03-07T10:30:12Z</time>
      </trkpt>
      <trkpt lat="46.31535" lon="0.31725">
        <ele>163.53528153151</ele>
        <time>2021-03-07T10:30:14Z</time>
      </trkpt>
      <trkpt lat="46.31534" lon="0.31728">
        <ele>163.51088462491</ele>
        <time>2021-03-07T10:30:16Z</time>
      </trkpt>
      <trkpt lat="46.31532" lon="0.31731">
        <ele>163.67245889455</ele>
        <time>2021-03-07T10:30:18Z</time>
      </trkpt>
      <trkpt lat="46.31531" lon="0.31735">
        <ele>163.4208543133</ele>
        <time>2021-03-07T10:30:20Z</time>
      </trkpt>
      <trkpt lat="46.3153" lon="0.31739">
        <ele>163.80625811219</ele>
        <time>2021-03-07T10:30:22Z</time>
      </trkpt>
      <trkpt lat="46.31529" lon="0.31742">
        <ele>163.75686527416</ele>
        <time>2021-03-07T10:30:24Z</time>
      </trkpt>
      <trkpt lat="46.31528" lon="0.31745">
        <ele>163.62949515693</ele>
        <time>2021-03-07T10:30:26Z</time>
      </trkpt>
      <trkpt lat="46.31526" lon="0.31748">
        <ele>164.10395924281</ele>
        <time>2021-03-07T10:30:28Z</time>
      </trkpt>
      <trkpt lat="46.31525" lon="0.31752">
        <ele>164.02806800324</ele>
        <time>2021-03-07T10:30:30Z</time>
      </trkpt>
      <trkpt lat="46.31524" lon="0.31756">
        <ele>164.158134019</ele>
        <time>2021-03-07T10:30:32Z</time>
      </trkpt>
      <trkpt lat="46.31523" lon="0.31758">
        <ele>163.76198121812</ele>
        <time>2021-03-07T10:30:33Z</time>
      </trkpt>
      <trkpt lat="46.31522" lon="0.31761">
        <ele>164.13802398834</ele>
        <time>2021-03-07T10:30:35Z</time>
      </trkpt>
      <trkpt lat="46.3152" lon="0.31764">
        <ele>164.032385692</ele>
        <time>2021-03-07T10:30:37Z</time>
      </trkpt>
      <trkpt lat="46.31519" lon="0.31768">
        <ele>164.12586330622</ele>
        <time>2021-03-07T10:30:39Z</time>
      </trkpt>
      <trkpt lat="46.31518" lon="0.31772">
        <ele>163.86301247869</ele>
        <time>2021-03-07T10:30:41Z</time>
      </trkpt>
      <trkpt lat="46.31517" lon="0.31774">
        <ele>163.68295186851</ele>
        <time>2021-03-07T10:30:42Z</time>
      </trkpt>
      <trkpt lat="46.31515" lon="0.31777">
        <ele>163.93154738378</ele>
        <time>2021-03-07T10:30:44Z</time>
      </trkpt>
      <trkpt lat="46.31514" lon="0.3178">
        <ele>163.97246117238</ele>
        <time>2021-03-07T10:30:46Z</time>
      </trkpt>
      <trkpt lat="46.31514" lon="0.31783">
        <ele>163.6358136097</ele>
        <time>2021-03-07T10:30:48Z</time>
      </trkpt>
      <trkpt lat="46.31512" lon="0.31785">
        <ele>163.73363119923</ele>
        <time>2021-03-07T10:30:49Z</time>
      </trkpt>
      <trkpt lat="46.31511" lon="0.31788">
        <ele>163.3313542828</ele>
        <time>2021-03-07T10:30:51Z</time>
      </trkpt>
      <trkpt lat="46.3151" lon="0.31792">
        <ele>163.67656491138</ele>
        <time>2021-03-07T10:30:53Z</time>
      </trkpt>
      <trkpt lat="46.31508" lon="0.31796">
        <ele>163.42938203365</ele>
        <time>2021-03-07T10:30:55Z</time>
      </trkpt>
      <trkpt lat="46.31507" lon="0.31798">
        <ele>163.35670690518</ele>
        <time>2021-03-07T10:30:56Z</time>
      </trkpt>
      <trkpt lat="46.31505" lon="0.318">
        <ele>163.66132579185</ele>
        <time>2021-03-07T10:30:57Z</time>
      </trkpt>
      <trkpt lat="46.31504" lon="0.31802">
        <ele>163.54550615605</ele>
        <time>2021-03-07T10:30:59Z</time>
      </trkpt>
      <trkpt lat="46.31503" lon="0.31806">
        <ele>163.56532255188</ele>
        <time>2021-03-07T10:31:01Z</time>
      </trkpt>
      <trkpt lat="46.31502" lon="0.3181">
        <ele>163.07707892172</ele>
        <time>2021-03-07T10:31:03Z</time>
      </trkpt>
      <trkpt lat="46.315" lon="0.31813">
        <ele>163.67418511584</ele>
        <time>2021-03-07T10:31:05Z</time>
      </trkpt>
      <trkpt lat="46.31498" lon="0.31816">
        <ele>163.34654236957</ele>
        <time>2021-03-07T10:31:07Z</time>
      </trkpt>
      <trkpt lat="46.31496" lon="0.3182">
        <ele>163.02539852355</ele>
        <time>2021-03-07T10:31:09Z</time>
      </trkpt>
      <trkpt lat="46.31496" lon="0.31823">
        <ele>162.98795813974</ele>
        <time>2021-03-07T10:31:11Z</time>
      </trkpt>
      <trkpt lat="46.31494" lon="0.31827">
        <ele>163.38625905011</ele>
        <time>2021-03-07T10:31:13Z</time>
      </trkpt>
      <trkpt lat="46.31493" lon="0.3183">
        <ele>162.60240460094</ele>
        <time>2021-03-07T10:31:15Z</time>
      </trkpt>
      <trkpt lat="46.31492" lon="0.31833">
        <ele>162.92393475864</ele>
        <time>2021-03-07T10:31:17Z</time>
      </trkpt>
      <trkpt lat="46.3149" lon="0.31837">
        <ele>162.89349655341</ele>
        <time>2021-03-07T10:31:19Z</time>
      </trkpt>
      <trkpt lat="46.31489" lon="0.31839">
        <ele>162.81413142383</ele>
        <time>2021-03-07T10:31:20Z</time>
      </trkpt>
      <trkpt lat="46.31488" lon="0.31843">
        <ele>162.45022707433</ele>
        <time>2021-03-07T10:31:22Z</time>
      </trkpt>
      <trkpt lat="46.31487" lon="0.31846">
        <ele>162.64814853109</ele>
        <time>2021-03-07T10:31:24Z</time>
      </trkpt>
      <trkpt lat="46.31486" lon="0.31849">
        <ele>162.1495906068</ele>
        <time>2021-03-07T10:31:26Z</time>
      </trkpt>
      <trkpt lat="46.31484" lon="0.31853">
        <ele>162.3765543988</ele>
        <time>2021-03-07T10:31:28Z</time>
      </trkpt>
      <trkpt lat="46.31483" lon="0.31857">
        <ele>162.12643347401</ele>
        <time>2021-03-07T10:31:30Z</time>
      </trkpt>
      <trkpt lat="46.31481" lon="0.31861">
        <ele>162.0550251985</ele>
        <time>2021-03-07T10:31:32Z</time>
      </trkpt>
      <trkpt lat="46.3148" lon="0.31864">
        <ele>161.84270661231</ele>
        <time>2021-03-07T10:31:34Z</time>
      </trkpt>
      <trkpt lat="46.31479" lon="0.31868">
        <ele>161.62066264916</ele>
        <time>2021-03-07T10:31:36Z</time>
      </trkpt>
      <trkpt lat="46.31478" lon="0.31871">
        <ele>161.19198715035</ele>
        <time>2021-03-07T10:31:37Z</time>
      </trkpt>
      <trkpt lat="46.31477" lon="0.31874">
        <ele>161.31782473065</ele>
        <time>2021-03-07T10:31:39Z</time>
      </trkpt>
      <trkpt lat="46.31476" lon="0.31878">
        <ele>161.34910428431</ele>
        <time>2021-03-07T10:31:41Z</time>
      </trkpt>
      <trkpt lat="46.31475" lon="0.3188">
        <ele>161.23783478606</ele>
        <time>2021-03-07T10:31:43Z</time>
      </trkpt>
      <trkpt lat="46.31473" lon="0.31884">
        <ele>161.27239248529</ele>
        <time>2021-03-07T10:31:45Z</time>
      </trkpt>
      <trkpt lat="46.31472" lon="0.31886">
        <ele>161.41460135207</ele>
        <time>2021-03-07T10:31:46Z</time>
      </trkpt>
      <trkpt lat="46.31472" lon="0.31889">
        <ele>160.89466324169</ele>
        <time>2021-03-07T10:31:48Z</time>
      </trkpt>
      <trkpt lat="46.31471" lon="0.31892">
        <ele>160.89346530288</ele>
        <time>2021-03-07T10:31:50Z</time>
      </trkpt>
      <trkpt lat="46.31471" lon="0.31896">
        <ele>160.77552992105</ele>
        <time>2021-03-07T10:31:52Z</time>
      </trkpt>
      <trkpt lat="46.31471" lon="0.319">
        <ele>160.75402995944</ele>
        <time>2021-03-07T10:31:54Z</time>
      </trkpt>
      <trkpt lat="46.3147" lon="0.31904">
        <ele>160.89878474269</ele>
        <time>2021-03-07T10:31:56Z</time>
      </trkpt>
      <trkpt lat="46.31469" lon="0.31907">
        <ele>161.2466502944</ele>
        <time>2021-03-07T10:31:58Z</time>
      </trkpt>
      <trkpt lat="46.31468" lon="0.31912">
        <ele>160.74530125223</ele>
        <time>2021-03-07T10:32:00Z</time>
      </trkpt>
      <trkpt lat="46.31467" lon="0.31915">
        <ele>160.8352014469</ele>
        <time>2021-03-07T10:32:02Z</time>
      </trkpt>
      <trkpt lat="46.31466" lon="0.31919">
        <ele>160.6139178481</ele>
        <time>2021-03-07T10:32:04Z</time>
      </trkpt>
      <trkpt lat="46.31465" lon="0.31923">
        <ele>160.63533987384</ele>
        <time>2021-03-07T10:32:06Z</time>
      </trkpt>
      <trkpt lat="46.31464" lon="0.31926">
        <ele>160.45216332097</ele>
        <time>2021-03-07T10:32:08Z</time>
      </trkpt>
      <trkpt lat="46.31464" lon="0.31929">
        <ele>160.5448987456</ele>
        <time>2021-03-07T10:32:09Z</time>
      </trkpt>
      <trkpt lat="46.31463" lon="0.31933">
        <ele>160.5907852985</ele>
        <time>2021-03-07T10:32:11Z</time>
      </trkpt>
      <trkpt lat="46.31463" lon="0.31937">
        <ele>160.69709825888</ele>
        <time>2021-03-07T10:32:13Z</time>
      </trkpt>
      <trkpt lat="46.31462" lon="0.31941">
        <ele>160.98958129529</ele>
        <time>2021-03-07T10:32:15Z</time>
      </trkpt>
      <trkpt lat="46.31461" lon="0.31945">
        <ele>160.78747672681</ele>
        <time>2021-03-07T10:32:17Z</time>
      </trkpt>
      <trkpt lat="46.3146" lon="0.3195">
        <ele>160.89789042901</ele>
        <time>2021-03-07T10:32:19Z</time>
      </trkpt>
      <trkpt lat="46.3146" lon="0.31953">
        <ele>161.20896221325</ele>
        <time>2021-03-07T10:32:21Z</time>
      </trkpt>
      <trkpt lat="46.3146" lon="0.31956">
        <ele>161.01610376779</ele>
        <time>2021-03-07T10:32:22Z</time>
      </trkpt>
      <trkpt lat="46.31459" lon="0.3196">
        <ele>160.36876722332</ele>
        <time>2021-03-07T10:32:24Z</time>
      </trkpt>
      <trkpt lat="46.31458" lon="0.31964">
        <ele>160.47461095639</ele>
        <time>2021-03-07T10:32:26Z</time>
      </trkpt>
      <trkpt lat="46.31458" lon="0.31967">
        <ele>161.24540479109</ele>
        <time>2021-03-07T10:32:28Z</time>
      </trkpt>
      <trkpt lat="46.31457" lon="0.31972">
        <ele>161.49741628114</ele>
        <time>2021-03-07T10:32:30Z</time>
      </trkpt>
      <trkpt lat="46.31457" lon="0.31975">
        <ele>160.92899246328</ele>
        <time>2021-03-07T10:32:32Z</time>
      </trkpt>
      <trkpt lat="46.31457" lon="0.31979">
        <ele>161.13953577355</ele>
        <time>2021-03-07T10:32:34Z</time>
      </trkpt>
      <trkpt lat="46.31457" lon="0.31982">
        <ele>161.23356631491</ele>
        <time>2021-03-07T10:32:36Z</time>
      </trkpt>
      <trkpt lat="46.31457" lon="0.31985">
        <ele>161.35949510615</ele>
        <time>2021-03-07T10:32:38Z</time>
      </trkpt>
      <trkpt lat="46.31457" lon="0.3199">
        <ele>161.6341138389</ele>
        <time>2021-03-07T10:32:40Z</time>
      </trkpt>
      <trkpt lat="46.31457" lon="0.31993">
        <ele>161.68403721787</ele>
        <time>2021-03-07T10:32:42Z</time>
      </trkpt>
      <trkpt lat="46.31457" lon="0.31996">
        <ele>161.74444698449</ele>
        <time>2021-03-07T10:32:43Z</time>
      </trkpt>
      <trkpt lat="46.31456" lon="0.32">
        <ele>162.00602904428</ele>
        <time>2021-03-07T10:32:45Z</time>
      </trkpt>
      <trkpt lat="46.31457" lon="0.32003">
        <ele>162.20155474637</ele>
        <time>2021-03-07T10:32:47Z</time>
      </trkpt>
      <trkpt lat="46.31456" lon="0.32007">
        <ele>162.08329181932</ele>
        <time>2021-03-07T10:32:49Z</time>
      </trkpt>
      <trkpt lat="46.31457" lon="0.32011">
        <ele>162.35430700332</ele>
        <time>2021-03-07T10:32:51Z</time>
      </trkpt>
      <trkpt lat="46.31456" lon="0.32015">
        <ele>162.2083219206</ele>
        <time>2021-03-07T10:32:53Z</time>
      </trkpt>
      <trkpt lat="46.31456" lon="0.32019">
        <ele>162.64911428094</ele>
        <time>2021-03-07T10:32:55Z</time>
      </trkpt>
      <trkpt lat="46.31457" lon="0.32022">
        <ele>162.87152300589</ele>
        <time>2021-03-07T10:32:57Z</time>
      </trkpt>
      <trkpt lat="46.31456" lon="0.32026">
        <ele>163.09500571992</ele>
        <time>2021-03-07T10:32:59Z</time>
      </trkpt>
      <trkpt lat="46.31456" lon="0.32029">
        <ele>163.82880016789</ele>
        <time>2021-03-07T10:33:01Z</time>
      </trkpt>
      <trkpt lat="46.31456" lon="0.32033">
        <ele>163.73633705173</ele>
        <time>2021-03-07T10:33:03Z</time>
      </trkpt>
      <trkpt lat="46.31456" lon="0.32037">
        <ele>163.40545012243</ele>
        <time>2021-03-07T10:33:05Z</time>
      </trkpt>
      <trkpt lat="46.31456" lon="0.32039">
        <ele>163.74267261103</ele>
        <time>2021-03-07T10:33:06Z</time>
      </trkpt>
      <trkpt lat="46.31456" lon="0.32043">
        <ele>163.70639474969</ele>
        <time>2021-03-07T10:33:08Z</time>
      </trkpt>
      <trkpt lat="46.31455" lon="0.32048">
        <ele>163.90073462483</ele>
        <time>2021-03-07T10:33:10Z</time>
      </trkpt>
      <trkpt lat="46.31456" lon="0.32051">
        <ele>164.725372524</ele>
        <time>2021-03-07T10:33:12Z</time>
      </trkpt>
      <trkpt lat="46.31456" lon="0.32054">
        <ele>164.07755717821</ele>
        <time>2021-03-07T10:33:14Z</time>
      </trkpt>
      <trkpt lat="46.31456" lon="0.32058">
        <ele>163.6077212533</ele>
        <time>2021-03-07T10:33:16Z</time>
      </trkpt>
      <trkpt lat="46.31456" lon="0.32061">
        <ele>164.24187075999</ele>
        <time>2021-03-07T10:33:18Z</time>
      </trkpt>
      <trkpt lat="46.31456" lon="0.32065">
        <ele>164.76032083482</ele>
        <time>2021-03-07T10:33:20Z</time>
      </trkpt>
      <trkpt lat="46.31456" lon="0.32069">
        <ele>164.52992473915</ele>
        <time>2021-03-07T10:33:22Z</time>
      </trkpt>
      <trkpt lat="46.31455" lon="0.32072">
        <ele>164.26768935286</ele>
        <time>2021-03-07T10:33:24Z</time>
      </trkpt>
      <trkpt lat="46.31455" lon="0.32075">
        <ele>164.5967477588</ele>
        <time>2021-03-07T10:33:26Z</time>
      </trkpt>
      <trkpt lat="46.31454" lon="0.32078">
        <ele>164.35181518737</ele>
        <time>2021-03-07T10:33:28Z</time>
      </trkpt>
      <trkpt lat="46.31454" lon="0.32082">
        <ele>164.62296387833</ele>
        <time>2021-03-07T10:33:30Z</time>
      </trkpt>
      <trkpt lat="46.31454" lon="0.32088">
        <ele>164.77849414945</ele>
        <time>2021-03-07T10:33:33Z</time>
      </trkpt>
      <trkpt lat="46.31454" lon="0.32091">
        <ele>165.08484477643</ele>
        <time>2021-03-07T10:33:35Z</time>
      </trkpt>
      <trkpt lat="46.31454" lon="0.32094">
        <ele>164.99522931874</ele>
        <time>2021-03-07T10:33:37Z</time>
      </trkpt>
      <trkpt lat="46.31453" lon="0.32099">
        <ele>164.45448358264</ele>
        <time>2021-03-07T10:33:39Z</time>
      </trkpt>
      <trkpt lat="46.31453" lon="0.32102">
        <ele>165.03637527488</ele>
        <time>2021-03-07T10:33:41Z</time>
      </trkpt>
      <trkpt lat="46.31453" lon="0.32105">
        <ele>165.36375961266</ele>
        <time>2021-03-07T10:33:43Z</time>
      </trkpt>
      <trkpt lat="46.31454" lon="0.32109">
        <ele>164.90307934675</ele>
        <time>2021-03-07T10:33:45Z</time>
      </trkpt>
      <trkpt lat="46.31453" lon="0.32113">
        <ele>164.43309167214</ele>
        <time>2021-03-07T10:33:47Z</time>
      </trkpt>
      <trkpt lat="46.31453" lon="0.32116">
        <ele>165.81134269759</ele>
        <time>2021-03-07T10:33:49Z</time>
      </trkpt>
      <trkpt lat="46.31453" lon="0.3212">
        <ele>165.72175090481</ele>
        <time>2021-03-07T10:33:51Z</time>
      </trkpt>
      <trkpt lat="46.31453" lon="0.32124">
        <ele>165.44261865783</ele>
        <time>2021-03-07T10:33:53Z</time>
      </trkpt>
      <trkpt lat="46.31453" lon="0.32128">
        <ele>165.47351742163</ele>
        <time>2021-03-07T10:33:55Z</time>
      </trkpt>
      <trkpt lat="46.31453" lon="0.32131">
        <ele>165.59169150516</ele>
        <time>2021-03-07T10:33:57Z</time>
      </trkpt>
      <trkpt lat="46.31453" lon="0.32135">
        <ele>165.19943875633</ele>
        <time>2021-03-07T10:33:59Z</time>
      </trkpt>
      <trkpt lat="46.31452" lon="0.32139">
        <ele>165.60624288768</ele>
        <time>2021-03-07T10:34:01Z</time>
      </trkpt>
      <trkpt lat="46.31452" lon="0.32143">
        <ele>166.48541393131</ele>
        <time>2021-03-07T10:34:03Z</time>
      </trkpt>
      <trkpt lat="46.31452" lon="0.32147">
        <ele>166.37392815482</ele>
        <time>2021-03-07T10:34:05Z</time>
      </trkpt>
      <trkpt lat="46.31451" lon="0.32151">
        <ele>166.37028145045</ele>
        <time>2021-03-07T10:34:07Z</time>
      </trkpt>
      <trkpt lat="46.31451" lon="0.32155">
        <ele>166.27534345537</ele>
        <time>2021-03-07T10:34:09Z</time>
      </trkpt>
      <trkpt lat="46.31451" lon="0.32159">
        <ele>166.72255253419</ele>
        <time>2021-03-07T10:34:11Z</time>
      </trkpt>
      <trkpt lat="46.31451" lon="0.32163">
        <ele>167.01944580674</ele>
        <time>2021-03-07T10:34:13Z</time>
      </trkpt>
      <trkpt lat="46.3145" lon="0.32167">
        <ele>166.30972933397</ele>
        <time>2021-03-07T10:34:15Z</time>
      </trkpt>
      <trkpt lat="46.31451" lon="0.3217">
        <ele>166.29061595071</ele>
        <time>2021-03-07T10:34:17Z</time>
      </trkpt>
      <trkpt lat="46.31451" lon="0.32173">
        <ele>166.48456966318</ele>
        <time>2021-03-07T10:34:19Z</time>
      </trkpt>
      <trkpt lat="46.3145" lon="0.32177">
        <ele>166.37904198375</ele>
        <time>2021-03-07T10:34:21Z</time>
      </trkpt>
      <trkpt lat="46.3145" lon="0.32181">
        <ele>166.67272750661</ele>
        <time>2021-03-07T10:34:23Z</time>
      </trkpt>
      <trkpt lat="46.3145" lon="0.32184">
        <ele>166.87578777689</ele>
        <time>2021-03-07T10:34:24Z</time>
      </trkpt>
      <trkpt lat="46.3145" lon="0.32187">
        <ele>166.6591279842</ele>
        <time>2021-03-07T10:34:26Z</time>
      </trkpt>
      <trkpt lat="46.3145" lon="0.32191">
        <ele>166.54239844345</ele>
        <time>2021-03-07T10:34:28Z</time>
      </trkpt>
      <trkpt lat="46.3145" lon="0.32195">
        <ele>166.88675719686</ele>
        <time>2021-03-07T10:34:30Z</time>
      </trkpt>
      <trkpt lat="46.31449" lon="0.32198">
        <ele>166.57049546018</ele>
        <time>2021-03-07T10:34:32Z</time>
      </trkpt>
      <trkpt lat="46.31448" lon="0.32203">
        <ele>167.0327231586</ele>
        <time>2021-03-07T10:34:34Z</time>
      </trkpt>
      <trkpt lat="46.31448" lon="0.32206">
        <ele>167.31639287435</ele>
        <time>2021-03-07T10:34:36Z</time>
      </trkpt>
      <trkpt lat="46.31448" lon="0.32209">
        <ele>166.99710147176</ele>
        <time>2021-03-07T10:34:38Z</time>
      </trkpt>
      <trkpt lat="46.31447" lon="0.32213">
        <ele>167.19655655138</ele>
        <time>2021-03-07T10:34:40Z</time>
      </trkpt>
      <trkpt lat="46.31448" lon="0.32216">
        <ele>167.76497476362</ele>
        <time>2021-03-07T10:34:43Z</time>
      </trkpt>
      <trkpt lat="46.31448" lon="0.32221">
        <ele>167.58840132039</ele>
        <time>2021-03-07T10:34:45Z</time>
      </trkpt>
      <trkpt lat="46.31448" lon="0.32224">
        <ele>167.36880692281</ele>
        <time>2021-03-07T10:34:47Z</time>
      </trkpt>
      <trkpt lat="46.31448" lon="0.32228">
        <ele>167.50700075459</ele>
        <time>2021-03-07T10:34:49Z</time>
      </trkpt>
      <trkpt lat="46.31448" lon="0.32232">
        <ele>167.5523609221</ele>
        <time>2021-03-07T10:34:51Z</time>
      </trkpt>
      <trkpt lat="46.31448" lon="0.32236">
        <ele>167.79291934427</ele>
        <time>2021-03-07T10:34:53Z</time>
      </trkpt>
      <trkpt lat="46.31447" lon="0.3224">
        <ele>166.73417478614</ele>
        <time>2021-03-07T10:34:55Z</time>
      </trkpt>
      <trkpt lat="46.31448" lon="0.32244">
        <ele>167.02193654701</ele>
        <time>2021-03-07T10:34:57Z</time>
      </trkpt>
      <trkpt lat="46.31448" lon="0.32249">
        <ele>167.43745916896</ele>
        <time>2021-03-07T10:34:59Z</time>
      </trkpt>
      <trkpt lat="46.31447" lon="0.32252">
        <ele>167.1447343044</ele>
        <time>2021-03-07T10:35:01Z</time>
      </trkpt>
      <trkpt lat="46.31447" lon="0.32256">
        <ele>167.53107951488</ele>
        <time>2021-03-07T10:35:03Z</time>
      </trkpt>
      <trkpt lat="46.31447" lon="0.32259">
        <ele>167.4895654032</ele>
        <time>2021-03-07T10:35:04Z</time>
      </trkpt>
      <trkpt lat="46.31446" lon="0.32263">
        <ele>167.36134608183</ele>
        <time>2021-03-07T10:35:06Z</time>
      </trkpt>
      <trkpt lat="46.31446" lon="0.32267">
        <ele>167.28465142287</ele>
        <time>2021-03-07T10:35:08Z</time>
      </trkpt>
      <trkpt lat="46.31446" lon="0.32271">
        <ele>167.27793044224</ele>
        <time>2021-03-07T10:35:10Z</time>
      </trkpt>
      <trkpt lat="46.31446" lon="0.32275">
        <ele>166.84999770578</ele>
        <time>2021-03-07T10:35:12Z</time>
      </trkpt>
      <trkpt lat="46.31446" lon="0.32278">
        <ele>167.24212532863</ele>
        <time>2021-03-07T10:35:13Z</time>
      </trkpt>
      <trkpt lat="46.31446" lon="0.32282">
        <ele>167.12196232937</ele>
        <time>2021-03-07T10:35:15Z</time>
      </trkpt>
      <trkpt lat="46.31445" lon="0.32286">
        <ele>167.02613534965</ele>
        <time>2021-03-07T10:35:17Z</time>
      </trkpt>
      <trkpt lat="46.31445" lon="0.32291">
        <ele>167.36708886735</ele>
        <time>2021-03-07T10:35:19Z</time>
      </trkpt>
      <trkpt lat="46.31445" lon="0.32296">
        <ele>167.67106622364</ele>
        <time>2021-03-07T10:35:21Z</time>
      </trkpt>
      <trkpt lat="46.31445" lon="0.323">
        <ele>167.43866214249</ele>
        <time>2021-03-07T10:35:23Z</time>
      </trkpt>
      <trkpt lat="46.31445" lon="0.32304">
        <ele>167.70040529873</ele>
        <time>2021-03-07T10:35:25Z</time>
      </trkpt>
      <trkpt lat="46.31445" lon="0.32307">
        <ele>167.93644887488</ele>
        <time>2021-03-07T10:35:27Z</time>
      </trkpt>
      <trkpt lat="46.31445" lon="0.3231">
        <ele>167.82005428243</ele>
        <time>2021-03-07T10:35:29Z</time>
      </trkpt>
      <trkpt lat="46.31445" lon="0.32314">
        <ele>168.01521078404</ele>
        <time>2021-03-07T10:35:31Z</time>
      </trkpt>
      <trkpt lat="46.31445" lon="0.32318">
        <ele>168.11009163596</ele>
        <time>2021-03-07T10:35:33Z</time>
      </trkpt>
      <trkpt lat="46.31446" lon="0.32322">
        <ele>167.72725191247</ele>
        <time>2021-03-07T10:35:35Z</time>
      </trkpt>
      <trkpt lat="46.31445" lon="0.32325">
        <ele>168.17622158211</ele>
        <time>2021-03-07T10:35:37Z</time>
      </trkpt>
      <trkpt lat="46.31445" lon="0.32328">
        <ele>168.13197787944</ele>
        <time>2021-03-07T10:35:38Z</time>
      </trkpt>
      <trkpt lat="46.31445" lon="0.32331">
        <ele>168.00634992123</ele>
        <time>2021-03-07T10:35:40Z</time>
      </trkpt>
      <trkpt lat="46.31445" lon="0.32336">
        <ele>168.20049811341</ele>
        <time>2021-03-07T10:35:42Z</time>
      </trkpt>
      <trkpt lat="46.31445" lon="0.3234">
        <ele>168.30340237636</ele>
        <time>2021-03-07T10:35:44Z</time>
      </trkpt>
      <trkpt lat="46.31445" lon="0.32345">
        <ele>168.16263326257</ele>
        <time>2021-03-07T10:35:46Z</time>
      </trkpt>
      <trkpt lat="46.31445" lon="0.32348">
        <ele>168.5482874969</ele>
        <time>2021-03-07T10:35:48Z</time>
      </trkpt>
      <trkpt lat="46.31446" lon="0.32352">
        <ele>168.21224388853</ele>
        <time>2021-03-07T10:35:50Z</time>
      </trkpt>
      <trkpt lat="46.31446" lon="0.32356">
        <ele>168.40212389734</ele>
        <time>2021-03-07T10:35:52Z</time>
      </trkpt>
      <trkpt lat="46.31446" lon="0.3236">
        <ele>167.96623548865</ele>
        <time>2021-03-07T10:35:54Z</time>
      </trkpt>
      <trkpt lat="46.31446" lon="0.32363">
        <ele>168.14626173582</ele>
        <time>2021-03-07T10:35:56Z</time>
      </trkpt>
      <trkpt lat="46.31446" lon="0.32365">
        <ele>168.1261448646</ele>
        <time>2021-03-07T10:35:57Z</time>
      </trkpt>
      <trkpt lat="46.31446" lon="0.32369">
        <ele>168.28782050963</ele>
        <time>2021-03-07T10:35:59Z</time>
      </trkpt>
      <trkpt lat="46.31446" lon="0.32372">
        <ele>168.17007273436</ele>
        <time>2021-03-07T10:36:01Z</time>
      </trkpt>
      <trkpt lat="46.31446" lon="0.32376">
        <ele>168.21517995559</ele>
        <time>2021-03-07T10:36:03Z</time>
      </trkpt>
      <trkpt lat="46.31445" lon="0.32379">
        <ele>168.60929589812</ele>
        <time>2021-03-07T10:36:05Z</time>
      </trkpt>
      <trkpt lat="46.31444" lon="0.32382">
        <ele>168.62562202942</ele>
        <time>2021-03-07T10:36:07Z</time>
      </trkpt>
      <trkpt lat="46.31444" lon="0.32384">
        <ele>168.11352838203</ele>
        <time>2021-03-07T10:36:09Z</time>
      </trkpt>
      <trkpt lat="46.31443" lon="0.32388">
        <ele>168.16565859318</ele>
        <time>2021-03-07T10:36:11Z</time>
      </trkpt>
      <trkpt lat="46.31442" lon="0.32391">
        <ele>168.25823350996</ele>
        <time>2021-03-07T10:36:13Z</time>
      </trkpt>
      <trkpt lat="46.31441" lon="0.32396">
        <ele>167.95496767573</ele>
        <time>2021-03-07T10:36:15Z</time>
      </trkpt>
      <trkpt lat="46.3144" lon="0.32399">
        <ele>167.98924614117</ele>
        <time>2021-03-07T10:36:17Z</time>
      </trkpt>
      <trkpt lat="46.31439" lon="0.32402">
        <ele>167.87863162719</ele>
        <time>2021-03-07T10:36:19Z</time>
      </trkpt>
      <trkpt lat="46.31438" lon="0.32405">
        <ele>167.75197147764</ele>
        <time>2021-03-07T10:36:21Z</time>
      </trkpt>
      <trkpt lat="46.31436" lon="0.3241">
        <ele>167.94538112078</ele>
        <time>2021-03-07T10:36:24Z</time>
      </trkpt>
      <trkpt lat="46.31434" lon="0.32412">
        <ele>167.64699356351</ele>
        <time>2021-03-07T10:36:26Z</time>
      </trkpt>
      <trkpt lat="46.31433" lon="0.32415">
        <ele>168.34801546857</ele>
        <time>2021-03-07T10:36:28Z</time>
      </trkpt>
      <trkpt lat="46.31432" lon="0.32418">
        <ele>167.82314716931</ele>
        <time>2021-03-07T10:36:30Z</time>
      </trkpt>
      <trkpt lat="46.31432" lon="0.32422">
        <ele>167.56252916716</ele>
        <time>2021-03-07T10:36:32Z</time>
      </trkpt>
      <trkpt lat="46.3143" lon="0.32425">
        <ele>167.41312584095</ele>
        <time>2021-03-07T10:36:34Z</time>
      </trkpt>
      <trkpt lat="46.31429" lon="0.32429">
        <ele>167.5196025921</ele>
        <time>2021-03-07T10:36:36Z</time>
      </trkpt>
      <trkpt lat="46.31428" lon="0.32432">
        <ele>167.64256828185</ele>
        <time>2021-03-07T10:36:37Z</time>
      </trkpt>
      <trkpt lat="46.31427" lon="0.32437">
        <ele>167.11694867816</ele>
        <time>2021-03-07T10:36:39Z</time>
      </trkpt>
      <trkpt lat="46.31427" lon="0.3244">
        <ele>167.35558347963</ele>
        <time>2021-03-07T10:36:40Z</time>
      </trkpt>
      <trkpt lat="46.31425" lon="0.32443">
        <ele>167.26919622067</ele>
        <time>2021-03-07T10:36:42Z</time>
      </trkpt>
      <trkpt lat="46.31423" lon="0.32447">
        <ele>167.25974049326</ele>
        <time>2021-03-07T10:36:44Z</time>
      </trkpt>
      <trkpt lat="46.31422" lon="0.32451">
        <ele>167.2554615261</ele>
        <time>2021-03-07T10:36:46Z</time>
      </trkpt>
      <trkpt lat="46.31421" lon="0.32454">
        <ele>167.29049549997</ele>
        <time>2021-03-07T10:36:48Z</time>
      </trkpt>
      <trkpt lat="46.3142" lon="0.32456">
        <ele>167.16752043273</ele>
        <time>2021-03-07T10:36:49Z</time>
      </trkpt>
      <trkpt lat="46.31419" lon="0.32459">
        <ele>167.33996556234</ele>
        <time>2021-03-07T10:36:50Z</time>
      </trkpt>
      <trkpt lat="46.31419" lon="0.32463">
        <ele>167.49198603164</ele>
        <time>2021-03-07T10:36:52Z</time>
      </trkpt>
      <trkpt lat="46.31418" lon="0.32467">
        <ele>167.88802576438</ele>
        <time>2021-03-07T10:36:54Z</time>
      </trkpt>
      <trkpt lat="46.31417" lon="0.3247">
        <ele>167.72283135261</ele>
        <time>2021-03-07T10:36:56Z</time>
      </trkpt>
      <trkpt lat="46.31416" lon="0.32475">
        <ele>166.63489961252</ele>
        <time>2021-03-07T10:36:58Z</time>
      </trkpt>
      <trkpt lat="46.31415" lon="0.32477">
        <ele>166.98497238755</ele>
        <time>2021-03-07T10:36:59Z</time>
      </trkpt>
      <trkpt lat="46.31414" lon="0.32482">
        <ele>166.79713288415</ele>
        <time>2021-03-07T10:37:02Z</time>
      </trkpt>
      <trkpt lat="46.31413" lon="0.32486">
        <ele>166.90354232769</ele>
        <time>2021-03-07T10:37:04Z</time>
      </trkpt>
      <trkpt lat="46.31412" lon="0.32489">
        <ele>166.90309621301</ele>
        <time>2021-03-07T10:37:06Z</time>
      </trkpt>
      <trkpt lat="46.31411" lon="0.32494">
        <ele>166.22074462939</ele>
        <time>2021-03-07T10:37:08Z</time>
      </trkpt>
      <trkpt lat="46.3141" lon="0.32498">
        <ele>166.11061479989</ele>
        <time>2021-03-07T10:37:10Z</time>
      </trkpt>
      <trkpt lat="46.31409" lon="0.32502">
        <ele>166.15631973092</ele>
        <time>2021-03-07T10:37:12Z</time>
      </trkpt>
      <trkpt lat="46.31409" lon="0.32506">
        <ele>166.39112980664</ele>
        <time>2021-03-07T10:37:14Z</time>
      </trkpt>
      <trkpt lat="46.31408" lon="0.3251">
        <ele>166.62487223558</ele>
        <time>2021-03-07T10:37:16Z</time>
      </trkpt>
      <trkpt lat="46.31407" lon="0.32514">
        <ele>166.47234571632</ele>
        <time>2021-03-07T10:37:18Z</time>
      </trkpt>
      <trkpt lat="46.31407" lon="0.32517">
        <ele>166.88561702985</ele>
        <time>2021-03-07T10:37:20Z</time>
      </trkpt>
      <trkpt lat="46.31406" lon="0.3252">
        <ele>166.913214962</ele>
        <time>2021-03-07T10:37:21Z</time>
      </trkpt>
      <trkpt lat="46.31405" lon="0.32524">
        <ele>166.42074339837</ele>
        <time>2021-03-07T10:37:23Z</time>
      </trkpt>
      <trkpt lat="46.31405" lon="0.32527">
        <ele>166.38306395803</ele>
        <time>2021-03-07T10:37:25Z</time>
      </trkpt>
      <trkpt lat="46.31404" lon="0.3253">
        <ele>166.22409346793</ele>
        <time>2021-03-07T10:37:27Z</time>
      </trkpt>
      <trkpt lat="46.31404" lon="0.32533">
        <ele>166.41193626635</ele>
        <time>2021-03-07T10:37:28Z</time>
      </trkpt>
      <trkpt lat="46.31403" lon="0.32537">
        <ele>166.52646310069</ele>
        <time>2021-03-07T10:37:30Z</time>
      </trkpt>
      <trkpt lat="46.31402" lon="0.32541">
        <ele>165.99524907116</ele>
        <time>2021-03-07T10:37:32Z</time>
      </trkpt>
      <trkpt lat="46.31402" lon="0.32544">
        <ele>166.21215641778</ele>
        <time>2021-03-07T10:37:33Z</time>
      </trkpt>
      <trkpt lat="46.31402" lon="0.32547">
        <ele>165.60431913752</ele>
        <time>2021-03-07T10:37:35Z</time>
      </trkpt>
      <trkpt lat="46.31401" lon="0.3255">
        <ele>165.79231912643</ele>
        <time>2021-03-07T10:37:37Z</time>
      </trkpt>
      <trkpt lat="46.31401" lon="0.32553">
        <ele>165.59220413957</ele>
        <time>2021-03-07T10:37:39Z</time>
      </trkpt>
      <trkpt lat="46.314" lon="0.32558">
        <ele>165.84134039562</ele>
        <time>2021-03-07T10:37:41Z</time>
      </trkpt>
      <trkpt lat="46.31399" lon="0.32563">
        <ele>166.01388179231</ele>
        <time>2021-03-07T10:37:43Z</time>
      </trkpt>
      <trkpt lat="46.31399" lon="0.32568">
        <ele>166.38161896542</ele>
        <time>2021-03-07T10:37:45Z</time>
      </trkpt>
      <trkpt lat="46.31399" lon="0.32572">
        <ele>165.62613329757</ele>
        <time>2021-03-07T10:37:47Z</time>
      </trkpt>
      <trkpt lat="46.31399" lon="0.32575">
        <ele>165.80634438433</ele>
        <time>2021-03-07T10:37:49Z</time>
      </trkpt>
      <trkpt lat="46.31399" lon="0.3258">
        <ele>165.6427534502</ele>
        <time>2021-03-07T10:37:51Z</time>
      </trkpt>
      <trkpt lat="46.314" lon="0.32583">
        <ele>165.18263842911</ele>
        <time>2021-03-07T10:37:53Z</time>
      </trkpt>
      <trkpt lat="46.31401" lon="0.32585">
        <ele>165.56477201451</ele>
        <time>2021-03-07T10:37:55Z</time>
      </trkpt>
      <trkpt lat="46.31403" lon="0.32587">
        <ele>165.40109859966</ele>
        <time>2021-03-07T10:37:57Z</time>
      </trkpt>
      <trkpt lat="46.31405" lon="0.3259">
        <ele>165.94141981471</ele>
        <time>2021-03-07T10:37:59Z</time>
      </trkpt>
      <trkpt lat="46.31407" lon="0.32591">
        <ele>166.16598008759</ele>
        <time>2021-03-07T10:38:01Z</time>
      </trkpt>
      <trkpt lat="46.31409" lon="0.32593">
        <ele>165.82322919089</ele>
        <time>2021-03-07T10:38:03Z</time>
      </trkpt>
      <trkpt lat="46.31412" lon="0.32594">
        <ele>165.17782530002</ele>
        <time>2021-03-07T10:38:05Z</time>
      </trkpt>
      <trkpt lat="46.31413" lon="0.32594">
        <ele>165.10635090526</ele>
        <time>2021-03-07T10:38:06Z</time>
      </trkpt>
      <trkpt lat="46.31416" lon="0.32597">
        <ele>165.55408077314</ele>
        <time>2021-03-07T10:38:08Z</time>
      </trkpt>
      <trkpt lat="46.31418" lon="0.32599">
        <ele>165.62324852217</ele>
        <time>2021-03-07T10:38:10Z</time>
      </trkpt>
      <trkpt lat="46.31421" lon="0.326">
        <ele>165.66938414797</ele>
        <time>2021-03-07T10:38:12Z</time>
      </trkpt>
      <trkpt lat="46.31423" lon="0.32603">
        <ele>165.8377546696</ele>
        <time>2021-03-07T10:38:14Z</time>
      </trkpt>
      <trkpt lat="46.31426" lon="0.32605">
        <ele>165.92825179826</ele>
        <time>2021-03-07T10:38:16Z</time>
      </trkpt>
      <trkpt lat="46.31428" lon="0.32607">
        <ele>165.92628994025</ele>
        <time>2021-03-07T10:38:18Z</time>
      </trkpt>
      <trkpt lat="46.3143" lon="0.32608">
        <ele>166.23493257258</ele>
        <time>2021-03-07T10:38:19Z</time>
      </trkpt>
      <trkpt lat="46.31432" lon="0.32609">
        <ele>166.14456696156</ele>
        <time>2021-03-07T10:38:21Z</time>
      </trkpt>
      <trkpt lat="46.31434" lon="0.32612">
        <ele>166.55901764799</ele>
        <time>2021-03-07T10:38:23Z</time>
      </trkpt>
      <trkpt lat="46.31436" lon="0.32614">
        <ele>165.60541472957</ele>
        <time>2021-03-07T10:38:25Z</time>
      </trkpt>
      <trkpt lat="46.31438" lon="0.32617">
        <ele>165.7367823245</ele>
        <time>2021-03-07T10:38:27Z</time>
      </trkpt>
      <trkpt lat="46.31441" lon="0.3262">
        <ele>166.02195951343</ele>
        <time>2021-03-07T10:38:29Z</time>
      </trkpt>
      <trkpt lat="46.31444" lon="0.32622">
        <ele>165.89459067211</ele>
        <time>2021-03-07T10:38:31Z</time>
      </trkpt>
      <trkpt lat="46.31446" lon="0.32623">
        <ele>165.85943757463</ele>
        <time>2021-03-07T10:38:33Z</time>
      </trkpt>
      <trkpt lat="46.31449" lon="0.32625">
        <ele>165.95407542307</ele>
        <time>2021-03-07T10:38:35Z</time>
      </trkpt>
      <trkpt lat="46.3145" lon="0.32626">
        <ele>165.83453705069</ele>
        <time>2021-03-07T10:38:37Z</time>
      </trkpt>
      <trkpt lat="46.31452" lon="0.32626">
        <ele>166.20362923946</ele>
        <time>2021-03-07T10:38:38Z</time>
      </trkpt>
      <trkpt lat="46.31455" lon="0.32628">
        <ele>165.98421349004</ele>
        <time>2021-03-07T10:38:40Z</time>
      </trkpt>
      <trkpt lat="46.31457" lon="0.3263">
        <ele>166.61724106409</ele>
        <time>2021-03-07T10:38:42Z</time>
      </trkpt>
      <trkpt lat="46.31459" lon="0.32633">
        <ele>166.29605855513</ele>
        <time>2021-03-07T10:38:44Z</time>
      </trkpt>
      <trkpt lat="46.31462" lon="0.32635">
        <ele>166.15811554901</ele>
        <time>2021-03-07T10:38:46Z</time>
      </trkpt>
      <trkpt lat="46.31464" lon="0.32636">
        <ele>166.45640145708</ele>
        <time>2021-03-07T10:38:48Z</time>
      </trkpt>
      <trkpt lat="46.31468" lon="0.32638">
        <ele>166.54552229308</ele>
        <time>2021-03-07T10:38:50Z</time>
      </trkpt>
      <trkpt lat="46.31471" lon="0.32639">
        <ele>166.25805959199</ele>
        <time>2021-03-07T10:38:52Z</time>
      </trkpt>
      <trkpt lat="46.31474" lon="0.32642">
        <ele>166.22967955377</ele>
        <time>2021-03-07T10:38:54Z</time>
      </trkpt>
      <trkpt lat="46.31477" lon="0.32643">
        <ele>166.03320923634</ele>
        <time>2021-03-07T10:38:56Z</time>
      </trkpt>
      <trkpt lat="46.3148" lon="0.32644">
        <ele>165.78924008552</ele>
        <time>2021-03-07T10:38:58Z</time>
      </trkpt>
      <trkpt lat="46.31482" lon="0.32645">
        <ele>166.2157791378</ele>
        <time>2021-03-07T10:39:00Z</time>
      </trkpt>
      <trkpt lat="46.31485" lon="0.32647">
        <ele>165.74730104301</ele>
        <time>2021-03-07T10:39:02Z</time>
      </trkpt>
      <trkpt lat="46.31487" lon="0.32647">
        <ele>166.33452079073</ele>
        <time>2021-03-07T10:39:04Z</time>
      </trkpt>
      <trkpt lat="46.3149" lon="0.32649">
        <ele>166.72815860901</ele>
        <time>2021-03-07T10:39:06Z</time>
      </trkpt>
      <trkpt lat="46.31492" lon="0.32649">
        <ele>166.55431868229</ele>
        <time>2021-03-07T10:39:08Z</time>
      </trkpt>
      <trkpt lat="46.31494" lon="0.32649">
        <ele>166.87947847694</ele>
        <time>2021-03-07T10:39:10Z</time>
      </trkpt>
      <trkpt lat="46.31497" lon="0.32651">
        <ele>167.14155808277</ele>
        <time>2021-03-07T10:39:12Z</time>
      </trkpt>
      <trkpt lat="46.315" lon="0.32653">
        <ele>167.04255718179</ele>
        <time>2021-03-07T10:39:14Z</time>
      </trkpt>
      <trkpt lat="46.31502" lon="0.32653">
        <ele>166.98901301529</ele>
        <time>2021-03-07T10:39:16Z</time>
      </trkpt>
      <trkpt lat="46.31504" lon="0.32655">
        <ele>167.06672735792</ele>
        <time>2021-03-07T10:39:18Z</time>
      </trkpt>
      <trkpt lat="46.31507" lon="0.32655">
        <ele>167.11994538456</ele>
        <time>2021-03-07T10:39:20Z</time>
      </trkpt>
      <trkpt lat="46.31509" lon="0.32657">
        <ele>167.14063485432</ele>
        <time>2021-03-07T10:39:22Z</time>
      </trkpt>
      <trkpt lat="46.31512" lon="0.32657">
        <ele>167.47251552902</ele>
        <time>2021-03-07T10:39:24Z</time>
      </trkpt>
      <trkpt lat="46.31514" lon="0.32659">
        <ele>167.75519816298</ele>
        <time>2021-03-07T10:39:26Z</time>
      </trkpt>
      <trkpt lat="46.31516" lon="0.32662">
        <ele>167.73775302432</ele>
        <time>2021-03-07T10:39:28Z</time>
      </trkpt>
      <trkpt lat="46.31519" lon="0.32663">
        <ele>167.53840169497</ele>
        <time>2021-03-07T10:39:30Z</time>
      </trkpt>
      <trkpt lat="46.31521" lon="0.32663">
        <ele>167.48272746801</ele>
        <time>2021-03-07T10:39:31Z</time>
      </trkpt>
      <trkpt lat="46.31523" lon="0.32664">
        <ele>167.89440680854</ele>
        <time>2021-03-07T10:39:33Z</time>
      </trkpt>
      <trkpt lat="46.31526" lon="0.32665">
        <ele>167.71811037604</ele>
        <time>2021-03-07T10:39:35Z</time>
      </trkpt>
      <trkpt lat="46.31528" lon="0.32667">
        <ele>167.70012022182</ele>
        <time>2021-03-07T10:39:37Z</time>
      </trkpt>
      <trkpt lat="46.31531" lon="0.32667">
        <ele>167.39576727152</ele>
        <time>2021-03-07T10:39:39Z</time>
      </trkpt>
      <trkpt lat="46.31533" lon="0.32669">
        <ele>167.9940823447</ele>
        <time>2021-03-07T10:39:41Z</time>
      </trkpt>
      <trkpt lat="46.31536" lon="0.32669">
        <ele>168.14499443863</ele>
        <time>2021-03-07T10:39:43Z</time>
      </trkpt>
      <trkpt lat="46.31538" lon="0.32669">
        <ele>168.3978141034</ele>
        <time>2021-03-07T10:39:45Z</time>
      </trkpt>
      <trkpt lat="46.31541" lon="0.3267">
        <ele>168.59303769376</ele>
        <time>2021-03-07T10:39:47Z</time>
      </trkpt>
      <trkpt lat="46.31544" lon="0.32671">
        <ele>168.15567431506</ele>
        <time>2021-03-07T10:39:49Z</time>
      </trkpt>
      <trkpt lat="46.31546" lon="0.32671">
        <ele>168.66459380649</ele>
        <time>2021-03-07T10:39:51Z</time>
      </trkpt>
      <trkpt lat="46.31548" lon="0.32671">
        <ele>168.5492146546</ele>
        <time>2021-03-07T10:39:52Z</time>
      </trkpt>
      <trkpt lat="46.3155" lon="0.32671">
        <ele>168.71080095507</ele>
        <time>2021-03-07T10:39:54Z</time>
      </trkpt>
      <trkpt lat="46.31552" lon="0.32672">
        <ele>169.08207801171</ele>
        <time>2021-03-07T10:39:56Z</time>
      </trkpt>
      <trkpt lat="46.31554" lon="0.32671">
        <ele>169.08175780904</ele>
        <time>2021-03-07T10:39:58Z</time>
      </trkpt>
      <trkpt lat="46.31557" lon="0.32671">
        <ele>169.00828833971</ele>
        <time>2021-03-07T10:40:00Z</time>
      </trkpt>
      <trkpt lat="46.3156" lon="0.3267">
        <ele>168.81753170956</ele>
        <time>2021-03-07T10:40:03Z</time>
      </trkpt>
      <trkpt lat="46.31563" lon="0.3267">
        <ele>168.65042894613</ele>
        <time>2021-03-07T10:40:05Z</time>
      </trkpt>
      <trkpt lat="46.31565" lon="0.3267">
        <ele>168.73704509716</ele>
        <time>2021-03-07T10:40:07Z</time>
      </trkpt>
      <trkpt lat="46.31567" lon="0.3267">
        <ele>168.85172110703</ele>
        <time>2021-03-07T10:40:09Z</time>
      </trkpt>
      <trkpt lat="46.31569" lon="0.32669">
        <ele>168.84224261902</ele>
        <time>2021-03-07T10:40:11Z</time>
      </trkpt>
      <trkpt lat="46.31572" lon="0.32668">
        <ele>169.36670426</ele>
        <time>2021-03-07T10:40:13Z</time>
      </trkpt>
      <trkpt lat="46.31575" lon="0.32667">
        <ele>169.24689163361</ele>
        <time>2021-03-07T10:40:15Z</time>
      </trkpt>
      <trkpt lat="46.31578" lon="0.32665">
        <ele>169.07505069021</ele>
        <time>2021-03-07T10:40:17Z</time>
      </trkpt>
      <trkpt lat="46.31579" lon="0.32663">
        <ele>169.15315234289</ele>
        <time>2021-03-07T10:40:18Z</time>
      </trkpt>
      <trkpt lat="46.31582" lon="0.32663">
        <ele>168.86310839094</ele>
        <time>2021-03-07T10:40:20Z</time>
      </trkpt>
      <trkpt lat="46.31584" lon="0.32661">
        <ele>168.54054823145</ele>
        <time>2021-03-07T10:40:22Z</time>
      </trkpt>
      <trkpt lat="46.31586" lon="0.32659">
        <ele>168.65700050537</ele>
        <time>2021-03-07T10:40:24Z</time>
      </trkpt>
      <trkpt lat="46.31588" lon="0.32658">
        <ele>169.31434277538</ele>
        <time>2021-03-07T10:40:26Z</time>
      </trkpt>
      <trkpt lat="46.3159" lon="0.32657">
        <ele>169.38179431017</ele>
        <time>2021-03-07T10:40:28Z</time>
      </trkpt>
      <trkpt lat="46.31593" lon="0.32655">
        <ele>169.76059716754</ele>
        <time>2021-03-07T10:40:30Z</time>
      </trkpt>
      <trkpt lat="46.31595" lon="0.32653">
        <ele>169.6288413126</ele>
        <time>2021-03-07T10:40:32Z</time>
      </trkpt>
      <trkpt lat="46.31597" lon="0.32652">
        <ele>169.00027870107</ele>
        <time>2021-03-07T10:40:35Z</time>
      </trkpt>
      <trkpt lat="46.31599" lon="0.3265">
        <ele>169.00948046707</ele>
        <time>2021-03-07T10:40:37Z</time>
      </trkpt>
      <trkpt lat="46.31602" lon="0.32649">
        <ele>169.49522886705</ele>
        <time>2021-03-07T10:40:39Z</time>
      </trkpt>
      <trkpt lat="46.31605" lon="0.32647">
        <ele>169.60113569163</ele>
        <time>2021-03-07T10:40:41Z</time>
      </trkpt>
      <trkpt lat="46.31608" lon="0.32645">
        <ele>169.8778648749</ele>
        <time>2021-03-07T10:40:43Z</time>
      </trkpt>
      <trkpt lat="46.3161" lon="0.32644">
        <ele>169.74477210175</ele>
        <time>2021-03-07T10:40:45Z</time>
      </trkpt>
      <trkpt lat="46.31612" lon="0.32643">
        <ele>169.9094711272</ele>
        <time>2021-03-07T10:40:47Z</time>
      </trkpt>
      <trkpt lat="46.31615" lon="0.32642">
        <ele>169.4006095333</ele>
        <time>2021-03-07T10:40:49Z</time>
      </trkpt>
      <trkpt lat="46.31618" lon="0.32641">
        <ele>170.12454066146</ele>
        <time>2021-03-07T10:40:52Z</time>
      </trkpt>
      <trkpt lat="46.3162" lon="0.32641">
        <ele>170.4588074442</ele>
        <time>2021-03-07T10:40:54Z</time>
      </trkpt>
      <trkpt lat="46.31623" lon="0.32641">
        <ele>169.741019357</ele>
        <time>2021-03-07T10:40:56Z</time>
      </trkpt>
      <trkpt lat="46.31627" lon="0.3264">
        <ele>170.82656611875</ele>
        <time>2021-03-07T10:40:58Z</time>
      </trkpt>
      <trkpt lat="46.31629" lon="0.3264">
        <ele>170.35637272149</ele>
        <time>2021-03-07T10:41:00Z</time>
      </trkpt>
      <trkpt lat="46.31632" lon="0.3264">
        <ele>169.51006825361</ele>
        <time>2021-03-07T10:41:02Z</time>
      </trkpt>
      <trkpt lat="46.31634" lon="0.3264">
        <ele>169.93763699569</ele>
        <time>2021-03-07T10:41:04Z</time>
      </trkpt>
      <trkpt lat="46.31637" lon="0.32639">
        <ele>170.22508336604</ele>
        <time>2021-03-07T10:41:06Z</time>
      </trkpt>
      <trkpt lat="46.3164" lon="0.32638">
        <ele>170.20023793634</ele>
        <time>2021-03-07T10:41:08Z</time>
      </trkpt>
      <trkpt lat="46.31643" lon="0.32639">
        <ele>169.36374658626</ele>
        <time>2021-03-07T10:41:10Z</time>
      </trkpt>
      <trkpt lat="46.31645" lon="0.32638">
        <ele>170.56624703202</ele>
        <time>2021-03-07T10:41:13Z</time>
      </trkpt>
      <trkpt lat="46.31648" lon="0.32638">
        <ele>171.51329623722</ele>
        <time>2021-03-07T10:41:15Z</time>
      </trkpt>
      <trkpt lat="46.3165" lon="0.32637">
        <ele>170.36604813021</ele>
        <time>2021-03-07T10:41:17Z</time>
      </trkpt>
      <trkpt lat="46.31653" lon="0.32637">
        <ele>171.04377206787</ele>
        <time>2021-03-07T10:41:19Z</time>
      </trkpt>
      <trkpt lat="46.31656" lon="0.32637">
        <ele>171.07989526447</ele>
        <time>2021-03-07T10:41:22Z</time>
      </trkpt>
      <trkpt lat="46.31658" lon="0.32637">
        <ele>171.55453831237</ele>
        <time>2021-03-07T10:41:23Z</time>
      </trkpt>
      <trkpt lat="46.31661" lon="0.32637">
        <ele>170.48935972806</ele>
        <time>2021-03-07T10:41:25Z</time>
      </trkpt>
      <trkpt lat="46.31663" lon="0.32636">
        <ele>171.20159821492</ele>
        <time>2021-03-07T10:41:27Z</time>
      </trkpt>
      <trkpt lat="46.31665" lon="0.32636">
        <ele>171.18573730625</ele>
        <time>2021-03-07T10:41:30Z</time>
      </trkpt>
      <trkpt lat="46.31668" lon="0.32636">
        <ele>171.52771619055</ele>
        <time>2021-03-07T10:41:33Z</time>
      </trkpt>
      <trkpt lat="46.31672" lon="0.32635">
        <ele>171.47222637385</ele>
        <time>2021-03-07T10:41:35Z</time>
      </trkpt>
      <trkpt lat="46.31674" lon="0.32635">
        <ele>170.85231301095</ele>
        <time>2021-03-07T10:41:37Z</time>
      </trkpt>
      <trkpt lat="46.31677" lon="0.32635">
        <ele>171.79029744491</ele>
        <time>2021-03-07T10:41:39Z</time>
      </trkpt>
      <trkpt lat="46.31679" lon="0.32634">
        <ele>171.02205860615</ele>
        <time>2021-03-07T10:41:41Z</time>
      </trkpt>
      <trkpt lat="46.31682" lon="0.32633">
        <ele>171.70744642615</ele>
        <time>2021-03-07T10:41:43Z</time>
      </trkpt>
      <trkpt lat="46.31685" lon="0.32633">
        <ele>171.22461180296</ele>
        <time>2021-03-07T10:41:45Z</time>
      </trkpt>
      <trkpt lat="46.31687" lon="0.32632">
        <ele>172.16205513384</ele>
        <time>2021-03-07T10:41:47Z</time>
      </trkpt>
      <trkpt lat="46.3169" lon="0.32632">
        <ele>172.25574613549</ele>
        <time>2021-03-07T10:41:49Z</time>
      </trkpt>
      <trkpt lat="46.31692" lon="0.32631">
        <ele>172.29684113991</ele>
        <time>2021-03-07T10:41:50Z</time>
      </trkpt>
      <trkpt lat="46.31695" lon="0.3263">
        <ele>171.98172113579</ele>
        <time>2021-03-07T10:41:52Z</time>
      </trkpt>
      <trkpt lat="46.31698" lon="0.32629">
        <ele>171.40920689516</ele>
        <time>2021-03-07T10:41:54Z</time>
      </trkpt>
      <trkpt lat="46.31701" lon="0.32629">
        <ele>171.80996528268</ele>
        <time>2021-03-07T10:41:56Z</time>
      </trkpt>
      <trkpt lat="46.31704" lon="0.32629">
        <ele>172.06548583135</ele>
        <time>2021-03-07T10:41:58Z</time>
      </trkpt>
      <trkpt lat="46.31707" lon="0.32627">
        <ele>172.76655397378</ele>
        <time>2021-03-07T10:42:00Z</time>
      </trkpt>
      <trkpt lat="46.3171" lon="0.32626">
        <ele>172.3909009872</ele>
        <time>2021-03-07T10:42:02Z</time>
      </trkpt>
      <trkpt lat="46.31713" lon="0.32625">
        <ele>172.08407923579</ele>
        <time>2021-03-07T10:42:04Z</time>
      </trkpt>
      <trkpt lat="46.31715" lon="0.32625">
        <ele>172.06047034264</ele>
        <time>2021-03-07T10:42:07Z</time>
      </trkpt>
      <trkpt lat="46.31719" lon="0.32624">
        <ele>172.4183232598</ele>
        <time>2021-03-07T10:42:09Z</time>
      </trkpt>
      <trkpt lat="46.31721" lon="0.32624">
        <ele>172.59238021262</ele>
        <time>2021-03-07T10:42:11Z</time>
      </trkpt>
      <trkpt lat="46.31723" lon="0.32623">
        <ele>172.95977841504</ele>
        <time>2021-03-07T10:42:13Z</time>
      </trkpt>
      <trkpt lat="46.31726" lon="0.32624">
        <ele>172.72406489402</ele>
        <time>2021-03-07T10:42:16Z</time>
      </trkpt>
      <trkpt lat="46.31728" lon="0.32625">
        <ele>173.18028279301</ele>
        <time>2021-03-07T10:42:18Z</time>
      </trkpt>
      <trkpt lat="46.3173" lon="0.32626">
        <ele>172.16840101313</ele>
        <time>2021-03-07T10:42:20Z</time>
      </trkpt>
      <trkpt lat="46.31733" lon="0.32626">
        <ele>172.01317740511</ele>
        <time>2021-03-07T10:42:22Z</time>
      </trkpt>
      <trkpt lat="46.31735" lon="0.32626">
        <ele>173.21496842057</ele>
        <time>2021-03-07T10:42:24Z</time>
      </trkpt>
      <trkpt lat="46.31737" lon="0.32627">
        <ele>173.24771540426</ele>
        <time>2021-03-07T10:42:26Z</time>
      </trkpt>
      <trkpt lat="46.3174" lon="0.32628">
        <ele>173.16829207726</ele>
        <time>2021-03-07T10:42:28Z</time>
      </trkpt>
      <trkpt lat="46.31742" lon="0.32628">
        <ele>172.05862843152</ele>
        <time>2021-03-07T10:42:30Z</time>
      </trkpt>
      <trkpt lat="46.31744" lon="0.32629">
        <ele>173.53562068101</ele>
        <time>2021-03-07T10:42:31Z</time>
      </trkpt>
      <trkpt lat="46.31746" lon="0.3263">
        <ele>173.42163515463</ele>
        <time>2021-03-07T10:42:33Z</time>
      </trkpt>
      <trkpt lat="46.31748" lon="0.3263">
        <ele>173.74480792414</ele>
        <time>2021-03-07T10:42:34Z</time>
      </trkpt>
      <trkpt lat="46.31749" lon="0.32632">
        <ele>173.42442350835</ele>
        <time>2021-03-07T10:42:36Z</time>
      </trkpt>
      <trkpt lat="46.31752" lon="0.32633">
        <ele>172.57977804635</ele>
        <time>2021-03-07T10:42:38Z</time>
      </trkpt>
      <trkpt lat="46.31755" lon="0.32634">
        <ele>172.58782248572</ele>
        <time>2021-03-07T10:42:40Z</time>
      </trkpt>
      <trkpt lat="46.31758" lon="0.32635">
        <ele>173.77266144846</ele>
        <time>2021-03-07T10:42:42Z</time>
      </trkpt>
      <trkpt lat="46.3176" lon="0.32636">
        <ele>173.50172352511</ele>
        <time>2021-03-07T10:42:44Z</time>
      </trkpt>
      <trkpt lat="46.31764" lon="0.32637">
        <ele>173.30987579748</ele>
        <time>2021-03-07T10:42:46Z</time>
      </trkpt>
      <trkpt lat="46.31767" lon="0.32636">
        <ele>173.63072474673</ele>
        <time>2021-03-07T10:42:48Z</time>
      </trkpt>
      <trkpt lat="46.3177" lon="0.32636">
        <ele>173.81699412223</ele>
        <time>2021-03-07T10:42:51Z</time>
      </trkpt>
      <trkpt lat="46.31773" lon="0.32636">
        <ele>174.43985713646</ele>
        <time>2021-03-07T10:42:53Z</time>
      </trkpt>
      <trkpt lat="46.31775" lon="0.32637">
        <ele>173.98230533022</ele>
        <time>2021-03-07T10:42:55Z</time>
      </trkpt>
      <trkpt lat="46.31778" lon="0.32637">
        <ele>173.40208125208</ele>
        <time>2021-03-07T10:42:57Z</time>
      </trkpt>
      <trkpt lat="46.3178" lon="0.32638">
        <ele>173.56509634666</ele>
        <time>2021-03-07T10:42:59Z</time>
      </trkpt>
      <trkpt lat="46.31782" lon="0.32638">
        <ele>173.78558188584</ele>
        <time>2021-03-07T10:43:01Z</time>
      </trkpt>
      <trkpt lat="46.31785" lon="0.32639">
        <ele>173.96782694012</ele>
        <time>2021-03-07T10:43:03Z</time>
      </trkpt>
      <trkpt lat="46.31787" lon="0.32639">
        <ele>174.50508406106</ele>
        <time>2021-03-07T10:43:06Z</time>
      </trkpt>
      <trkpt lat="46.3179" lon="0.32639">
        <ele>174.94564217888</ele>
        <time>2021-03-07T10:43:08Z</time>
      </trkpt>
      <trkpt lat="46.31793" lon="0.32638">
        <ele>175.28548438102</ele>
        <time>2021-03-07T10:43:10Z</time>
      </trkpt>
      <trkpt lat="46.31796" lon="0.32638">
        <ele>174.80617763381</ele>
        <time>2021-03-07T10:43:12Z</time>
      </trkpt>
      <trkpt lat="46.31798" lon="0.32638">
        <ele>174.65337838884</ele>
        <time>2021-03-07T10:43:14Z</time>
      </trkpt>
      <trkpt lat="46.31801" lon="0.32638">
        <ele>174.45525951963</ele>
        <time>2021-03-07T10:43:16Z</time>
      </trkpt>
      <trkpt lat="46.31803" lon="0.32638">
        <ele>175.52374323457</ele>
        <time>2021-03-07T10:43:18Z</time>
      </trkpt>
      <trkpt lat="46.31807" lon="0.32638">
        <ele>174.90620433446</ele>
        <time>2021-03-07T10:43:20Z</time>
      </trkpt>
      <trkpt lat="46.31809" lon="0.32637">
        <ele>175.70580752753</ele>
        <time>2021-03-07T10:43:22Z</time>
      </trkpt>
      <trkpt lat="46.31811" lon="0.32638">
        <ele>174.49743039533</ele>
        <time>2021-03-07T10:43:24Z</time>
      </trkpt>
      <trkpt lat="46.31814" lon="0.32637">
        <ele>175.77408466861</ele>
        <time>2021-03-07T10:43:26Z</time>
      </trkpt>
      <trkpt lat="46.31816" lon="0.32637">
        <ele>175.84962996002</ele>
        <time>2021-03-07T10:43:28Z</time>
      </trkpt>
      <trkpt lat="46.31818" lon="0.32638">
        <ele>175.20958439633</ele>
        <time>2021-03-07T10:43:30Z</time>
      </trkpt>
      <trkpt lat="46.31821" lon="0.32638">
        <ele>175.56535371859</ele>
        <time>2021-03-07T10:43:32Z</time>
      </trkpt>
      <trkpt lat="46.31823" lon="0.32638">
        <ele>175.6688616816</ele>
        <time>2021-03-07T10:43:34Z</time>
      </trkpt>
      <trkpt lat="46.31825" lon="0.32638">
        <ele>175.55367408227</ele>
        <time>2021-03-07T10:43:35Z</time>
      </trkpt>
      <trkpt lat="46.31827" lon="0.32637">
        <ele>174.75977187231</ele>
        <time>2021-03-07T10:43:37Z</time>
      </trkpt>
      <trkpt lat="46.3183" lon="0.32637">
        <ele>175.46041023545</ele>
        <time>2021-03-07T10:43:39Z</time>
      </trkpt>
      <trkpt lat="46.31832" lon="0.32638">
        <ele>175.31297143083</ele>
        <time>2021-03-07T10:43:41Z</time>
      </trkpt>
      <trkpt lat="46.31835" lon="0.32638">
        <ele>175.4082662249</ele>
        <time>2021-03-07T10:43:43Z</time>
      </trkpt>
      <trkpt lat="46.31837" lon="0.32639">
        <ele>175.45490912534</ele>
        <time>2021-03-07T10:43:45Z</time>
      </trkpt>
      <trkpt lat="46.3184" lon="0.32639">
        <ele>175.54722363409</ele>
        <time>2021-03-07T10:43:47Z</time>
      </trkpt>
      <trkpt lat="46.31842" lon="0.32639">
        <ele>175.07150284667</ele>
        <time>2021-03-07T10:43:49Z</time>
      </trkpt>
      <trkpt lat="46.31845" lon="0.32639">
        <ele>174.80375571828</ele>
        <time>2021-03-07T10:43:51Z</time>
      </trkpt>
      <trkpt lat="46.31847" lon="0.3264">
        <ele>175.70217929129</ele>
        <time>2021-03-07T10:43:53Z</time>
      </trkpt>
      <trkpt lat="46.3185" lon="0.32642">
        <ele>175.6788542727</ele>
        <time>2021-03-07T10:43:55Z</time>
      </trkpt>
      <trkpt lat="46.31852" lon="0.32643">
        <ele>176.07486496214</ele>
        <time>2021-03-07T10:43:57Z</time>
      </trkpt>
      <trkpt lat="46.31855" lon="0.32644">
        <ele>176.14940069895</ele>
        <time>2021-03-07T10:43:59Z</time>
      </trkpt>
      <trkpt lat="46.31857" lon="0.32645">
        <ele>176.1556361448</ele>
        <time>2021-03-07T10:44:01Z</time>
      </trkpt>
      <trkpt lat="46.31859" lon="0.32645">
        <ele>176.14544287603</ele>
        <time>2021-03-07T10:44:03Z</time>
      </trkpt>
      <trkpt lat="46.31862" lon="0.32646">
        <ele>176.04284102656</ele>
        <time>2021-03-07T10:44:05Z</time>
      </trkpt>
      <trkpt lat="46.31864" lon="0.32645">
        <ele>175.60861623846</ele>
        <time>2021-03-07T10:44:07Z</time>
      </trkpt>
      <trkpt lat="46.31867" lon="0.32644">
        <ele>175.91788933333</ele>
        <time>2021-03-07T10:44:09Z</time>
      </trkpt>
      <trkpt lat="46.31869" lon="0.32642">
        <ele>175.56857931148</ele>
        <time>2021-03-07T10:44:11Z</time>
      </trkpt>
      <trkpt lat="46.31872" lon="0.32642">
        <ele>175.71288789809</ele>
        <time>2021-03-07T10:44:13Z</time>
      </trkpt>
      <trkpt lat="46.31875" lon="0.32641">
        <ele>175.84694674984</ele>
        <time>2021-03-07T10:44:15Z</time>
      </trkpt>
      <trkpt lat="46.31877" lon="0.3264">
        <ele>176.47438952047</ele>
        <time>2021-03-07T10:44:17Z</time>
      </trkpt>
      <trkpt lat="46.3188" lon="0.3264">
        <ele>176.66933912504</ele>
        <time>2021-03-07T10:44:19Z</time>
      </trkpt>
      <trkpt lat="46.31883" lon="0.32639">
        <ele>176.23400402442</ele>
        <time>2021-03-07T10:44:22Z</time>
      </trkpt>
      <trkpt lat="46.31886" lon="0.32638">
        <ele>176.72982605733</ele>
        <time>2021-03-07T10:44:25Z</time>
      </trkpt>
      <trkpt lat="46.31888" lon="0.32637">
        <ele>175.70257914905</ele>
        <time>2021-03-07T10:44:27Z</time>
      </trkpt>
      <trkpt lat="46.31891" lon="0.32637">
        <ele>176.01118535269</ele>
        <time>2021-03-07T10:44:29Z</time>
      </trkpt>
      <trkpt lat="46.31893" lon="0.32637">
        <ele>175.49945071246</ele>
        <time>2021-03-07T10:44:31Z</time>
      </trkpt>
      <trkpt lat="46.31897" lon="0.32638">
        <ele>176.75445849076</ele>
        <time>2021-03-07T10:44:34Z</time>
      </trkpt>
      <trkpt lat="46.31899" lon="0.32639">
        <ele>176.31916249916</ele>
        <time>2021-03-07T10:44:36Z</time>
      </trkpt>
      <trkpt lat="46.319" lon="0.3264">
        <ele>176.70489268843</ele>
        <time>2021-03-07T10:44:39Z</time>
      </trkpt>
      <trkpt lat="46.319" lon="0.32643">
        <ele>175.60033331811</ele>
        <time>2021-03-07T10:44:41Z</time>
      </trkpt>
      <trkpt lat="46.31899" lon="0.32645">
        <ele>176.22293510567</ele>
        <time>2021-03-07T10:44:43Z</time>
      </trkpt>
      <trkpt lat="46.31899" lon="0.32648">
        <ele>176.00267823506</ele>
        <time>2021-03-07T10:44:45Z</time>
      </trkpt>
      <trkpt lat="46.31898" lon="0.32651">
        <ele>176.01822964195</ele>
        <time>2021-03-07T10:44:48Z</time>
      </trkpt>
      <trkpt lat="46.31897" lon="0.32653">
        <ele>176.36041984241</ele>
        <time>2021-03-07T10:44:56Z</time>
      </trkpt>
      <trkpt lat="46.31899" lon="0.32655">
        <ele>176.05507609434</ele>
        <time>2021-03-07T10:45:06Z</time>
      </trkpt>
      <trkpt lat="46.31899" lon="0.32658">
        <ele>176.32099221367</ele>
        <time>2021-03-07T10:45:09Z</time>
      </trkpt>
      <trkpt lat="46.31897" lon="0.3266">
        <ele>176.01905848365</ele>
        <time>2021-03-07T10:45:11Z</time>
      </trkpt>
      <trkpt lat="46.31897" lon="0.32664">
        <ele>176.07181092538</ele>
        <time>2021-03-07T10:45:16Z</time>
      </trkpt>
      <trkpt lat="46.31898" lon="0.32665">
        <ele>176.5224941615</ele>
        <time>2021-03-07T10:45:26Z</time>
      </trkpt>
      <trkpt lat="46.31899" lon="0.32668">
        <ele>175.90967592318</ele>
        <time>2021-03-07T10:45:35Z</time>
      </trkpt>
    </trkseg>
  </trk>
</gpx>